# Wetter Temperatur Luftdruck Luftfeuchtigkeit Sichtweite Windgeschwindigkeit Windrichtung Zeit
1 Clouds 1 1024 63 10000 1.5 100 22:24 24.01.2020
2 Clouds 1 1024 63 10000 2.1 110 21:43 24.01.2020
3 Clouds 1 1024 80 10000 2.1 90 21:20 24.01.2020
4 Clouds 1 1024 80 10000 2.1 90 21:20 24.01.2020
5 Clouds 1 1024 80 10000 2.1 90 20:56 24.01.2020
6 Clouds 1 1023 80 10000 2.1 120 20:38 24.01.2020
7 Clouds 1 1023 80 10000 2.1 120 20:19 24.01.2020
8 Mist 1 1023 57 3000 1.5 10 19:56 24.01.2020
9 Mist 1 1023 57 3000 1.5 10 19:38 24.01.2020
10 Clouds 1 1023 80 10000 2.1 100 19:20 24.01.2020
11 Mist 1 1022 57 2200 1 0 18:43 24.01.2020
12 Clouds 1 1023 80 10000 2.1 130 18:23 24.01.2020
13 Clouds 1 1023 80 10000 1.5 110 17:46 24.01.2020
14 Clouds 1 1023 80 10000 2.1 110 17:23 24.01.2020
15 Clouds 1 1023 80 10000 1.5 90 16:59 24.01.2020
16 Clouds 1 1023 80 10000 1.5 90 16:39 24.01.2020
17 Clouds 1 1023 80 10000 1.5 120 16:20 24.01.2020
18 Clouds 1 1023 80 10000 2.1 140 15:43 24.01.2020
19 Clouds 1 1023 80 10000 1.5 70 15:22 24.01.2020
20 Clouds 1 1023 80 10000 2.1 120 14:57 24.01.2020
21 Clouds 1 1023 80 10000 3.1 140 14:38 24.01.2020
22 Clouds 1 1023 80 10000 3.1 140 14:20 24.01.2020
23 Clouds 1 1024 80 10000 2.6 140 13:42 24.01.2020
24 Clouds 1 1024 80 10000 2.6 120 13:23 24.01.2020
25 Mist 1 1024 92 2000 2.1 260 12:44 24.01.2020
26 Clouds 1 1024 51 10000 2.6 130 12:22 24.01.2020
27 Clouds 1 1024 51 10000 3.6 160 11:57 24.01.2020
28 Fog 0 1024 92 700 0.5 0 11:38 24.01.2020
29 Clouds 0 1024 66 10000 4.1 140 11:18 24.01.2020
30 Clouds 0 1024 66 10000 4.1 140 11:18 24.01.2020
31 Clouds 0 1024 66 10000 4.6 150 10:41 24.01.2020
32 Clouds 0 1024 66 10000 3.6 160 10:20 24.01.2020
33 Clouds 0 1024 66 10000 4.6 160 09:54 24.01.2020
34 Clouds 0 1024 66 10000 4.1 140 09:36 24.01.2020
35 Clouds 0 1024 66 10000 4.1 140 09:18 24.01.2020
36 Mist 0 1024 92 3000 1.5 150 08:39 24.01.2020
37 Mist 0 1024 92 3000 1.5 150 08:19 24.01.2020
38 Clouds 0 1024 74 10000 2.6 160 07:48 24.01.2020
39 Clouds 0 1024 74 10000 2.1 160 07:22 24.01.2020
40 Mist 0 1024 74 4000 1.5 200 06:45 24.01.2020
41 Mist 0 1024 74 3000 1 0 06:24 24.01.2020
42 Fog 0 1024 100 400 1 130 05:37 24.01.2020
43 Clouds 0 1025 74 10000 4.1 140 03:55 24.01.2020
44 Clouds 0 1025 86 10000 4.1 140 02:43 24.01.2020
45 Clouds 0 1025 86 10000 3.6 130 02:23 24.01.2020
46 Clouds 0 1025 92 10000 1.5 130 01:39 24.01.2020
47 Clouds 0 1026 76 10000 3.1 130 01:19 24.01.2020
48 Clouds 0 1026 92 10000 2.1 140 00:19 24.01.2020
49 Clouds 0 1026 92 10000 2.1 140 23:45 23.01.2020
50 Clear 0 1027 92 10000 1.5 130 23:27 23.01.2020
51 Clouds 1 1027 92 10000 1 0 22:59 23.01.2020
52 Clouds 1 1027 92 10000 1.5 90 22:37 23.01.2020
53 Clouds 1 1027 92 10000 1.5 90 22:37 23.01.2020
54 Clouds 1 1027 92 10000 1.5 90 22:19 23.01.2020
55 Clouds 1 1027 92 10000 1.5 90 22:19 23.01.2020
56 Clouds 1 1027 92 10000 1.5 90 21:57 23.01.2020
57 Clouds 1 1027 86 10000 2.6 120 21:38 23.01.2020
58 Clouds 1 1027 77 10000 1.5 100 21:20 23.01.2020
59 Clouds 1 1028 86 10000 2.1 120 20:58 23.01.2020
60 Clouds 1 1027 77 9000 2.6 110 20:38 23.01.2020
61 Clouds 2 1028 80 10000 3.1 120 20:19 23.01.2020
62 Clouds 2 1028 78 10000 2.6 120 19:54 23.01.2020
63 Clouds 2 1027 78 9000 2.1 120 19:36 23.01.2020
64 Clouds 2 1028 78 10000 3.6 130 19:18 23.01.2020
65 Clouds 2 1028 78 10000 2.1 110 18:41 23.01.2020
66 Clouds 2 1028 78 10000 2.1 130 18:20 23.01.2020
67 Clouds 2 1028 78 10000 3.1 140 17:58 23.01.2020
68 Clouds 2 1028 78 7000 2.1 110 17:40 23.01.2020
69 Clouds 2 1029 67 10000 2.6 130 17:19 23.01.2020
70 Clouds 2 1029 67 10000 3.1 140 16:56 23.01.2020
71 Clouds 2 1028 67 7000 3.6 110 16:36 23.01.2020
72 Clouds 3 1029 67 10000 2.6 130 16:18 23.01.2020
73 Clouds 3 1030 67 10000 2.6 110 15:54 23.01.2020
74 Clouds 3 1030 67 10000 3.6 130 15:36 23.01.2020
75 Clouds 3 1030 86 10000 4.1 150 15:18 23.01.2020
76 Clouds 3 1030 86 10000 4.1 150 14:54 23.01.2020
77 Clouds 3 1030 67 8000 3.1 130 14:36 23.01.2020
78 Clouds 3 1030 65 8000 3.1 130 14:18 23.01.2020
79 Clouds 3 1031 65 8000 3.1 130 13:39 23.01.2020
80 Clouds 3 1031 65 8000 3.1 130 13:39 23.01.2020
81 Clouds 3 1032 86 10000 3.6 130 13:20 23.01.2020
82 Clouds 3 1032 65 10000 3.6 110 12:47 23.01.2020
83 Clouds 3 1032 86 10000 4.1 120 12:25 23.01.2020
84 Clouds 3 1033 86 10000 3.6 140 11:59 23.01.2020
85 Clouds 3 1032 93 8000 3.1 110 11:39 23.01.2020
86 Clouds 3 1033 86 10000 3.1 140 11:19 23.01.2020
87 Clouds 3 1033 86 10000 2.1 140 10:45 23.01.2020
88 Clouds 2 1033 86 10000 2.1 140 10:23 23.01.2020
89 Clouds 2 1033 93 10000 1.5 120 09:59 23.01.2020
90 Clouds 2 1033 93 10000 1.5 120 09:39 23.01.2020
91 Clouds 2 1033 93 10000 1.5 90 09:20 23.01.2020
92 Clouds 2 1034 93 10000 1 0 08:43 23.01.2020
93 Clouds 2 1033 93 10000 1 0 08:24 23.01.2020
94 Clouds 2 1033 93 10000 1.5 90 07:51 23.01.2020
95 Clouds 2 1034 93 10000 1 60 07:27 23.01.2020
96 Clouds 1 1034 93 10000 1 0 06:55 23.01.2020
97 Clouds 2 1034 93 10000 1 0 06:25 23.01.2020
98 Clouds 2 1034 93 10000 1.5 60 05:59 23.01.2020
99 Clouds 2 1035 93 10000 1.5 120 04:25 23.01.2020
100 Clouds 1 1036 100 9000 0.5 0 02:50 23.01.2020
101 Clouds 1 1036 100 9000 1.5 90 01:51 23.01.2020
102 Clouds 2 1037 100 7000 1.5 110 00:44 23.01.2020
103 Clouds 2 1037 100 7000 1.5 110 00:22 23.01.2020
104 Clouds 2 1037 100 6000 1.5 60 23:46 22.01.2020
105 Clouds 2 1037 100 6000 1 0 23:28 22.01.2020
106 Clouds 2 1037 100 6000 1 160 22:43 22.01.2020
107 Clouds 2 1036 100 6000 1.5 150 22:25 22.01.2020
108 Clouds 2 1036 76 6000 1.5 130 21:59 22.01.2020
109 Mist 2 1036 93 1800 1.5 170 21:38 22.01.2020
110 Mist 2 1036 93 1800 1.5 170 21:38 22.01.2020
111 Mist 2 1036 93 1800 1.5 170 21:19 22.01.2020
112 Mist 2 1036 93 1800 1.5 170 21:19 22.01.2020
113 Mist 2 1037 100 3500 1.5 60 20:55 22.01.2020
114 Drizzle 2 1036 93 1000 0.5 0 20:36 22.01.2020
115 Drizzle 2 1036 93 800 2.1 90 20:18 22.01.2020
116 Mist 2 1036 100 2500 1.5 60 19:54 22.01.2020
117 Drizzle 2 1036 93 2000 1 30 19:36 22.01.2020
118 Mist 2 1036 77 2500 1.5 40 19:18 22.01.2020
119 Mist 2 1036 77 2500 1 90 18:54 22.01.2020
120 Mist 2 1036 77 2500 1 60 18:36 22.01.2020
121 Mist 2 1036 77 2500 1 60 18:18 22.01.2020
122 Drizzle 2 1035 93 1800 0.5 0 17:39 22.01.2020
123 Mist 2 1036 73 1600 0.5 0 17:20 22.01.2020
124 Mist 2 1036 73 1600 0.5 60 16:57 22.01.2020
125 Mist 2 1036 93 2500 0.5 160 16:39 22.01.2020
126 Mist 2 1036 73 2200 0.5 0 16:20 22.01.2020
127 Mist 2 1036 73 2000 0.5 0 15:55 22.01.2020
128 Mist 2 1036 100 1900 1 0 15:37 22.01.2020
129 Mist 2 1036 100 1900 1 0 15:18 22.01.2020
130 Mist 1 1036 93 2500 1 100 14:39 22.01.2020
131 Mist 1 1036 68 2300 0.5 0 14:20 22.01.2020
132 Mist 1 1036 68 2200 1 0 13:57 22.01.2020
133 Mist 1 1036 68 2500 1 0 13:37 22.01.2020
134 Mist 1 1037 69 2700 1 0 13:19 22.01.2020
135 Mist 0 1037 69 2500 1 0 12:57 22.01.2020
136 Mist 0 1037 69 2500 1 0 12:38 22.01.2020
137 Mist 0 1037 100 2200 1.5 230 12:19 22.01.2020
138 Mist -1 1037 100 2400 1.5 150 11:57 22.01.2020
139 Mist -1 1037 100 2400 1.5 150 11:39 22.01.2020
140 Mist -1 1037 92 2500 1 0 11:19 22.01.2020
141 Mist -2 1037 100 1500 2.1 180 10:45 22.01.2020
142 Fog -2 1037 100 700 1 190 10:21 22.01.2020
143 Fog -2 1037 100 900 0.5 0 09:59 22.01.2020
144 Fog -2 1037 100 900 0.5 0 09:40 22.01.2020
145 Fog -2 1037 92 500 2.6 10 09:22 22.01.2020
146 Fog -3 1036 100 300 1 0 08:56 22.01.2020
147 Fog -3 1036 100 300 0.5 0 08:37 22.01.2020
148 Fog -3 1036 100 300 0.5 0 08:19 22.01.2020
149 Fog -3 1036 100 300 1.5 210 07:44 22.01.2020
150 Fog -3 1036 100 500 1.5 170 07:26 22.01.2020
151 Fog -3 1036 92 100 0.5 20 06:37 22.01.2020
152 Clouds -3 1037 92 10000 1 60 06:18 22.01.2020
153 Clouds -3 1037 92 10000 1 30 04:27 22.01.2020
154 Fog -3 1038 100 700 2.1 270 03:27 22.01.2020
155 Clear -3 1038 100 10000 1 40 02:48 22.01.2020
156 Clear -3 1038 92 10000 2.6 110 01:30 22.01.2020
157 Clear -2 1038 92 10000 1 30 00:40 22.01.2020
158 Clear -2 1038 92 10000 1 0 00:19 22.01.2020
159 Clear -2 1038 86 10000 1 200 23:37 21.01.2020
160 Clear -2 1038 100 10000 4.1 150 23:37 21.01.2020
161 Clear -2 1038 100 10000 4.1 150 23:19 21.01.2020
162 Clear -2 1039 92 10000 1.5 140 22:42 21.01.2020
163 Clear -2 1039 92 10000 0.5 70 22:24 21.01.2020
164 Clear -2 1039 92 10000 1.16 170 21:59 21.01.2020
165 Clear -1 1039 100 10000 1 190 21:40 21.01.2020
166 Clear -1 1039 92 10000 0.5 0 21:21 21.01.2020
167 Clear -1 1039 100 10000 1 0 20:59 21.01.2020
168 Clear -1 1039 92 10000 2.6 60 20:39 21.01.2020
169 Clouds -1 1039 92 10000 2.6 60 20:20 21.01.2020
170 Clouds -1 1039 92 10000 0.5 0 19:58 21.01.2020
171 Clouds -1 1039 92 10000 0.5 0 19:58 21.01.2020
172 Clouds -1 1039 92 10000 0.5 0 19:40 21.01.2020
173 Clouds 0 1039 67 10000 2.1 60 19:21 21.01.2020
174 Rain 0 1039 67 10000 1 40 18:57 21.01.2020
175 Rain 0 1039 67 10000 1 40 18:39 21.01.2020
176 Rain 1 1040 74 10000 1 0 18:21 21.01.2020
177 Clouds 2 1040 74 10000 0.5 0 17:59 21.01.2020
178 Clouds 2 1040 74 10000 0.5 0 17:40 21.01.2020
179 Clouds 3 1040 69 10000 1 0 17:18 21.01.2020
180 Clouds 3 1040 69 10000 1 0 17:18 21.01.2020
181 Clouds 4 1040 65 10000 0.75 210 16:55 21.01.2020
182 Clouds 4 1040 74 10000 1 290 16:36 21.01.2020
183 Clouds 5 1040 56 10000 0.5 170 16:18 21.01.2020
184 Clouds 5 1040 69 10000 1.5 0 15:39 21.01.2020
185 Clouds 5 1040 60 10000 0.5 0 15:20 21.01.2020
186 Clouds 5 1041 60 10000 1 0 14:54 21.01.2020
187 Clouds 5 1041 69 10000 0.5 80 14:36 21.01.2020
188 Clear 5 1041 57 10000 1.5 40 14:18 21.01.2020
189 Clouds 4 1041 57 10000 1.5 340 13:38 21.01.2020
190 Clear 4 1042 69 10000 1.5 0 13:18 21.01.2020
191 Clear 3 1042 74 10000 2.1 120 12:43 21.01.2020
192 Clear 3 1043 74 10000 2.1 110 12:24 21.01.2020
193 Clear 2 1043 74 10000 0.5 0 11:56 21.01.2020
194 Clouds 2 1043 57 10000 2.6 120 11:38 21.01.2020
195 Clear 2 1043 86 10000 0.5 0 11:38 21.01.2020
196 Clear 1 1043 86 10000 0.5 0 11:19 21.01.2020
197 Clear 0 1043 76 10000 1 0 10:43 21.01.2020
198 Clear -1 1043 92 10000 2.1 130 10:23 21.01.2020
199 Clear -2 1043 92 10000 2.6 140 09:58 21.01.2020
200 Clear -2 1043 92 10000 2.6 140 09:40 21.01.2020
201 Clear -2 1043 92 10000 1.5 130 09:21 21.01.2020
202 Clear -3 1043 92 10000 1 0 08:47 21.01.2020
203 Clear -3 1043 92 10000 3.6 140 08:27 21.01.2020
204 Clear -3 1043 92 10000 1 0 07:57 21.01.2020
205 Clear -3 1043 92 10000 1 0 07:38 21.01.2020
206 Clear -3 1043 92 10000 1 0 07:19 21.01.2020
207 Clear -3 1043 92 10000 1 0 06:45 21.01.2020
208 Clear -3 1043 92 10000 0.5 0 06:23 21.01.2020
209 Clear -3 1043 92 10000 0.5 0 06:23 21.01.2020
210 Clear -2 1043 92 10000 1 130 05:41 21.01.2020
211 Clear -2 1044 92 10000 1.5 120 04:39 21.01.2020
212 Clear -1 1045 100 10000 1 0 02:55 21.01.2020
213 Clear -1 1045 92 10000 1.25 120 01:47 21.01.2020
214 Mist -1 1045 100 3000 1.5 0 00:57 21.01.2020
215 Fog -1 1045 92 500 1 130 00:35 21.01.2020
216 Clear 0 1045 86 10000 1 0 23:57 20.01.2020
217 Fog 0 1045 92 100 0.5 40 23:37 20.01.2020
218 Clear 0 1045 82 10000 1.5 0 23:18 20.01.2020
219 Clear 0 1045 82 10000 1.5 0 23:18 20.01.2020
220 Clear 0 1046 82 10000 2.1 60 22:56 20.01.2020
221 Fog 0 1045 100 200 1 0 22:37 20.01.2020
222 Clear 0 1046 92 10000 0.5 0 22:19 20.01.2020
223 Clear 1 1046 82 10000 1 0 21:57 20.01.2020
224 Fog 0 1045 92 200 1.5 160 21:37 20.01.2020
225 Clear 1 1046 100 10000 1 0 21:37 20.01.2020
226 Clear 1 1046 100 10000 1 0 21:18 20.01.2020
227 Fog 1 1045 92 700 0.5 10 20:55 20.01.2020
228 Mist 1 1045 83 3500 0.5 70 20:36 20.01.2020
229 Mist 1 1045 80 3500 0.5 70 20:18 20.01.2020
230 Clouds 2 1046 80 10000 0.5 0 19:56 20.01.2020
231 Mist 2 1045 80 4800 0.5 320 19:37 20.01.2020
232 Clouds 2 1046 80 10000 1.5 60 19:18 20.01.2020
233 Clouds 2 1046 80 6000 0.5 140 18:43 20.01.2020
234 Clouds 3 1046 93 10000 1 0 18:22 20.01.2020
235 Clouds 3 1046 93 10000 1 0 17:41 20.01.2020
236 Clouds 4 1046 86 10000 0.5 360 17:20 20.01.2020
237 Clouds 4 1046 80 10000 1.5 350 16:59 20.01.2020
238 Clouds 4 1046 86 6000 1 29 16:39 20.01.2020
239 Clouds 5 1046 75 10000 1 0 16:19 20.01.2020
240 Clouds 5 1046 80 10000 0.5 0 16:19 20.01.2020
241 Clouds 5 1046 80 10000 0.5 0 16:19 20.01.2020
242 Clouds 5 1046 80 10000 0.5 0 16:19 20.01.2020
243 Clouds 5 1046 75 10000 1 0 16:19 20.01.2020
244 Clouds 5 1046 80 10000 0.5 0 15:56 20.01.2020
245 Mist 5 1046 80 5000 1 50 15:38 20.01.2020
246 Clouds 5 1047 80 10000 0.5 0 15:20 20.01.2020
247 Clouds 5 1047 86 10000 1 0 14:41 20.01.2020
248 Mist 5 1047 86 4000 1 350 14:23 20.01.2020
249 Clouds 4 1048 93 6000 1.5 90 13:58 20.01.2020
250 Clouds 4 1048 100 6000 1 0 13:40 20.01.2020
251 Clouds 4 1048 100 6000 1 0 13:22 20.01.2020
252 Mist 4 1048 93 5000 1 0 12:47 20.01.2020
253 Mist 3 1048 100 3500 1 0 12:28 20.01.2020
254 Mist 3 1048 100 3500 1 0 12:28 20.01.2020
255 Mist 3 1048 100 3000 1.5 40 11:59 20.01.2020
256 Mist 3 1048 100 1200 1 0 11:40 20.01.2020
257 Mist 3 1048 100 1200 1 0 11:21 20.01.2020
258 Fog 2 1048 100 250 1 0 10:55 20.01.2020
259 Fog 2 1048 100 200 1 330 10:37 20.01.2020
260 Fog 2 1048 100 250 0.5 50 10:37 20.01.2020
261 Fog 2 1048 100 250 0.5 50 10:18 20.01.2020
262 Fog 2 1047 100 150 1 0 09:40 20.01.2020
263 Fog 2 1047 88 500 1.5 110 09:21 20.01.2020
264 Fog 2 1047 88 250 1 150 08:49 20.01.2020
265 Fog 2 1047 88 150 2.6 150 08:30 20.01.2020
266 Fog 2 1046 93 300 2.1 250 07:53 20.01.2020
267 Mist 2 1047 92 3500 2.1 60 07:30 20.01.2020
268 Mist 2 1046 100 3800 1 0 06:59 20.01.2020
269 Mist 2 1046 92 3800 1.5 140 06:30 20.01.2020
270 Mist 2 1046 92 3500 1 40 05:44 20.01.2020
271 Clouds 2 1046 100 8000 1.5 300 05:25 20.01.2020
272 Clouds 2 1046 94 10000 3.1 260 04:49 20.01.2020
273 Clouds 1 1046 94 7000 1 0 03:30 20.01.2020
274 Clouds 1 1045 93 7000 0.5 0 01:58 20.01.2020
275 Snow 1 1045 93 4800 0.5 50 01:38 20.01.2020
276 Clouds 1 1046 90 10000 1.5 280 00:46 20.01.2020
277 Clouds 1 1045 100 10000 0.5 0 00:26 20.01.2020
278 Clouds 2 1045 100 10000 0.5 350 23:54 19.01.2020
279 Clear 1 1045 93 10000 2.1 290 23:36 19.01.2020
280 Clouds 2 1045 93 10000 0.5 0 23:18 19.01.2020
281 Clouds 2 1045 100 10000 1 0 22:54 19.01.2020
282 Clouds 2 1044 93 10000 1.5 10 22:36 19.01.2020
283 Clouds 2 1044 93 10000 1.5 10 22:18 19.01.2020
284 Clouds 2 1044 100 10000 3.1 350 21:55 19.01.2020
285 Clouds 2 1044 100 10000 3.1 350 21:55 19.01.2020
286 Clouds 2 1044 93 10000 2.1 350 21:36 19.01.2020
287 Clouds 2 1044 93 10000 2.6 300 21:36 19.01.2020
288 Clouds 3 1043 93 10000 2.1 340 21:18 19.01.2020
289 Clouds 3 1043 93 10000 2.1 340 20:55 19.01.2020
290 Clouds 3 1043 93 10000 2.1 360 20:37 19.01.2020
291 Clouds 3 1043 93 10000 2.1 330 20:18 19.01.2020
292 Clouds 3 1043 93 10000 2.1 330 19:54 19.01.2020
293 Clouds 3 1042 93 10000 0.5 0 19:36 19.01.2020
294 Clouds 4 1042 93 10000 0.5 350 19:18 19.01.2020
295 Clouds 4 1042 93 10000 0.5 350 18:55 19.01.2020
296 Clouds 4 1042 93 10000 1.5 340 18:36 19.01.2020
297 Clouds 4 1042 93 10000 1.5 340 18:18 19.01.2020
298 Drizzle 5 1041 93 10000 2.1 330 17:57 19.01.2020
299 Clouds 5 1041 86 10000 3.1 340 17:38 19.01.2020
300 Drizzle 5 1041 93 10000 2.1 340 17:19 19.01.2020
301 Clouds 5 1040 93 10000 2.1 340 16:57 19.01.2020
302 Rain 5 1040 86 10000 2.1 330 16:37 19.01.2020
303 Rain 5 1040 86 10000 2.1 330 16:37 19.01.2020
304 Clouds 5 1039 86 10000 2.6 330 16:19 19.01.2020
305 Drizzle 5 1039 86 10000 1.5 10 15:55 19.01.2020
306 Clouds 5 1039 86 10000 3.6 340 15:37 19.01.2020
307 Drizzle 5 1039 86 10000 3.1 310 15:18 19.01.2020
308 Clouds 5 1038 86 10000 3.1 320 14:56 19.01.2020
309 Clouds 5 1039 86 10000 2.1 350 14:37 19.01.2020
310 Drizzle 5 1038 93 10000 3.1 320 14:18 19.01.2020
311 Drizzle 5 1038 93 10000 3.1 320 14:18 19.01.2020
312 Clouds 4 1038 86 10000 2.6 330 13:54 19.01.2020
313 Clouds 5 1038 93 10000 3.6 320 13:36 19.01.2020
314 Clouds 4 1038 86 9000 2.6 340 13:18 19.01.2020
315 Clouds 4 1038 86 10000 3.1 310 12:42 19.01.2020
316 Clouds 4 1038 93 10000 1 0 12:23 19.01.2020
317 Clouds 4 1038 93 10000 1.5 320 11:57 19.01.2020
318 Clouds 3 1038 93 10000 3.1 290 11:39 19.01.2020
319 Clouds 3 1037 93 10000 2.6 330 11:19 19.01.2020
320 Clouds 3 1037 93 10000 2.6 310 10:55 19.01.2020
321 Clouds 3 1036 93 10000 1 0 10:37 19.01.2020
322 Clouds 2 1036 93 10000 1 0 10:18 19.01.2020
323 Clouds 2 1035 93 8000 1 340 09:41 19.01.2020
324 Clouds 2 1035 100 8000 0.5 0 09:23 19.01.2020
325 Clouds 1 1034 100 10000 1 0 08:58 19.01.2020
326 Clouds 2 1034 93 10000 3.1 280 08:39 19.01.2020
327 Rain 2 1034 93 10000 1.5 320 08:20 19.01.2020
328 Clouds 2 1034 93 10000 1 0 07:42 19.01.2020
329 Clouds 2 1033 93 10000 1.5 330 07:21 19.01.2020
330 Clouds 2 1033 93 10000 4.1 270 06:50 19.01.2020
331 Clouds 2 1032 89 10000 3.6 270 05:41 19.01.2020
332 Clouds 2 1031 100 10000 0.5 0 02:44 19.01.2020
333 Clouds 2 1031 100 10000 1 180 02:21 19.01.2020
334 Clouds 2 1030 93 10000 1 0 01:25 19.01.2020
335 Rain 2 1030 93 8000 2.1 20 00:50 19.01.2020
336 Clouds 3 1029 86 10000 3.1 310 00:29 19.01.2020
337 Clouds 3 1029 86 10000 3.1 310 23:58 18.01.2020
338 Clouds 3 1029 86 10000 3.1 310 23:40 18.01.2020
339 Rain 3 1029 93 10000 5.1 310 23:21 18.01.2020
340 Clouds 3 1029 93 10000 2.1 320 22:55 18.01.2020
341 Rain 3 1029 93 8000 4.1 260 22:37 18.01.2020
342 Rain 3 1029 93 8000 4.1 260 22:37 18.01.2020
343 Clouds 3 1029 86 3900 6.2 290 22:19 18.01.2020
344 Clouds 3 1029 86 3900 6.2 290 21:57 18.01.2020
345 Clouds 3 1029 86 3900 6.2 290 21:37 18.01.2020
346 Rain 3 1028 75 10000 6.7 290 21:19 18.01.2020
347 Clouds 4 1028 80 10000 2.6 260 20:43 18.01.2020
348 Clouds 4 1027 80 10000 3.1 260 20:21 18.01.2020
349 Clouds 4 1027 80 10000 4.1 250 19:59 18.01.2020
350 Clouds 4 1027 80 10000 4.1 250 19:40 18.01.2020
351 Clouds 4 1027 75 10000 4.1 250 19:22 18.01.2020
352 Clouds 4 1027 72 10000 4.1 250 18:42 18.01.2020
353 Clouds 5 1027 75 10000 3.1 270 18:22 18.01.2020
354 Clouds 5 1026 70 10000 4.1 260 17:56 18.01.2020
355 Clouds 5 1026 70 10000 5.1 270 17:37 18.01.2020
356 Clouds 5 1026 70 10000 5.1 270 17:19 18.01.2020
357 Clouds 6 1026 70 10000 6.2 270 16:55 18.01.2020
358 Clouds 6 1026 70 10000 4.6 270 16:36 18.01.2020
359 Clouds 6 1026 70 10000 4.6 270 16:18 18.01.2020
360 Clouds 6 1025 70 10000 5.1 280 15:42 18.01.2020
361 Clouds 6 1025 70 10000 6.2 280 15:24 18.01.2020
362 Clouds 6 1025 75 10000 6.2 270 14:58 18.01.2020
363 Clouds 6 1025 70 10000 6.7 280 14:39 18.01.2020
364 Rain 6 1025 81 10000 5.7 260 14:18 18.01.2020
365 Rain 6 1025 75 10000 6.7 240 13:45 18.01.2020
366 Clouds 6 1025 75 10000 6.7 250 13:27 18.01.2020
367 Clouds 6 1025 81 10000 5.1 240 12:59 18.01.2020
368 Rain 5 1025 86 10000 6.2 250 12:40 18.01.2020
369 Rain 5 1025 86 10000 6.2 250 12:21 18.01.2020
370 Rain 5 1025 80 10000 5.7 260 11:44 18.01.2020
371 Rain 5 1025 75 10000 6.2 250 11:24 18.01.2020
372 Rain 5 1024 86 10000 3.6 230 10:57 18.01.2020
373 Clouds 5 1024 75 10000 4.1 240 10:38 18.01.2020
374 Rain 5 1024 80 10000 3.6 230 10:20 18.01.2020
375 Rain 5 1024 80 10000 3.6 230 10:20 18.01.2020
376 Rain 5 1024 80 10000 3.6 230 10:20 18.01.2020
377 Rain 5 1024 80 10000 3.6 220 09:49 18.01.2020
378 Rain 4 1024 86 10000 3.1 210 09:31 18.01.2020
379 Clouds 4 1023 86 10000 3.1 190 08:57 18.01.2020
380 Clouds 4 1023 75 10000 3.1 220 08:39 18.01.2020
381 Clouds 4 1023 86 10000 3.1 190 08:19 18.01.2020
382 Rain 4 1023 80 10000 2.6 190 07:52 18.01.2020
383 Clouds 4 1023 80 10000 3.1 190 07:32 18.01.2020
384 Clouds 4 1023 80 10000 3.1 190 06:48 18.01.2020
385 Clouds 4 1023 80 10000 3.6 190 06:18 18.01.2020
386 Clouds 4 1023 80 10000 3.1 180 05:30 18.01.2020
387 Clouds 4 1022 86 10000 3.6 200 03:39 18.01.2020
388 Clouds 4 1022 80 10000 3.1 210 02:20 18.01.2020
389 Clouds 5 1021 80 10000 4.1 220 01:36 18.01.2020
390 Clouds 5 1021 80 10000 3.6 270 00:38 18.01.2020
391 Clouds 5 1021 80 10000 6.2 250 00:19 18.01.2020
392 Clouds 5 1020 80 10000 5.1 250 23:44 17.01.2020
393 Clouds 6 1020 75 10000 6.2 250 23:21 17.01.2020
394 Clouds 6 1020 81 10000 4.6 250 22:59 17.01.2020
395 Clouds 6 1020 81 10000 4.6 250 22:40 17.01.2020
396 Clouds 6 1019 75 10000 5.7 260 22:19 17.01.2020
397 Clouds 7 1019 81 10000 6.2 260 21:43 17.01.2020
398 Clouds 7 1019 70 10000 8.2 250 21:24 17.01.2020
399 Clouds 7 1018 81 10000 6.2 240 20:59 17.01.2020
400 Clouds 7 1018 81 10000 6.2 240 20:41 17.01.2020
401 Clouds 7 1018 81 10000 4.1 220 20:20 17.01.2020
402 Clouds 7 1017 87 10000 3.6 220 19:57 17.01.2020
403 Clouds 8 1017 87 10000 3.6 220 19:38 17.01.2020
404 Clouds 8 1017 100 10000 3.1 190 19:20 17.01.2020
405 Clouds 8 1017 100 10000 3.1 190 18:58 17.01.2020
406 Clouds 8 1017 100 10000 3.1 190 18:58 17.01.2020
407 Clouds 8 1016 76 10000 5.1 230 18:39 17.01.2020
408 Clouds 8 1016 93 10000 3.1 190 18:21 17.01.2020
409 Rain 8 1016 93 10000 3.6 200 17:40 17.01.2020
410 Rain 9 1016 93 10000 4.6 200 17:22 17.01.2020
411 Rain 9 1015 87 10000 3.1 180 16:57 17.01.2020
412 Rain 9 1015 87 10000 3.1 160 16:39 17.01.2020
413 Rain 9 1015 87 10000 3.1 160 16:19 17.01.2020
414 Clouds 9 1015 76 10000 3.6 230 15:45 17.01.2020
415 Rain 9 1015 87 10000 3.1 190 15:26 17.01.2020
416 Rain 9 1015 81 10000 3.6 190 14:54 17.01.2020
417 Clouds 9 1014 76 10000 3.6 210 14:36 17.01.2020
418 Rain 9 1015 71 10000 4.6 200 14:18 17.01.2020
419 Rain 9 1015 76 10000 3.6 200 13:38 17.01.2020
420 Clouds 9 1015 71 10000 4.1 160 13:19 17.01.2020
421 Clouds 10 1015 71 10000 4.1 200 12:45 17.01.2020
422 Clouds 10 1016 71 10000 4.6 150 12:22 17.01.2020
423 Clouds 10 1016 71 10000 5.1 150 11:41 17.01.2020
424 Clouds 9 1017 70 10000 2.1 140 11:19 17.01.2020
425 Clouds 9 1016 70 10000 1.5 100 10:54 17.01.2020
426 Clouds 9 1016 70 10000 4.1 220 10:36 17.01.2020
427 Clouds 9 1016 70 10000 3.6 150 10:18 17.01.2020
428 Clouds 8 1016 70 10000 3.6 120 09:41 17.01.2020
429 Clouds 8 1017 75 10000 4.1 130 09:20 17.01.2020
430 Clouds 8 1017 75 10000 5.1 140 08:55 17.01.2020
431 Clouds 8 1016 75 10000 4.6 150 08:37 17.01.2020
432 Clouds 8 1017 75 10000 3.6 120 08:18 17.01.2020
433 Clouds 8 1017 81 10000 3.1 120 07:43 17.01.2020
434 Clouds 8 1017 81 10000 3.1 120 07:24 17.01.2020
435 Clouds 7 1017 81 10000 3.6 130 06:47 17.01.2020
436 Clouds 7 1017 75 10000 4.1 130 06:29 17.01.2020
437 Clear 8 1019 75 10000 2.6 120 04:26 17.01.2020
438 Clouds 8 1019 75 10000 2.1 140 02:56 17.01.2020
439 Clouds 8 1019 75 10000 2.1 140 02:56 17.01.2020
440 Clouds 8 1020 75 10000 2.1 120 02:32 17.01.2020
441 Clouds 9 1020 75 10000 2.1 120 01:44 17.01.2020
442 Clouds 9 1020 70 10000 3.1 140 01:22 17.01.2020
443 Clouds 9 1020 70 10000 3.1 140 00:37 17.01.2020
444 Clouds 9 1020 70 10000 3.1 140 00:19 17.01.2020
445 Clouds 9 1021 71 10000 4.6 130 23:41 16.01.2020
446 Clouds 9 1021 71 10000 4.6 130 23:22 16.01.2020
447 Clouds 9 1021 76 10000 4.6 120 22:41 16.01.2020
448 Clouds 9 1022 76 10000 4.6 130 22:21 16.01.2020
449 Clouds 9 1022 81 10000 4.1 120 21:57 16.01.2020
450 Clouds 9 1022 76 10000 6.2 130 21:38 16.01.2020
451 Clouds 9 1022 76 10000 6.2 130 21:19 16.01.2020
452 Clouds 9 1023 76 10000 5.1 130 20:58 16.01.2020
453 Clouds 9 1022 75 10000 2.1 130 20:39 16.01.2020
454 Clear 9 1023 76 10000 5.1 130 20:19 16.01.2020
455 Clear 9 1023 76 10000 4.1 130 19:56 16.01.2020
456 Clouds 9 1023 81 10000 3.1 120 19:38 16.01.2020
457 Clear 9 1023 76 10000 3.1 120 19:19 16.01.2020
458 Clear 9 1023 71 10000 2.1 110 18:55 16.01.2020
459 Clouds 9 1023 81 10000 2.1 130 18:37 16.01.2020
460 Clouds 9 1023 76 10000 2.1 130 18:18 16.01.2020
461 Clouds 10 1023 76 10000 2.1 130 17:42 16.01.2020
462 Clear 10 1024 71 10000 4.1 140 17:23 16.01.2020
463 Clear 11 1024 66 10000 4.6 160 16:57 16.01.2020
464 Clouds 11 1023 66 10000 3.6 150 16:39 16.01.2020
465 Clouds 11 1024 62 10000 5.1 170 16:21 16.01.2020
466 Clouds 11 1024 62 10000 5.1 170 15:55 16.01.2020
467 Clouds 12 1024 62 10000 4.6 170 15:37 16.01.2020
468 Clouds 12 1025 66 10000 4.6 170 15:18 16.01.2020
469 Clouds 12 1025 66 10000 4.6 170 14:41 16.01.2020
470 Clouds 12 1025 66 10000 5.7 180 14:23 16.01.2020
471 Clouds 11 1025 62 10000 3.6 200 13:46 16.01.2020
472 Clouds 11 1026 66 10000 5.7 180 13:28 16.01.2020
473 Clouds 11 1026 71 10000 5.1 160 12:57 16.01.2020
474 Clouds 10 1025 71 10000 3.1 170 12:39 16.01.2020
475 Clouds 10 1026 76 10000 3.6 130 12:20 16.01.2020
476 Clouds 9 1026 81 10000 2.6 130 11:42 16.01.2020
477 Clouds 9 1026 81 10000 2.6 130 11:42 16.01.2020
478 Clouds 9 1027 81 10000 3.6 130 11:24 16.01.2020
479 Clear 7 1027 81 10000 1.5 130 10:56 16.01.2020
480 Clear 7 1027 87 10000 2.6 110 10:37 16.01.2020
481 Clear 6 1027 87 10000 2.6 110 10:19 16.01.2020
482 Clouds 5 1026 86 10000 1.5 150 09:44 16.01.2020
483 Clear 5 1027 86 10000 3.6 110 09:24 16.01.2020
484 Clear 5 1026 93 10000 1.5 110 08:59 16.01.2020
485 Clear 5 1026 93 10000 1.5 110 08:41 16.01.2020
486 Clear 4 1026 93 10000 1.5 50 08:20 16.01.2020
487 Clear 4 1026 93 10000 1.5 50 07:43 16.01.2020
488 Clear 4 1026 100 10000 1 70 07:25 16.01.2020
489 Clouds 4 1026 93 10000 0.5 0 06:55 16.01.2020
490 Clouds 4 1026 93 10000 2.1 160 06:35 16.01.2020
491 Clouds 4 1026 100 10000 1 0 05:56 16.01.2020
492 Clouds 5 1026 93 10000 1.5 50 05:31 16.01.2020
493 Clouds 5 1025 93 10000 1.5 190 04:37 16.01.2020
494 Clouds 6 1025 93 10000 1 40 03:28 16.01.2020
495 Clouds 6 1024 87 10000 1.5 320 02:29 16.01.2020
496 Clouds 8 1023 87 10000 4.6 280 00:45 16.01.2020
497 Clouds 8 1022 81 10000 4.1 280 00:24 16.01.2020
498 Clouds 9 1021 81 10000 3.1 280 23:48 15.01.2020
499 Clouds 9 1021 76 10000 5.1 270 23:23 15.01.2020
500 Clouds 10 1021 76 10000 5.7 270 22:57 15.01.2020
501 Clouds 10 1021 76 10000 5.7 270 22:57 15.01.2020
502 Clouds 10 1021 76 10000 5.7 270 22:39 15.01.2020
503 Rain 10 1020 76 10000 7.2 260 22:19 15.01.2020
504 Rain 10 1020 76 10000 6.7 260 21:57 15.01.2020
505 Clouds 11 1019 76 10000 4.6 260 21:38 15.01.2020
506 Rain 11 1019 71 10000 5.7 230 21:20 15.01.2020
507 Clouds 11 1018 71 10000 5.7 230 20:57 15.01.2020
508 Clouds 11 1018 71 10000 5.7 230 20:57 15.01.2020
509 Clouds 11 1018 71 10000 5.7 230 20:57 15.01.2020
510 Clouds 11 1018 71 10000 8.2 250 20:39 15.01.2020
511 Rain 11 1018 71 10000 6.2 230 20:20 15.01.2020
512 Rain 11 1017 66 10000 7.2 230 19:55 15.01.2020
513 Rain 11 1016 62 10000 6.7 210 19:37 15.01.2020
514 Rain 11 1016 62 10000 6.7 210 19:19 15.01.2020
515 Clouds 11 1016 58 10000 6.7 200 18:57 15.01.2020
516 Clouds 12 1015 58 10000 6.2 190 18:38 15.01.2020
517 Clouds 12 1015 58 10000 6.2 190 18:20 15.01.2020
518 Clouds 12 1014 58 10000 4.6 200 17:58 15.01.2020
519 Clouds 12 1014 58 10000 4.6 200 17:39 15.01.2020
520 Clouds 12 1015 58 10000 6.7 210 17:20 15.01.2020
521 Clouds 12 1014 58 10000 6.2 200 16:42 15.01.2020
522 Clouds 13 1014 54 10000 8.7 200 16:24 15.01.2020
523 Clouds 13 1012 50 10000 9.3 220 15:59 15.01.2020
524 Clouds 13 1012 50 10000 9.3 220 15:41 15.01.2020
525 Clouds 13 1013 54 10000 8.2 190 15:20 15.01.2020
526 Clouds 13 1013 54 10000 8.7 190 14:45 15.01.2020
527 Clouds 13 1013 58 10000 8.7 170 14:21 15.01.2020
528 Clouds 13 1013 54 10000 8.2 190 13:58 15.01.2020
529 Clouds 12 1013 54 10000 8.2 190 13:40 15.01.2020
530 Clouds 12 1013 54 10000 8.2 190 13:40 15.01.2020
531 Clouds 12 1014 58 10000 8.2 190 13:22 15.01.2020
532 Clouds 12 1013 54 10000 8.2 190 12:55 15.01.2020
533 Clouds 12 1013 54 10000 8.2 190 12:55 15.01.2020
534 Clouds 11 1014 62 10000 7.7 190 12:37 15.01.2020
535 Clouds 11 1014 62 10000 7.7 190 12:18 15.01.2020
536 Clouds 11 1014 62 10000 4.1 180 11:38 15.01.2020
537 Clouds 11 1014 62 10000 6.7 170 11:20 15.01.2020
538 Clouds 11 1014 62 10000 6.7 170 10:58 15.01.2020
539 Clouds 10 1012 54 10000 5.7 210 10:40 15.01.2020
540 Clouds 10 1013 66 10000 7.2 160 10:21 15.01.2020
541 Clouds 10 1013 66 10000 5.1 160 09:41 15.01.2020
542 Clouds 10 1013 70 10000 4.6 160 09:21 15.01.2020
543 Clouds 9 1013 70 10000 5.1 150 08:45 15.01.2020
544 Rain 10 1013 66 10000 4.1 140 08:26 15.01.2020
545 Clouds 10 1013 66 10000 4.1 150 07:56 15.01.2020
546 Clouds 10 1013 62 10000 6.2 190 07:33 15.01.2020
547 Clouds 10 1012 66 10000 4.6 180 06:54 15.01.2020
548 Clouds 10 1012 66 10000 5.1 180 06:32 15.01.2020
549 Clouds 11 1012 71 10000 5.1 200 05:32 15.01.2020
550 Clouds 11 1012 66 10000 7.2 200 03:35 15.01.2020
551 Clouds 11 1012 66 10000 6.7 200 01:49 15.01.2020
552 Clouds 12 1012 66 10000 6.2 200 01:22 15.01.2020
553 Clouds 12 1010 66 10000 7.2 210 00:38 15.01.2020
554 Clouds 12 1011 66 10000 7.2 200 00:20 15.01.2020
555 Clouds 12 1011 62 10000 8.7 200 23:47 14.01.2020
556 Clouds 12 1011 62 10000 7.7 200 23:28 14.01.2020
557 Clouds 12 1011 66 10000 7.2 200 22:58 14.01.2020
558 Clouds 11 1011 66 10000 7.7 200 22:40 14.01.2020
559 Clouds 11 1011 66 10000 7.7 200 22:19 14.01.2020
560 Clouds 11 1011 71 10000 7.2 200 21:58 14.01.2020
561 Clouds 11 1009 66 10000 7.7 210 21:39 14.01.2020
562 Clouds 11 1011 71 10000 8.2 200 21:19 14.01.2020
563 Clouds 11 1010 71 10000 7.7 210 20:56 14.01.2020
564 Clouds 11 1010 71 10000 7.7 210 20:38 14.01.2020
565 Clouds 11 1010 71 10000 8.2 200 20:18 14.01.2020
566 Clouds 11 1010 71 10000 8.2 200 19:55 14.01.2020
567 Clouds 11 1010 66 10000 8.7 200 19:37 14.01.2020
568 Clouds 11 1010 66 10000 8.7 200 19:18 14.01.2020
569 Clouds 10 1010 66 10000 8.2 200 18:41 14.01.2020
570 Clouds 10 1010 66 10000 8.2 200 18:20 14.01.2020
571 Clouds 10 1010 66 10000 8.2 200 17:59 14.01.2020
572 Clouds 10 1008 71 10000 4.6 200 17:37 14.01.2020
573 Clouds 10 1009 66 10000 7.7 190 17:18 14.01.2020
574 Clouds 10 1009 66 10000 7.7 190 16:54 14.01.2020
575 Clouds 10 1009 62 10000 7.2 190 16:36 14.01.2020
576 Clouds 10 1009 62 10000 7.2 190 16:18 14.01.2020
577 Clouds 10 1008 66 10000 5.1 200 15:42 14.01.2020
578 Clouds 10 1009 71 10000 7.7 200 15:19 14.01.2020
579 Clouds 10 1008 66 10000 6.2 200 14:47 14.01.2020
580 Rain 10 1009 62 10000 7.7 200 14:23 14.01.2020
581 Clouds 10 1009 62 10000 8.7 200 13:59 14.01.2020
582 Clouds 10 1009 62 10000 8.7 200 13:59 14.01.2020
583 Clouds 10 1009 62 10000 8.7 200 13:40 14.01.2020
584 Clouds 10 1010 62 10000 8.2 210 13:19 14.01.2020
585 Clouds 10 1010 62 10000 8.2 210 12:42 14.01.2020
586 Clouds 10 1009 62 10000 7.7 210 12:23 14.01.2020
587 Clouds 10 1009 62 10000 9.3 210 11:57 14.01.2020
588 Clouds 10 1008 66 10000 7.2 210 11:39 14.01.2020
589 Clouds 10 1009 71 10000 7.2 200 11:20 14.01.2020
590 Clouds 10 1009 71 10000 7.2 190 10:56 14.01.2020
591 Clouds 10 1008 71 10000 6.2 200 10:37 14.01.2020
592 Clouds 10 1009 66 10000 7.2 200 10:19 14.01.2020
593 Clouds 9 1009 66 10000 8.7 200 09:43 14.01.2020
594 Clouds 9 1008 66 10000 7.7 200 09:24 14.01.2020
595 Rain 9 1008 66 10000 9.3 200 08:59 14.01.2020
596 Rain 9 1008 66 10000 9.3 200 08:39 14.01.2020
597 Rain 9 1008 66 10000 7.2 200 08:21 14.01.2020
598 Clouds 9 1008 66 10000 7.7 180 07:51 14.01.2020
599 Clouds 9 1008 66 10000 5.7 190 07:24 14.01.2020
600 Clouds 9 1006 66 10000 7.2 200 06:43 14.01.2020
601 Clouds 9 1008 76 10000 7.7 180 05:59 14.01.2020
602 Clouds 9 1008 71 10000 8.2 190 04:51 14.01.2020
603 Clouds 9 1009 76 10000 5.7 180 03:47 14.01.2020
604 Clouds 9 1010 81 10000 6.2 160 02:40 14.01.2020
605 Clouds 9 1010 81 10000 6.2 160 01:31 14.01.2020
606 Clouds 8 1010 81 10000 5.7 150 00:48 14.01.2020
607 Clouds 8 1011 81 10000 4.6 150 00:26 14.01.2020
608 Clouds 8 1010 81 10000 5.1 140 23:47 13.01.2020
609 Clouds 8 1012 75 10000 7.2 160 23:19 13.01.2020
610 Clouds 8 1012 75 10000 7.2 160 22:59 13.01.2020
611 Clouds 8 1012 75 10000 7.2 160 22:40 13.01.2020
612 Clouds 8 1012 75 10000 6.7 170 22:20 13.01.2020
613 Clouds 8 1013 81 10000 7.2 160 21:56 13.01.2020
614 Clouds 8 1013 81 10000 7.2 160 21:56 13.01.2020
615 Clouds 8 1011 81 10000 5.1 190 21:37 13.01.2020
616 Clouds 8 1011 81 10000 5.1 190 21:37 13.01.2020
617 Clouds 8 1012 81 10000 6.7 170 21:18 13.01.2020
618 Clouds 8 1013 75 10000 6.7 170 20:56 13.01.2020
619 Clouds 8 1012 75 10000 4.1 180 20:38 13.01.2020
620 Clouds 8 1013 75 10000 8.2 170 20:20 13.01.2020
621 Clouds 7 1014 75 10000 6.2 170 19:56 13.01.2020
622 Clouds 7 1014 75 10000 6.2 160 19:38 13.01.2020
623 Clouds 7 1014 75 10000 6.2 160 19:18 13.01.2020
624 Clouds 7 1015 81 10000 5.7 160 18:56 13.01.2020
625 Clouds 7 1015 81 10000 4.6 160 18:37 13.01.2020
626 Clouds 7 1013 81 10000 4.1 140 18:37 13.01.2020
627 Clouds 7 1015 81 10000 4.1 160 18:18 13.01.2020
628 Clouds 8 1014 70 10000 2.6 170 17:40 13.01.2020
629 Clouds 8 1016 70 10000 4.1 170 17:22 13.01.2020
630 Clouds 8 1016 70 10000 4.1 170 17:22 13.01.2020
631 Clouds 7 1016 75 10000 5.1 170 16:56 13.01.2020
632 Clouds 7 1015 70 10000 3.1 190 16:38 13.01.2020
633 Clouds 8 1016 61 10000 3.1 190 16:19 13.01.2020
634 Clouds 8 1022 70 0 2.24 193 15:44 13.01.2020
635 Clouds 8 1022 70 0 3.58 101 15:23 13.01.2020
636 Clouds 8 1022 69 0 2.68 145 14:58 13.01.2020
637 Clouds 8 1022 71 0 2.24 193 14:38 13.01.2020
638 Clouds 8 1023 73 0 2.24 125 14:20 13.01.2020
639 Clouds 8 1023 73 0 2.24 125 14:20 13.01.2020
640 Clouds 8 1023 74 0 1.79 108 13:55 13.01.2020
641 Clouds 8 1024 78 0 1.79 142 13:37 13.01.2020
642 Clouds 8 1024 78 0 1.79 128 13:19 13.01.2020
643 Clouds 7 1020 81 10000 2.6 150 12:43 13.01.2020
644 Clouds 7 1020 81 10000 2.6 150 12:23 13.01.2020
645 Clouds 7 1020 81 10000 2.6 150 11:57 13.01.2020
646 Clouds 7 1020 81 10000 4.1 190 11:37 13.01.2020
647 Clouds 6 1020 87 10000 2.6 140 11:19 13.01.2020
648 Clouds 6 1020 87 10000 2.6 140 10:56 13.01.2020
649 Clouds 6 1020 75 10000 2.6 180 10:38 13.01.2020
650 Clouds 5 1021 86 10000 1.5 130 10:19 13.01.2020
651 Clouds 5 1021 86 10000 2.1 130 09:44 13.01.2020
652 Clouds 5 1021 86 10000 3.6 150 09:26 13.01.2020
653 Clouds 5 1021 86 10000 3.6 170 08:58 13.01.2020
654 Clouds 5 1020 86 10000 2.1 170 08:37 13.01.2020
655 Clouds 5 1021 93 10000 3.6 170 08:18 13.01.2020
656 Clouds 5 1021 86 10000 2.1 180 07:44 13.01.2020
657 Clouds 5 1021 93 10000 3.6 170 07:26 13.01.2020
658 Clouds 5 1021 86 10000 2.6 180 06:39 13.01.2020
659 Clouds 5 1022 93 10000 3.6 170 05:57 13.01.2020
660 Clouds 6 1022 86 10000 3.1 170 05:19 13.01.2020
661 Clouds 6 1023 87 10000 3.6 190 03:46 13.01.2020
662 Clouds 6 1023 87 10000 4.1 190 02:51 13.01.2020
663 Clouds 7 1023 87 10000 3.6 180 02:31 13.01.2020
664 Clouds 7 1023 75 10000 4.1 240 01:47 13.01.2020
665 Clouds 7 1023 81 10000 3.1 180 00:59 13.01.2020
666 Clouds 7 1023 81 10000 5.1 250 00:37 13.01.2020
667 Rain 7 1023 81 10000 4.1 200 00:19 13.01.2020
668 Rain 7 1023 81 10000 4.1 210 23:41 12.01.2020
669 Clouds 7 1023 75 10000 4.6 210 23:23 12.01.2020
670 Clouds 7 1023 81 10000 4.1 200 22:57 12.01.2020
671 Clouds 7 1023 75 10000 4.1 230 22:39 12.01.2020
672 Clouds 7 1023 81 10000 4.1 180 22:21 12.01.2020
673 Clouds 7 1023 87 10000 2.6 180 21:55 12.01.2020
674 Clouds 7 1023 70 10000 5.7 240 21:37 12.01.2020
675 Clouds 7 1023 87 10000 4.1 180 21:19 12.01.2020
676 Clouds 7 1023 93 10000 4.6 180 20:56 12.01.2020
677 Clouds 7 1023 87 10000 4.6 180 20:37 12.01.2020
678 Clouds 7 1023 87 10000 4.6 180 20:19 12.01.2020
679 Clouds 7 1023 81 10000 4.6 190 19:55 12.01.2020
680 Rain 7 1022 81 10000 3.1 200 19:37 12.01.2020
681 Clouds 7 1023 81 10000 5.1 190 19:18 12.01.2020
682 Clouds 7 1022 81 10000 5.7 180 18:56 12.01.2020
683 Rain 7 1022 81 10000 5.7 240 18:38 12.01.2020
684 Clouds 7 1022 75 10000 5.7 180 18:19 12.01.2020
685 Clouds 7 1022 75 10000 5.1 180 17:42 12.01.2020
686 Clouds 7 1022 75 10000 5.7 190 17:22 12.01.2020
687 Clouds 7 1022 81 10000 5.1 210 16:59 12.01.2020
688 Clouds 7 1022 81 10000 5.1 210 16:39 12.01.2020
689 Clouds 7 1022 81 10000 7.2 220 16:20 12.01.2020
690 Rain 7 1022 87 10000 6.2 220 15:57 12.01.2020
691 Rain 7 1022 87 10000 6.2 220 15:38 12.01.2020
692 Rain 7 1021 81 10000 5.7 210 15:20 12.01.2020
693 Clouds 7 1021 75 10000 3.6 190 14:43 12.01.2020
694 Clouds 6 1022 75 10000 4.6 200 14:24 12.01.2020
695 Clouds 7 1022 70 10000 3.6 170 13:57 12.01.2020
696 Clouds 7 1022 70 10000 3.6 170 13:57 12.01.2020
697 Clouds 7 1022 70 10000 3.6 170 13:57 12.01.2020
698 Clouds 7 1022 70 10000 4.6 160 13:39 12.01.2020
699 Clouds 7 1022 70 10000 4.6 160 13:39 12.01.2020
700 Clouds 7 1022 70 10000 4.6 160 13:20 12.01.2020
701 Clouds 7 1022 70 10000 4.6 160 12:57 12.01.2020
702 Clouds 7 1022 70 10000 4.1 220 12:38 12.01.2020
703 Clouds 7 1023 75 10000 4.6 140 12:19 12.01.2020
704 Clouds 6 1024 80 10000 5.1 130 11:43 12.01.2020
705 Clouds 5 1024 80 10000 5.1 130 11:23 12.01.2020
706 Clouds 5 1024 80 10000 5.1 140 10:59 12.01.2020
707 Clouds 5 1024 80 10000 5.1 140 10:40 12.01.2020
708 Clouds 4 1024 72 10000 5.7 140 10:21 12.01.2020
709 Clouds 4 1024 72 10000 5.1 130 09:55 12.01.2020
710 Clouds 4 1024 72 10000 4.6 140 09:37 12.01.2020
711 Clouds 4 1024 72 10000 4.6 140 09:18 12.01.2020
712 Clouds 4 1024 72 10000 5.1 140 08:42 12.01.2020
713 Clouds 3 1024 80 10000 4.6 140 08:19 12.01.2020
714 Clouds 3 1024 79 10000 2.6 170 07:39 12.01.2020
715 Clouds 3 1025 79 10000 4.1 130 07:21 12.01.2020
716 Clouds 3 1025 86 10000 4.1 140 06:42 12.01.2020
717 Clouds 3 1025 86 10000 4.1 140 06:19 12.01.2020
718 Clouds 2 1025 82 10000 4.1 140 05:22 12.01.2020
719 Clouds 2 1026 82 10000 4.6 140 03:47 12.01.2020
720 Clouds 2 1026 82 10000 4.1 130 03:22 12.01.2020
721 Clouds 2 1027 82 10000 3.6 130 02:30 12.01.2020
722 Clouds 3 1027 77 10000 3.6 140 01:42 12.01.2020
723 Clouds 3 1027 77 10000 3.6 140 01:22 12.01.2020
724 Clouds 3 1028 77 10000 3.6 140 00:40 12.01.2020
725 Clouds 3 1028 77 10000 3.6 140 00:40 12.01.2020
726 Clouds 3 1028 77 10000 4.6 140 00:20 12.01.2020
727 Clouds 3 1027 77 10000 2.1 180 23:42 11.01.2020
728 Clouds 3 1029 78 10000 4.1 140 23:19 11.01.2020
729 Clouds 3 1029 78 10000 4.1 150 22:58 11.01.2020
730 Clouds 3 1028 78 10000 2.1 170 22:39 11.01.2020
731 Clouds 4 1029 78 10000 3.6 140 22:20 11.01.2020
732 Clouds 4 1029 78 10000 3.6 140 21:58 11.01.2020
733 Clouds 4 1029 78 10000 3.6 160 21:40 11.01.2020
734 Clouds 4 1029 78 10000 2.1 170 21:40 11.01.2020
735 Clouds 4 1029 78 10000 3.6 160 21:18 11.01.2020
736 Clouds 4 1029 78 10000 2.1 170 20:41 11.01.2020
737 Clouds 4 1030 78 10000 3.6 150 20:22 11.01.2020
738 Clouds 4 1030 78 10000 3.1 150 19:58 11.01.2020
739 Clouds 4 1030 78 10000 3.1 160 19:39 11.01.2020
740 Clouds 4 1030 78 10000 3.1 160 19:39 11.01.2020
741 Clouds 5 1030 78 10000 3.6 180 19:21 11.01.2020
742 Clouds 5 1030 78 10000 3.6 180 18:59 11.01.2020
743 Clouds 5 1030 78 10000 3.6 180 18:39 11.01.2020
744 Clouds 5 1030 80 10000 3.6 170 18:20 11.01.2020
745 Clouds 5 1030 75 10000 3.1 190 17:58 11.01.2020
746 Clouds 5 1030 75 10000 3.1 190 17:40 11.01.2020
747 Clouds 5 1030 75 10000 3.1 190 17:40 11.01.2020
748 Clouds 6 1030 70 10000 3.6 190 17:20 11.01.2020
749 Clouds 6 1030 70 10000 3.6 190 16:55 11.01.2020
750 Clouds 6 1030 70 10000 2.1 200 16:36 11.01.2020
751 Clouds 6 1030 65 10000 3.6 190 16:18 11.01.2020
752 Clouds 7 1030 65 10000 4.1 190 15:41 11.01.2020
753 Clouds 7 1031 70 10000 3.6 190 15:22 11.01.2020
754 Clouds 6 1031 65 10000 4.1 190 14:58 11.01.2020
755 Clouds 6 1030 65 10000 2.1 190 14:40 11.01.2020
756 Clouds 6 1031 70 10000 3.6 180 14:21 11.01.2020
757 Clouds 6 1031 75 10000 4.6 180 13:55 11.01.2020
758 Clouds 6 1032 70 10000 4.1 170 13:36 11.01.2020
759 Clouds 6 1032 70 10000 4.1 170 13:18 11.01.2020
760 Clouds 6 1032 70 10000 2.6 190 12:42 11.01.2020
761 Clouds 6 1033 75 10000 3.6 180 12:24 11.01.2020
762 Clouds 6 1033 75 10000 2.6 180 11:54 11.01.2020
763 Clouds 5 1033 86 10000 3.1 160 11:36 11.01.2020
764 Clouds 5 1033 80 10000 2.6 180 11:18 11.01.2020
765 Clouds 4 1033 70 10000 2.1 190 10:42 11.01.2020
766 Clouds 4 1033 93 10000 3.1 170 10:23 11.01.2020
767 Clouds 4 1033 81 10000 2.6 220 09:39 11.01.2020
768 Clouds 4 1033 86 10000 2.6 170 09:21 11.01.2020
769 Clouds 4 1033 86 10000 2.6 170 09:21 11.01.2020
770 Clouds 4 1032 75 10000 2.6 200 08:43 11.01.2020
771 Clouds 4 1032 93 10000 3.1 140 08:23 11.01.2020
772 Clouds 3 1032 86 10000 2.6 190 07:45 11.01.2020
773 Clouds 3 1032 93 10000 2.6 150 07:26 11.01.2020
774 Clouds 3 1032 93 10000 2.6 150 07:26 11.01.2020
775 Clouds 3 1033 93 10000 3.6 140 06:56 11.01.2020
776 Clouds 3 1033 93 10000 0.5 0 06:28 11.01.2020
777 Clear 3 1032 93 7000 0.5 0 04:49 11.01.2020
778 Clouds 3 1032 93 10000 1 0 04:30 11.01.2020
779 Clouds 3 1032 100 10000 1 0 03:58 11.01.2020
780 Clouds 3 1032 100 10000 0.5 0 02:43 11.01.2020
781 Clear 3 1031 100 6000 2.1 240 01:44 11.01.2020
782 Clouds 3 1032 93 10000 1.5 40 01:21 11.01.2020
783 Clouds 3 1032 93 10000 1.5 40 01:21 11.01.2020
784 Clouds 3 1031 93 10000 0.5 0 00:47 11.01.2020
785 Clouds 3 1031 100 10000 0.5 0 00:21 11.01.2020
786 Clouds 3 1030 93 10000 1 0 23:41 10.01.2020
787 Clouds 3 1030 93 10000 1 0 23:23 10.01.2020
788 Clouds 3 1030 93 10000 1 0 23:23 10.01.2020
789 Clouds 4 1030 93 10000 1.5 310 22:59 10.01.2020
790 Clear 4 1030 86 10000 2.6 280 22:41 10.01.2020
791 Clouds 4 1029 93 10000 2.6 320 22:22 10.01.2020
792 Clouds 4 1029 86 10000 3.1 320 21:58 10.01.2020
793 Clouds 5 1029 80 10000 3.6 280 21:40 10.01.2020
794 Clouds 5 1028 86 10000 3.1 310 21:20 10.01.2020
795 Clouds 5 1028 87 10000 4.1 310 20:56 10.01.2020
796 Clouds 5 1028 87 10000 3.1 290 20:38 10.01.2020
797 Clouds 6 1027 87 10000 4.6 310 20:19 10.01.2020
798 Clouds 6 1027 87 10000 3.1 290 19:40 10.01.2020
799 Clouds 6 1026 87 10000 3.6 320 19:20 10.01.2020
800 Clouds 6 1025 87 10000 5.1 320 18:55 10.01.2020
801 Rain 6 1025 81 10000 6.7 320 18:37 10.01.2020
802 Rain 7 1024 87 10000 5.7 310 18:18 10.01.2020
803 Rain 7 1024 87 10000 5.7 310 17:56 10.01.2020
804 Clouds 7 1023 87 10000 6.2 310 17:38 10.01.2020
805 Clouds 7 1023 87 10000 6.2 310 17:38 10.01.2020
806 Clouds 7 1023 87 10000 6.2 310 17:19 10.01.2020
807 Clouds 7 1023 87 10000 6.2 300 16:43 10.01.2020
808 Clouds 7 1022 87 10000 6.7 290 16:22 10.01.2020
809 Rain 7 1021 93 8000 7.7 300 15:58 10.01.2020
810 Clouds 7 1021 87 10000 6.7 290 15:39 10.01.2020
811 Clouds 7 1020 87 10000 5.7 280 15:20 10.01.2020
812 Rain 8 1020 93 6000 8.7 280 14:59 10.01.2020
813 Rain 8 1020 93 6000 8.7 280 14:41 10.01.2020
814 Clouds 8 1019 87 10000 5.7 270 14:20 10.01.2020
815 Clouds 8 1018 87 10000 5.7 270 13:58 10.01.2020
816 Clouds 8 1018 81 10000 6.7 270 13:40 10.01.2020
817 Clouds 8 1018 81 10000 7.2 270 13:22 10.01.2020
818 Clouds 8 1018 87 10000 5.7 270 12:57 10.01.2020
819 Clouds 8 1018 87 10000 5.7 270 12:38 10.01.2020
820 Clouds 8 1017 93 10000 3.6 240 12:18 10.01.2020
821 Clouds 8 1017 93 10000 2.6 260 11:54 10.01.2020
822 Clouds 8 1016 93 10000 5.1 260 11:36 10.01.2020
823 Clouds 8 1016 93 10000 5.1 260 11:18 10.01.2020
824 Rain 8 1016 93 10000 4.1 250 10:42 10.01.2020
825 Rain 8 1015 87 10000 4.1 170 10:24 10.01.2020
826 Rain 8 1014 87 10000 5.1 170 09:56 10.01.2020
827 Rain 8 1014 93 10000 1.5 0 09:37 10.01.2020
828 Rain 8 1014 87 10000 5.1 170 09:19 10.01.2020
829 Rain 8 1014 93 9000 1.5 140 08:41 10.01.2020
830 Rain 8 1014 93 10000 2.1 180 08:23 10.01.2020
831 Rain 8 1014 87 10000 4.1 170 07:45 10.01.2020
832 Clouds 8 1013 87 10000 3.1 170 07:26 10.01.2020
833 Clouds 8 1013 87 10000 2.6 180 06:46 10.01.2020
834 Rain 9 1013 87 10000 3.1 200 06:26 10.01.2020
835 Clouds 9 1013 87 10000 1.5 190 05:51 10.01.2020
836 Clouds 10 1012 76 10000 4.6 220 03:45 10.01.2020
837 Rain 10 1012 87 10000 4.1 160 03:22 10.01.2020
838 Clouds 10 1011 76 10000 4.1 220 02:49 10.01.2020
839 Rain 10 1011 87 10000 4.6 180 01:47 10.01.2020
840 Rain 10 1011 87 10000 4.6 180 01:47 10.01.2020
841 Rain 10 1011 76 10000 5.7 180 01:28 10.01.2020
842 Rain 10 1011 76 10000 6.7 190 00:44 10.01.2020
843 Clouds 10 1011 81 10000 6.2 180 00:19 10.01.2020
844 Clouds 10 1010 76 10000 3.6 200 23:39 09.01.2020
845 Clouds 11 1011 93 10000 4.6 170 23:20 09.01.2020
846 Drizzle 11 1011 93 10000 4.1 160 22:58 09.01.2020
847 Drizzle 11 1011 93 10000 4.1 160 22:58 09.01.2020
848 Clouds 11 1010 76 10000 3.6 190 22:39 09.01.2020
849 Clouds 11 1010 76 10000 3.6 190 22:39 09.01.2020
850 Rain 11 1011 87 10000 4.1 160 22:19 09.01.2020
851 Rain 11 1011 87 10000 4.1 170 21:57 09.01.2020
852 Rain 11 1011 87 10000 4.1 170 21:38 09.01.2020
853 Rain 11 1011 87 10000 4.1 170 21:20 09.01.2020
854 Clouds 12 1011 93 10000 4.1 160 20:58 09.01.2020
855 Clouds 12 1011 93 10000 4.1 160 20:39 09.01.2020
856 Rain 12 1011 93 10000 3.6 160 20:20 09.01.2020
857 Rain 12 1011 93 10000 3.6 160 19:58 09.01.2020
858 Drizzle 12 1012 87 10000 5.1 170 19:39 09.01.2020
859 Clouds 12 1011 87 10000 3.1 170 19:20 09.01.2020
860 Clouds 12 1012 87 10000 3.6 180 18:56 09.01.2020
861 Clouds 12 1012 87 10000 3.6 180 18:38 09.01.2020
862 Clouds 12 1012 87 10000 5.1 180 18:20 09.01.2020
863 Clouds 12 1012 87 10000 3.1 170 17:41 09.01.2020
864 Rain 12 1012 87 10000 3.6 170 17:19 09.01.2020
865 Rain 12 1012 87 10000 3.6 170 16:56 09.01.2020
866 Rain 12 1012 87 10000 3.1 170 16:38 09.01.2020
867 Rain 13 1012 87 10000 3.1 160 16:20 09.01.2020
868 Rain 13 1012 93 10000 4.6 150 15:43 09.01.2020
869 Rain 13 1012 93 10000 4.6 150 15:22 09.01.2020
870 Rain 12 1012 93 10000 4.6 150 14:58 09.01.2020
871 Clouds 12 1013 93 10000 4.1 150 14:39 09.01.2020
872 Clouds 12 1013 87 10000 4.6 140 14:19 09.01.2020
873 Clouds 12 1013 87 10000 4.6 140 13:55 09.01.2020
874 Rain 12 1013 93 10000 4.6 150 13:37 09.01.2020
875 Rain 12 1014 93 10000 4.6 150 13:18 09.01.2020
876 Rain 12 1014 93 10000 4.6 150 12:55 09.01.2020
877 Rain 12 1015 93 10000 5.1 150 12:37 09.01.2020
878 Rain 12 1015 93 10000 5.1 150 12:18 09.01.2020
879 Rain 11 1015 93 10000 5.7 150 11:42 09.01.2020
880 Rain 11 1015 100 10000 5.7 150 11:24 09.01.2020
881 Rain 11 1015 93 10000 5.7 150 11:24 09.01.2020
882 Rain 11 1015 100 10000 5.7 150 11:24 09.01.2020
883 Rain 11 1015 100 10000 6.2 150 10:58 09.01.2020
884 Rain 11 1015 100 10000 6.2 150 10:39 09.01.2020
885 Rain 11 1016 93 10000 5.7 150 10:21 09.01.2020
886 Rain 11 1016 93 10000 5.7 150 09:46 09.01.2020
887 Rain 11 1016 93 10000 5.1 140 09:25 09.01.2020
888 Rain 11 1016 93 10000 5.1 140 08:58 09.01.2020
889 Clouds 10 1017 100 10000 5.1 150 08:39 09.01.2020
890 Rain 10 1017 93 10000 4.6 150 08:20 09.01.2020
891 Rain 10 1017 93 10000 5.1 140 07:48 09.01.2020
892 Rain 10 1017 93 10000 5.1 140 07:30 09.01.2020
893 Rain 10 1018 93 10000 4.6 140 06:40 09.01.2020
894 Rain 10 1018 93 10000 3.6 130 06:22 09.01.2020
895 Rain 10 1019 93 10000 3.6 130 05:51 09.01.2020
896 Clouds 10 1019 93 10000 3.1 120 05:26 09.01.2020
897 Clouds 10 1020 93 10000 3.1 130 04:40 09.01.2020
898 Rain 10 1021 93 10000 3.6 140 03:28 09.01.2020
899 Rain 10 1021 100 10000 4.1 130 02:47 09.01.2020
900 Rain 10 1022 93 10000 3.1 130 01:42 09.01.2020
901 Rain 10 1023 93 10000 2.1 140 01:18 09.01.2020
902 Rain 10 1023 93 10000 3.1 140 00:39 09.01.2020
903 Rain 10 1023 100 10000 3.1 150 00:19 09.01.2020
904 Rain 10 1023 93 10000 3.6 160 23:41 08.01.2020
905 Rain 10 1023 93 10000 3.6 160 23:23 08.01.2020
906 Rain 10 1023 93 10000 3.6 160 22:56 08.01.2020
907 Rain 10 1024 81 10000 3.6 170 22:38 08.01.2020
908 Rain 10 1024 81 10000 4.6 170 22:19 08.01.2020
909 Drizzle 10 1024 87 10000 3.6 170 21:55 08.01.2020
910 Drizzle 10 1024 87 10000 3.6 170 21:37 08.01.2020
911 Drizzle 10 1024 87 10000 4.1 170 21:18 08.01.2020
912 Clouds 10 1024 87 10000 4.1 180 20:55 08.01.2020
913 Clouds 10 1024 87 10000 4.1 180 20:37 08.01.2020
914 Clouds 10 1024 87 10000 4.1 180 20:37 08.01.2020
915 Clouds 10 1024 87 10000 4.1 170 20:18 08.01.2020
916 Clouds 10 1025 87 10000 3.6 170 19:39 08.01.2020
917 Clouds 10 1025 87 10000 4.1 170 19:20 08.01.2020
918 Clouds 10 1025 87 10000 3.6 170 18:58 08.01.2020
919 Clouds 10 1025 87 10000 3.6 170 18:58 08.01.2020
920 Clouds 10 1025 87 10000 3.6 170 18:40 08.01.2020
921 Clouds 10 1025 81 10000 3.6 170 18:19 08.01.2020
922 Clouds 10 1025 81 10000 3.6 170 18:19 08.01.2020
923 Clouds 10 1025 81 10000 3.6 170 18:19 08.01.2020
924 Clouds 10 1025 81 10000 3.6 170 17:59 08.01.2020
925 Clouds 10 1024 81 10000 4.1 170 17:40 08.01.2020
926 Drizzle 10 1024 81 10000 3.6 170 17:22 08.01.2020
927 Drizzle 10 1024 81 10000 3.6 170 16:57 08.01.2020
928 Drizzle 10 1024 81 10000 3.6 170 16:57 08.01.2020
929 Drizzle 10 1024 81 10000 3.1 170 16:38 08.01.2020
930 Clouds 11 1024 81 10000 2.1 210 16:19 08.01.2020
931 Clouds 11 1024 81 10000 2.1 240 15:55 08.01.2020
932 Clouds 11 1024 81 10000 3.6 170 15:37 08.01.2020
933 Clouds 11 1024 76 10000 3.1 170 15:18 08.01.2020
934 Clouds 10 1024 76 10000 4.6 170 14:41 08.01.2020
935 Drizzle 10 1024 81 10000 4.1 170 14:21 08.01.2020
936 Drizzle 10 1024 81 10000 4.1 170 13:56 08.01.2020
937 Drizzle 10 1024 81 10000 4.1 170 13:37 08.01.2020
938 Drizzle 10 1024 81 10000 4.6 160 13:18 08.01.2020
939 Clouds 10 1025 81 10000 4.1 170 12:40 08.01.2020
940 Clouds 10 1025 81 10000 5.7 170 12:18 08.01.2020
941 Clouds 9 1025 81 10000 4.1 180 11:55 08.01.2020
942 Clouds 9 1025 81 10000 4.1 180 11:36 08.01.2020
943 Clouds 9 1025 81 10000 5.1 180 11:18 08.01.2020
944 Clouds 9 1025 87 10000 5.7 170 10:41 08.01.2020
945 Clouds 9 1025 87 10000 5.1 170 10:22 08.01.2020
946 Clouds 9 1024 87 10000 5.7 160 09:59 08.01.2020
947 Clouds 9 1024 87 10000 5.7 160 09:41 08.01.2020
948 Clouds 9 1024 87 10000 4.6 160 09:19 08.01.2020
949 Clouds 8 1024 87 10000 6.2 160 08:55 08.01.2020
950 Clouds 8 1024 87 10000 6.2 160 08:36 08.01.2020
951 Clouds 8 1024 93 10000 4.6 150 08:18 08.01.2020
952 Rain 8 1024 87 10000 5.1 140 07:43 08.01.2020
953 Clouds 8 1024 87 10000 4.6 140 07:23 08.01.2020
954 Rain 7 1024 81 10000 4.1 130 06:44 08.01.2020
955 Clouds 7 1024 81 10000 4.1 130 05:59 08.01.2020
956 Clouds 7 1024 81 10000 4.1 130 05:38 08.01.2020
957 Clouds 7 1024 81 10000 4.1 140 04:56 08.01.2020
958 Clouds 7 1024 81 10000 5.7 140 04:24 08.01.2020
959 Clouds 7 1025 81 10000 4.1 140 02:45 08.01.2020
960 Clouds 7 1025 81 10000 4.1 140 02:21 08.01.2020
961 Clouds 6 1025 81 10000 4.1 140 01:46 08.01.2020
962 Clear 6 1026 81 10000 3.1 130 01:19 08.01.2020
963 Clear 6 1026 75 10000 3.6 130 00:27 08.01.2020
964 Clear 6 1026 75 10000 3.6 130 23:57 07.01.2020
965 Clear 6 1026 81 10000 4.1 140 23:39 07.01.2020
966 Clear 6 1026 81 10000 4.1 150 23:20 07.01.2020
967 Clear 6 1026 81 10000 4.1 150 23:20 07.01.2020
968 Clear 6 1026 75 10000 4.1 160 22:40 07.01.2020
969 Clear 6 1026 81 10000 3.1 170 22:20 07.01.2020
970 Clear 6 1026 81 10000 3.1 170 21:57 07.01.2020
971 Clear 6 1026 81 10000 3.6 170 21:38 07.01.2020
972 Clear 6 1026 81 10000 4.1 160 21:20 07.01.2020
973 Clear 6 1026 81 10000 4.1 160 20:55 07.01.2020
974 Clear 6 1027 81 10000 3.6 160 20:37 07.01.2020
975 Clouds 6 1027 86 10000 3.6 140 20:19 07.01.2020
976 Clouds 6 1027 86 10000 3.6 130 19:38 07.01.2020
977 Clouds 6 1027 81 10000 4.1 140 19:20 07.01.2020
978 Clouds 6 1027 81 10000 4.1 140 18:58 07.01.2020
979 Clouds 6 1028 81 10000 3.6 130 18:40 07.01.2020
980 Clouds 6 1028 80 10000 4.6 150 18:19 07.01.2020
981 Clouds 6 1028 80 10000 4.6 150 18:00 07.01.2020
982 Clouds 7 1028 80 10000 4.1 160 17:39 07.01.2020
983 Clouds 7 1027 75 10000 1.5 180 17:21 07.01.2020
984 Clouds 8 1028 81 10000 3.1 190 16:57 07.01.2020
985 Clouds 8 1028 81 10000 3.1 190 16:38 07.01.2020
986 Clouds 8 1028 76 10000 2.1 200 16:19 07.01.2020
987 Clouds 8 1028 87 10000 1 160 15:58 07.01.2020
988 Clouds 8 1028 87 10000 1 160 15:40 07.01.2020
989 Clouds 8 1028 81 10000 2.1 150 15:22 07.01.2020
990 Clouds 8 1028 81 10000 1.5 200 14:55 07.01.2020
991 Clouds 8 1028 81 10000 1.5 200 14:37 07.01.2020
992 Clouds 8 1028 76 10000 2.1 190 14:18 07.01.2020
993 Clouds 8 1028 81 10000 2.6 180 13:40 07.01.2020
994 Clouds 8 1028 87 10000 2.6 180 13:19 07.01.2020
995 Clouds 8 1028 76 10000 3.6 240 12:42 07.01.2020
996 Clouds 8 1028 76 10000 3.6 240 12:42 07.01.2020
997 Clouds 8 1028 93 10000 2.1 210 12:21 07.01.2020
998 Clouds 8 1028 87 10000 1.5 220 11:59 07.01.2020
999 Clouds 7 1028 87 10000 1.5 220 11:40 07.01.2020
1000 Clouds 7 1028 93 10000 1.5 220 11:21 07.01.2020
1001 Clouds 6 1028 93 10000 2.1 230 10:42 07.01.2020
1002 Clouds 6 1028 93 10000 2.1 230 10:24 07.01.2020
1003 Clouds 6 1028 93 10000 2.1 250 09:59 07.01.2020
1004 Clouds 6 1027 93 10000 2.1 260 09:38 07.01.2020
1005 Clouds 6 1027 93 10000 3.1 270 09:20 07.01.2020
1006 Clouds 6 1026 93 10000 3.6 260 08:47 07.01.2020
1007 Clouds 6 1026 93 10000 3.6 260 08:28 07.01.2020
1008 Clouds 6 1025 100 10000 2.1 240 07:55 07.01.2020
1009 Clouds 6 1025 100 10000 2.1 240 07:35 07.01.2020
1010 Clouds 6 1025 93 10000 1 0 06:54 07.01.2020
1011 Clouds 5 1024 100 10000 2.6 170 06:35 07.01.2020
1012 Drizzle 5 1024 93 9000 3.1 160 05:58 07.01.2020
1013 Drizzle 5 1024 93 9000 3.1 160 05:39 07.01.2020
1014 Drizzle 4 1024 93 8000 2.1 130 03:44 07.01.2020
1015 Rain 4 1023 86 10000 3.1 140 02:38 07.01.2020
1016 Clouds 4 1022 78 10000 3.1 140 01:59 07.01.2020
1017 Clouds 4 1022 78 10000 3.1 140 01:35 07.01.2020
1018 Clouds 4 1023 81 10000 3.6 150 00:55 07.01.2020
1019 Clouds 3 1023 86 10000 3.6 170 00:20 07.01.2020
1020 Clouds 3 1022 80 10000 1.5 170 23:56 06.01.2020
1021 Clouds 3 1022 80 10000 1.5 170 23:37 06.01.2020
1022 Clouds 3 1021 80 10000 5.1 130 23:19 06.01.2020
1023 Clouds 3 1022 76 10000 4.6 140 22:43 06.01.2020
1024 Clouds 3 1022 76 10000 4.1 140 22:24 06.01.2020
1025 Clouds 3 1022 76 10000 4.1 140 21:58 06.01.2020
1026 Clouds 4 1022 76 10000 3.1 120 21:39 06.01.2020
1027 Clouds 4 1022 76 10000 4.1 130 21:20 06.01.2020
1028 Clouds 4 1022 76 10000 4.1 130 21:20 06.01.2020
1029 Clouds 4 1022 76 10000 4.1 130 21:20 06.01.2020
1030 Clouds 4 1022 76 10000 4.1 130 20:57 06.01.2020
1031 Clouds 4 1022 80 10000 3.6 130 20:39 06.01.2020
1032 Clear 4 1022 80 10000 4.1 130 20:20 06.01.2020
1033 Clear 4 1022 77 10000 4.1 130 19:57 06.01.2020
1034 Clear 4 1022 77 10000 4.1 130 19:38 06.01.2020
1035 Clear 4 1022 75 10000 3.6 120 19:20 06.01.2020
1036 Clear 4 1022 75 10000 4.1 130 18:48 06.01.2020
1037 Clear 4 1022 75 10000 4.1 130 18:48 06.01.2020
1038 Clear 5 1023 75 10000 5.7 140 18:25 06.01.2020
1039 Clear 5 1023 75 10000 5.1 130 17:59 06.01.2020
1040 Clear 5 1023 75 10000 5.1 130 17:39 06.01.2020
1041 Clear 6 1023 70 10000 4.6 130 17:19 06.01.2020
1042 Clear 6 1023 75 10000 4.1 130 16:55 06.01.2020
1043 Clear 6 1023 75 10000 4.1 130 16:36 06.01.2020
1044 Clear 7 1024 70 10000 4.6 140 16:18 06.01.2020
1045 Clear 7 1024 70 0 4.1 140 15:41 06.01.2020
1046 Clear 7 1024 65 10000 4.1 160 15:20 06.01.2020
1047 Clear 7 1024 65 10000 4.1 160 14:59 06.01.2020
1048 Clear 7 1025 61 10000 3.6 160 14:40 06.01.2020
1049 Clouds 7 1025 61 10000 3.6 170 14:21 06.01.2020
1050 Clouds 7 1025 61 10000 3.6 170 13:57 06.01.2020
1051 Clouds 7 1026 65 10000 3.6 150 13:38 06.01.2020
1052 Clouds 7 1027 65 10000 4.1 160 13:19 06.01.2020
1053 Clouds 6 1027 69 10000 4.1 160 12:43 06.01.2020
1054 Clouds 6 1027 69 10000 4.6 180 12:21 06.01.2020
1055 Clouds 6 1028 69 10000 4.1 160 11:59 06.01.2020
1056 Clouds 5 1028 69 10000 4.1 160 11:41 06.01.2020
1057 Clouds 5 1029 78 10000 4.1 170 11:23 06.01.2020
1058 Clouds 5 1029 78 10000 3.6 180 10:57 06.01.2020
1059 Clouds 4 1029 78 10000 3.6 180 10:39 06.01.2020
1060 Clouds 4 1029 78 10000 3.1 170 10:20 06.01.2020
1061 Clouds 4 1029 78 10000 3.1 170 10:20 06.01.2020
1062 Clouds 4 1029 78 0 3.1 160 09:39 06.01.2020
1063 Clouds 4 1029 78 10000 2.6 160 09:20 06.01.2020
1064 Clouds 4 1030 78 10000 2.6 150 08:51 06.01.2020
1065 Clouds 4 1030 78 10000 2.6 150 08:33 06.01.2020
1066 Clouds 5 1030 75 10000 3.1 160 07:57 06.01.2020
1067 Clouds 5 1030 75 10000 3.1 160 07:36 06.01.2020
1068 Clouds 5 1030 75 10000 3.1 180 06:46 06.01.2020
1069 Clouds 5 1030 75 10000 3.6 190 06:27 06.01.2020
1070 Clouds 5 1030 75 10000 3.1 190 05:48 06.01.2020
1071 Clouds 5 1031 75 10000 3.1 190 04:53 06.01.2020
1072 Clouds 5 1031 75 10000 3.6 190 04:20 06.01.2020
1073 Clouds 5 1031 74 10000 3.6 180 03:25 06.01.2020
1074 Clouds 6 1032 75 10000 3.1 170 02:25 06.01.2020
1075 Clouds 5 1032 75 10000 3.1 180 01:46 06.01.2020
1076 Clouds 6 1032 75 10000 3.1 180 01:28 06.01.2020
1077 Clouds 5 1033 70 10000 3.1 190 00:44 06.01.2020
1078 Clouds 5 1033 70 10000 3.1 190 00:44 06.01.2020
1079 Clouds 6 1033 70 10000 3.1 200 00:24 06.01.2020
1080 Clouds 6 1033 70 10000 3.1 200 23:57 05.01.2020
1081 Clouds 5 1033 70 10000 3.1 200 23:37 05.01.2020
1082 Clouds 5 1033 70 10000 3.6 200 23:19 05.01.2020
1083 Clouds 5 1033 70 10000 3.6 200 22:40 05.01.2020
1084 Clouds 6 1033 70 10000 3.1 200 22:20 05.01.2020
1085 Clouds 6 1033 70 10000 3.1 200 21:56 05.01.2020
1086 Clouds 6 1033 70 10000 3.1 200 21:38 05.01.2020
1087 Clouds 6 1034 70 10000 3.6 200 21:20 05.01.2020
1088 Clouds 6 1034 70 10000 3.1 210 20:56 05.01.2020
1089 Clouds 6 1034 70 10000 3.1 210 20:38 05.01.2020
1090 Clouds 6 1034 70 10000 3.1 210 20:19 05.01.2020
1091 Clouds 6 1034 70 10000 3.6 220 19:58 05.01.2020
1092 Clouds 6 1034 70 10000 3.6 220 19:38 05.01.2020
1093 Clouds 6 1034 70 10000 4.1 230 19:19 05.01.2020
1094 Clouds 6 1034 70 10000 4.1 230 18:55 05.01.2020
1095 Clouds 6 1034 75 10000 3.1 230 18:37 05.01.2020
1096 Clouds 6 1034 75 10000 3.1 230 18:37 05.01.2020
1097 Clouds 6 1034 75 10000 4.1 240 18:19 05.01.2020
1098 Clouds 6 1035 75 10000 4.1 250 17:57 05.01.2020
1099 Clouds 6 1035 75 10000 4.1 250 17:38 05.01.2020
1100 Clouds 6 1035 75 10000 4.1 250 17:38 05.01.2020
1101 Clouds 6 1035 81 10000 3.6 250 17:19 05.01.2020
1102 Clouds 6 1035 75 10000 2.6 250 16:56 05.01.2020
1103 Clouds 6 1035 75 10000 2.6 250 16:38 05.01.2020
1104 Clouds 6 1035 75 10000 3.6 240 16:19 05.01.2020
1105 Clouds 6 1035 75 10000 3.6 240 16:19 05.01.2020
1106 Clouds 6 1035 75 10000 3.6 240 16:19 05.01.2020
1107 Clouds 7 1035 75 10000 3.6 240 16:19 05.01.2020
1108 Clouds 7 1034 75 10000 3.1 240 15:38 05.01.2020
1109 Clouds 7 1034 75 10000 3.1 240 15:38 05.01.2020
1110 Clouds 7 1034 75 10000 3.1 220 15:20 05.01.2020
1111 Clouds 7 1034 81 10000 2.6 220 14:55 05.01.2020
1112 Clouds 7 1034 81 10000 2.6 220 14:37 05.01.2020
1113 Clouds 7 1034 81 10000 2.6 220 14:37 05.01.2020
1114 Clouds 7 1034 87 10000 1.5 200 14:19 05.01.2020
1115 Clouds 7 1035 87 10000 1.5 200 13:56 05.01.2020
1116 Clouds 7 1035 87 10000 1.5 200 13:37 05.01.2020
1117 Clouds 7 1035 87 10000 1.5 190 13:18 05.01.2020
1118 Clouds 7 1035 87 10000 1.5 190 13:18 05.01.2020
1119 Clouds 7 1035 93 10000 1.5 180 12:55 05.01.2020
1120 Clouds 7 1035 93 10000 1.5 180 12:37 05.01.2020
1121 Clouds 7 1035 93 10000 2.1 170 12:18 05.01.2020
1122 Clouds 7 1035 93 10000 2.1 170 12:18 05.01.2020
1123 Clouds 6 1036 93 10000 1 0 11:43 05.01.2020
1124 Clouds 6 1036 93 10000 1 0 11:20 05.01.2020
1125 Clouds 6 1036 93 10000 1 0 10:58 05.01.2020
1126 Clouds 6 1035 93 10000 1.5 220 10:40 05.01.2020
1127 Clouds 6 1035 93 8000 1.5 190 10:19 05.01.2020
1128 Clouds 6 1035 93 6000 1.5 170 09:42 05.01.2020
1129 Mist 6 1035 93 4500 2.1 150 09:22 05.01.2020
1130 Mist 6 1035 100 4500 1.5 190 08:51 05.01.2020
1131 Mist 6 1035 100 4500 1.5 190 08:32 05.01.2020
1132 Mist 6 1035 100 5000 1.5 160 07:59 05.01.2020
1133 Clouds 6 1035 93 6000 1 0 07:39 05.01.2020
1134 Clouds 6 1035 93 6000 1 0 07:39 05.01.2020
1135 Clouds 6 1035 93 7000 0.5 0 07:20 05.01.2020
1136 Mist 6 1035 93 5000 0.5 0 06:40 05.01.2020
1137 Mist 6 1035 93 4500 1.5 260 05:38 05.01.2020
1138 Drizzle 6 1035 93 4000 3.1 290 04:55 05.01.2020
1139 Drizzle 6 1035 100 4000 3.6 280 04:18 05.01.2020
1140 Drizzle 6 1035 100 4000 3.6 280 04:18 05.01.2020
1141 Drizzle 6 1035 100 4000 3.6 280 04:18 05.01.2020
1142 Drizzle 6 1034 100 4500 3.6 270 03:18 05.01.2020
1143 Drizzle 6 1034 100 3500 3.1 290 02:32 05.01.2020
1144 Drizzle 6 1034 100 4000 3.1 290 01:49 05.01.2020
1145 Drizzle 6 1034 93 6000 4.6 290 01:20 05.01.2020
1146 Drizzle 6 1033 93 10000 3.6 290 00:57 05.01.2020
1147 Drizzle 6 1033 93 10000 3.6 290 00:39 05.01.2020
1148 Drizzle 6 1033 93 10000 4.1 280 00:19 05.01.2020
1149 Drizzle 6 1033 93 8000 4.6 290 23:41 04.01.2020
1150 Drizzle 6 1033 93 8000 4.6 290 23:41 04.01.2020
1151 Drizzle 6 1033 87 10000 5.1 290 23:20 04.01.2020
1152 Clouds 6 1032 93 10000 4.6 290 22:56 04.01.2020
1153 Clouds 6 1032 93 10000 4.6 290 22:38 04.01.2020
1154 Clouds 6 1032 93 10000 5.7 290 22:20 04.01.2020
1155 Clouds 6 1032 93 10000 5.7 290 21:55 04.01.2020
1156 Drizzle 6 1032 93 10000 7.2 280 21:37 04.01.2020
1157 Drizzle 6 1032 93 10000 5.7 290 21:18 04.01.2020
1158 Drizzle 6 1032 93 10000 6.2 290 20:55 04.01.2020
1159 Drizzle 6 1032 93 10000 6.2 290 20:36 04.01.2020
1160 Drizzle 6 1032 93 10000 6.2 290 20:36 04.01.2020
1161 Clouds 6 1031 93 10000 6.7 280 20:18 04.01.2020
1162 Drizzle 6 1031 93 8000 7.2 280 19:41 04.01.2020
1163 Drizzle 6 1031 93 6000 7.2 280 19:23 04.01.2020
1164 Drizzle 6 1031 93 6000 7.2 280 18:57 04.01.2020
1165 Drizzle 6 1031 93 3700 7.2 290 18:38 04.01.2020
1166 Clouds 7 1030 81 10000 7.7 270 18:20 04.01.2020
1167 Clouds 6 1030 81 10000 7.7 270 17:56 04.01.2020
1168 Clouds 6 1030 81 10000 7.7 270 17:38 04.01.2020
1169 Rain 6 1030 81 10000 6.7 280 17:20 04.01.2020
1170 Clouds 6 1029 81 10000 6.7 280 16:42 04.01.2020
1171 Clouds 7 1029 81 10000 6.2 270 16:24 04.01.2020
1172 Clouds 6 1029 81 10000 6.7 280 15:57 04.01.2020
1173 Clouds 6 1029 81 10000 6.7 280 15:39 04.01.2020
1174 Clouds 7 1029 81 10000 5.1 280 15:19 04.01.2020
1175 Clouds 7 1029 81 10000 5.1 280 14:57 04.01.2020
1176 Clouds 6 1029 81 10000 6.7 280 14:39 04.01.2020
1177 Clouds 6 1029 81 10000 8.2 280 14:19 04.01.2020
1178 Clouds 7 1029 81 10000 8.2 280 14:19 04.01.2020
1179 Clouds 6 1029 81 10000 8.2 270 13:55 04.01.2020
1180 Clouds 6 1029 81 10000 8.2 270 13:37 04.01.2020
1181 Clouds 6 1029 81 10000 8.2 270 13:37 04.01.2020
1182 Clouds 6 1029 81 10000 6.2 270 13:18 04.01.2020
1183 Clouds 6 1029 81 10000 7.2 270 12:42 04.01.2020
1184 Clouds 5 1030 81 10000 6.7 270 12:20 04.01.2020
1185 Clouds 5 1030 81 10000 6.7 270 12:20 04.01.2020
1186 Clouds 5 1029 81 10000 6.7 270 11:59 04.01.2020
1187 Clouds 5 1029 81 10000 6.7 270 11:40 04.01.2020
1188 Clouds 5 1030 86 10000 4.6 270 11:19 04.01.2020
1189 Clouds 5 1029 86 10000 5.1 270 10:55 04.01.2020
1190 Clouds 5 1029 86 10000 5.1 270 10:37 04.01.2020
1191 Clouds 4 1030 86 10000 5.1 260 10:19 04.01.2020
1192 Clouds 4 1030 93 10000 5.1 270 09:42 04.01.2020
1193 Clouds 4 1030 93 10000 5.1 270 09:23 04.01.2020
1194 Clouds 3 1029 86 10000 3.1 240 08:42 04.01.2020
1195 Clouds 3 1029 93 10000 2.6 240 08:21 04.01.2020
1196 Clouds 3 1029 93 10000 3.1 240 07:51 04.01.2020
1197 Clouds 3 1029 93 10000 3.1 250 07:32 04.01.2020
1198 Clouds 3 1029 93 10000 3.1 250 06:39 04.01.2020
1199 Clouds 3 1029 93 10000 3.1 250 05:46 04.01.2020
1200 Clouds 3 1029 93 10000 2.1 260 04:48 04.01.2020
1201 Clouds 3 1029 93 10000 2.1 260 04:28 04.01.2020
1202 Clouds 3 1029 93 10000 2.6 280 03:19 04.01.2020
1203 Clouds 4 1029 86 10000 3.6 300 02:38 04.01.2020
1204 Clouds 4 1028 93 10000 2.6 310 02:18 04.01.2020
1205 Clouds 4 1028 86 10000 1.5 290 01:37 04.01.2020
1206 Clouds 4 1028 93 10000 3.6 290 01:18 04.01.2020
1207 Clouds 4 1028 86 10000 4.1 290 00:29 04.01.2020
1208 Clouds 5 1027 87 10000 5.7 310 23:57 03.01.2020
1209 Clouds 5 1027 93 10000 5.7 300 23:29 03.01.2020
1210 Clouds 5 1026 93 10000 4.6 310 22:59 03.01.2020
1211 Clouds 6 1026 93 10000 4.6 310 22:40 03.01.2020
1212 Clouds 6 1026 81 10000 6.2 300 22:19 03.01.2020
1213 Clouds 6 1026 81 10000 6.2 300 21:57 03.01.2020
1214 Drizzle 6 1025 81 10000 5.7 330 21:38 03.01.2020
1215 Drizzle 6 1024 87 10000 6.2 330 21:19 03.01.2020
1216 Drizzle 6 1024 87 10000 6.2 330 20:55 03.01.2020
1217 Drizzle 7 1023 93 8000 8.2 320 20:37 03.01.2020
1218 Drizzle 7 1022 93 10000 10.3 310 20:18 03.01.2020
1219 Drizzle 8 1021 100 4500 7.2 280 19:55 03.01.2020
1220 Drizzle 8 1021 100 4500 7.2 280 19:37 03.01.2020
1221 Drizzle 8 1020 93 10000 6.7 270 19:18 03.01.2020
1222 Drizzle 9 1020 87 10000 7.7 260 18:40 03.01.2020
1223 Rain 10 1019 87 10000 6.2 250 18:21 03.01.2020
1224 Clouds 9 1019 87 10000 6.2 240 17:55 03.01.2020
1225 Clouds 9 1018 81 10000 6.2 230 17:36 03.01.2020
1226 Clouds 9 1018 81 10000 6.2 230 17:36 03.01.2020
1227 Clouds 9 1018 81 10000 6.2 230 17:18 03.01.2020
1228 Rain 9 1018 87 10000 5.7 220 16:42 03.01.2020
1229 Rain 9 1018 87 10000 5.7 220 16:22 03.01.2020
1230 Rain 9 1018 87 10000 5.7 220 16:22 03.01.2020
1231 Rain 9 1018 87 10000 4.6 210 15:43 03.01.2020
1232 Rain 9 1017 87 10000 4.6 200 15:19 03.01.2020
1233 Rain 9 1017 87 10000 4.6 200 15:19 03.01.2020
1234 Rain 9 1017 81 10000 5.7 210 14:59 03.01.2020
1235 Rain 9 1017 81 10000 5.7 210 14:38 03.01.2020
1236 Rain 9 1017 76 10000 6.7 220 14:19 03.01.2020
1237 Clouds 9 1018 76 10000 7.2 220 13:43 03.01.2020
1238 Clouds 9 1018 76 10000 6.2 220 13:24 03.01.2020
1239 Clouds 9 1018 76 10000 6.2 220 12:58 03.01.2020
1240 Clouds 9 1018 76 10000 7.2 210 12:38 03.01.2020
1241 Rain 9 1018 81 10000 6.2 220 12:20 03.01.2020
1242 Clouds 8 1018 76 10000 5.1 210 11:44 03.01.2020
1243 Rain 8 1018 81 10000 5.1 220 11:21 03.01.2020
1244 Clouds 8 1018 76 10000 4.1 180 10:44 03.01.2020
1245 Clouds 8 1018 81 10000 3.1 190 10:26 03.01.2020
1246 Clouds 8 1018 81 10000 3.1 190 09:58 03.01.2020
1247 Clouds 8 1018 81 10000 4.1 180 09:39 03.01.2020
1248 Clouds 8 1018 81 10000 5.1 170 09:21 03.01.2020
1249 Clouds 8 1018 81 10000 5.1 170 08:57 03.01.2020
1250 Clouds 8 1019 81 10000 5.7 170 08:38 03.01.2020
1251 Clouds 7 1019 87 10000 5.7 160 08:19 03.01.2020
1252 Clouds 7 1019 87 10000 5.7 160 07:40 03.01.2020
1253 Clouds 7 1019 87 10000 5.7 160 07:18 03.01.2020
1254 Clouds 7 1019 87 10000 5.7 170 06:50 03.01.2020
1255 Clouds 7 1019 87 10000 5.7 170 06:32 03.01.2020
1256 Clouds 7 1020 87 10000 5.7 160 05:45 03.01.2020
1257 Clouds 7 1020 81 10000 5.7 170 04:23 03.01.2020
1258 Clouds 6 1021 87 10000 6.2 170 02:57 03.01.2020
1259 Clouds 6 1021 87 10000 6.2 170 02:33 03.01.2020
1260 Clouds 6 1022 81 10000 5.7 170 01:45 03.01.2020
1261 Clouds 5 1022 86 10000 5.1 160 00:53 03.01.2020
1262 Clouds 5 1023 86 10000 4.6 160 00:31 03.01.2020
1263 Clouds 5 1023 86 10000 4.1 160 23:57 02.01.2020
1264 Clouds 5 1023 86 10000 4.6 150 23:38 02.01.2020
1265 Clouds 5 1023 86 10000 4.1 150 23:19 02.01.2020
1266 Clouds 4 1023 86 10000 4.1 150 22:57 02.01.2020
1267 Clouds 5 1023 86 10000 4.1 140 22:39 02.01.2020
1268 Clouds 4 1024 86 10000 4.1 160 22:18 02.01.2020
1269 Clouds 4 1024 86 10000 3.6 140 21:42 02.01.2020
1270 Clouds 4 1024 86 10000 3.6 140 21:23 02.01.2020
1271 Clouds 4 1024 93 10000 2.6 120 21:00 02.01.2020
1272 Clouds 4 1024 93 10000 2.6 120 21:00 02.01.2020
1273 Clouds 4 1024 93 10000 2.6 120 21:00 02.01.2020
1274 Clouds 4 1024 93 10000 3.6 140 21:00 02.01.2020
1275 Clouds 4 1024 93 10000 2.6 120 20:39 02.01.2020
1276 Clouds 4 1024 93 10000 3.1 130 20:21 02.01.2020
1277 Clouds 4 1024 93 10000 3.1 130 20:21 02.01.2020
1278 Clouds 4 1024 93 10000 3.1 130 20:21 02.01.2020
1279 Clouds 4 1025 86 10000 3.6 130 19:56 02.01.2020
1280 Clouds 4 1025 86 10000 3.6 130 19:38 02.01.2020
1281 Clouds 4 1025 93 10000 3.6 130 19:19 02.01.2020
1282 Clouds 4 1025 86 10000 4.1 130 18:58 02.01.2020
1283 Clouds 4 1025 86 10000 4.1 130 18:40 02.01.2020
1284 Clouds 4 1025 86 10000 3.6 130 18:22 02.01.2020
1285 Clouds 4 1025 86 10000 4.6 140 17:57 02.01.2020
1286 Clouds 4 1025 86 10000 4.6 140 17:37 02.01.2020
1287 Clouds 4 1025 80 10000 4.1 130 17:19 02.01.2020
1288 Clouds 4 1025 80 10000 5.1 130 16:57 02.01.2020
1289 Clouds 4 1025 80 10000 5.1 130 16:38 02.01.2020
1290 Clouds 4 1025 80 10000 6.7 140 16:20 02.01.2020
1291 Clouds 4 1025 80 10000 5.1 130 15:56 02.01.2020
1292 Clouds 4 1025 80 10000 4.6 130 15:37 02.01.2020
1293 Clouds 4 1025 80 10000 4.6 130 15:19 02.01.2020
1294 Clouds 4 1026 80 10000 5.1 140 14:55 02.01.2020
1295 Clouds 4 1026 80 10000 5.1 140 14:36 02.01.2020
1296 Clouds 4 1026 80 10000 4.6 140 14:18 02.01.2020
1297 Clouds 3 1026 80 10000 4.6 140 13:47 02.01.2020
1298 Clouds 3 1027 74 10000 3.6 130 13:29 02.01.2020
1299 Clouds 3 1028 74 10000 3.6 130 12:45 02.01.2020
1300 Clouds 2 1028 86 10000 3.6 130 12:25 02.01.2020
1301 Clouds 2 1028 86 10000 3.6 130 11:57 02.01.2020
1302 Clouds 1 1028 86 10000 3.6 130 11:37 02.01.2020
1303 Clouds 1 1029 86 10000 3.1 130 11:19 02.01.2020
1304 Clouds 0 1029 86 10000 2.6 110 10:43 02.01.2020
1305 Clouds 0 1029 86 10000 2.6 110 10:25 02.01.2020
1306 Clouds 0 1029 83 10000 2.1 120 09:46 02.01.2020
1307 Clouds 0 1029 83 10000 2.1 120 09:28 02.01.2020
1308 Clouds -1 1029 83 10000 3.6 130 08:45 02.01.2020
1309 Clouds -1 1028 85 10000 3.1 120 08:27 02.01.2020
1310 Clouds -1 1028 83 10000 3.1 140 07:51 02.01.2020
1311 Clouds 0 1028 83 10000 3.1 140 07:30 02.01.2020
1312 Clouds 0 1028 83 10000 3.6 140 06:45 02.01.2020
1313 Clouds -1 1028 92 10000 4.1 150 06:27 02.01.2020
1314 Clouds -1 1028 92 10000 2.1 140 05:29 02.01.2020
1315 Clouds -1 1029 92 10000 3.1 140 04:32 02.01.2020
1316 Clouds -1 1029 92 8000 1 0 02:48 02.01.2020
1317 Clouds -1 1029 86 9000 1.5 110 01:59 02.01.2020
1318 Clouds -1 1029 86 10000 2.6 130 01:39 02.01.2020
1319 Clear 0 1030 84 10000 2.6 130 00:58 02.01.2020
1320 Clear 0 1030 84 10000 2.6 130 00:33 02.01.2020
1321 Clear 0 1030 84 10000 1 0 23:56 01.01.2020
1322 Clear 0 1030 80 10000 2.1 100 23:37 01.01.2020
1323 Clear 0 1030 86 10000 2.6 110 23:18 01.01.2020
1324 Clear 0 1030 86 10000 3.1 120 22:38 01.01.2020
1325 Clear 0 1031 86 10000 2.1 110 22:19 01.01.2020
1326 Clear 0 1031 86 10000 2.1 110 21:56 01.01.2020
1327 Clear 0 1031 80 10000 2.6 100 21:38 01.01.2020
1328 Clear 0 1031 80 10000 2.6 110 21:19 01.01.2020
1329 Clear 0 1031 80 10000 2.6 110 21:19 01.01.2020
1330 Clear 1 1031 80 10000 3.6 110 20:55 01.01.2020
1331 Clear 1 1031 80 10000 3.6 110 20:37 01.01.2020
1332 Clear 1 1031 80 10000 2.6 100 20:19 01.01.2020
1333 Clear 1 1031 80 10000 2.6 100 20:19 01.01.2020
1334 Clear 1 1031 80 10000 2.6 100 19:55 01.01.2020
1335 Clear 1 1031 80 10000 2.6 100 19:55 01.01.2020
1336 Clear 1 1031 80 10000 2.1 110 19:37 01.01.2020
1337 Clear 1 1031 80 10000 2.6 110 19:19 01.01.2020
1338 Clear 1 1031 80 10000 2.6 110 18:55 01.01.2020
1339 Clear 1 1031 81 10000 1.5 120 18:36 01.01.2020
1340 Clear 2 1031 81 10000 2.1 110 18:18 01.01.2020
1341 Clear 2 1031 81 10000 2.6 100 17:56 01.01.2020
1342 Clear 2 1031 81 10000 2.6 100 17:38 01.01.2020
1343 Clear 2 1031 73 10000 3.1 100 17:18 01.01.2020
1344 Clear 3 1031 73 10000 2.6 110 16:42 01.01.2020
1345 Clear 4 1031 73 10000 3.1 120 16:23 01.01.2020
1346 Clear 4 1031 73 10000 4.1 120 15:58 01.01.2020
1347 Clear 4 1031 73 10000 4.1 120 15:40 01.01.2020
1348 Clouds 4 1032 73 10000 4.1 120 15:21 01.01.2020
1349 Clouds 5 1032 73 10000 4.1 120 14:59 01.01.2020
1350 Clouds 4 1032 86 10000 4.1 110 14:40 01.01.2020
1351 Clouds 4 1032 70 10000 4.6 120 14:21 01.01.2020
1352 Clouds 4 1032 86 10000 4.6 110 13:56 01.01.2020
1353 Clouds 4 1032 86 10000 4.6 110 13:37 01.01.2020
1354 Clouds 3 1033 66 10000 4.6 120 13:19 01.01.2020
1355 Clouds 3 1033 93 10000 5.1 130 12:57 01.01.2020
1356 Clouds 3 1033 93 10000 5.1 130 12:39 01.01.2020
1357 Clouds 2 1033 66 10000 4.6 130 12:19 01.01.2020
1358 Clouds 2 1034 66 10000 4.1 130 11:55 01.01.2020
1359 Clouds 1 1034 66 10000 4.1 130 11:36 01.01.2020
1360 Clouds 1 1034 78 10000 5.7 120 11:18 01.01.2020
1361 Clouds 1 1034 78 10000 4.1 120 10:41 01.01.2020
1362 Clouds 0 1034 78 10000 4.6 120 10:21 01.01.2020
1363 Clouds 0 1033 86 10000 4.6 120 09:59 01.01.2020
1364 Clouds 0 1033 86 10000 4.6 120 09:38 01.01.2020
1365 Clouds 0 1033 78 10000 5.1 130 09:19 01.01.2020
1366 Clouds -1 1033 78 10000 3.6 120 08:55 01.01.2020
1367 Clouds -1 1033 78 10000 3.6 120 08:37 01.01.2020
1368 Clouds -1 1033 76 10000 3.6 120 08:37 01.01.2020
1369 Clouds -1 1033 84 10000 4.6 120 08:19 01.01.2020
1370 Clouds -1 1033 84 10000 4.1 120 07:54 01.01.2020
1371 Clouds -1 1033 84 10000 4.1 120 07:36 01.01.2020
1372 Clouds -1 1033 84 10000 3.6 110 06:45 01.01.2020
1373 Clear -1 1033 92 9000 2.6 90 06:22 01.01.2020
1374 Clear -1 1033 92 6000 2.1 90 05:23 01.01.2020
1375 Clear 0 1034 88 8000 2.6 90 03:47 01.01.2020
1376 Clear 0 1034 88 6000 2.6 80 03:24 01.01.2020
1377 Clear 0 1034 88 6000 2.1 100 02:59 01.01.2020
1378 Clear 0 1034 88 6000 2.1 100 02:40 01.01.2020
1379 Mist 0 1034 87 4500 2.1 100 02:21 01.01.2020
1380 Mist 0 1035 87 4000 2.1 90 01:39 01.01.2020
1381 Mist 0 1035 84 4500 2.6 110 01:21 01.01.2020
1382 Clouds 0 1035 84 8000 2.1 80 00:44 01.01.2020
1383 Clouds 0 1035 84 8000 2.1 80 00:44 01.01.2020
1384 Clouds 0 1035 84 8000 2.1 80 00:26 01.01.2020
1385 Clouds 1 1035 84 10000 2.1 120 23:56 31.12.2019
1386 Clouds 1 1035 84 10000 2.1 120 23:36 31.12.2019
1387 Mist 1 1035 83 4500 1 0 23:18 31.12.2019
1388 Mist 1 1035 83 4500 1 0 22:55 31.12.2019
1389 Mist 1 1036 100 1500 1.5 110 22:36 31.12.2019
1390 Fog 2 1036 83 600 2.1 120 22:18 31.12.2019
1391 Fog 1 1036 83 300 2.6 130 21:42 31.12.2019
1392 Fog 2 1036 83 300 2.6 130 21:24 31.12.2019
1393 Fog 2 1036 83 200 2.6 140 20:57 31.12.2019
1394 Fog 2 1036 83 200 2.6 140 20:57 31.12.2019
1395 Fog 2 1036 84 200 2.6 140 20:38 31.12.2019
1396 Fog 2 1036 84 200 2.6 140 20:38 31.12.2019
1397 Clouds 2 1036 85 6000 2.1 130 20:20 31.12.2019
1398 Clouds 2 1035 85 8000 1.5 130 19:57 31.12.2019
1399 Clouds 2 1035 85 8000 1.5 130 19:39 31.12.2019
1400 Clouds 2 1035 85 8000 1.5 140 19:20 31.12.2019
1401 Clouds 3 1035 85 8000 1.5 140 18:56 31.12.2019
1402 Clouds 3 1035 100 8000 0.5 0 18:38 31.12.2019
1403 Clouds 3 1035 93 8000 1.5 140 18:19 31.12.2019
1404 Clouds 3 1035 93 10000 1 50 17:55 31.12.2019
1405 Clouds 3 1035 93 10000 1 50 17:36 31.12.2019
1406 Clouds 4 1035 86 10000 1.5 80 17:18 31.12.2019
1407 Clouds 4 1035 86 10000 1.5 80 16:56 31.12.2019
1408 Clouds 4 1034 86 10000 1 0 16:37 31.12.2019
1409 Clouds 4 1034 93 10000 2.1 190 16:18 31.12.2019
1410 Clouds 4 1034 80 10000 1 0 15:56 31.12.2019
1411 Clouds 5 1034 80 10000 1 0 15:38 31.12.2019
1412 Clouds 5 1034 80 10000 1.5 190 15:19 31.12.2019
1413 Clouds 5 1034 80 10000 0.5 0 14:55 31.12.2019
1414 Clouds 5 1034 80 10000 0.5 0 14:37 31.12.2019
1415 Clouds 5 1034 80 10000 1.5 280 14:19 31.12.2019
1416 Clouds 5 1034 75 10000 2.1 270 13:56 31.12.2019
1417 Clouds 4 1034 75 10000 2.1 270 13:38 31.12.2019
1418 Clouds 4 1034 75 10000 1.5 270 13:20 31.12.2019
1419 Clouds 4 1034 75 10000 1.5 270 12:56 31.12.2019
1420 Clouds 4 1034 75 10000 0.5 0 12:38 31.12.2019
1421 Drizzle 4 1034 93 2000 0.75 199 12:19 31.12.2019
1422 Clouds 4 1034 74 10000 0.5 0 11:55 31.12.2019
1423 Clouds 4 1034 74 10000 0.5 0 11:37 31.12.2019
1424 Clouds 4 1034 74 10000 0.5 0 11:37 31.12.2019
1425 Clouds 3 1034 74 10000 1 170 11:19 31.12.2019
1426 Clouds 3 1034 74 10000 1 170 10:56 31.12.2019
1427 Clouds 3 1034 74 10000 1.5 60 10:37 31.12.2019
1428 Clouds 3 1033 74 10000 2.1 40 10:19 31.12.2019
1429 Clouds 3 1033 74 10000 2.1 40 09:58 31.12.2019
1430 Clouds 3 1033 86 10000 2.1 130 09:38 31.12.2019
1431 Clouds 3 1032 80 10000 2.1 60 09:19 31.12.2019
1432 Clouds 3 1032 80 10000 2.1 60 08:57 31.12.2019
1433 Clouds 3 1032 80 10000 1.5 90 08:37 31.12.2019
1434 Clouds 3 1032 74 10000 1.5 30 08:18 31.12.2019
1435 Clouds 3 1031 74 10000 2.1 130 07:41 31.12.2019
1436 Clouds 3 1031 60 10000 3.6 160 07:19 31.12.2019
1437 Clouds 2 1031 60 10000 0.5 0 06:48 31.12.2019
1438 Clouds 2 1030 86 10000 2.6 60 05:55 31.12.2019
1439 Clouds 2 1030 86 10000 0.5 0 04:27 31.12.2019
1440 Clear 2 1030 79 10000 2.1 60 03:27 31.12.2019
1441 Clear 1 1029 86 10000 2.1 60 02:49 31.12.2019
1442 Clear 1 1029 74 10000 1.5 130 01:55 31.12.2019
1443 Clear 1 1029 74 10000 1.5 130 01:34 31.12.2019
1444 Clear 1 1029 79 10000 2.6 60 00:58 31.12.2019
1445 Clear 1 1029 74 10000 1 0 00:39 31.12.2019
1446 Clear 1 1029 64 10000 1 0 00:21 31.12.2019
1447 Clear 1 1029 45 10000 2.6 50 23:56 30.12.2019
1448 Clear 1 1029 45 10000 2.6 50 23:37 30.12.2019
1449 Clear 3 1029 64 10000 2.1 60 23:19 30.12.2019
1450 Clear 2 1029 59 10000 1 0 22:56 30.12.2019
1451 Clear 4 1029 59 10000 1 0 22:37 30.12.2019
1452 Clear 4 1029 59 10000 1 0 22:37 30.12.2019
1453 Clear 3 1029 59 10000 2.1 80 22:18 30.12.2019
1454 Clear 3 1029 64 10000 2.1 60 21:56 30.12.2019
1455 Clear 3 1029 64 10000 2.1 60 21:38 30.12.2019
1456 Clear 3 1029 59 10000 2.6 60 21:18 30.12.2019
1457 Clear 3 1029 59 10000 2.6 60 21:18 30.12.2019
1458 Clear 4 1029 59 10000 2.6 60 20:56 30.12.2019
1459 Clear 4 1029 59 10000 2.1 70 20:38 30.12.2019
1460 Clouds 5 1029 44 10000 2.1 100 20:19 30.12.2019
1461 Clouds 4 1029 44 10000 1 0 19:57 30.12.2019
1462 Clouds 4 1029 44 10000 1 0 19:37 30.12.2019
1463 Clouds 4 1029 44 10000 1 0 19:37 30.12.2019
1464 Clouds 4 1029 44 10000 1.5 100 19:19 30.12.2019
1465 Clouds 4 1029 41 10000 1.5 120 18:56 30.12.2019
1466 Clouds 4 1029 41 10000 1.5 120 18:37 30.12.2019
1467 Clouds 5 1030 45 10000 1.5 80 18:19 30.12.2019
1468 Clouds 4 1030 45 10000 1.5 80 17:55 30.12.2019
1469 Clouds 6 1030 39 10000 2.6 0 17:36 30.12.2019
1470 Clouds 5 1030 39 10000 2.6 0 17:36 30.12.2019
1471 Clouds 6 1030 42 10000 2.6 120 17:18 30.12.2019
1472 Clouds 6 1030 39 10000 3.6 130 16:55 30.12.2019
1473 Clouds 6 1030 39 10000 3.6 130 16:36 30.12.2019
1474 Clouds 7 1030 39 10000 2.1 140 16:18 30.12.2019
1475 Clouds 7 1030 37 10000 2.6 140 15:55 30.12.2019
1476 Clouds 8 1030 37 10000 2.6 140 15:36 30.12.2019
1477 Clouds 8 1030 39 10000 3.6 140 15:18 30.12.2019
1478 Clouds 8 1030 34 10000 3.6 140 14:42 30.12.2019
1479 Clouds 8 1031 36 10000 4.1 140 14:19 30.12.2019
1480 Clouds 8 1031 36 10000 4.1 140 13:56 30.12.2019
1481 Clouds 7 1031 39 10000 3.6 140 13:37 30.12.2019
1482 Clouds 7 1031 36 10000 3.6 140 13:19 30.12.2019
1483 Clouds 7 1031 36 10000 3.6 140 12:56 30.12.2019
1484 Clouds 7 1032 42 10000 3.6 140 12:36 30.12.2019
1485 Clouds 6 1032 45 10000 3.6 140 12:18 30.12.2019
1486 Clouds 5 1033 45 10000 4.6 140 11:40 30.12.2019
1487 Clouds 4 1033 48 10000 3.1 130 11:19 30.12.2019
1488 Clouds 3 1033 51 10000 2.6 120 10:58 30.12.2019
1489 Clouds 3 1033 51 10000 2.6 120 10:40 30.12.2019
1490 Clouds 2 1033 51 10000 2.6 110 10:18 30.12.2019
1491 Clouds 2 1033 55 10000 3.1 110 09:42 30.12.2019
1492 Clouds 2 1033 55 10000 2.6 110 09:20 30.12.2019
1493 Clouds 1 1033 59 10000 2.6 100 08:56 30.12.2019
1494 Clouds 1 1033 59 10000 2.6 100 08:37 30.12.2019
1495 Clouds 2 1033 55 10000 2.6 110 08:18 30.12.2019
1496 Clouds 2 1033 55 10000 3.1 120 07:42 30.12.2019
1497 Clouds 2 1033 55 10000 3.1 110 06:59 30.12.2019
1498 Clouds 2 1033 64 10000 2.1 110 06:24 30.12.2019
1499 Clouds 2 1034 59 10000 4.1 120 04:23 30.12.2019
1500 Clouds 2 1034 64 10000 2.1 100 03:42 30.12.2019
1501 Clouds 2 1034 59 10000 2.6 120 02:41 30.12.2019
1502 Clouds 2 1034 59 10000 3.6 120 02:21 30.12.2019
1503 Clouds 2 1035 59 10000 2.6 120 01:27 30.12.2019
1504 Clouds 2 1035 59 10000 3.1 120 00:56 30.12.2019
1505 Clouds 2 1035 59 10000 2.6 120 00:36 30.12.2019
1506 Clouds 2 1036 64 10000 2.6 120 23:42 29.12.2019
1507 Clouds 2 1036 64 10000 2.1 110 23:24 29.12.2019
1508 Clouds 2 1036 64 10000 2.6 100 22:58 29.12.2019
1509 Clouds 2 1036 64 10000 2.6 100 22:38 29.12.2019
1510 Clouds 2 1036 59 10000 3.1 120 22:20 29.12.2019
1511 Clouds 2 1036 64 10000 2.6 110 21:55 29.12.2019
1512 Clouds 2 1036 64 10000 2.6 110 21:55 29.12.2019
1513 Clouds 2 1036 64 10000 2.6 110 21:37 29.12.2019
1514 Clouds 2 1036 64 10000 2.6 110 21:37 29.12.2019
1515 Clouds 2 1036 59 10000 2.6 100 21:18 29.12.2019
1516 Clouds 2 1036 64 10000 2.6 120 20:55 29.12.2019
1517 Clouds 2 1036 64 10000 2.6 120 20:37 29.12.2019
1518 Clouds 3 1036 64 10000 3.6 120 20:18 29.12.2019
1519 Clouds 3 1036 64 10000 3.6 120 19:56 29.12.2019
1520 Clouds 3 1036 64 10000 3.6 120 19:37 29.12.2019
1521 Clouds 3 1036 64 10000 2.6 110 19:19 29.12.2019
1522 Clouds 2 1036 64 10000 2.6 110 18:55 29.12.2019
1523 Clouds 2 1036 64 10000 2.6 110 18:37 29.12.2019
1524 Clouds 2 1036 64 10000 2.6 110 18:18 29.12.2019
1525 Clouds 2 1036 59 10000 2.1 110 17:56 29.12.2019
1526 Clouds 3 1036 59 10000 2.1 110 17:37 29.12.2019
1527 Clouds 3 1036 59 10000 2.1 110 17:37 29.12.2019
1528 Clouds 3 1036 59 10000 2.1 110 17:37 29.12.2019
1529 Clouds 3 1036 59 10000 3.1 120 17:19 29.12.2019
1530 Clouds 3 1036 64 10000 3.1 120 16:55 29.12.2019
1531 Clouds 3 1036 64 10000 3.1 120 16:36 29.12.2019
1532 Clouds 3 1037 60 10000 2.6 110 16:18 29.12.2019
1533 Clouds 4 1037 60 10000 2.6 110 15:56 29.12.2019
1534 Clouds 4 1037 60 10000 1.5 110 15:38 29.12.2019
1535 Clouds 4 1036 60 10000 3.6 110 15:18 29.12.2019
1536 Clouds 4 1037 60 10000 3.6 110 14:55 29.12.2019
1537 Clouds 4 1037 60 10000 3.6 110 14:37 29.12.2019
1538 Clouds 4 1037 64 10000 4.1 130 14:18 29.12.2019
1539 Clouds 4 1037 64 10000 4.1 130 13:55 29.12.2019
1540 Clouds 3 1037 64 10000 4.1 130 13:37 29.12.2019
1541 Clouds 3 1037 64 10000 3.6 110 13:18 29.12.2019
1542 Clouds 3 1038 69 10000 3.1 110 12:42 29.12.2019
1543 Clouds 2 1038 69 10000 3.1 110 12:24 29.12.2019
1544 Clouds 2 1038 69 10000 3.1 110 11:56 29.12.2019
1545 Clouds 2 1039 69 10000 2.6 110 11:37 29.12.2019
1546 Clouds 1 1039 74 10000 3.6 120 11:19 29.12.2019
1547 Clouds 1 1039 74 10000 2.6 110 10:42 29.12.2019
1548 Clouds 1 1039 74 10000 2.6 110 10:23 29.12.2019
1549 Clouds 0 1038 64 10000 3.1 110 09:57 29.12.2019
1550 Clouds 0 1038 64 10000 3.1 110 09:38 29.12.2019
1551 Clouds 0 1038 80 10000 3.6 110 09:20 29.12.2019
1552 Clouds -1 1039 80 10000 2.6 100 08:47 29.12.2019
1553 Clouds -1 1038 80 10000 3.6 100 08:24 29.12.2019
1554 Clouds -1 1039 80 10000 2.1 90 07:55 29.12.2019
1555 Clouds -1 1039 80 10000 2.1 90 07:28 29.12.2019
1556 Clouds -1 1038 80 10000 2.1 110 06:56 29.12.2019
1557 Clouds -1 1039 80 10000 2.1 100 06:26 29.12.2019
1558 Clouds -1 1038 80 10000 2.6 90 05:52 29.12.2019
1559 Clouds -1 1039 80 10000 2.6 90 04:36 29.12.2019
1560 Clouds -1 1039 86 10000 1.5 100 03:54 29.12.2019
1561 Clouds -1 1039 86 10000 2.6 100 03:20 29.12.2019
1562 Clouds 0 1039 86 10000 1.5 80 02:20 29.12.2019
1563 Clouds 0 1039 71 10000 2.1 110 01:38 29.12.2019
1564 Clouds 0 1039 71 10000 4.1 130 01:19 29.12.2019
1565 Clouds 0 1039 71 10000 2.6 110 00:40 29.12.2019
1566 Clouds 0 1040 71 10000 3.1 100 00:22 29.12.2019
1567 Clouds 0 1040 71 10000 2.6 100 23:44 28.12.2019
1568 Clouds 0 1040 70 10000 3.1 110 23:18 28.12.2019
1569 Clouds 0 1040 70 10000 3.1 110 23:18 28.12.2019
1570 Clouds 0 1041 70 10000 2.1 90 22:39 28.12.2019
1571 Clouds 1 1040 80 10000 2.1 90 22:21 28.12.2019
1572 Clouds 1 1040 74 10000 2.6 90 21:58 28.12.2019
1573 Clouds 0 1040 74 10000 2.6 90 21:40 28.12.2019
1574 Clouds 0 1041 80 10000 2.1 100 21:22 28.12.2019
1575 Clouds 0 1041 80 10000 2.1 100 20:59 28.12.2019
1576 Clouds 1 1040 80 10000 2.1 90 20:38 28.12.2019
1577 Clouds 1 1041 80 10000 2.6 110 20:20 28.12.2019
1578 Clouds 1 1041 80 10000 2.6 110 19:58 28.12.2019
1579 Clouds 1 1041 80 10000 2.6 110 19:58 28.12.2019
1580 Clouds 1 1040 80 10000 2.1 110 19:39 28.12.2019
1581 Clouds 1 1040 80 10000 1.5 150 19:21 28.12.2019
1582 Clouds 1 1040 74 10000 3.1 130 18:58 28.12.2019
1583 Clouds 1 1040 74 10000 3.1 130 18:40 28.12.2019
1584 Clouds 1 1040 74 10000 3.1 120 18:19 28.12.2019
1585 Clouds 1 1040 74 10000 3.1 120 17:56 28.12.2019
1586 Clouds 1 1040 74 10000 2.6 130 17:38 28.12.2019
1587 Clouds 2 1040 74 10000 1.5 110 17:19 28.12.2019
1588 Clouds 2 1040 80 10000 1.5 100 16:46 28.12.2019
1589 Clouds 3 1040 74 10000 2.1 110 16:26 28.12.2019
1590 Clouds 3 1040 74 10000 1.5 110 15:57 28.12.2019
1591 Clouds 3 1040 74 10000 1.5 110 15:39 28.12.2019
1592 Clouds 3 1040 74 10000 3.6 130 15:19 28.12.2019
1593 Clouds 3 1039 69 10000 4.6 130 14:44 28.12.2019
1594 Clouds 3 1040 74 10000 4.1 140 14:24 28.12.2019
1595 Clouds 3 1040 74 10000 4.1 140 14:24 28.12.2019
1596 Clouds 3 1040 74 10000 4.1 140 13:57 28.12.2019
1597 Clouds 3 1040 74 10000 2.6 130 13:38 28.12.2019
1598 Clouds 2 1040 80 10000 2.6 120 13:19 28.12.2019
1599 Clouds 2 1040 80 10000 3.1 120 12:44 28.12.2019
1600 Clouds 2 1040 80 10000 3.6 120 12:25 28.12.2019
1601 Clouds 1 1041 80 10000 2.6 120 11:59 28.12.2019
1602 Clouds 1 1041 80 10000 2.6 120 11:39 28.12.2019
1603 Clouds 1 1040 80 10000 3.1 120 11:21 28.12.2019
1604 Clouds 1 1041 80 10000 1.5 110 10:47 28.12.2019
1605 Clouds 0 1040 81 10000 2.1 100 10:23 28.12.2019
1606 Clouds 0 1040 81 10000 2.1 100 09:59 28.12.2019
1607 Clouds -1 1040 86 10000 1.5 80 09:41 28.12.2019
1608 Clouds -1 1040 92 10000 1.5 70 09:23 28.12.2019
1609 Clouds -1 1040 92 10000 1.5 70 08:57 28.12.2019
1610 Clouds -1 1040 86 10000 2.1 80 08:38 28.12.2019
1611 Clouds -1 1040 92 10000 2.6 80 08:19 28.12.2019
1612 Clouds -1 1040 100 10000 1 0 07:41 28.12.2019
1613 Clouds -1 1039 92 10000 0.5 0 06:59 28.12.2019
1614 Clouds -1 1038 92 10000 1.5 120 05:43 28.12.2019
1615 Clouds 0 1038 83 10000 2.6 70 03:48 28.12.2019
1616 Clouds 0 1038 83 10000 2.1 80 02:50 28.12.2019
1617 Clouds 1 1038 86 10000 2.6 80 02:20 28.12.2019
1618 Clouds 1 1037 79 10000 2.1 80 01:54 28.12.2019
1619 Clouds 1 1037 86 10000 2.1 110 01:22 28.12.2019
1620 Clouds 2 1037 79 10000 2.1 90 00:45 28.12.2019
1621 Clouds 2 1037 79 10000 3.1 80 00:27 28.12.2019
1622 Clouds 2 1037 79 10000 3.1 80 23:58 27.12.2019
1623 Clouds 2 1036 79 10000 1.5 80 23:38 27.12.2019
1624 Clouds 2 1036 93 10000 1.5 100 23:18 27.12.2019
1625 Clouds 3 1036 86 10000 2.1 100 22:55 27.12.2019
1626 Clouds 3 1036 86 10000 2.1 100 22:37 27.12.2019
1627 Clouds 3 1035 93 10000 1.5 120 22:19 27.12.2019
1628 Clouds 3 1035 86 10000 1 0 21:43 27.12.2019
1629 Clouds 3 1035 86 10000 1 0 21:24 27.12.2019
1630 Clouds 4 1035 86 10000 1 0 20:45 27.12.2019
1631 Clouds 3 1034 86 10000 0.5 140 20:26 27.12.2019
1632 Clouds 4 1034 86 10000 1 0 19:59 27.12.2019
1633 Clouds 4 1034 86 10000 1 0 19:41 27.12.2019
1634 Clouds 4 1034 86 10000 1.5 30 19:20 27.12.2019
1635 Clouds 4 1034 86 10000 1.5 30 19:20 27.12.2019
1636 Clouds 4 1033 93 10000 1 0 18:57 27.12.2019
1637 Clouds 4 1033 93 10000 1 0 18:37 27.12.2019
1638 Clouds 5 1033 86 10000 1 0 18:19 27.12.2019
1639 Clouds 5 1032 86 10000 2.1 50 17:55 27.12.2019
1640 Clouds 5 1032 86 10000 2.1 50 17:55 27.12.2019
1641 Clouds 5 1032 86 10000 2.1 50 17:37 27.12.2019
1642 Clouds 5 1032 80 10000 1.5 60 17:18 27.12.2019
1643 Clouds 5 1032 75 10000 1.5 40 16:44 27.12.2019
1644 Clouds 6 1031 70 10000 1.5 80 16:26 27.12.2019
1645 Clouds 6 1030 75 10000 1 0 15:59 27.12.2019
1646 Clouds 6 1030 75 10000 1 0 15:40 27.12.2019
1647 Clouds 6 1030 70 10000 3.1 120 15:20 27.12.2019
1648 Clouds 6 1029 70 10000 3.1 120 14:56 27.12.2019
1649 Clouds 6 1029 70 10000 3.1 120 14:38 27.12.2019
1650 Clouds 6 1029 75 10000 2.6 90 14:20 27.12.2019
1651 Clouds 6 1028 81 10000 4.6 90 13:48 27.12.2019
1652 Clouds 5 1028 81 10000 2.6 90 13:25 27.12.2019
1653 Clouds 5 1028 81 10000 2.6 90 13:25 27.12.2019
1654 Clouds 5 1028 81 10000 2.6 90 12:58 27.12.2019
1655 Clouds 5 1028 81 10000 4.6 70 12:39 27.12.2019
1656 Clouds 5 1028 81 10000 4.6 60 12:21 27.12.2019
1657 Clouds 5 1027 87 10000 3.6 50 11:43 27.12.2019
1658 Clouds 5 1027 87 10000 3.6 50 11:43 27.12.2019
1659 Clouds 5 1027 87 10000 2.6 70 11:23 27.12.2019
1660 Clouds 5 1027 87 10000 2.6 70 10:55 27.12.2019
1661 Clouds 5 1026 86 10000 2.6 70 10:37 27.12.2019
1662 Clouds 5 1025 86 10000 3.1 70 10:19 27.12.2019
1663 Clouds 5 1024 86 10000 3.6 70 09:42 27.12.2019
1664 Clouds 5 1023 93 10000 2.1 70 09:21 27.12.2019
1665 Clouds 5 1023 93 10000 2.1 120 08:56 27.12.2019
1666 Clouds 5 1023 93 10000 2.1 120 08:36 27.12.2019
1667 Clouds 5 1022 93 10000 2.6 80 07:51 27.12.2019
1668 Clouds 5 1022 93 10000 2.6 80 07:32 27.12.2019
1669 Drizzle 5 1021 93 10000 2.6 80 06:37 27.12.2019
1670 Drizzle 5 1020 93 10000 2.6 90 05:37 27.12.2019
1671 Drizzle 5 1020 93 10000 3.6 110 03:44 27.12.2019
1672 Drizzle 5 1020 93 10000 3.1 110 02:21 27.12.2019
1673 Drizzle 5 1020 93 9000 3.6 110 01:42 27.12.2019
1674 Drizzle 5 1020 93 8000 3.6 130 01:20 27.12.2019
1675 Drizzle 5 1021 93 10000 3.6 120 00:44 27.12.2019
1676 Drizzle 5 1021 93 7000 3.1 120 00:24 27.12.2019
1677 Drizzle 5 1021 86 7000 4.1 160 23:42 26.12.2019
1678 Clouds 5 1021 86 10000 3.1 150 23:23 26.12.2019
1679 Clouds 5 1021 86 10000 3.1 150 22:58 26.12.2019
1680 Clouds 5 1021 86 10000 3.1 140 22:37 26.12.2019
1681 Clouds 5 1021 86 10000 3.6 130 22:18 26.12.2019
1682 Clouds 5 1021 86 10000 3.6 140 21:39 26.12.2019
1683 Clouds 5 1021 86 10000 3.6 130 21:21 26.12.2019
1684 Clouds 5 1021 81 10000 3.6 130 20:54 26.12.2019
1685 Clouds 5 1021 81 10000 3.6 130 20:36 26.12.2019
1686 Clouds 5 1021 86 10000 4.1 140 20:18 26.12.2019
1687 -273 0 0 0 0 0 20:18 26.12.2019
1688 Clouds 5 1021 81 10000 4.1 130 19:54 26.12.2019
1689 Clouds 5 1021 81 10000 4.1 130 19:36 26.12.2019
1690 Clouds 5 1022 81 10000 3.6 130 19:18 26.12.2019
1691 Clouds 5 1022 81 10000 3.6 130 18:55 26.12.2019
1692 Rain 5 1022 81 10000 3.1 130 18:36 26.12.2019
1693 Clouds 5 1022 86 10000 2.1 120 18:18 26.12.2019
1694 Clouds 5 1022 81 10000 1.5 130 17:40 26.12.2019
1695 Clouds 5 1022 81 10000 2.1 100 17:20 26.12.2019
1696 Clouds 5 1023 81 10000 2.6 120 16:48 26.12.2019
1697 Clouds 6 1023 87 10000 2.6 140 16:26 26.12.2019
1698 Clouds 6 1023 87 10000 2.6 140 15:57 26.12.2019
1699 Clouds 6 1022 87 10000 2.6 120 15:38 26.12.2019
1700 Clouds 6 1022 87 10000 2.6 100 15:19 26.12.2019
1701 Clouds 6 1022 87 10000 2.6 130 14:41 26.12.2019
1702 Clouds 6 1022 87 10000 2.6 130 14:23 26.12.2019
1703 Clouds 6 1023 81 10000 3.1 120 13:55 26.12.2019
1704 Clouds 6 1024 81 10000 3.6 130 13:36 26.12.2019
1705 Clouds 6 1024 87 10000 2.6 130 13:18 26.12.2019
1706 Clouds 6 1024 81 10000 2.1 120 12:45 26.12.2019
1707 Clouds 6 1024 87 10000 3.1 140 12:25 26.12.2019
1708 Clouds 6 1024 87 10000 3.1 140 11:59 26.12.2019
1709 Clouds 5 1025 87 0 3.6 140 11:40 26.12.2019
1710 Clouds 5 1025 87 0 3.6 140 11:40 26.12.2019
1711 Clouds 5 1025 87 8000 2.1 130 11:21 26.12.2019
1712 Clouds 5 1025 93 7000 2.6 100 10:50 26.12.2019
1713 Clouds 5 1025 93 6000 2.1 90 10:27 26.12.2019
1714 Clouds 5 1025 93 6000 2.1 90 09:59 26.12.2019
1715 Mist 4 1025 93 4500 1.5 70 09:41 26.12.2019
1716 Mist 4 1025 93 4500 1 120 09:22 26.12.2019
1717 Mist 4 1025 100 4000 1.5 110 08:40 26.12.2019
1718 Mist 4 1025 100 3500 2.1 130 08:21 26.12.2019
1719 Mist 5 1025 100 3500 2.1 120 07:46 26.12.2019
1720 Mist 5 1025 100 4500 1 60 07:26 26.12.2019
1721 Mist 5 1025 100 4500 2.1 140 06:39 26.12.2019
1722 Mist 5 1025 100 4500 1.5 130 06:20 26.12.2019
1723 Mist 5 1025 100 4500 1 150 05:43 26.12.2019
1724 Mist 5 1025 100 4500 1 150 05:43 26.12.2019
1725 Mist 5 1026 93 4500 1.5 150 04:36 26.12.2019
1726 Mist 5 1025 93 4500 1 70 03:46 26.12.2019
1727 Mist 5 1025 93 2500 1.5 140 02:49 26.12.2019
1728 Mist 5 1025 93 2500 1.5 140 02:31 26.12.2019
1729 Clouds 5 1026 100 8000 1.5 290 01:45 26.12.2019
1730 Clouds 5 1026 100 8000 1.5 290 01:26 26.12.2019
1731 Clouds 6 1026 93 10000 1.5 220 00:47 26.12.2019
1732 Clouds 6 1026 93 10000 1 0 00:24 26.12.2019
1733 Clouds 6 1026 93 10000 1 0 00:24 26.12.2019
1734 Clouds 6 1026 93 10000 1 0 23:58 25.12.2019
1735 Clouds 6 1026 100 10000 2.1 270 23:38 25.12.2019
1736 Clouds 6 1025 93 10000 1.5 260 23:20 25.12.2019
1737 Clouds 6 1026 93 10000 2.1 270 22:57 25.12.2019
1738 Clouds 6 1026 93 10000 2.1 270 22:38 25.12.2019
1739 Clouds 6 1025 93 10000 2.6 300 22:19 25.12.2019
1740 Clouds 6 1025 93 10000 2.6 280 21:57 25.12.2019
1741 Clouds 6 1025 93 10000 2.6 280 21:39 25.12.2019
1742 Rain 6 1025 100 10000 2.1 280 21:19 25.12.2019
1743 Clouds 6 1025 93 10000 3.1 280 20:41 25.12.2019
1744 Clouds 6 1025 93 10000 3.1 280 20:41 25.12.2019
1745 Clouds 6 1025 93 10000 2.6 270 20:21 25.12.2019
1746 Clouds 6 1025 93 10000 2.6 270 19:59 25.12.2019
1747 Clouds 6 1024 93 10000 3.1 280 19:41 25.12.2019
1748 Rain 6 1024 87 10000 3.6 290 19:22 25.12.2019
1749 Rain 6 1024 93 10000 4.6 280 18:54 25.12.2019
1750 Rain 6 1024 93 10000 4.6 280 18:36 25.12.2019
1751 Rain 6 1024 87 10000 4.6 290 18:18 25.12.2019
1752 Rain 7 1024 93 10000 5.1 280 17:40 25.12.2019
1753 Clouds 7 1023 93 10000 3.6 270 17:19 25.12.2019
1754 Clouds 7 1023 93 10000 4.1 290 16:56 25.12.2019
1755 Clouds 7 1023 93 10000 4.1 290 16:37 25.12.2019
1756 Clouds 7 1023 87 10000 3.1 310 16:18 25.12.2019
1757 Clouds 7 1023 87 10000 3.1 310 16:18 25.12.2019
1758 Clouds 7 1022 87 10000 5.1 310 15:56 25.12.2019
1759 Clouds 7 1022 87 10000 5.1 310 15:38 25.12.2019
1760 Rain 7 1022 87 10000 5.1 300 15:19 25.12.2019
1761 Rain 7 1022 87 10000 5.1 300 15:19 25.12.2019
1762 Rain 7 1022 87 10000 5.1 300 14:56 25.12.2019
1763 Rain 7 1021 93 10000 5.7 300 14:37 25.12.2019
1764 Rain 7 1021 87 10000 5.1 310 14:19 25.12.2019
1765 Clouds 7 1021 93 10000 5.7 310 13:44 25.12.2019
1766 Rain 7 1020 93 10000 4.1 320 13:21 25.12.2019
1767 Clouds 7 1020 93 10000 5.7 300 12:56 25.12.2019
1768 Clouds 7 1020 93 10000 5.7 300 12:38 25.12.2019
1769 Clouds 7 1019 93 10000 6.2 310 12:19 25.12.2019
1770 Clouds 7 1019 93 10000 7.7 310 11:43 25.12.2019
1771 Clouds 7 1018 93 10000 7.7 290 11:22 25.12.2019
1772 Clouds 7 1018 93 10000 7.7 290 10:59 25.12.2019
1773 Rain 7 1017 93 10000 7.2 280 10:36 25.12.2019
1774 Rain 7 1017 93 10000 7.7 280 10:18 25.12.2019
1775 Rain 7 1016 87 10000 7.7 280 09:44 25.12.2019
1776 Rain 7 1016 93 10000 7.2 280 09:26 25.12.2019
1777 Clouds 7 1015 87 10000 8.7 280 08:46 25.12.2019
1778 Clouds 7 1015 87 10000 7.7 280 08:26 25.12.2019
1779 Rain 7 1014 87 10000 6.2 300 07:48 25.12.2019
1780 Rain 7 1014 93 10000 3.6 280 07:29 25.12.2019
1781 Clouds 7 1013 93 10000 6.2 280 06:49 25.12.2019
1782 Rain 8 1013 93 10000 6.2 260 06:22 25.12.2019
1783 Rain 8 1013 100 10000 4.1 260 05:18 25.12.2019
1784 Rain 8 1013 100 8000 3.1 290 04:38 25.12.2019
1785 Rain 8 1013 100 9000 3.6 270 04:18 25.12.2019
1786 Rain 8 1012 100 10000 2.6 260 03:40 25.12.2019
1787 Rain 8 1012 100 9000 4.6 270 02:39 25.12.2019
1788 Rain 8 1012 87 10000 4.6 270 02:20 25.12.2019
1789 Rain 9 1012 93 9000 4.6 270 01:25 25.12.2019
1790 Clouds 9 1012 81 10000 4.6 240 00:52 25.12.2019
1791 Clouds 9 1012 81 10000 6.2 250 00:29 25.12.2019
1792 Clouds 9 1011 81 10000 6.2 250 23:56 24.12.2019
1793 Clouds 9 1011 81 10000 6.2 250 23:38 24.12.2019
1794 Clouds 9 1011 81 10000 6.2 250 23:20 24.12.2019
1795 Clouds 9 1011 81 10000 6.2 240 22:40 24.12.2019
1796 Clouds 9 1011 81 10000 7.2 250 22:21 24.12.2019
1797 Clouds 9 1011 81 10000 7.2 250 21:44 24.12.2019
1798 Clouds 9 1011 81 10000 7.2 250 21:23 24.12.2019
1799 Rain 9 1010 81 10000 8.2 250 20:57 24.12.2019
1800 Rain 9 1010 81 10000 8.2 250 20:39 24.12.2019
1801 Clouds 9 1010 81 10000 6.7 250 20:19 24.12.2019
1802 Clouds 9 1010 87 10000 7.2 260 19:44 24.12.2019
1803 Rain 8 1010 81 10000 7.2 250 19:20 24.12.2019
1804 Rain 8 1010 87 10000 6.7 240 18:57 24.12.2019
1805 Rain 8 1010 87 10000 6.7 240 18:38 24.12.2019
1806 Rain 9 1009 93 10000 7.2 280 18:18 24.12.2019
1807 Rain 9 1009 76 10000 6.2 250 17:39 24.12.2019
1808 Clouds 9 1009 81 10000 7.2 280 17:21 24.12.2019
1809 Rain 9 1008 81 10000 7.7 260 16:56 24.12.2019
1810 Rain 10 1008 81 10000 7.7 260 16:38 24.12.2019
1811 Rain 10 1008 81 10000 5.7 270 16:20 24.12.2019
1812 Rain 10 1008 81 10000 5.7 270 15:56 24.12.2019
1813 Clouds 10 1008 71 10000 8.7 260 15:36 24.12.2019
1814 Clouds 10 1008 71 10000 7.2 260 15:18 24.12.2019
1815 Clouds 10 1008 71 10000 8.7 270 14:57 24.12.2019
1816 Clouds 10 1008 71 10000 8.7 270 14:38 24.12.2019
1817 Clouds 10 1008 71 10000 8.7 260 14:20 24.12.2019
1818 Clouds 10 1008 71 10000 8.7 260 13:55 24.12.2019
1819 Clouds 10 1007 76 10000 7.7 250 13:37 24.12.2019
1820 Clouds 10 1007 81 10000 4.6 220 13:19 24.12.2019
1821 Clouds 10 1007 87 10000 4.1 180 12:55 24.12.2019
1822 Clouds 9 1007 87 10000 4.1 180 12:36 24.12.2019
1823 Clouds 8 1008 93 10000 4.6 170 12:18 24.12.2019
1824 Rain 8 1008 93 10000 4.1 150 11:55 24.12.2019
1825 Rain 7 1008 93 10000 4.1 150 11:37 24.12.2019
1826 Rain 7 1008 93 10000 4.1 150 11:18 24.12.2019
1827 Drizzle 7 1009 93 6000 4.1 140 10:56 24.12.2019
1828 Drizzle 6 1009 93 6000 4.1 140 10:37 24.12.2019
1829 Drizzle 7 1009 93 6000 4.1 140 10:37 24.12.2019
1830 Drizzle 6 1009 93 4000 4.1 150 10:19 24.12.2019
1831 Drizzle 7 1009 81 8000 3.6 140 09:55 24.12.2019
1832 Drizzle 7 1009 81 8000 3.6 140 09:37 24.12.2019
1833 Drizzle 7 1009 81 8000 3.6 140 09:37 24.12.2019
1834 Rain 6 1010 87 10000 4.1 120 09:19 24.12.2019
1835 Rain 6 1010 87 10000 4.1 120 08:45 24.12.2019
1836 Clouds 6 1011 81 10000 3.1 120 08:24 24.12.2019
1837 Clouds 6 1012 81 10000 2.6 120 07:46 24.12.2019
1838 Clouds 6 1012 81 10000 3.6 120 07:27 24.12.2019
1839 Clouds 6 1012 81 10000 3.6 120 06:59 24.12.2019
1840 Clouds 6 1013 81 10000 4.6 140 06:39 24.12.2019
1841 Clouds 6 1013 86 10000 4.6 140 06:19 24.12.2019
1842 Clouds 6 1014 86 10000 4.1 150 05:49 24.12.2019
1843 Clouds 6 1014 81 10000 4.6 160 05:18 24.12.2019
1844 Clouds 6 1015 81 10000 4.1 180 03:55 24.12.2019
1845 Clouds 6 1015 81 10000 4.6 170 03:33 24.12.2019
1846 Clouds 6 1016 81 10000 3.1 150 02:28 24.12.2019
1847 Clouds 6 1015 81 10000 3.1 190 01:54 24.12.2019
1848 Clouds 6 1016 87 10000 3.1 200 01:25 24.12.2019
1849 Clouds 6 1015 81 10000 3.6 210 00:58 24.12.2019
1850 Clouds 6 1015 81 10000 3.6 210 00:39 24.12.2019
1851 Clouds 6 1015 87 10000 4.1 240 00:19 24.12.2019
1852 Clouds 6 1015 81 10000 5.1 250 23:42 23.12.2019
1853 Clouds 6 1015 81 10000 5.1 250 23:42 23.12.2019
1854 Clouds 6 1015 81 10000 5.1 260 23:24 23.12.2019
1855 Clouds 7 1015 87 10000 5.7 260 22:57 23.12.2019
1856 Clouds 7 1015 87 10000 5.7 260 22:38 23.12.2019
1857 Clouds 7 1015 87 10000 5.7 260 22:38 23.12.2019
1858 Clouds 7 1014 81 10000 4.6 250 22:20 23.12.2019
1859 Clouds 7 1014 81 10000 4.6 250 22:20 23.12.2019
1860 Clouds 7 1014 87 10000 4.6 250 21:56 23.12.2019
1861 Clouds 7 1014 87 10000 4.6 250 21:37 23.12.2019
1862 Clouds 7 1013 81 10000 5.7 250 21:19 23.12.2019
1863 Clouds 7 1013 75 10000 5.1 250 20:59 23.12.2019
1864 Clouds 7 1013 75 10000 5.1 250 20:40 23.12.2019
1865 Clouds 7 1013 81 10000 4.1 250 20:19 23.12.2019
1866 Clouds 7 1013 81 10000 4.1 250 19:58 23.12.2019
1867 Clouds 8 1013 81 10000 4.6 240 19:40 23.12.2019
1868 Clouds 7 1013 87 10000 4.1 240 19:21 23.12.2019
1869 Clouds 8 1013 87 10000 4.1 240 18:58 23.12.2019
1870 Clouds 7 1012 87 10000 3.1 240 18:58 23.12.2019
1871 Clouds 7 1012 87 10000 3.1 240 18:39 23.12.2019
1872 Clouds 7 1012 87 10000 3.6 260 18:21 23.12.2019
1873 Clouds 7 1012 87 10000 3.6 260 17:59 23.12.2019
1874 Clouds 7 1011 81 10000 5.1 270 17:40 23.12.2019
1875 Clouds 8 1011 87 10000 5.1 270 17:20 23.12.2019
1876 Rain 8 1010 87 10000 4.6 270 16:59 23.12.2019
1877 Rain 8 1010 87 10000 4.6 270 16:40 23.12.2019
1878 Rain 8 1010 87 10000 5.1 270 16:19 23.12.2019
1879 Rain 8 1010 87 10000 5.1 270 15:58 23.12.2019
1880 Rain 8 1009 87 10000 5.7 260 15:37 23.12.2019
1881 Clouds 8 1009 87 10000 6.7 270 15:19 23.12.2019
1882 Clouds 8 1008 87 10000 4.6 260 14:57 23.12.2019
1883 Clouds 8 1008 87 10000 4.6 260 14:39 23.12.2019
1884 Clouds 8 1008 93 10000 4.6 280 14:20 23.12.2019
1885 Clouds 8 1008 93 10000 4.6 280 13:57 23.12.2019
1886 Rain 8 1008 87 10000 7.7 260 13:39 23.12.2019
1887 Rain 8 1007 81 10000 5.7 260 13:21 23.12.2019
1888 Clouds 9 1007 76 10000 5.1 260 12:55 23.12.2019
1889 Clouds 8 1007 76 10000 5.1 260 12:37 23.12.2019
1890 Clouds 8 1007 76 10000 5.1 260 12:18 23.12.2019
1891 Clouds 8 1007 81 10000 4.6 260 11:43 23.12.2019
1892 Clouds 8 1006 81 10000 4.6 260 11:25 23.12.2019
1893 Clouds 8 1006 81 10000 4.1 260 10:56 23.12.2019
1894 Clouds 8 1006 81 10000 4.1 260 10:38 23.12.2019
1895 Clouds 7 1005 81 10000 6.2 270 10:20 23.12.2019
1896 Clouds 7 1005 81 10000 6.2 270 09:59 23.12.2019
1897 Clouds 7 1005 81 10000 6.2 260 09:39 23.12.2019
1898 Clouds 7 1004 87 10000 5.7 270 09:20 23.12.2019
1899 Clouds 7 1003 93 10000 4.6 260 08:56 23.12.2019
1900 Clouds 7 1003 93 10000 4.6 260 08:38 23.12.2019
1901 Rain 7 1003 93 10000 4.6 250 08:19 23.12.2019
1902 Clouds 7 1002 87 10000 5.1 250 07:43 23.12.2019
1903 Clouds 7 1002 81 10000 5.1 250 07:20 23.12.2019
1904 Rain 7 1001 87 10000 6.2 240 06:53 23.12.2019
1905 Clouds 7 1001 87 10000 3.1 230 06:25 23.12.2019
1906 Rain 7 1000 87 10000 2.6 240 05:50 23.12.2019
1907 Rain 7 1000 87 10000 3.1 210 05:27 23.12.2019
1908 Rain 7 1000 87 10000 4.1 230 04:31 23.12.2019
1909 Rain 7 998 93 10000 5.7 240 03:18 23.12.2019
1910 Clouds 7 998 81 10000 4.6 240 02:40 23.12.2019
1911 Clouds 7 997 87 10000 4.6 250 02:19 23.12.2019
1912 Clouds 7 997 81 10000 5.7 250 01:42 23.12.2019
1913 Clouds 7 996 81 10000 7.2 260 01:23 23.12.2019
1914 Clouds 7 996 81 10000 6.2 260 00:43 23.12.2019
1915 Clouds 7 995 81 10000 6.2 260 00:23 23.12.2019
1916 Clouds 7 995 81 10000 6.7 260 23:40 22.12.2019
1917 Clouds 7 995 81 10000 6.7 260 23:21 22.12.2019
1918 Clouds 7 995 81 10000 6.7 260 22:58 22.12.2019
1919 Clouds 7 994 87 10000 6.2 260 22:40 22.12.2019
1920 Clouds 7 993 81 10000 7.2 260 22:22 22.12.2019
1921 Clouds 7 993 81 10000 7.2 260 21:58 22.12.2019
1922 Rain 7 993 87 10000 7.2 260 21:40 22.12.2019
1923 Rain 7 992 93 10000 7.7 250 21:21 22.12.2019
1924 Rain 7 992 93 10000 7.7 250 21:21 22.12.2019
1925 Rain 7 992 93 10000 7.7 250 21:21 22.12.2019
1926 Rain 7 991 93 10000 8.2 260 20:59 22.12.2019
1927 Rain 7 991 93 10000 8.2 260 20:39 22.12.2019
1928 Rain 7 991 87 10000 8.7 260 20:19 22.12.2019
1929 Rain 7 990 87 10000 9.3 260 19:57 22.12.2019
1930 Rain 7 990 87 10000 9.3 260 19:39 22.12.2019
1931 Rain 7 989 87 10000 8.2 260 19:20 22.12.2019
1932 Rain 8 989 87 10000 8.2 250 18:42 22.12.2019
1933 Rain 8 988 87 10000 6.2 240 18:24 22.12.2019
1934 Rain 8 987 87 10000 6.2 240 17:57 22.12.2019
1935 Rain 8 987 87 10000 6.2 240 17:39 22.12.2019
1936 Rain 8 986 81 10000 5.1 230 17:19 22.12.2019
1937 Rain 8 986 81 10000 5.1 230 17:19 22.12.2019
1938 Rain 8 986 81 10000 8.7 230 16:59 22.12.2019
1939 Rain 8 986 81 10000 8.7 230 16:41 22.12.2019
1940 Rain 9 985 81 10000 4.6 240 16:22 22.12.2019
1941 Rain 9 985 87 10000 2.6 210 15:57 22.12.2019
1942 Rain 9 985 87 10000 2.6 210 15:39 22.12.2019
1943 Rain 9 985 87 10000 2.6 210 15:39 22.12.2019
1944 Rain 9 984 81 10000 3.6 220 15:20 22.12.2019
1945 Rain 9 984 81 10000 5.1 230 14:56 22.12.2019
1946 Rain 10 984 81 10000 5.1 230 14:38 22.12.2019
1947 Clouds 10 984 71 10000 5.7 230 14:19 22.12.2019
1948 Clouds 10 984 71 10000 5.7 230 14:19 22.12.2019
1949 Clouds 10 984 71 10000 5.7 230 13:56 22.12.2019
1950 Clouds 10 984 76 10000 3.1 220 13:38 22.12.2019
1951 Rain 10 984 81 10000 2.6 200 13:19 22.12.2019
1952 Rain 10 984 81 10000 2.6 200 13:19 22.12.2019
1953 Rain 10 984 76 10000 3.1 210 12:57 22.12.2019
1954 Rain 9 984 76 10000 3.1 210 12:38 22.12.2019
1955 Clouds 9 984 81 10000 5.1 170 12:19 22.12.2019
1956 Clouds 9 983 81 10000 5.1 160 11:56 22.12.2019
1957 Clouds 9 983 81 10000 5.1 160 11:38 22.12.2019
1958 Clouds 9 983 76 10000 5.7 130 11:19 22.12.2019
1959 Clouds 9 983 76 10000 5.7 130 10:57 22.12.2019
1960 Clouds 9 983 76 10000 5.7 130 10:57 22.12.2019
1961 Clouds 9 983 81 10000 5.7 130 10:38 22.12.2019
1962 Clouds 8 983 81 10000 5.7 140 10:19 22.12.2019
1963 Clouds 8 983 81 10000 5.7 140 09:58 22.12.2019
1964 Clouds 8 983 81 10000 5.7 140 09:58 22.12.2019
1965 Clouds 8 983 81 10000 6.7 130 09:39 22.12.2019
1966 Clouds 8 983 81 10000 5.7 130 09:21 22.12.2019
1967 Clouds 7 982 81 10000 5.1 130 08:45 22.12.2019
1968 Clouds 7 982 81 10000 5.7 130 08:23 22.12.2019
1969 Clouds 7 982 87 10000 5.1 130 07:50 22.12.2019
1970 Clouds 7 982 87 10000 4.6 130 07:22 22.12.2019
1971 Clouds 7 982 87 10000 5.1 130 06:56 22.12.2019
1972 Clouds 7 982 87 10000 5.7 130 06:27 22.12.2019
1973 Clouds 6 982 87 10000 5.1 140 05:43 22.12.2019
1974 Clouds 6 982 81 10000 5.1 130 05:21 22.12.2019
1975 Rain 6 982 81 10000 4.1 120 04:27 22.12.2019
1976 Clouds 7 983 87 10000 5.7 140 03:24 22.12.2019
1977 Clouds 6 983 87 10000 4.6 130 02:34 22.12.2019
1978 Rain 7 983 81 10000 5.7 120 01:33 22.12.2019
1979 Rain 7 983 70 10000 5.7 120 00:59 22.12.2019
1980 Clouds 7 984 65 10000 6.2 130 00:41 22.12.2019
1981 Clouds 7 984 70 10000 5.1 130 00:21 22.12.2019
1982 Rain 7 984 75 10000 6.7 130 23:42 21.12.2019
1983 Clouds 7 984 75 10000 5.1 130 23:24 21.12.2019
1984 Clouds 7 984 75 10000 5.1 130 22:59 21.12.2019
1985 Clouds 7 985 70 10000 5.7 130 22:40 21.12.2019
1986 Clouds 7 986 70 10000 4.1 130 22:19 21.12.2019
1987 Clouds 7 986 70 10000 4.1 130 21:57 21.12.2019
1988 Clouds 7 986 70 10000 5.1 120 21:37 21.12.2019
1989 Clouds 7 986 66 10000 5.7 130 21:19 21.12.2019
1990 Clouds 7 987 70 10000 4.6 120 20:58 21.12.2019
1991 Clouds 7 986 66 10000 5.7 130 20:58 21.12.2019
1992 Clouds 7 987 70 10000 4.6 120 20:39 21.12.2019
1993 Clouds 7 988 70 10000 5.1 130 20:21 21.12.2019
1994 Clouds 7 988 70 10000 5.1 130 19:58 21.12.2019
1995 Clouds 7 988 70 10000 4.1 140 19:40 21.12.2019
1996 Clouds 7 989 70 10000 5.1 150 19:19 21.12.2019
1997 Clouds 7 989 70 10000 5.1 150 19:19 21.12.2019
1998 Clouds 7 989 70 10000 4.6 180 18:45 21.12.2019
1999 Clouds 7 990 75 10000 4.6 180 18:24 21.12.2019
2000 Clouds 8 990 75 10000 4.6 180 17:57 21.12.2019
2001 Clouds 8 989 75 10000 4.1 160 17:39 21.12.2019
2002 Clouds 8 989 70 10000 5.7 190 17:21 21.12.2019
2003 Clouds 8 989 70 10000 5.1 190 16:58 21.12.2019
2004 Clouds 8 989 70 10000 5.1 190 16:40 21.12.2019
2005 Clouds 8 990 70 10000 7.2 190 16:19 21.12.2019
2006 Clouds 9 990 66 10000 7.2 190 15:57 21.12.2019
2007 Clouds 9 990 66 10000 7.2 190 15:38 21.12.2019
2008 Clouds 9 990 66 10000 5.7 190 15:19 21.12.2019
2009 Clouds 9 990 66 10000 6.7 200 14:56 21.12.2019
2010 Clouds 9 990 66 10000 6.7 200 14:56 21.12.2019
2011 Clouds 9 990 66 10000 6.7 200 14:37 21.12.2019
2012 Clouds 9 991 71 10000 5.1 180 14:18 21.12.2019
2013 Rain 9 991 71 10000 5.7 180 13:55 21.12.2019
2014 Rain 9 991 71 10000 5.7 180 13:37 21.12.2019
2015 Clouds 9 991 71 10000 5.1 140 13:18 21.12.2019
2016 Clouds 9 992 71 10000 6.2 160 12:54 21.12.2019
2017 Clouds 9 992 71 10000 6.2 160 12:36 21.12.2019
2018 Clouds 9 992 71 10000 5.1 140 12:18 21.12.2019
2019 Clouds 8 992 76 10000 5.7 150 11:42 21.12.2019
2020 Clouds 8 993 81 10000 5.7 130 11:24 21.12.2019
2021 Clouds 8 993 81 10000 5.7 130 10:56 21.12.2019
2022 Clouds 8 993 75 10000 4.1 140 10:38 21.12.2019
2023 Clouds 7 993 81 10000 4.6 140 10:19 21.12.2019
2024 Clouds 6 993 87 10000 4.1 170 09:43 21.12.2019
2025 Clouds 6 993 93 10000 3.1 150 09:21 21.12.2019
2026 Clouds 6 993 93 10000 3.1 150 08:59 21.12.2019
2027 Clouds 6 992 87 10000 4.1 140 08:39 21.12.2019
2028 Clouds 6 992 87 10000 4.1 140 08:21 21.12.2019
2029 Clouds 6 992 87 10000 4.1 130 07:44 21.12.2019
2030 Clouds 6 993 87 10000 3.1 130 07:22 21.12.2019
2031 Clouds 6 993 81 10000 5.1 140 06:45 21.12.2019
2032 Clouds 6 993 87 10000 2.6 120 06:26 21.12.2019
2033 Clouds 6 992 81 10000 5.1 170 05:55 21.12.2019
2034 Clouds 7 993 86 10000 4.6 150 04:58 21.12.2019
2035 Clouds 7 993 86 10000 4.6 150 04:58 21.12.2019
2036 Clouds 7 993 86 10000 4.6 160 03:59 21.12.2019
2037 Clouds 7 993 81 10000 5.7 150 03:18 21.12.2019
2038 Clouds 7 992 86 10000 5.1 160 02:18 21.12.2019
2039 Clouds 7 992 81 10000 4.1 160 01:41 21.12.2019
2040 Clouds 7 992 81 10000 4.6 160 01:22 21.12.2019
2041 Clouds 8 992 75 10000 3.6 170 00:37 21.12.2019
2042 Clouds 8 992 66 10000 3.6 200 00:18 21.12.2019
2043 Clouds 8 992 70 10000 4.1 200 23:38 20.12.2019
2044 Clouds 8 992 70 10000 4.1 200 23:19 20.12.2019
2045 Clouds 9 991 70 10000 5.1 180 22:57 20.12.2019
2046 Clouds 9 991 70 10000 5.1 180 22:36 20.12.2019
2047 Clouds 9 991 76 10000 4.1 190 22:18 20.12.2019
2048 Clouds 9 990 71 10000 3.1 170 21:40 20.12.2019
2049 Clouds 9 990 71 10000 4.1 210 21:20 20.12.2019
2050 Clouds 9 990 71 10000 4.6 210 20:57 20.12.2019
2051 Clouds 9 990 71 10000 4.6 210 20:38 20.12.2019
2052 Clouds 9 990 76 10000 3.6 200 20:18 20.12.2019
2053 Clouds 10 989 87 10000 3.1 220 19:42 20.12.2019
2054 Clouds 10 989 81 10000 5.1 180 19:21 20.12.2019
2055 Clouds 10 988 81 10000 5.1 170 18:58 20.12.2019
2056 Clouds 10 988 81 10000 5.1 170 18:39 20.12.2019
2057 Clouds 10 988 81 10000 4.1 170 18:21 20.12.2019
2058 Clouds 10 987 76 10000 3.6 200 17:56 20.12.2019
2059 Rain 11 987 81 10000 5.7 160 17:38 20.12.2019
2060 Rain 11 987 81 10000 5.7 160 17:20 20.12.2019
2061 Rain 11 987 81 10000 7.2 160 16:56 20.12.2019
2062 Clouds 11 987 76 10000 7.2 160 16:37 20.12.2019
2063 Clouds 11 987 76 10000 7.2 160 16:19 20.12.2019
2064 Clouds 11 987 81 10000 7.2 150 15:54 20.12.2019
2065 Clouds 11 986 87 10000 4.6 140 15:36 20.12.2019
2066 Clouds 11 987 76 10000 8.7 150 15:18 20.12.2019
2067 Clouds 11 985 76 10000 4.6 140 14:42 20.12.2019
2068 Clouds 11 987 76 10000 10.3 150 14:23 20.12.2019
2069 Clouds 11 987 76 10000 8.7 150 13:56 20.12.2019
2070 Clouds 11 988 76 10000 8.2 140 13:37 20.12.2019
2071 Clouds 11 988 76 10000 8.2 140 13:18 20.12.2019
2072 Clouds 11 988 76 10000 8.2 140 13:18 20.12.2019
2073 Clouds 10 988 76 10000 9.8 140 12:55 20.12.2019
2074 Clouds 10 989 71 10000 9.8 130 12:36 20.12.2019
2075 Clouds 10 989 71 10000 9.8 130 12:18 20.12.2019
2076 Rain 10 989 71 10000 8.2 150 11:57 20.12.2019
2077 Rain 10 990 62 10000 7.2 140 11:38 20.12.2019
2078 Rain 10 990 62 10000 7.2 140 11:18 20.12.2019
2079 Rain 10 991 70 10000 7.7 140 10:55 20.12.2019
2080 Rain 10 991 66 10000 8.2 140 10:37 20.12.2019
2081 Rain 10 991 66 10000 8.2 140 10:19 20.12.2019
2082 Rain 10 990 66 10000 6.7 130 09:42 20.12.2019
2083 Rain 10 991 70 10000 6.7 140 09:21 20.12.2019
2084 Clouds 9 991 70 10000 7.7 160 08:55 20.12.2019
2085 Clouds 9 992 70 10000 7.7 140 08:37 20.12.2019
2086 Clouds 9 992 70 10000 7.7 140 08:19 20.12.2019
2087 Clouds 9 992 75 10000 8.2 140 07:57 20.12.2019
2088 Clouds 9 991 75 10000 4.6 120 07:37 20.12.2019
2089 Clouds 9 993 75 10000 7.7 130 07:18 20.12.2019
2090 Clouds 9 992 75 10000 4.1 130 06:44 20.12.2019
2091 Clouds 9 994 70 10000 7.7 130 06:26 20.12.2019
2092 Clouds 10 994 70 10000 5.7 130 05:47 20.12.2019
2093 Clouds 9 996 70 10000 6.7 120 04:59 20.12.2019
2094 Clouds 10 997 70 10000 7.2 130 03:49 20.12.2019
2095 Clouds 10 998 70 10000 6.2 130 03:20 20.12.2019
2096 Clouds 10 999 70 10000 4.6 110 02:20 20.12.2019
2097 Clouds 10 1000 70 10000 4.6 120 01:36 20.12.2019
2098 Clouds 10 1001 76 10000 5.1 110 00:58 20.12.2019
2099 Clouds 10 1002 76 10000 5.1 120 00:36 20.12.2019
2100 Clouds 10 1003 76 10000 6.7 120 23:58 19.12.2019
2101 Clouds 10 1003 71 10000 6.2 130 23:40 19.12.2019
2102 Clouds 10 1003 71 10000 6.2 130 23:21 19.12.2019
2103 Clouds 10 1003 71 10000 6.2 130 23:21 19.12.2019
2104 Clouds 10 1003 76 10000 6.2 130 22:40 19.12.2019
2105 Clouds 10 1004 76 10000 6.7 130 22:22 19.12.2019
2106 Clouds 10 1005 76 10000 7.2 130 21:59 19.12.2019
2107 Clouds 10 1005 76 10000 7.2 130 21:59 19.12.2019
2108 Clouds 10 1005 76 10000 6.7 130 21:41 19.12.2019
2109 Clouds 10 1005 76 10000 6.7 130 21:20 19.12.2019
2110 Clouds 10 1005 76 10000 6.2 130 20:58 19.12.2019
2111 Clouds 10 1006 76 10000 7.2 130 20:38 19.12.2019
2112 Clear 10 1006 76 10000 7.2 130 20:20 19.12.2019
2113 Clear 10 1006 76 10000 7.2 130 20:20 19.12.2019
2114 Clear 10 1006 76 10000 6.7 130 19:59 19.12.2019
2115 Clear 10 1005 81 10000 5.7 140 19:40 19.12.2019
2116 Clear 10 1005 81 10000 5.7 140 19:40 19.12.2019
2117 Clear 10 1006 76 10000 7.7 130 19:20 19.12.2019
2118 Clear 10 1007 71 10000 7.7 140 18:59 19.12.2019
2119 Clear 10 1007 71 10000 7.7 140 18:40 19.12.2019
2120 Clear 11 1007 76 10000 8.2 130 18:20 19.12.2019
2121 Clear 11 1007 76 10000 8.2 140 17:56 19.12.2019
2122 Clear 11 1007 71 10000 6.7 130 17:38 19.12.2019
2123 Clear 11 1007 71 10000 6.7 130 17:18 19.12.2019
2124 Clear 12 1008 66 10000 7.7 140 16:57 19.12.2019
2125 Clear 12 1008 62 10000 6.2 140 16:38 19.12.2019
2126 Clear 12 1008 62 10000 6.2 140 16:20 19.12.2019
2127 Clear 12 1008 62 10000 6.2 140 16:20 19.12.2019
2128 Clear 12 1008 58 10000 5.1 130 15:58 19.12.2019
2129 Clouds 12 1007 71 10000 3.6 140 15:39 19.12.2019
2130 Clear 13 1008 58 10000 6.7 130 15:19 19.12.2019
2131 Clear 13 1008 58 10000 5.1 130 14:57 19.12.2019
2132 Clear 13 1009 58 10000 5.7 120 14:39 19.12.2019
2133 Clear 13 1009 58 10000 5.7 120 14:18 19.12.2019
2134 Clear 13 1009 62 10000 5.1 130 13:54 19.12.2019
2135 Clouds 13 1008 66 10000 4.1 140 13:36 19.12.2019
2136 Clear 13 1010 62 10000 5.1 140 13:18 19.12.2019
2137 Clear 13 1011 62 10000 5.7 120 12:54 19.12.2019
2138 Clear 13 1011 62 10000 5.7 130 12:36 19.12.2019
2139 Clear 13 1011 62 10000 5.7 130 12:18 19.12.2019
2140 Clear 13 1011 62 10000 5.7 130 12:18 19.12.2019
2141 Clear 13 1011 62 10000 5.7 130 12:18 19.12.2019
2142 Clear 13 1011 62 10000 5.7 130 12:18 19.12.2019
2143 Clear 12 1012 66 10000 5.7 130 11:42 19.12.2019
2144 Clear 11 1012 66 10000 5.7 130 11:20 19.12.2019
2145 Clear 11 1012 71 10000 6.2 140 10:59 19.12.2019
2146 Clouds 11 1011 87 10000 1.5 110 10:39 19.12.2019
2147 Clear 10 1012 71 10000 4.6 130 10:20 19.12.2019
2148 Clear 10 1012 76 10000 4.6 120 09:59 19.12.2019
2149 Clear 9 1012 71 10000 6.7 130 09:38 19.12.2019
2150 Clear 9 1012 71 10000 6.7 130 09:20 19.12.2019
2151 Clear 9 1012 71 10000 6.7 130 09:20 19.12.2019
2152 Clear 9 1012 76 10000 6.2 130 08:57 19.12.2019
2153 Clouds 9 1012 87 10000 1.5 130 08:39 19.12.2019
2154 Clouds 9 1012 76 10000 6.2 130 08:19 19.12.2019
2155 Clouds 9 1013 81 10000 5.7 130 07:56 19.12.2019
2156 Clouds 9 1013 81 10000 6.2 130 07:37 19.12.2019
2157 Clouds 9 1013 81 10000 6.2 130 07:19 19.12.2019
2158 Clouds 9 1013 93 10000 2.1 130 06:46 19.12.2019
2159 Clouds 9 1014 87 10000 2.1 130 06:27 19.12.2019
2160 Clouds 9 1014 87 10000 3.6 140 05:52 19.12.2019
2161 Clouds 9 1014 81 10000 4.6 130 05:32 19.12.2019
2162 Clouds 8 1013 87 10000 2.1 140 04:43 19.12.2019
2163 Clouds 8 1014 87 10000 6.2 130 02:49 19.12.2019
2164 Clouds 8 1014 81 10000 5.7 130 01:47 19.12.2019
2165 Clouds 8 1015 81 10000 4.6 130 01:22 19.12.2019
2166 Clouds 8 1015 87 10000 2.6 120 00:40 19.12.2019
2167 Clouds 8 1015 87 10000 5.7 120 00:21 19.12.2019
2168 Clouds 8 1016 81 10000 4.6 120 23:56 18.12.2019
2169 Clouds 8 1016 87 10000 4.1 110 23:38 18.12.2019
2170 Clear 8 1016 81 10000 3.6 110 23:18 18.12.2019
2171 Clear 8 1016 81 10000 3.6 110 22:55 18.12.2019
2172 Clear 8 1016 81 10000 4.1 120 22:36 18.12.2019
2173 Clear 8 1016 81 10000 4.1 120 22:18 18.12.2019
2174 Clear 7 1017 81 10000 4.1 120 21:55 18.12.2019
2175 Clouds 7 1016 87 10000 3.1 120 21:37 18.12.2019
2176 Clear 7 1017 81 10000 4.1 120 21:18 18.12.2019
2177 Clear 7 1017 81 10000 3.1 110 20:54 18.12.2019
2178 Clouds 7 1016 87 10000 4.6 140 20:36 18.12.2019
2179 Clear 7 1016 81 10000 4.1 120 20:18 18.12.2019
2180 Clear 7 1016 81 10000 4.1 130 19:54 18.12.2019
2181 Clouds 7 1016 87 10000 3.1 130 19:36 18.12.2019
2182 Clear 7 1017 87 10000 3.1 120 19:18 18.12.2019
2183 Clear 7 1017 87 10000 3.1 120 19:18 18.12.2019
2184 Clear 7 1017 87 10000 3.1 120 18:43 18.12.2019
2185 Clear 7 1017 81 10000 3.6 120 18:25 18.12.2019
2186 Clear 7 1017 81 10000 3.6 120 18:25 18.12.2019
2187 Clear 7 1017 75 10000 3.1 110 17:57 18.12.2019
2188 Clouds 7 1017 81 10000 2.1 120 17:38 18.12.2019
2189 Clouds 7 1017 81 10000 2.1 120 17:19 18.12.2019
2190 Clear 8 1018 70 10000 1.5 120 16:55 18.12.2019
2191 Clear 8 1018 70 10000 1.5 120 16:37 18.12.2019
2192 Clouds 9 1018 70 10000 2.1 150 16:18 18.12.2019
2193 Clouds 9 1018 70 10000 2.1 150 15:55 18.12.2019
2194 Clouds 9 1017 71 10000 3.1 170 15:37 18.12.2019
2195 Clouds 10 1017 71 10000 3.6 160 15:18 18.12.2019
2196 Clouds 10 1017 66 10000 3.6 170 14:40 18.12.2019
2197 Clouds 10 1017 66 10000 2.6 170 14:21 18.12.2019
2198 Clouds 10 1017 66 10000 2.6 140 13:57 18.12.2019
2199 Clouds 10 1017 66 10000 2.6 140 13:57 18.12.2019
2200 Clouds 10 1017 66 10000 2.6 140 13:38 18.12.2019
2201 Clouds 10 1017 76 10000 2.6 150 13:19 18.12.2019
2202 Clouds 10 1017 71 10000 2.1 140 12:57 18.12.2019
2203 Clouds 9 1017 71 10000 2.1 140 12:38 18.12.2019
2204 Clouds 9 1017 76 10000 1.5 160 12:19 18.12.2019
2205 Clouds 9 1017 76 10000 2.6 160 11:56 18.12.2019
2206 Clouds 9 1017 76 10000 2.6 160 11:38 18.12.2019
2207 Clouds 8 1017 76 10000 2.1 130 11:19 18.12.2019
2208 Clouds 7 1017 87 10000 1 0 10:55 18.12.2019
2209 Clouds 7 1017 87 10000 1 0 10:37 18.12.2019
2210 Clouds 7 1016 87 10000 2.1 170 10:19 18.12.2019
2211 Clouds 7 1016 87 10000 2.6 160 09:50 18.12.2019
2212 Clouds 7 1016 87 10000 2.6 160 09:50 18.12.2019
2213 Clouds 7 1016 87 10000 2.6 160 09:18 18.12.2019
2214 Clouds 7 1015 87 10000 2.6 150 08:41 18.12.2019
2215 Clouds 7 1015 87 10000 2.1 170 08:23 18.12.2019
2216 Clouds 7 1014 87 10000 2.1 170 07:55 18.12.2019
2217 Clouds 7 1014 87 10000 2.1 170 07:37 18.12.2019
2218 Clouds 7 1014 81 10000 2.1 170 07:19 18.12.2019
2219 Clouds 7 1014 87 10000 2.1 150 06:50 18.12.2019
2220 Clouds 7 1013 87 10000 2.1 180 06:22 18.12.2019
2221 Clouds 8 1013 81 10000 2.6 290 05:27 18.12.2019
2222 Clouds 8 1012 87 10000 4.6 250 03:45 18.12.2019
2223 Clouds 9 1010 87 10000 5.1 270 02:43 18.12.2019
2224 Rain 9 1010 87 10000 4.1 260 02:25 18.12.2019
2225 Rain 9 1009 87 10000 5.1 280 01:43 18.12.2019
2226 Rain 9 1009 87 10000 7.2 270 01:24 18.12.2019
2227 Rain 10 1008 87 10000 5.1 270 00:42 18.12.2019
2228 Rain 10 1007 87 10000 3.1 200 00:24 18.12.2019
2229 Rain 10 1007 93 10000 2.6 200 23:58 17.12.2019
2230 Rain 10 1007 93 10000 2.6 200 23:39 17.12.2019
2231 Rain 11 1006 93 10000 3.1 200 23:21 17.12.2019
2232 Rain 11 1006 87 10000 3.6 200 22:57 17.12.2019
2233 Rain 11 1006 87 10000 3.6 200 22:39 17.12.2019
2234 Rain 11 1005 82 10000 5.7 210 22:19 17.12.2019
2235 Rain 12 1004 87 9000 4.1 230 21:57 17.12.2019
2236 Rain 12 1004 71 10000 5.1 200 21:38 17.12.2019
2237 Rain 12 1004 71 10000 5.1 200 21:38 17.12.2019
2238 Rain 12 1002 76 10000 5.1 190 21:20 17.12.2019
2239 Rain 13 1003 67 10000 6.2 180 20:59 17.12.2019
2240 Rain 13 1003 62 10000 5.7 190 20:39 17.12.2019
2241 Clouds 13 1004 62 10000 5.1 170 20:19 17.12.2019
2242 Clouds 13 1004 58 10000 6.2 170 19:57 17.12.2019
2243 Clouds 13 1004 58 10000 6.2 170 19:39 17.12.2019
2244 Clouds 14 1004 58 10000 5.1 170 19:19 17.12.2019
2245 Clouds 14 1004 58 10000 5.1 170 18:57 17.12.2019
2246 Clouds 14 1004 58 10000 5.1 170 18:57 17.12.2019
2247 Clouds 14 1004 58 10000 5.1 170 18:57 17.12.2019
2248 Clouds 13 1004 66 10000 4.1 160 18:38 17.12.2019
2249 Clouds 14 1004 58 10000 5.1 170 18:20 17.12.2019
2250 Clouds 14 1004 58 10000 4.6 170 17:55 17.12.2019
2251 Clouds 14 1004 58 10000 4.6 170 17:37 17.12.2019
2252 Clouds 14 1003 54 10000 2.1 180 17:18 17.12.2019
2253 Clouds 14 1003 58 10000 4.1 170 16:55 17.12.2019
2254 Clouds 15 1003 58 10000 4.1 170 16:36 17.12.2019
2255 Clouds 15 1003 62 10000 3.6 180 16:18 17.12.2019
2256 Clouds 15 1003 62 10000 3.6 180 16:18 17.12.2019
2257 Clouds 15 1003 55 10000 3.6 190 15:38 17.12.2019
2258 Clouds 15 1003 67 10000 3.1 160 15:20 17.12.2019
2259 Clouds 15 1003 58 10000 3.6 150 14:56 17.12.2019
2260 Clouds 15 1003 58 10000 3.6 150 14:38 17.12.2019
2261 Clouds 15 1003 58 10000 4.6 160 14:19 17.12.2019
2262 Clouds 15 1003 58 10000 4.6 160 14:19 17.12.2019
2263 Clouds 15 1003 58 10000 4.1 160 13:58 17.12.2019
2264 Clouds 15 1003 58 10000 4.1 160 13:40 17.12.2019
2265 Clouds 15 1003 54 10000 5.1 180 13:19 17.12.2019
2266 Clouds 15 1003 54 10000 5.1 180 12:59 17.12.2019
2267 Clouds 14 1003 58 10000 5.7 180 12:38 17.12.2019
2268 Clouds 14 1003 54 10000 6.2 170 12:18 17.12.2019
2269 Clouds 14 1003 54 10000 6.2 170 12:18 17.12.2019
2270 Clouds 13 1004 54 10000 5.7 190 11:57 17.12.2019
2271 Clouds 13 1004 54 10000 5.7 190 11:37 17.12.2019
2272 Clouds 13 1003 58 10000 6.7 190 11:18 17.12.2019
2273 Clouds 13 1003 62 10000 5.7 170 10:57 17.12.2019
2274 Clouds 12 1003 62 10000 5.7 170 10:39 17.12.2019
2275 Clouds 12 1003 62 10000 5.7 170 10:39 17.12.2019
2276 Clouds 12 1003 62 10000 6.2 170 10:19 17.12.2019
2277 Clouds 11 1003 62 10000 6.7 170 09:56 17.12.2019
2278 Clouds 11 1003 62 10000 6.7 170 09:38 17.12.2019
2279 Clouds 11 1002 66 10000 6.7 170 09:19 17.12.2019
2280 Clouds 11 1002 66 10000 6.2 170 08:55 17.12.2019
2281 Clouds 11 1002 66 10000 6.2 170 08:36 17.12.2019
2282 Clouds 11 1002 66 10000 5.7 170 08:18 17.12.2019
2283 Clouds 11 1002 66 10000 4.6 150 07:42 17.12.2019
2284 Clouds 11 1002 66 10000 3.6 140 07:23 17.12.2019
2285 Clouds 11 1002 66 10000 2.6 130 06:55 17.12.2019
2286 Clouds 11 1002 66 10000 2.1 100 06:32 17.12.2019
2287 Clouds 11 1002 66 10000 3.1 100 05:52 17.12.2019
2288 Clouds 11 1002 66 10000 3.1 100 05:34 17.12.2019
2289 Clouds 10 1001 71 10000 3.1 90 04:25 17.12.2019
2290 Clouds 10 1002 76 10000 2.6 160 02:33 17.12.2019
2291 Clouds 10 1002 76 10000 2.6 160 02:33 17.12.2019
2292 Clouds 10 1001 66 10000 4.1 120 01:50 17.12.2019
2293 Clouds 9 1001 81 10000 4.1 110 00:58 17.12.2019
2294 Clouds 9 1001 81 10000 4.1 110 00:37 17.12.2019
2295 Clouds 9 1002 81 10000 4.1 130 00:18 17.12.2019
2296 Clouds 9 1002 81 10000 4.6 120 23:41 16.12.2019
2297 Clouds 8 1002 81 10000 4.6 130 23:19 16.12.2019
2298 Clouds 8 1002 81 10000 5.1 130 22:56 16.12.2019
2299 Clouds 8 1002 81 10000 5.1 130 22:37 16.12.2019
2300 Clouds 8 1003 87 10000 5.7 130 22:19 16.12.2019
2301 Clouds 8 1003 87 10000 4.6 130 21:55 16.12.2019
2302 Clouds 8 1003 87 10000 4.6 130 21:37 16.12.2019
2303 Clouds 8 1003 87 10000 3.1 110 21:19 16.12.2019
2304 Clouds 8 1004 87 10000 2.1 80 20:57 16.12.2019
2305 Clouds 8 1004 87 10000 2.1 80 20:37 16.12.2019
2306 Clouds 8 1004 93 10000 2.1 100 20:19 16.12.2019
2307 Clouds 8 1004 87 10000 3.1 130 19:56 16.12.2019
2308 Clouds 8 1004 87 10000 3.1 130 19:56 16.12.2019
2309 Clouds 8 1004 87 10000 3.1 130 19:37 16.12.2019
2310 Clouds 8 1004 87 10000 3.1 130 19:37 16.12.2019
2311 Clouds 8 1004 87 10000 3.6 120 19:18 16.12.2019
2312 Clouds 8 1004 87 10000 4.1 130 18:56 16.12.2019
2313 Clouds 8 1004 93 10000 1.5 80 18:37 16.12.2019
2314 Clouds 8 1004 93 10000 1.5 90 18:19 16.12.2019
2315 Clouds 9 1005 87 10000 3.1 110 17:57 16.12.2019
2316 Clouds 8 1004 93 10000 2.1 130 17:38 16.12.2019
2317 Clouds 8 1004 93 10000 2.1 100 17:20 16.12.2019
2318 Clouds 9 1005 100 10000 3.1 140 16:56 16.12.2019
2319 Clouds 9 1005 100 10000 3.1 140 16:38 16.12.2019
2320 Clouds 9 1005 93 10000 2.1 120 16:19 16.12.2019
2321 Clouds 9 1005 100 10000 1.5 100 15:57 16.12.2019
2322 Clouds 9 1005 93 10000 1.5 110 15:38 16.12.2019
2323 Clouds 9 1005 93 10000 1.5 70 15:20 16.12.2019
2324 Clouds 9 1005 93 10000 2.1 60 14:55 16.12.2019
2325 Clouds 9 1005 93 10000 2.1 60 14:37 16.12.2019
2326 Clouds 9 1006 93 10000 1.5 60 14:19 16.12.2019
2327 Rain 9 1006 93 10000 1.5 80 13:56 16.12.2019
2328 Rain 9 1006 93 10000 1.5 80 13:37 16.12.2019
2329 Rain 9 1006 100 10000 2.1 100 13:19 16.12.2019
2330 Rain 9 1007 100 10000 2.1 110 12:57 16.12.2019
2331 Rain 8 1007 100 10000 2.1 110 12:39 16.12.2019
2332 Rain 8 1007 100 10000 2.1 90 12:18 16.12.2019
2333 Rain 8 1007 100 10000 1.5 80 11:57 16.12.2019
2334 Rain 8 1007 100 10000 1.5 80 11:39 16.12.2019
2335 Rain 8 1007 93 10000 1.5 130 11:19 16.12.2019
2336 Rain 8 1007 93 10000 1.5 130 11:19 16.12.2019
2337 Rain 8 1007 93 10000 2.1 100 10:56 16.12.2019
2338 Rain 8 1007 93 10000 2.1 100 10:37 16.12.2019
2339 Rain 8 1007 87 10000 1.5 140 10:19 16.12.2019
2340 Rain 8 1007 87 10000 4.6 160 09:45 16.12.2019
2341 Rain 7 1007 93 10000 3.6 170 09:26 16.12.2019
2342 Clouds 7 1007 87 10000 3.6 180 08:41 16.12.2019
2343 Clouds 7 1007 87 10000 0.5 0 08:21 16.12.2019
2344 Clouds 7 1007 87 10000 0.5 0 08:21 16.12.2019
2345 Clouds 7 1007 87 10000 0.5 0 07:59 16.12.2019
2346 Clouds 7 1006 87 10000 1.5 140 07:41 16.12.2019
2347 Clouds 7 1006 87 10000 3.6 140 07:20 16.12.2019
2348 Clouds 7 1006 87 10000 4.1 140 06:41 16.12.2019
2349 Clouds 7 1007 87 10000 3.6 160 06:22 16.12.2019
2350 Rain 7 1007 87 10000 4.1 170 05:49 16.12.2019
2351 Clouds 7 1007 93 10000 3.6 150 05:30 16.12.2019
2352 Clouds 7 1007 87 10000 4.1 140 04:21 16.12.2019
2353 Clouds 6 1007 81 10000 2.6 110 02:19 16.12.2019
2354 Clouds 5 1008 81 10000 3.1 120 01:44 16.12.2019
2355 Clouds 5 1008 80 10000 2.1 100 00:43 16.12.2019
2356 Clouds 5 1008 80 10000 2.6 130 00:25 16.12.2019
2357 Clouds 5 1008 80 10000 2.1 130 23:58 15.12.2019
2358 Clouds 5 1008 80 10000 2.1 130 23:39 15.12.2019
2359 Clouds 5 1008 80 10000 2.6 120 23:20 15.12.2019
2360 Clouds 5 1009 80 10000 2.6 150 22:56 15.12.2019
2361 Clouds 5 1009 80 10000 2.6 150 22:56 15.12.2019
2362 Clouds 5 1009 80 10000 2.6 150 22:56 15.12.2019
2363 Clouds 5 1009 80 10000 2.6 150 22:37 15.12.2019
2364 Clouds 5 1009 80 10000 2.6 150 22:37 15.12.2019
2365 Clouds 5 1009 80 10000 2.1 170 22:18 15.12.2019
2366 Clouds 5 1009 80 10000 2.1 170 22:18 15.12.2019
2367 Clouds 5 1008 80 10000 4.1 180 21:56 15.12.2019
2368 Clouds 5 1008 80 10000 4.1 180 21:38 15.12.2019
2369 Clouds 5 1008 75 10000 4.6 190 21:19 15.12.2019
2370 Clouds 6 1008 75 10000 4.6 190 20:56 15.12.2019
2371 Clouds 6 1008 75 10000 4.1 180 20:37 15.12.2019
2372 Clouds 6 1007 75 10000 4.1 180 20:19 15.12.2019
2373 Clouds 6 1007 75 10000 4.1 180 19:57 15.12.2019
2374 Clouds 6 1007 75 10000 4.6 200 19:39 15.12.2019
2375 Clouds 6 1007 65 10000 4.1 200 19:18 15.12.2019
2376 Clouds 7 1007 70 10000 4.1 190 18:56 15.12.2019
2377 Clouds 7 1007 70 10000 4.1 190 18:56 15.12.2019
2378 Clouds 7 1007 70 10000 4.1 190 18:38 15.12.2019
2379 Clouds 7 1007 70 10000 4.1 190 18:38 15.12.2019
2380 Clouds 7 1006 70 10000 4.1 190 18:18 15.12.2019
2381 Clouds 7 1006 70 10000 3.6 180 17:56 15.12.2019
2382 Clouds 7 1006 70 10000 3.6 180 17:37 15.12.2019
2383 Clouds 7 1006 65 10000 3.1 190 17:19 15.12.2019
2384 Clouds 8 1005 65 10000 4.1 210 16:56 15.12.2019
2385 Clouds 8 1005 65 10000 4.1 210 16:38 15.12.2019
2386 Clouds 8 1005 61 10000 3.6 210 16:20 15.12.2019
2387 Clouds 8 1004 57 10000 6.2 220 15:55 15.12.2019
2388 Clouds 8 1004 57 10000 6.2 220 15:37 15.12.2019
2389 Clouds 9 1004 61 10000 6.7 230 15:18 15.12.2019
2390 Clouds 9 1003 61 10000 4.1 220 14:55 15.12.2019
2391 Clouds 9 1003 61 10000 4.1 220 14:55 15.12.2019
2392 Clouds 9 1003 61 10000 4.1 220 14:36 15.12.2019
2393 Clouds 9 1003 57 10000 7.2 230 14:18 15.12.2019
2394 Clouds 9 1003 61 10000 5.7 230 13:55 15.12.2019
2395 Clouds 9 1003 61 10000 5.7 230 13:37 15.12.2019
2396 Clouds 9 1003 61 10000 4.6 240 13:19 15.12.2019
2397 Clouds 9 1003 61 10000 4.6 240 13:19 15.12.2019
2398 Clouds 9 1003 61 10000 4.6 240 12:56 15.12.2019
2399 Clouds 9 1002 61 10000 6.2 250 12:38 15.12.2019
2400 Clouds 9 1002 66 10000 8.2 250 12:20 15.12.2019
2401 Clouds 9 1002 66 10000 8.2 260 11:39 15.12.2019
2402 Clouds 8 1001 70 10000 7.7 260 11:20 15.12.2019
2403 Clouds 8 1000 66 10000 8.7 250 10:59 15.12.2019
2404 Clouds 8 1000 66 10000 8.7 250 10:41 15.12.2019
2405 Clouds 8 999 70 10000 8.7 240 10:20 15.12.2019
2406 Clouds 8 999 76 10000 7.2 240 09:59 15.12.2019
2407 Clouds 8 999 76 10000 7.2 240 09:39 15.12.2019
2408 Clouds 7 998 87 10000 7.7 240 09:20 15.12.2019
2409 Clouds 7 998 87 10000 7.7 240 09:20 15.12.2019
2410 Clouds 8 997 81 10000 7.7 280 08:57 15.12.2019
2411 Rain 8 997 81 10000 7.7 280 08:39 15.12.2019
2412 Rain 8 996 87 10000 7.2 240 08:20 15.12.2019
2413 Rain 9 995 71 10000 6.7 220 07:55 15.12.2019
2414 Rain 9 995 71 10000 6.7 220 07:34 15.12.2019
2415 Rain 10 994 81 10000 5.7 200 06:44 15.12.2019
2416 Rain 10 994 81 10000 5.1 180 06:19 15.12.2019
2417 Rain 8 994 81 10000 5.1 150 05:26 15.12.2019
2418 Clouds 8 995 81 10000 5.1 140 04:47 15.12.2019
2419 Clouds 7 996 81 10000 5.7 160 03:29 15.12.2019
2420 Rain 7 997 75 10000 6.2 130 02:34 15.12.2019
2421 Clouds 6 998 81 10000 4.6 140 01:47 15.12.2019
2422 Clouds 6 999 81 10000 4.6 160 01:28 15.12.2019
2423 Clouds 6 1000 81 10000 4.6 170 00:57 15.12.2019
2424 Clouds 6 1000 81 10000 4.6 170 00:38 15.12.2019
2425 Clouds 6 1000 75 10000 5.1 170 00:20 15.12.2019
2426 Clouds 6 1000 75 10000 4.1 180 23:40 14.12.2019
2427 Clouds 6 1001 75 10000 4.6 200 23:21 14.12.2019
2428 Clouds 6 1001 75 10000 4.1 190 22:58 14.12.2019
2429 Clouds 6 1001 75 10000 4.1 190 22:40 14.12.2019
2430 Clouds 6 1001 75 10000 4.6 210 22:21 14.12.2019
2431 Clouds 6 1001 75 10000 5.7 220 21:56 14.12.2019
2432 Clouds 6 1001 75 10000 5.7 220 21:56 14.12.2019
2433 Clouds 6 1001 75 10000 5.7 220 21:37 14.12.2019
2434 Clouds 6 1000 75 10000 4.1 210 21:19 14.12.2019
2435 Clouds 6 1000 75 10000 4.6 240 20:56 14.12.2019
2436 Clouds 6 1000 75 10000 4.6 240 20:38 14.12.2019
2437 Clouds 6 1000 70 10000 6.2 240 20:19 14.12.2019
2438 Clouds 6 999 75 10000 7.2 250 19:55 14.12.2019
2439 Clouds 6 999 75 10000 7.2 250 19:36 14.12.2019
2440 Clouds 6 999 75 10000 9.3 250 19:18 14.12.2019
2441 Rain 6 998 75 10000 9.8 250 18:55 14.12.2019
2442 Rain 6 998 75 10000 9.8 250 18:36 14.12.2019
2443 Clouds 7 997 75 10000 10.3 250 18:18 14.12.2019
2444 Rain 7 996 81 10000 14.4 240 17:42 14.12.2019
2445 Rain 6 994 75 8000 15.4 250 17:22 14.12.2019
2446 Rain 7 994 70 6000 11.3 240 16:56 14.12.2019
2447 Rain 7 995 81 10000 6.2 210 16:38 14.12.2019
2448 Rain 6 995 87 10000 5.7 220 16:18 14.12.2019
2449 Rain 6 995 75 10000 9.8 230 15:42 14.12.2019
2450 Rain 7 995 65 10000 6.7 230 15:21 14.12.2019
2451 Clouds 7 995 65 10000 6.2 220 14:58 14.12.2019
2452 Clouds 7 995 65 10000 6.2 220 14:38 14.12.2019
2453 Clouds 7 995 65 10000 7.2 250 14:19 14.12.2019
2454 Clouds 7 995 65 10000 9.8 250 13:55 14.12.2019
2455 Clouds 7 995 65 10000 9.8 250 13:37 14.12.2019
2456 Clouds 7 994 70 10000 9.3 250 13:18 14.12.2019
2457 Clouds 6 994 75 10000 9.8 260 12:54 14.12.2019
2458 Clouds 6 994 75 10000 9.8 260 12:36 14.12.2019
2459 Rain 6 993 81 10000 8.7 260 12:18 14.12.2019
2460 Rain 6 992 81 10000 12.9 250 11:54 14.12.2019
2461 Rain 5 992 81 10000 12.9 250 11:36 14.12.2019
2462 Rain 5 991 87 10000 7.2 250 11:18 14.12.2019
2463 Rain 6 991 81 10000 8.7 260 10:54 14.12.2019
2464 Rain 6 991 81 10000 8.7 260 10:36 14.12.2019
2465 Clouds 6 990 81 10000 9.8 260 10:18 14.12.2019
2466 Clouds 6 989 81 10000 7.2 270 09:40 14.12.2019
2467 Clouds 5 989 86 10000 8.7 280 09:20 14.12.2019
2468 Clouds 5 987 86 10000 8.7 280 08:44 14.12.2019
2469 Clouds 5 985 87 10000 10.8 280 08:20 14.12.2019
2470 Clouds 5 985 87 10000 10.8 280 07:57 14.12.2019
2471 Rain 5 983 93 10000 8.7 260 07:38 14.12.2019
2472 Rain 5 981 93 10000 4.1 210 07:19 14.12.2019
2473 Rain 5 981 93 10000 4.1 210 07:19 14.12.2019
2474 Rain 5 981 86 10000 5.1 170 06:41 14.12.2019
2475 Rain 5 981 86 10000 5.7 170 06:22 14.12.2019
2476 Rain 5 982 93 10000 5.1 130 05:22 14.12.2019
2477 Clouds 5 986 80 10000 4.6 180 02:49 14.12.2019
2478 Clouds 5 986 80 10000 5.7 180 02:22 14.12.2019
2479 Clouds 5 986 80 10000 5.1 180 01:43 14.12.2019
2480 Clouds 5 986 80 10000 4.6 180 00:55 14.12.2019
2481 Clouds 5 986 80 10000 4.6 180 00:37 14.12.2019
2482 Clouds 5 986 80 10000 3.6 180 00:18 14.12.2019
2483 Clouds 5 987 86 10000 4.1 200 23:41 13.12.2019
2484 Clouds 5 987 86 10000 2.6 190 23:19 13.12.2019
2485 Clouds 5 987 86 10000 2.6 190 23:19 13.12.2019
2486 Clouds 5 987 86 10000 4.1 230 22:55 13.12.2019
2487 Clouds 5 987 86 10000 4.1 230 22:37 13.12.2019
2488 Clouds 5 987 87 10000 3.6 230 22:18 13.12.2019
2489 Rain 6 987 87 10000 5.7 260 21:42 13.12.2019
2490 Clouds 6 986 87 10000 8.7 270 21:21 13.12.2019
2491 Rain 6 986 87 10000 7.7 270 20:58 13.12.2019
2492 Rain 6 986 87 10000 7.7 270 20:39 13.12.2019
2493 Drizzle 6 984 93 10000 5.1 280 20:20 13.12.2019
2494 Drizzle 6 984 93 10000 5.1 280 19:56 13.12.2019
2495 Rain 6 985 87 10000 7.7 280 19:38 13.12.2019
2496 Drizzle 5 984 93 10000 3.6 270 19:19 13.12.2019
2497 Rain 5 983 93 8000 3.1 290 18:54 13.12.2019
2498 Rain 5 983 86 10000 8.2 300 18:36 13.12.2019
2499 Rain 5 982 93 10000 7.7 290 18:18 13.12.2019
2500 Rain 5 983 86 10000 8.2 300 18:18 13.12.2019
2501 Rain 5 982 93 6000 6.2 280 17:40 13.12.2019
2502 Drizzle 5 980 93 10000 7.7 260 17:19 13.12.2019
2503 Drizzle 5 980 93 10000 4.6 240 16:57 13.12.2019
2504 Drizzle 5 980 93 10000 4.6 240 16:57 13.12.2019
2505 Drizzle 5 979 93 10000 3.6 260 16:38 13.12.2019
2506 Drizzle 5 979 93 10000 3.6 260 16:20 13.12.2019
2507 Rain 5 978 93 7000 6.7 250 15:43 13.12.2019
2508 Drizzle 5 977 93 10000 1.5 140 15:22 13.12.2019
2509 Rain 5 977 100 10000 2.6 130 14:57 13.12.2019
2510 Clouds 5 976 81 10000 7.7 250 14:39 13.12.2019
2511 Rain 5 976 93 10000 3.6 140 14:20 13.12.2019
2512 Rain 5 975 87 10000 6.7 250 13:45 13.12.2019
2513 Clouds 5 975 93 10000 3.6 130 13:27 13.12.2019
2514 Rain 5 975 93 10000 4.6 130 12:59 13.12.2019
2515 Rain 4 975 81 10000 4.1 230 12:41 13.12.2019
2516 Rain 4 975 93 10000 4.6 130 12:19 13.12.2019
2517 Rain 4 975 93 10000 4.6 130 11:57 13.12.2019
2518 Rain 4 974 93 10000 2.1 140 11:39 13.12.2019
2519 Rain 4 975 93 10000 4.6 130 11:19 13.12.2019
2520 Rain 3 975 86 10000 5.1 120 10:41 13.12.2019
2521 Rain 3 975 86 10000 5.7 120 10:21 13.12.2019
2522 Rain 3 975 86 10000 5.7 120 09:54 13.12.2019
2523 Rain 3 975 86 10000 4.6 120 09:36 13.12.2019
2524 Rain 3 975 86 10000 4.6 120 09:18 13.12.2019
2525 Rain 3 975 93 10000 6.2 120 08:40 13.12.2019
2526 Rain 3 975 93 10000 6.2 120 08:22 13.12.2019
2527 Rain 3 974 86 10000 5.1 120 07:44 13.12.2019
2528 Clouds 3 976 85 10000 6.7 130 07:20 13.12.2019
2529 Clouds 3 976 85 10000 6.7 130 06:51 13.12.2019
2530 Clouds 3 977 85 10000 8.2 130 06:28 13.12.2019
2531 Clouds 3 976 85 10000 5.1 140 05:45 13.12.2019
2532 Rain 3 978 85 10000 7.7 140 05:24 13.12.2019
2533 Clouds 3 980 74 10000 8.7 130 04:35 13.12.2019
2534 Rain 3 982 74 10000 7.2 130 03:39 13.12.2019
2535 Clouds 3 983 74 10000 7.2 130 02:33 13.12.2019
2536 Clouds 3 984 74 10000 7.2 140 01:44 13.12.2019
2537 Clouds 3 986 74 10000 6.7 130 00:56 13.12.2019
2538 Clouds 3 987 74 10000 6.7 130 00:37 13.12.2019
2539 Clouds 3 988 74 10000 7.2 130 23:57 12.12.2019
2540 Clouds 3 986 66 10000 5.1 140 23:39 12.12.2019
2541 Clouds 4 989 71 10000 8.2 140 23:20 12.12.2019
2542 Clouds 4 989 74 10000 7.7 140 22:55 12.12.2019
2543 Clouds 3 988 71 10000 3.6 130 22:37 12.12.2019
2544 Clouds 4 990 74 10000 8.2 140 22:18 12.12.2019
2545 Clouds 4 991 69 10000 8.7 140 21:55 12.12.2019
2546 Clouds 4 990 69 10000 5.1 140 21:36 12.12.2019
2547 Clouds 4 992 71 10000 6.7 150 21:18 12.12.2019
2548 Clouds 4 993 71 10000 6.2 150 20:55 12.12.2019
2549 Clouds 4 994 71 10000 5.7 140 20:37 12.12.2019
2550 Clouds 4 994 73 10000 5.7 140 20:19 12.12.2019
2551 Clear 4 993 73 10000 6.2 150 19:42 12.12.2019
2552 -273 0 0 0 0 0 19:23 12.12.2019
2553 Clouds 4 996 74 10000 5.1 150 18:58 12.12.2019
2554 Clouds 4 996 74 10000 6.2 150 18:40 12.12.2019
2555 Clouds 4 996 74 10000 6.2 150 18:21 12.12.2019
2556 Clouds 4 997 74 10000 5.1 140 17:58 12.12.2019
2557 Clear 4 996 69 10000 4.1 150 17:40 12.12.2019
2558 Clouds 4 997 74 10000 4.6 160 17:21 12.12.2019
2559 Clouds 4 998 65 10000 5.7 180 16:58 12.12.2019
2560 Clouds 5 998 68 10000 4.1 180 16:40 12.12.2019
2561 Clouds 5 998 68 10000 4.1 180 16:21 12.12.2019
2562 Clouds 5 999 65 10000 4.6 180 15:58 12.12.2019
2563 Clouds 5 999 68 10000 4.1 200 15:40 12.12.2019
2564 Clouds 5 999 68 10000 4.1 200 15:19 12.12.2019
2565 Clouds 6 1000 60 10000 6.7 190 14:56 12.12.2019
2566 Clouds 6 1000 60 10000 6.7 190 14:56 12.12.2019
2567 Clouds 6 1000 68 10000 5.7 180 14:36 12.12.2019
2568 Clouds 6 1000 64 10000 5.7 180 14:18 12.12.2019
2569 Clouds 6 1001 70 10000 5.7 190 13:54 12.12.2019
2570 Clouds 6 1000 60 10000 4.1 200 13:36 12.12.2019
2571 Clouds 6 1001 62 10000 3.6 210 13:18 12.12.2019
2572 Clouds 6 1002 75 10000 2.6 210 12:41 12.12.2019
2573 Clouds 5 1002 75 10000 2.6 210 12:22 12.12.2019
2574 Clouds 5 1003 80 10000 2.6 200 11:59 12.12.2019
2575 Clouds 5 1002 70 10000 4.1 230 11:40 12.12.2019
2576 Clouds 5 1003 80 10000 3.1 220 11:21 12.12.2019
2577 Clouds 5 1003 86 10000 2.6 230 10:59 12.12.2019
2578 Drizzle 4 1003 86 10000 2.6 230 10:40 12.12.2019
2579 Drizzle 4 1003 86 10000 2.6 230 10:22 12.12.2019
2580 Drizzle 4 1003 93 10000 3.6 210 09:56 12.12.2019
2581 Clouds 4 1003 93 10000 2.6 180 09:38 12.12.2019
2582 Clouds 4 1003 93 10000 2.6 180 09:20 12.12.2019
2583 Clouds 4 1003 86 10000 4.6 240 08:47 12.12.2019
2584 Rain 4 1003 93 10000 2.6 180 08:29 12.12.2019
2585 Rain 4 1003 93 10000 2.6 180 07:56 12.12.2019
2586 Rain 4 1003 93 10000 3.6 160 07:37 12.12.2019
2587 Rain 4 1003 93 10000 3.6 160 07:19 12.12.2019
2588 Rain 4 1003 93 10000 2.1 160 06:41 12.12.2019
2589 Rain 4 1003 93 10000 2.1 160 06:22 12.12.2019
2590 Rain 4 1003 93 10000 2.6 140 05:32 12.12.2019
2591 Clouds 4 1003 93 10000 4.1 150 04:47 12.12.2019
2592 Clouds 4 1004 93 10000 2.6 130 02:43 12.12.2019
2593 Clouds 3 1004 93 10000 2.6 130 02:24 12.12.2019
2594 Clouds 3 1004 93 10000 1.5 120 01:59 12.12.2019
2595 Clouds 3 1004 93 10000 3.1 140 01:36 12.12.2019
2596 Clouds 3 1005 93 10000 3.6 140 00:50 12.12.2019
2597 Clouds 3 1005 93 10000 3.1 140 00:22 12.12.2019
2598 Clouds 3 1005 86 10000 3.6 140 23:58 11.12.2019
2599 Clouds 3 1004 86 10000 3.1 210 23:39 11.12.2019
2600 Clouds 3 1005 86 10000 3.1 130 23:19 11.12.2019
2601 Clouds 4 1005 93 10000 3.1 140 22:57 11.12.2019
2602 Clouds 4 1005 93 10000 4.1 140 22:38 11.12.2019
2603 Clouds 4 1005 93 10000 4.1 140 22:19 11.12.2019
2604 Clouds 4 1005 100 10000 3.1 140 21:55 11.12.2019
2605 Clouds 4 1005 93 10000 2.1 170 21:37 11.12.2019
2606 Clouds 4 1006 93 10000 2.6 130 21:19 11.12.2019
2607 Clouds 4 1006 93 10000 2.6 130 20:55 11.12.2019
2608 Clouds 4 1006 93 10000 3.1 130 20:37 11.12.2019
2609 Clouds 4 1006 100 10000 3.1 140 20:18 11.12.2019
2610 Clouds 4 1006 100 10000 3.1 140 19:57 11.12.2019
2611 -273 0 0 0 0 0 19:38 11.12.2019
2612 Clouds 4 1006 100 10000 3.1 140 19:18 11.12.2019
2613 Clouds 4 1005 93 10000 1.5 150 18:40 11.12.2019
2614 Clouds 4 1006 100 10000 2.6 130 18:21 11.12.2019
2615 Clouds 4 1006 100 10000 2.6 130 17:57 11.12.2019
2616 Clouds 4 1006 100 10000 2.6 130 17:57 11.12.2019
2617 Clouds 4 1006 100 10000 2.6 140 17:38 11.12.2019
2618 Clouds 4 1006 100 10000 2.6 140 17:18 11.12.2019
2619 Rain 4 1006 100 10000 3.1 140 16:57 11.12.2019
2620 Clouds 4 1006 86 10000 1 0 16:38 11.12.2019
2621 Clouds 4 1006 86 10000 1 0 16:38 11.12.2019
2622 Rain 4 1006 100 10000 2.6 130 16:20 11.12.2019
2623 Rain 4 1006 100 9000 3.1 140 15:59 11.12.2019
2624 Rain 4 1006 86 7000 1 0 15:39 11.12.2019
2625 Rain 4 1006 93 10000 3.1 140 15:20 11.12.2019
2626 Rain 4 1007 93 10000 3.1 130 14:56 11.12.2019
2627 Rain 4 1007 93 10000 3.1 150 14:37 11.12.2019
2628 Rain 4 1007 93 10000 3.6 150 14:19 11.12.2019
2629 Rain 4 1007 93 10000 3.6 150 13:54 11.12.2019
2630 Rain 4 1008 93 10000 4.1 150 13:36 11.12.2019
2631 Rain 4 1008 93 10000 4.1 150 13:18 11.12.2019
2632 Rain 4 1008 93 10000 3.6 150 12:55 11.12.2019
2633 Rain 4 1009 93 10000 3.6 150 12:37 11.12.2019
2634 Rain 4 1009 93 10000 3.6 150 12:18 11.12.2019
2635 Rain 4 1009 93 10000 4.1 140 11:56 11.12.2019
2636 Rain 4 1010 100 10000 3.6 130 11:37 11.12.2019
2637 Rain 4 1010 100 10000 3.6 130 11:37 11.12.2019
2638 Rain 4 1010 100 10000 3.6 130 11:18 11.12.2019
2639 Rain 4 1010 100 10000 3.6 130 10:44 11.12.2019
2640 Rain 4 1009 93 9000 1.5 0 10:44 11.12.2019
2641 Rain 4 1010 93 10000 4.1 140 10:26 11.12.2019
2642 Rain 4 1010 93 10000 4.6 140 09:59 11.12.2019
2643 Rain 4 1011 93 10000 4.1 130 09:38 11.12.2019
2644 Rain 4 1011 93 10000 4.6 130 09:20 11.12.2019
2645 Rain 4 1011 93 10000 4.6 130 08:57 11.12.2019
2646 Rain 4 1010 86 7000 1.5 0 08:38 11.12.2019
2647 Rain 4 1010 81 7000 1.5 0 08:19 11.12.2019
2648 Rain 4 1010 81 10000 2.6 160 07:46 11.12.2019
2649 Rain 4 1011 93 10000 4.6 130 07:26 11.12.2019
2650 Rain 4 1012 93 10000 5.1 130 06:59 11.12.2019
2651 Rain 4 1012 93 10000 5.1 130 06:40 11.12.2019
2652 Rain 4 1012 93 10000 5.1 130 06:21 11.12.2019
2653 Rain 4 1011 93 10000 2.1 150 05:41 11.12.2019
2654 Rain 4 1013 93 8000 5.1 130 05:18 11.12.2019
2655 Rain 4 1014 93 10000 4.6 130 03:50 11.12.2019
2656 Rain 5 1013 56 10000 3.1 150 02:49 11.12.2019
2657 Rain 5 1015 80 10000 6.2 140 01:23 11.12.2019
2658 Rain 5 1016 80 10000 5.7 140 00:47 11.12.2019
2659 Rain 5 1016 57 10000 4.1 140 00:21 11.12.2019
2660 Clouds 5 1016 57 10000 5.7 140 23:49 10.12.2019
2661 Clouds 5 1017 62 10000 6.2 150 23:30 10.12.2019
2662 Clouds 5 1018 62 10000 5.1 150 22:59 10.12.2019
2663 Clouds 5 1018 62 10000 4.1 130 22:40 10.12.2019
2664 Clouds 5 1018 62 10000 4.1 130 22:22 10.12.2019
2665 Clouds 4 1018 62 10000 6.2 140 21:57 10.12.2019
2666 Clouds 4 1017 65 10000 4.6 150 21:39 10.12.2019
2667 Clouds 4 1019 69 10000 5.1 140 21:21 10.12.2019
2668 Clouds 4 1019 74 10000 4.6 150 20:57 10.12.2019
2669 Clouds 4 1020 74 10000 4.6 150 20:38 10.12.2019
2670 Clouds 4 1020 74 10000 4.6 150 20:38 10.12.2019
2671 Clouds 4 1020 71 10000 4.1 150 20:19 10.12.2019
2672 Clouds 4 1020 71 10000 4.1 150 19:55 10.12.2019
2673 Clouds 4 1019 69 10000 4.1 150 19:37 10.12.2019
2674 Clouds 4 1020 71 10000 5.7 160 19:19 10.12.2019
2675 Clouds 4 1019 69 10000 5.1 140 18:41 10.12.2019
2676 Clouds 4 1021 65 10000 6.2 180 18:21 10.12.2019
2677 Clouds 4 1021 71 10000 4.1 170 17:58 10.12.2019
2678 Clouds 4 1022 71 10000 3.6 180 17:40 10.12.2019
2679 Clouds 4 1022 67 10000 3.6 180 17:22 10.12.2019
2680 Clouds 4 1022 67 10000 6.2 180 16:55 10.12.2019
2681 Clouds 5 1022 67 10000 2.6 180 16:36 10.12.2019
2682 Clouds 5 1023 67 10000 5.7 180 16:18 10.12.2019
2683 Clouds 5 1022 60 10000 5.1 200 15:38 10.12.2019
2684 Clouds 6 1023 70 10000 5.7 190 15:38 10.12.2019
2685 Clouds 6 1023 70 10000 5.7 190 15:18 10.12.2019
2686 Clouds 6 1024 67 10000 5.7 200 14:56 10.12.2019
2687 Clouds 6 1023 67 10000 3.1 200 14:38 10.12.2019
2688 Clouds 6 1024 65 10000 5.1 210 14:20 10.12.2019
2689 Clouds 6 1024 65 10000 5.1 210 14:20 10.12.2019
2690 Clouds 6 1025 65 10000 4.6 200 13:58 10.12.2019
2691 Clouds 6 1024 65 10000 4.1 200 13:40 10.12.2019
2692 Clouds 6 1026 75 10000 3.1 200 13:20 10.12.2019
2693 Clouds 6 1026 75 10000 4.1 180 12:49 10.12.2019
2694 Clouds 5 1026 75 10000 3.1 190 12:28 10.12.2019
2695 Clouds 5 1026 80 10000 3.1 180 11:58 10.12.2019
2696 Clouds 4 1027 86 10000 2.6 140 11:40 10.12.2019
2697 Clouds 4 1027 86 10000 2.6 140 11:21 10.12.2019
2698 Clouds 4 1026 80 10000 2.1 150 10:43 10.12.2019
2699 Clouds 3 1026 86 10000 2.6 140 10:25 10.12.2019
2700 Clouds 3 1027 93 10000 2.1 160 09:58 10.12.2019
2701 Clouds 2 1026 86 10000 3.1 220 09:40 10.12.2019
2702 Clouds 2 1026 78 10000 2.1 0 09:22 10.12.2019
2703 Clouds 2 1026 78 10000 2.6 160 08:59 10.12.2019
2704 Clouds 2 1026 76 10000 2.6 150 08:40 10.12.2019
2705 Clouds 2 1026 83 10000 2.6 150 08:22 10.12.2019
2706 Clouds 2 1025 80 10000 2.6 160 07:57 10.12.2019
2707 Clouds 2 1025 80 10000 1.5 150 07:39 10.12.2019
2708 Clouds 2 1025 80 10000 1.5 150 07:20 10.12.2019
2709 Clouds 2 1025 80 10000 2.1 180 06:46 10.12.2019
2710 Clouds 2 1024 100 10000 1 0 06:19 10.12.2019
2711 Clouds 2 1024 80 10000 1 0 05:52 10.12.2019
2712 Clouds 2 1024 76 10000 1 0 04:50 10.12.2019
2713 Clouds 3 1022 76 10000 2.1 330 03:32 10.12.2019
2714 Clouds 3 1022 76 10000 2.1 310 02:40 10.12.2019
2715 Clouds 3 1021 80 10000 4.1 290 01:44 10.12.2019
2716 Clouds 3 1021 80 10000 4.1 290 01:20 10.12.2019
2717 Rain 4 1020 86 10000 3.6 310 00:41 10.12.2019
2718 Rain 4 1020 86 10000 3.6 310 00:20 10.12.2019
2719 Rain 4 1019 86 10000 3.6 320 23:41 09.12.2019
2720 Rain 4 1018 86 10000 4.6 310 23:22 09.12.2019
2721 Clouds 4 1017 86 10000 5.7 310 22:58 09.12.2019
2722 Clouds 4 1018 86 10000 4.6 290 22:39 09.12.2019
2723 Rain 4 1016 86 10000 5.7 310 22:19 09.12.2019
2724 Rain 5 1015 80 10000 6.2 310 21:56 09.12.2019
2725 Clouds 5 1016 80 10000 6.2 290 21:38 09.12.2019
2726 Clouds 5 1014 86 10000 6.2 310 21:19 09.12.2019
2727 Clouds 5 1013 87 10000 5.1 320 20:56 09.12.2019
2728 Clouds 5 1014 81 10000 6.7 300 20:38 09.12.2019
2729 Clouds 5 1012 87 10000 5.1 330 20:20 09.12.2019
2730 Rain 6 1011 87 10000 6.2 330 19:56 09.12.2019
2731 Rain 6 1009 93 10000 8.2 330 19:37 09.12.2019
2732 Rain 6 1009 93 10000 8.2 330 19:19 09.12.2019
2733 Rain 6 1009 93 10000 8.2 330 19:19 09.12.2019
2734 Rain 6 1008 100 10000 4.6 330 18:56 09.12.2019
2735 Rain 6 1008 87 5000 8.7 320 18:38 09.12.2019
2736 Rain 6 1008 87 5000 8.7 320 18:19 09.12.2019
2737 Rain 6 1006 100 9000 2.1 320 17:57 09.12.2019
2738 Clouds 6 1006 93 10000 4.6 290 17:39 09.12.2019
2739 Rain 7 1005 93 5000 5.7 280 17:20 09.12.2019
2740 Rain 7 1004 93 6000 2.1 320 16:56 09.12.2019
2741 Rain 7 1003 93 5000 4.6 290 16:37 09.12.2019
2742 Rain 7 1003 93 5000 4.6 290 16:19 09.12.2019
2743 Clouds 7 1002 81 10000 4.6 270 15:55 09.12.2019
2744 Rain 7 1002 87 8000 5.1 260 15:37 09.12.2019
2745 Clouds 7 1002 87 10000 4.6 260 15:19 09.12.2019
2746 Clouds 7 1001 87 10000 7.2 270 14:57 09.12.2019
2747 Clouds 7 1001 81 10000 7.7 260 14:39 09.12.2019
2748 Clouds 7 1001 81 10000 7.7 260 14:18 09.12.2019
2749 Rain 7 1000 87 10000 6.7 270 13:40 09.12.2019
2750 Rain 7 1000 75 10000 10.3 250 13:40 09.12.2019
2751 Rain 7 1000 75 10000 10.3 250 13:20 09.12.2019
2752 Rain 7 1000 70 10000 9.8 270 12:58 09.12.2019
2753 Rain 7 999 81 8000 8.7 270 12:39 09.12.2019
2754 Rain 7 999 70 10000 8.7 250 12:21 09.12.2019
2755 Clouds 7 999 75 10000 6.7 240 11:59 09.12.2019
2756 Clouds 7 998 70 10000 10.3 250 11:40 09.12.2019
2757 Rain 7 998 81 10000 7.2 230 11:21 09.12.2019
2758 Rain 7 998 70 10000 8.2 220 10:57 09.12.2019
2759 Clouds 7 997 70 10000 5.7 210 10:38 09.12.2019
2760 Rain 7 997 70 10000 5.7 210 10:19 09.12.2019
2761 Rain 7 997 70 10000 5.7 210 10:19 09.12.2019
2762 Clouds 7 997 70 10000 5.7 200 09:43 09.12.2019
2763 Clouds 7 997 70 10000 6.2 190 09:24 09.12.2019
2764 Clouds 7 997 75 10000 6.2 190 08:57 09.12.2019
2765 Rain 7 996 75 10000 6.2 190 08:38 09.12.2019
2766 Rain 7 996 75 10000 6.2 190 08:20 09.12.2019
2767 Clouds 7 997 75 10000 5.7 180 07:49 09.12.2019
2768 Clouds 7 997 75 10000 5.1 180 07:30 09.12.2019
2769 Clouds 7 997 75 10000 4.6 180 06:58 09.12.2019
2770 Clouds 7 998 70 10000 4.6 180 06:30 09.12.2019
2771 Clouds 7 998 70 10000 4.6 190 05:48 09.12.2019
2772 Clouds 7 998 75 10000 3.6 180 05:23 09.12.2019
2773 Clouds 7 999 75 10000 3.6 180 04:28 09.12.2019
2774 Clouds 7 1000 70 10000 3.1 200 02:35 09.12.2019
2775 Clouds 7 1000 75 10000 4.6 200 01:47 09.12.2019
2776 Clouds 7 1001 75 10000 7.7 240 00:59 09.12.2019
2777 Clouds 7 1001 70 10000 6.7 230 00:34 09.12.2019
2778 Rain 7 1001 75 10000 5.7 230 23:58 08.12.2019
2779 Clouds 7 1001 70 10000 8.2 240 23:37 08.12.2019
2780 Clouds 7 1001 70 10000 8.2 240 23:19 08.12.2019
2781 Clouds 7 1001 70 10000 11.3 250 22:56 08.12.2019
2782 Clouds 7 1001 70 10000 7.7 230 22:38 08.12.2019
2783 Clouds 7 1001 70 10000 7.7 230 22:18 08.12.2019
2784 Rain 8 1000 76 10000 5.7 220 21:57 08.12.2019
2785 Rain 8 1001 75 10000 4.6 220 21:38 08.12.2019
2786 Rain 8 1001 75 10000 4.6 220 21:19 08.12.2019
2787 Clouds 8 1001 75 10000 5.1 220 20:56 08.12.2019
2788 Clouds 8 1001 75 10000 5.1 220 20:56 08.12.2019
2789 Rain 8 1001 75 10000 3.1 210 20:37 08.12.2019
2790 Clouds 8 1001 81 10000 3.6 180 20:19 08.12.2019
2791 Clouds 8 1001 81 10000 3.6 180 19:56 08.12.2019
2792 Clouds 8 1001 81 10000 3.6 200 19:38 08.12.2019
2793 Clouds 8 1001 81 10000 3.6 200 19:20 08.12.2019
2794 Clouds 8 1002 81 10000 3.6 230 18:55 08.12.2019
2795 Clouds 8 1002 76 10000 6.2 240 18:36 08.12.2019
2796 Clouds 9 1002 76 10000 4.6 250 18:18 08.12.2019
2797 Clouds 9 1002 76 10000 4.6 250 17:56 08.12.2019
2798 Clouds 9 1002 81 10000 4.6 250 17:37 08.12.2019
2799 Clouds 9 1002 81 10000 4.6 250 17:19 08.12.2019
2800 Clouds 10 1002 81 10000 4.1 250 16:56 08.12.2019
2801 Clouds 10 1002 76 10000 5.7 260 16:38 08.12.2019
2802 Clouds 10 1002 76 10000 5.7 260 16:20 08.12.2019
2803 Clouds 10 1002 87 10000 6.2 250 15:54 08.12.2019
2804 Rain 10 1003 93 10000 9.8 270 15:36 08.12.2019
2805 Rain 11 1002 81 10000 5.1 220 15:18 08.12.2019
2806 Rain 10 1003 76 10000 6.2 210 14:41 08.12.2019
2807 Rain 11 1003 76 10000 6.2 210 14:22 08.12.2019
2808 Rain 11 1003 76 10000 6.2 220 13:57 08.12.2019
2809 Rain 11 1003 81 10000 7.2 220 13:39 08.12.2019
2810 Rain 11 1003 81 10000 7.2 220 13:21 08.12.2019
2811 Rain 11 1004 76 10000 4.6 210 12:55 08.12.2019
2812 Rain 11 1004 81 10000 5.7 200 12:37 08.12.2019
2813 Rain 11 1004 81 10000 5.7 200 12:18 08.12.2019
2814 Clouds 11 1004 76 10000 6.7 210 11:55 08.12.2019
2815 Rain 10 1004 76 10000 4.6 200 11:37 08.12.2019
2816 Rain 10 1004 76 10000 4.6 200 11:19 08.12.2019
2817 Rain 10 1004 76 10000 4.6 200 11:19 08.12.2019
2818 Rain 10 1004 81 10000 7.2 190 10:39 08.12.2019
2819 Rain 10 1004 81 10000 7.2 190 10:21 08.12.2019
2820 Rain 10 1006 76 10000 7.2 210 09:58 08.12.2019
2821 Clouds 10 1006 71 10000 6.7 220 09:39 08.12.2019
2822 Clouds 10 1006 71 10000 6.7 220 09:20 08.12.2019
2823 Clouds 10 1006 71 10000 6.7 220 09:20 08.12.2019
2824 Clouds 10 1006 76 10000 3.1 170 08:59 08.12.2019
2825 Clouds 10 1006 76 10000 4.6 180 08:39 08.12.2019
2826 Clouds 10 1006 76 10000 4.6 180 08:21 08.12.2019
2827 Clouds 10 1006 76 10000 5.7 180 07:49 08.12.2019
2828 Clouds 10 1007 71 10000 5.1 180 07:21 08.12.2019
2829 Clouds 10 1007 71 10000 4.6 190 06:53 08.12.2019
2830 Clouds 10 1008 66 10000 4.6 200 06:23 08.12.2019
2831 Clouds 9 1009 66 10000 6.2 220 05:58 08.12.2019
2832 Clouds 9 1009 66 10000 5.7 210 05:20 08.12.2019
2833 Clouds 9 1010 70 10000 4.1 190 04:20 08.12.2019
2834 Clouds 9 1012 70 10000 4.6 210 03:38 08.12.2019
2835 Clouds 9 1012 70 10000 5.1 180 02:41 08.12.2019
2836 Clouds 9 1012 70 10000 5.1 180 02:19 08.12.2019
2837 Clouds 8 1014 70 10000 4.6 200 01:34 08.12.2019
2838 Clouds 8 1014 70 10000 5.1 200 00:52 08.12.2019
2839 Clouds 8 1014 70 10000 4.6 190 00:23 08.12.2019
2840 Clouds 8 1015 75 10000 3.6 190 23:57 07.12.2019
2841 Clouds 8 1015 70 10000 4.1 200 23:37 07.12.2019
2842 Clouds 8 1015 70 10000 4.1 200 23:18 07.12.2019
2843 Clouds 8 1015 70 10000 4.1 200 22:55 07.12.2019
2844 Clouds 8 1015 70 10000 3.6 200 22:36 07.12.2019
2845 Clouds 8 1015 70 10000 3.1 210 22:18 07.12.2019
2846 Clouds 8 1015 70 10000 3.1 210 21:55 07.12.2019
2847 Clouds 8 1015 70 10000 3.1 230 21:37 07.12.2019
2848 Clouds 8 1016 75 10000 2.6 200 21:18 07.12.2019
2849 Clouds 8 1016 66 10000 2.1 210 20:38 07.12.2019
2850 Clouds 8 1016 75 10000 3.1 210 20:20 07.12.2019
2851 Clouds 8 1016 66 10000 4.1 230 19:58 07.12.2019
2852 Clouds 8 1016 66 10000 2.1 210 19:39 07.12.2019
2853 Clouds 8 1016 66 10000 5.1 230 19:21 07.12.2019
2854 Clouds 8 1015 70 10000 5.7 240 18:58 07.12.2019
2855 Clouds 8 1015 66 10000 4.6 240 18:40 07.12.2019
2856 Clouds 9 1016 70 10000 4.6 240 18:18 07.12.2019
2857 Clouds 8 1015 76 10000 4.1 240 17:56 07.12.2019
2858 Clouds 9 1015 70 10000 4.6 240 17:37 07.12.2019
2859 Clouds 9 1015 76 10000 4.6 250 17:19 07.12.2019
2860 Clouds 9 1015 70 10000 5.7 270 16:56 07.12.2019
2861 Clouds 9 1015 76 10000 4.1 240 16:36 07.12.2019
2862 Clouds 9 1015 76 10000 4.1 240 16:18 07.12.2019
2863 Clouds 9 1014 76 10000 4.1 240 15:41 07.12.2019
2864 Clouds 9 1015 76 10000 4.6 250 15:23 07.12.2019
2865 Clouds 9 1014 76 10000 5.7 240 14:56 07.12.2019
2866 Clouds 9 1014 76 10000 5.7 240 14:38 07.12.2019
2867 Clouds 9 1014 76 10000 5.7 250 14:18 07.12.2019
2868 Clouds 9 1014 81 10000 5.7 240 13:40 07.12.2019
2869 Clouds 9 1014 81 10000 5.7 240 13:20 07.12.2019
2870 Clouds 9 1014 81 10000 5.1 240 12:56 07.12.2019
2871 Clouds 9 1014 81 10000 6.2 260 12:37 07.12.2019
2872 Clouds 9 1014 81 10000 5.7 240 12:19 07.12.2019
2873 Clouds 9 1014 81 10000 4.6 240 11:56 07.12.2019
2874 Clouds 9 1014 81 10000 4.6 240 11:37 07.12.2019
2875 Clouds 9 1014 81 10000 4.6 240 11:19 07.12.2019
2876 Clouds 8 1014 81 10000 4.6 250 10:37 07.12.2019
2877 Clouds 8 1014 81 10000 4.6 250 10:19 07.12.2019
2878 Clouds 8 1013 87 10000 3.6 240 09:41 07.12.2019
2879 Clouds 8 1013 87 10000 5.1 260 09:22 07.12.2019
2880 Clouds 8 1012 87 10000 6.2 260 08:56 07.12.2019
2881 Rain 8 1012 87 10000 5.7 250 08:37 07.12.2019
2882 Rain 8 1012 87 10000 5.7 250 08:19 07.12.2019
2883 Rain 8 1012 87 10000 5.7 250 07:44 07.12.2019
2884 Rain 8 1011 93 10000 5.1 260 07:23 07.12.2019
2885 Rain 8 1011 93 10000 5.7 270 06:48 07.12.2019
2886 Rain 8 1010 87 10000 6.7 260 06:24 07.12.2019
2887 Rain 8 1010 87 10000 6.7 260 05:25 07.12.2019
2888 Rain 8 1009 93 10000 6.2 250 03:56 07.12.2019
2889 Rain 8 1008 93 10000 5.7 240 03:18 07.12.2019
2890 Clouds 8 1008 87 10000 5.7 220 02:21 07.12.2019
2891 Rain 8 1007 81 10000 5.1 220 01:34 07.12.2019
2892 Rain 8 1007 81 10000 5.1 220 01:34 07.12.2019
2893 Clouds 8 1007 81 10000 5.1 210 00:53 07.12.2019
2894 Rain 8 1007 87 10000 5.1 200 00:20 07.12.2019
2895 Rain 8 1007 81 10000 6.2 200 23:56 06.12.2019
2896 Clouds 8 1006 87 10000 4.1 210 23:38 06.12.2019
2897 Clouds 8 1007 81 10000 6.2 200 23:18 06.12.2019
2898 Clouds 7 1006 81 10000 6.2 220 22:38 06.12.2019
2899 Rain 7 1008 87 10000 3.6 200 22:20 06.12.2019
2900 Rain 7 1008 87 10000 3.6 200 21:58 06.12.2019
2901 Rain 7 1008 93 8000 3.1 180 21:39 06.12.2019
2902 Rain 7 1008 93 8000 3.1 180 21:20 06.12.2019
2903 Drizzle 7 1008 93 9000 3.1 180 20:43 06.12.2019
2904 Drizzle 6 1008 93 9000 2.6 160 20:25 06.12.2019
2905 Drizzle 6 1008 93 9000 4.1 170 19:59 06.12.2019
2906 Drizzle 6 1008 93 9000 4.1 170 19:40 06.12.2019
2907 Rain 6 1008 87 10000 4.6 160 19:22 06.12.2019
2908 Rain 6 1008 87 10000 4.6 160 19:22 06.12.2019
2909 Clouds 6 1008 87 10000 5.7 170 18:58 06.12.2019
2910 Clouds 6 1008 87 10000 6.7 170 18:40 06.12.2019
2911 Clouds 6 1008 87 10000 6.7 170 18:20 06.12.2019
2912 Rain 6 1009 87 10000 6.7 160 17:57 06.12.2019
2913 Rain 6 1008 81 10000 3.6 200 17:39 06.12.2019
2914 Rain 6 1009 93 10000 6.2 160 17:20 06.12.2019
2915 -273 0 0 0 0 0 16:56 06.12.2019
2916 Rain 6 1010 93 10000 5.7 160 16:37 06.12.2019
2917 Rain 6 1010 93 10000 5.7 160 16:18 06.12.2019
2918 Rain 6 1011 93 10000 6.2 160 15:41 06.12.2019
2919 Rain 6 1011 93 10000 6.2 160 15:21 06.12.2019
2920 Rain 5 1011 93 10000 4.6 140 14:57 06.12.2019
2921 Rain 5 1011 93 10000 4.6 140 14:39 06.12.2019
2922 Rain 5 1011 93 10000 4.6 140 14:19 06.12.2019
2923 Rain 5 1012 93 10000 5.1 140 13:45 06.12.2019
2924 Rain 5 1012 93 10000 5.1 140 13:45 06.12.2019
2925 Rain 5 1012 93 10000 5.1 140 13:26 06.12.2019
2926 Rain 6 1013 93 10000 5.1 140 12:56 06.12.2019
2927 Rain 5 1014 93 10000 5.7 140 12:38 06.12.2019
2928 Rain 5 1014 93 10000 5.7 140 12:20 06.12.2019
2929 Rain 4 1015 87 10000 6.2 140 11:42 06.12.2019
2930 Rain 4 1015 89 10000 6.2 140 11:23 06.12.2019
2931 Rain 3 1015 89 10000 5.7 140 10:55 06.12.2019
2932 Rain 4 1015 86 10000 5.1 140 10:37 06.12.2019
2933 Rain 3 1015 86 10000 5.7 150 10:19 06.12.2019
2934 Rain 4 1015 86 10000 5.7 150 09:55 06.12.2019
2935 Rain 4 1015 80 10000 5.1 140 09:36 06.12.2019
2936 Rain 4 1015 80 10000 5.1 140 09:36 06.12.2019
2937 Rain 4 1015 80 10000 5.1 140 09:18 06.12.2019
2938 Clouds 3 1014 74 10000 2.6 180 08:40 06.12.2019
2939 Rain 3 1015 80 10000 5.7 150 08:22 06.12.2019
2940 Rain 3 1015 80 10000 5.7 140 07:38 06.12.2019
2941 Rain 3 1015 80 10000 5.7 140 07:20 06.12.2019
2942 Clouds 2 1016 57 10000 4.6 140 06:48 06.12.2019
2943 Clouds 2 1016 57 10000 4.6 140 06:25 06.12.2019
2944 Clouds 2 1016 86 10000 5.1 140 05:48 06.12.2019
2945 Clouds 2 1016 80 10000 4.6 190 02:51 06.12.2019
2946 Clouds 0 1017 86 8000 2.6 180 01:45 06.12.2019
2947 Clouds 0 1019 86 10000 3.6 130 00:56 06.12.2019
2948 Clouds 0 1019 86 10000 4.6 130 00:24 06.12.2019
2949 Clouds 0 1019 86 10000 3.1 130 23:52 05.12.2019
2950 Clouds 0 1019 86 10000 3.6 140 23:21 05.12.2019
2951 Clouds 0 1019 70 10000 3.6 140 22:59 05.12.2019
2952 Clouds 1 1019 70 10000 4.1 150 22:39 05.12.2019
2953 Clouds 1 1019 70 10000 4.1 150 22:20 05.12.2019
2954 Clouds 1 1019 70 10000 4.1 150 22:20 05.12.2019
2955 Clouds 0 1019 70 10000 3.6 140 21:58 05.12.2019
2956 Clouds 0 1019 100 9000 0.5 0 21:40 05.12.2019
2957 Clouds 0 1020 70 10000 3.6 140 21:22 05.12.2019
2958 Clouds 0 1020 70 10000 3.6 140 20:58 05.12.2019
2959 Clouds 0 1020 70 10000 3.6 140 20:40 05.12.2019
2960 Clouds 1 1020 65 10000 2.6 130 20:19 05.12.2019
2961 Clouds 1 1020 66 10000 3.1 140 19:44 05.12.2019
2962 Clouds 1 1020 66 10000 1.5 110 19:26 05.12.2019
2963 Clouds 1 1020 66 10000 1.5 110 18:59 05.12.2019
2964 Clouds 1 1020 66 10000 1.5 140 18:39 05.12.2019
2965 Clouds 1 1020 66 10000 3.1 150 18:21 05.12.2019
2966 Clouds 1 1020 66 10000 3.1 150 18:21 05.12.2019
2967 Clouds 2 1020 80 10000 3.1 150 17:59 05.12.2019
2968 Clouds 3 1020 80 10000 3.1 150 17:38 05.12.2019
2969 Clear 3 1020 74 10000 1.5 150 17:19 05.12.2019
2970 Clear 3 1020 74 10000 2.1 130 16:55 05.12.2019
2971 Clear 4 1020 74 10000 2.1 130 16:37 05.12.2019
2972 Clear 4 1020 69 10000 3.1 130 16:19 05.12.2019
2973 Clear 5 1020 56 10000 2.1 140 15:56 05.12.2019
2974 Clear 5 1020 56 10000 2.1 140 15:37 05.12.2019
2975 Clear 5 1020 56 10000 2.1 150 15:18 05.12.2019
2976 Clear 5 1020 56 10000 3.1 140 14:55 05.12.2019
2977 Clear 5 1020 56 10000 3.1 140 14:36 05.12.2019
2978 Clear 5 1020 54 10000 3.1 140 14:18 05.12.2019
2979 Clear 5 1020 54 10000 3.1 140 13:55 05.12.2019
2980 Clouds 5 1021 54 10000 3.1 140 13:37 05.12.2019
2981 Clouds 5 1021 56 10000 2.6 160 13:18 05.12.2019
2982 Clouds 4 1022 74 10000 2.1 150 12:43 05.12.2019
2983 Clouds 3 1022 80 10000 3.6 140 12:24 05.12.2019
2984 Clouds 3 1022 86 10000 3.1 150 11:56 05.12.2019
2985 Clouds 2 1022 86 10000 3.1 150 11:38 05.12.2019
2986 Clouds 2 1022 72 10000 3.1 140 11:20 05.12.2019
2987 Clouds 2 1022 72 10000 3.1 140 10:56 05.12.2019
2988 Clouds 2 1022 72 10000 3.1 140 10:56 05.12.2019
2989 Clouds 1 1022 72 10000 2.1 150 10:38 05.12.2019
2990 Clouds 1 1022 72 10000 2.6 230 10:18 05.12.2019
2991 Clouds 0 1022 92 10000 2.1 60 09:45 05.12.2019
2992 Clouds 0 1022 92 10000 1.5 60 09:24 05.12.2019
2993 Clouds -1 1022 92 10000 0.5 0 08:59 05.12.2019
2994 Clouds -1 1022 92 10000 0.5 0 08:39 05.12.2019
2995 Clear -1 1021 92 10000 1 0 08:20 05.12.2019
2996 Clear -1 1021 92 10000 1.5 70 07:54 05.12.2019
2997 Clear -1 1021 92 10000 1 0 07:36 05.12.2019
2998 Clear -1 1021 92 10000 1 0 07:18 05.12.2019
2999 Clear -1 1021 100 10000 0.5 0 06:41 05.12.2019
3000 Clear -1 1021 92 10000 1 70 06:20 05.12.2019
3001 Clear -1 1021 92 10000 1 0 05:47 05.12.2019
3002 Clear 0 1021 92 10000 1 0 05:23 05.12.2019
3003 Clear 0 1021 92 10000 1 0 04:20 05.12.2019
3004 Clear 0 1020 92 10000 1.5 90 02:44 05.12.2019
3005 Clear 0 1020 86 10000 1.5 70 02:24 05.12.2019
3006 Clear 0 1020 80 10000 1 0 01:53 05.12.2019
3007 Clear 0 1020 80 10000 1 0 01:27 05.12.2019
3008 Clear 0 1020 86 10000 1.5 100 00:54 05.12.2019
3009 Clear 0 1020 86 10000 1.5 100 00:36 05.12.2019
3010 Clear 0 1020 86 10000 1.5 110 00:18 05.12.2019
3011 Clear 1 1020 80 10000 1.5 110 23:40 04.12.2019
3012 Clear 1 1020 80 10000 1.5 110 23:22 04.12.2019
3013 Clear 1 1020 80 10000 1.5 110 22:57 04.12.2019
3014 Clear 1 1021 80 10000 2.6 100 22:36 04.12.2019
3015 Clear 1 1021 86 10000 1.5 110 22:18 04.12.2019
3016 Clear 1 1021 80 10000 1.5 0 21:55 04.12.2019
3017 Clear 1 1021 80 10000 1.5 0 21:37 04.12.2019
3018 Clouds 1 1020 86 10000 2.1 170 21:18 04.12.2019
3019 Clear 1 1021 86 10000 2.1 90 20:56 04.12.2019
3020 Clear 1 1021 92 10000 1 0 20:38 04.12.2019
3021 Clear 2 1020 77 10000 1.5 90 20:19 04.12.2019
3022 Clear 1 1021 75 10000 0.5 170 19:41 04.12.2019
3023 Clear 2 1021 92 10000 1 0 19:22 04.12.2019
3024 Clear 2 1021 93 10000 2.1 100 18:59 04.12.2019
3025 Clear 2 1020 75 10000 2.6 70 18:41 04.12.2019
3026 Clear 2 1020 75 10000 1.5 40 18:22 04.12.2019
3027 Clear 3 1021 75 10000 1.5 90 17:58 04.12.2019
3028 Clear 3 1020 75 10000 1.5 40 17:58 04.12.2019
3029 Clear 3 1021 75 10000 1.5 90 17:39 04.12.2019
3030 Clear 4 1021 74 10000 1.5 110 17:18 04.12.2019
3031 Clear 4 1021 74 10000 1.5 110 17:18 04.12.2019
3032 Clear 5 1021 74 10000 1.5 120 16:54 04.12.2019
3033 Clear 5 1021 74 10000 1.5 120 16:36 04.12.2019
3034 Clear 5 1021 75 10000 3.1 150 16:18 04.12.2019
3035 Clear 5 1021 65 10000 2.6 100 15:54 04.12.2019
3036 Clear 6 1021 65 10000 2.6 100 15:36 04.12.2019
3037 Clear 6 1021 74 10000 3.6 120 15:18 04.12.2019
3038 Clear 6 1021 74 10000 4.6 110 14:41 04.12.2019
3039 Clear 6 1021 70 10000 3.1 110 14:23 04.12.2019
3040 Clear 6 1022 75 10000 4.1 140 13:56 04.12.2019
3041 Clear 5 1022 75 10000 4.1 140 13:37 04.12.2019
3042 Clear 5 1022 75 10000 4.1 140 13:18 04.12.2019
3043 Clear 5 1022 75 10000 2.6 120 12:43 04.12.2019
3044 Clear 5 1023 80 10000 3.6 130 12:24 04.12.2019
3045 Clouds 4 1023 80 10000 3.1 130 11:45 04.12.2019
3046 Mist 3 1023 100 5000 2.6 110 11:27 04.12.2019
3047 Mist 2 1023 93 1600 3.1 110 10:59 04.12.2019
3048 Clouds 2 1024 86 10000 2.1 120 10:41 04.12.2019
3049 Fog 2 1023 100 500 2.6 130 10:22 04.12.2019
3050 Clouds 2 1024 100 6000 1.5 100 09:55 04.12.2019
3051 Clouds 2 1024 100 6000 1.5 100 09:36 04.12.2019
3052 Clouds 2 1024 79 6000 2.1 110 09:18 04.12.2019
3053 Mist 1 1024 79 4000 2.1 100 08:39 04.12.2019
3054 Mist 1 1024 87 4000 2.1 90 08:20 04.12.2019
3055 Clear 1 1024 87 0 1.5 80 07:48 04.12.2019
3056 Mist 1 1024 100 5000 1.5 130 07:30 04.12.2019
3057 Clouds 1 1024 93 9000 2.6 90 06:34 04.12.2019
3058 Clouds 1 1024 93 9000 2.1 100 05:48 04.12.2019
3059 Clouds 1 1024 93 9000 2.1 100 05:29 04.12.2019
3060 Mist 1 1024 87 2000 2.1 130 04:25 04.12.2019
3061 Clouds 1 1025 93 7000 3.1 110 02:55 04.12.2019
3062 Clouds 2 1026 93 10000 1.5 130 00:52 04.12.2019
3063 Clouds 2 1026 93 10000 1.5 130 00:28 04.12.2019
3064 Clouds 2 1026 93 10000 2.6 120 23:59 03.12.2019
3065 Clouds 2 1026 93 10000 2.6 120 23:40 03.12.2019
3066 Clouds 3 1026 93 10000 2.6 130 23:19 03.12.2019
3067 Clouds 3 1026 93 10000 3.1 140 22:41 03.12.2019
3068 Clouds 3 1027 93 10000 2.6 130 22:19 03.12.2019
3069 Clouds 3 1027 93 10000 2.6 130 21:59 03.12.2019
3070 Clouds 3 1027 93 9000 2.6 130 21:39 03.12.2019
3071 Clouds 3 1027 93 9000 2.1 140 21:19 03.12.2019
3072 Clouds 3 1027 93 8000 1 0 20:58 03.12.2019
3073 Clouds 3 1027 93 8000 1 0 20:40 03.12.2019
3074 Clouds 3 1027 93 8000 1 0 20:19 03.12.2019
3075 Clouds 3 1027 93 8000 2.1 150 19:56 03.12.2019
3076 Clouds 3 1027 93 8000 2.1 150 19:37 03.12.2019
3077 Clouds 4 1027 93 9000 2.6 140 19:19 03.12.2019
3078 Clouds 4 1027 93 9000 2.6 130 18:57 03.12.2019
3079 Clouds 4 1027 93 9000 2.6 130 18:57 03.12.2019
3080 Clouds 4 1027 93 9000 2.6 130 18:39 03.12.2019
3081 Clouds 4 1027 100 9000 2.1 130 18:21 03.12.2019
3082 Clouds 4 1027 100 9000 2.1 130 18:21 03.12.2019
3083 Clouds 4 1027 100 9000 2.1 130 18:21 03.12.2019
3084 Clouds 4 1027 100 9000 2.1 130 17:57 03.12.2019
3085 Clouds 5 1027 100 9000 1.5 110 17:38 03.12.2019
3086 Clouds 5 1027 100 9000 1.5 110 17:38 03.12.2019
3087 Clouds 5 1027 93 9000 1.5 120 17:18 03.12.2019
3088 Clouds 5 1027 100 10000 1 0 16:57 03.12.2019
3089 Clouds 5 1027 100 10000 1 0 16:57 03.12.2019
3090 Clouds 5 1027 100 10000 1 0 16:39 03.12.2019
3091 Clouds 5 1028 93 10000 0.5 0 16:20 03.12.2019
3092 Clouds 6 1027 93 10000 1 120 15:56 03.12.2019
3093 Clouds 6 1027 93 10000 1 120 15:38 03.12.2019
3094 Clouds 6 1027 87 10000 1 0 15:19 03.12.2019
3095 Clouds 6 1027 93 10000 1 0 14:43 03.12.2019
3096 Clouds 6 1028 93 10000 1 0 14:20 03.12.2019
3097 Clouds 6 1028 93 10000 1 0 13:58 03.12.2019
3098 Clouds 7 1028 93 7000 1 0 13:37 03.12.2019
3099 Clouds 7 1028 93 7000 0.5 0 13:19 03.12.2019
3100 Clouds 7 1028 87 6000 0.5 0 12:55 03.12.2019
3101 Clouds 7 1028 87 6000 0.5 0 12:36 03.12.2019
3102 Clouds 6 1029 93 6000 1 0 12:18 03.12.2019
3103 Drizzle 6 1029 93 4500 1.5 310 11:54 03.12.2019
3104 Drizzle 6 1029 93 4500 1.5 310 11:36 03.12.2019
3105 Drizzle 5 1029 100 3500 2.1 240 11:18 03.12.2019
3106 Drizzle 5 1029 100 3000 1.5 240 10:42 03.12.2019
3107 Drizzle 5 1029 100 3000 1.5 250 10:21 03.12.2019
3108 Drizzle 5 1029 100 3000 1.5 250 09:58 03.12.2019
3109 Mist 5 1029 93 3500 1.5 260 09:40 03.12.2019
3110 Mist 5 1029 93 3000 2.1 280 09:21 03.12.2019
3111 Mist 5 1029 93 3000 2.1 280 09:21 03.12.2019
3112 Mist 5 1029 100 2200 1.5 260 08:55 03.12.2019
3113 Mist 5 1029 100 2200 1.5 260 08:37 03.12.2019
3114 Drizzle 4 1029 100 2500 1.5 250 08:18 03.12.2019
3115 Drizzle 4 1029 100 2200 1 230 07:49 03.12.2019
3116 Drizzle 4 1029 100 2500 1.5 230 07:24 03.12.2019
3117 Drizzle 4 1028 100 3400 2.1 280 06:24 03.12.2019
3118 Drizzle 4 1028 100 3400 2.1 280 06:24 03.12.2019
3119 Drizzle 4 1028 100 3000 2.1 250 05:59 03.12.2019
3120 Drizzle 5 1028 93 5000 3.1 300 04:55 03.12.2019
3121 Drizzle 4 1029 100 4500 2.6 250 03:41 03.12.2019
3122 Mist 4 1029 100 4000 1.5 240 03:20 03.12.2019
3123 Mist 4 1029 100 4500 1.5 250 02:51 03.12.2019
3124 Mist 4 1029 100 4500 1.5 250 02:32 03.12.2019
3125 Drizzle 4 1028 93 6000 1.5 250 01:56 03.12.2019
3126 Drizzle 4 1028 93 6000 1.5 250 01:37 03.12.2019
3127 Drizzle 4 1029 93 7000 1 0 00:59 03.12.2019
3128 Drizzle 4 1028 93 7000 1 0 00:40 03.12.2019
3129 Drizzle 4 1028 93 7000 1 0 00:40 03.12.2019
3130 Drizzle 4 1029 93 8000 1 0 00:21 03.12.2019
3131 Rain 4 1028 93 8000 1.5 320 23:43 02.12.2019
3132 Clouds 4 1028 93 8000 1.5 250 23:21 02.12.2019
3133 Drizzle 4 1028 93 8000 1.5 230 22:56 02.12.2019
3134 Drizzle 4 1028 93 8000 1.5 230 22:37 02.12.2019
3135 Clouds 4 1028 93 7000 0.5 220 22:19 02.12.2019
3136 Clouds 4 1028 93 7000 1.5 170 21:39 02.12.2019
3137 Drizzle 4 1028 93 7000 1 110 21:20 02.12.2019
3138 Drizzle 4 1028 93 8000 1 0 20:57 02.12.2019
3139 Drizzle 4 1028 93 8000 1 0 20:39 02.12.2019
3140 Drizzle 4 1028 93 10000 2.1 240 20:20 02.12.2019
3141 Clouds 4 1028 100 6000 2.1 240 19:57 02.12.2019
3142 Clouds 4 1028 100 6000 2.1 240 19:39 02.12.2019
3143 Clouds 4 1028 100 6000 2.1 250 19:20 02.12.2019
3144 Mist 3 1027 100 4500 0.5 0 18:48 02.12.2019
3145 Mist 3 1027 100 4000 1 0 18:24 02.12.2019
3146 Mist 3 1027 100 3500 0.5 0 17:59 02.12.2019
3147 Mist 3 1027 100 3500 0.5 0 17:41 02.12.2019
3148 Mist 4 1027 100 3500 0.5 210 17:21 02.12.2019
3149 Mist 4 1027 100 3500 0.5 210 17:21 02.12.2019
3150 Clouds 4 1027 93 7000 3.6 280 16:57 02.12.2019
3151 Mist 4 1027 100 3500 0.5 100 16:39 02.12.2019
3152 -273 0 0 0 0 0 16:39 02.12.2019
3153 Mist 4 1027 100 3500 1 20 16:18 02.12.2019
3154 Rain 4 1027 93 3500 1.5 310 15:56 02.12.2019
3155 Rain 5 1027 93 3500 1.5 310 15:38 02.12.2019
3156 Rain 5 1026 93 3500 1.5 280 15:20 02.12.2019
3157 Rain 5 1026 93 3500 1.5 280 15:20 02.12.2019
3158 Rain 5 1026 93 5000 1.5 0 14:55 02.12.2019
3159 Rain 5 1026 93 5000 1.5 0 14:37 02.12.2019
3160 Clouds 5 1026 86 8000 5.1 270 14:19 02.12.2019
3161 Clouds 5 1027 86 6000 1.5 220 13:54 02.12.2019
3162 Clouds 4 1027 86 6000 1.5 220 13:36 02.12.2019
3163 Mist 4 1027 93 5000 1 0 13:18 02.12.2019
3164 Mist 4 1027 93 4000 1 0 12:41 02.12.2019
3165 Mist 3 1027 93 3000 0.5 0 12:21 02.12.2019
3166 Mist 3 1027 93 1500 1.5 180 11:57 02.12.2019
3167 Mist 3 1027 93 1500 1.5 180 11:37 02.12.2019
3168 Mist 3 1027 93 1500 1.5 180 11:37 02.12.2019
3169 Clouds 2 1027 93 9000 3.6 280 11:19 02.12.2019
3170 Mist 2 1027 100 2500 1.5 250 10:57 02.12.2019
3171 Mist 2 1027 100 2500 1.5 250 10:38 02.12.2019
3172 Clouds 1 1026 82 8000 1.5 190 10:20 02.12.2019
3173 Clouds 1 1026 82 8000 1 0 09:42 02.12.2019
3174 Clouds 1 1025 82 8000 1.5 190 09:19 02.12.2019
3175 Clouds 1 1025 82 8000 1.5 190 09:19 02.12.2019
3176 Clouds 0 1025 82 8000 1.5 160 08:59 02.12.2019
3177 Clouds 0 1025 83 8000 1.5 160 08:41 02.12.2019
3178 Fog 0 1025 85 500 4.1 270 08:23 02.12.2019
3179 Clouds 0 1025 86 8000 1.5 170 07:59 02.12.2019
3180 Clouds 0 1025 100 9000 2.1 160 07:37 02.12.2019
3181 Clouds 0 1025 92 10000 1.5 160 07:18 02.12.2019
3182 Fog 0 1024 100 400 2.6 240 06:40 02.12.2019
3183 Clouds -1 1024 100 10000 1 160 05:45 02.12.2019
3184 Clear -1 1024 92 10000 1 0 05:18 02.12.2019
3185 Clouds 0 1023 92 10000 1.5 0 03:28 02.12.2019
3186 Clouds 0 1023 92 10000 0.5 0 02:50 02.12.2019
3187 Clouds 0 1022 100 10000 0.5 0 01:47 02.12.2019
3188 Clouds 0 1022 92 10000 1 0 01:21 02.12.2019
3189 Clouds 0 1022 76 10000 1 0 00:39 02.12.2019
3190 Clouds 1 1022 76 10000 2.6 330 00:21 02.12.2019
3191 Clouds 1 1021 80 10000 0.5 20 23:43 01.12.2019
3192 Clouds 1 1021 80 10000 1 0 23:22 01.12.2019
3193 Clouds 1 1021 80 10000 1.5 20 22:56 01.12.2019
3194 Clouds 1 1021 80 10000 1.5 20 22:38 01.12.2019
3195 Clouds 1 1021 86 10000 1.5 340 22:19 01.12.2019
3196 Clouds 1 1020 86 10000 1 350 21:56 01.12.2019
3197 Clouds 1 1020 86 10000 1 350 21:38 01.12.2019
3198 Clouds 1 1020 80 10000 1 360 21:20 01.12.2019
3199 Clouds 1 1020 80 10000 1 360 20:58 01.12.2019
3200 Clouds 1 1020 80 10000 1.5 350 20:39 01.12.2019
3201 Clouds 1 1020 80 10000 1 10 20:21 01.12.2019
3202 Clouds 2 1020 80 10000 1 10 19:58 01.12.2019
3203 Clouds 2 1020 80 10000 1 0 19:39 01.12.2019
3204 Clouds 2 1020 69 10000 1.5 70 19:20 01.12.2019
3205 Clouds 2 1019 74 10000 3.1 50 18:57 01.12.2019
3206 Clouds 2 1019 74 10000 3.1 50 18:38 01.12.2019
3207 Clouds 2 1019 69 10000 3.1 40 18:19 01.12.2019
3208 Clouds 2 1019 64 10000 2.1 60 17:57 01.12.2019
3209 Clouds 2 1019 64 10000 2.1 60 17:39 01.12.2019
3210 Clouds 2 1019 69 10000 2.1 50 17:20 01.12.2019
3211 Clouds 2 1019 69 10000 2.1 50 17:20 01.12.2019
3212 Clouds 3 1019 64 10000 2.1 50 16:55 01.12.2019
3213 Clouds 3 1019 64 10000 2.1 50 16:37 01.12.2019
3214 Clouds 3 1019 64 10000 3.1 50 16:18 01.12.2019
3215 Clouds 3 1019 64 10000 3.1 50 15:44 01.12.2019
3216 Clouds 3 1019 69 10000 3.6 50 15:26 01.12.2019
3217 Clouds 3 1019 69 10000 3.6 50 15:26 01.12.2019
3218 Clouds 3 1019 69 10000 3.1 50 14:41 01.12.2019
3219 Clouds 3 1019 69 10000 3.1 50 14:41 01.12.2019
3220 Clouds 3 1019 69 10000 3.1 50 14:41 01.12.2019
3221 Clouds 3 1019 69 10000 3.1 50 14:41 01.12.2019
3222 Clouds 4 1019 64 10000 3.1 60 14:19 01.12.2019
3223 Clouds 3 1019 64 10000 3.6 60 13:56 01.12.2019
3224 Clouds 3 1019 64 10000 3.6 60 13:37 01.12.2019
3225 Clouds 3 1019 69 10000 4.1 70 13:19 01.12.2019
3226 Clouds 3 1019 69 10000 4.1 70 13:19 01.12.2019
3227 Clouds 3 1019 64 10000 4.1 70 12:42 01.12.2019
3228 Clouds 3 1019 74 10000 4.6 70 11:55 01.12.2019
3229 Clouds 2 1019 74 10000 4.6 70 11:37 01.12.2019
3230 Clouds 2 1019 74 10000 4.6 70 11:37 01.12.2019
3231 Clouds 2 1019 69 10000 5.1 60 11:19 01.12.2019
3232 Clouds 1 1020 74 10000 5.1 60 10:43 01.12.2019
3233 Clouds 1 1020 74 10000 3.1 60 10:21 01.12.2019
3234 Clouds 1 1020 74 10000 2.1 70 09:55 01.12.2019
3235 Clouds 1 1020 74 10000 2.1 70 09:36 01.12.2019
3236 Clouds 0 1019 74 10000 2.6 60 09:18 01.12.2019
3237 Clouds 0 1019 74 10000 3.1 60 08:42 01.12.2019
3238 Clouds 0 1019 80 10000 3.6 70 08:19 01.12.2019
3239 Clouds 0 1018 80 10000 5.1 70 07:50 01.12.2019
3240 Clouds 0 1019 80 10000 4.1 70 07:29 01.12.2019
3241 Clouds 0 1019 86 10000 3.6 70 06:54 01.12.2019
3242 Clouds 0 1020 80 10000 4.6 60 06:21 01.12.2019
3243 Clouds 0 1019 80 10000 4.6 70 05:45 01.12.2019
3244 Clouds 0 1020 86 10000 3.6 70 04:34 01.12.2019
3245 Clouds 0 1021 86 10000 3.6 70 02:47 01.12.2019
3246 Clouds -1 1021 86 10000 3.6 70 02:29 01.12.2019
3247 Clouds -1 1021 76 10000 2.6 90 01:56 01.12.2019
3248 Clouds -1 1021 76 10000 2.1 90 01:38 01.12.2019
3249 Clouds -1 1022 77 10000 1.5 100 01:18 01.12.2019
3250 Clouds 0 1022 86 10000 2.6 90 00:39 01.12.2019
3251 Clouds 0 1022 77 10000 3.1 80 00:20 01.12.2019
3252 Clouds 0 1022 100 10000 3.1 80 23:42 30.11.2019
3253 Clear 0 1023 100 10000 0.5 60 23:23 30.11.2019
3254 Mist 0 1023 92 5000 1.5 170 22:49 30.11.2019
3255 Mist 0 1023 92 5000 1.5 170 22:30 30.11.2019
3256 Fog 0 1023 100 3500 1 0 21:58 30.11.2019
3257 Fog 0 1023 100 8000 1 40 21:39 30.11.2019
3258 Clear 0 1023 80 10000 0.5 0 21:20 30.11.2019
3259 Fog 0 1023 100 450 2.1 140 20:55 30.11.2019
3260 Clear 1 1023 92 10000 2.1 150 20:37 30.11.2019
3261 Clear 1 1023 80 10000 0.5 0 20:19 30.11.2019
3262 Clear 1 1023 100 10000 1 0 19:55 30.11.2019
3263 Clear 1 1023 100 10000 1 0 19:37 30.11.2019
3264 Mist 1 1023 100 4000 1.5 130 19:18 30.11.2019
3265 Clear 1 1023 100 6000 1 110 18:56 30.11.2019
3266 Clouds 1 1023 80 10000 2.6 80 18:37 30.11.2019
3267 Clouds 1 1023 80 10000 2.6 80 18:37 30.11.2019
3268 Clouds 2 1023 80 10000 1 0 18:18 30.11.2019
3269 Clouds 2 1023 80 10000 1 0 17:56 30.11.2019
3270 Clouds 2 1023 93 10000 2.6 70 17:37 30.11.2019
3271 Clouds 2 1023 93 10000 2.6 70 17:19 30.11.2019
3272 Clouds 2 1023 93 10000 2.6 70 17:19 30.11.2019
3273 Clouds 3 1023 86 10000 2.1 70 16:56 30.11.2019
3274 Clouds 3 1023 86 10000 2.1 70 16:37 30.11.2019
3275 Clouds 4 1024 86 10000 3.6 70 16:18 30.11.2019
3276 Clouds 5 1023 86 10000 4.1 60 15:42 30.11.2019
3277 Clouds 5 1024 86 10000 3.1 70 15:19 30.11.2019
3278 Clouds 5 1024 80 10000 3.1 70 14:56 30.11.2019
3279 Clouds 5 1024 80 10000 3.1 70 14:38 30.11.2019
3280 Clouds 6 1024 80 10000 2.6 80 14:19 30.11.2019
3281 Clouds 5 1024 80 10000 2.1 90 13:57 30.11.2019
3282 Clouds 5 1024 80 10000 2.1 90 13:37 30.11.2019
3283 Clouds 5 1024 86 10000 2.6 80 13:19 30.11.2019
3284 Clouds 5 1024 80 10000 2.1 80 12:46 30.11.2019
3285 Clouds 5 1024 86 10000 1.5 90 12:27 30.11.2019
3286 Clouds 5 1024 86 10000 1.5 90 11:57 30.11.2019
3287 Clouds 4 1024 86 10000 1.5 70 11:38 30.11.2019
3288 Clear 3 1024 86 10000 1.5 50 11:18 30.11.2019
3289 Clouds 2 1024 100 10000 2.6 60 10:44 30.11.2019
3290 Clouds 1 1024 80 10000 0.5 0 10:21 30.11.2019
3291 Clouds 1 1024 92 9000 1 80 09:50 30.11.2019
3292 Clouds 1 1024 92 9000 1 80 09:30 30.11.2019
3293 Clouds 0 1023 100 7000 1.5 60 08:56 30.11.2019
3294 Clouds 0 1023 100 7000 1.5 60 08:56 30.11.2019
3295 Clouds 0 1023 100 7000 1.5 60 08:38 30.11.2019
3296 Clouds 0 1023 92 7000 2.1 60 08:18 30.11.2019
3297 Clouds 0 1023 100 9000 1.5 60 07:42 30.11.2019
3298 Clouds 0 1023 100 10000 0.5 0 07:23 30.11.2019
3299 -273 0 0 0 0 0 07:23 30.11.2019
3300 Clouds 0 1023 86 10000 1 70 06:46 30.11.2019
3301 Clouds 0 1023 86 10000 1.5 50 06:27 30.11.2019
3302 Clouds 1 1022 84 10000 0.5 0 05:23 30.11.2019
3303 Clouds 1 1022 84 10000 1.5 150 03:38 30.11.2019
3304 Clouds 1 1021 100 10000 0.5 0 02:26 30.11.2019
3305 Clouds 2 1020 81 10000 0.5 0 01:56 30.11.2019
3306 Clouds 2 1020 81 10000 0.5 0 01:24 30.11.2019
3307 Clouds 2 1020 93 10000 1 0 00:46 30.11.2019
3308 Clouds 2 1020 93 10000 1 0 00:27 30.11.2019
3309 Clouds 3 1019 80 10000 1 0 23:55 29.11.2019
3310 Clouds 3 1019 80 10000 1 0 23:37 29.11.2019
3311 Rain 3 1019 80 10000 1.5 320 23:18 29.11.2019
3312 Rain 3 1019 86 10000 1 0 22:39 29.11.2019
3313 Rain 3 1019 80 10000 2.6 310 22:21 29.11.2019
3314 Rain 4 1018 80 10000 1.5 320 21:42 29.11.2019
3315 Rain 4 1018 80 10000 2.1 270 21:22 29.11.2019
3316 Rain 4 1017 80 10000 3.1 310 20:57 29.11.2019
3317 Rain 4 1017 80 10000 3.1 310 20:38 29.11.2019
3318 Clouds 5 1017 75 10000 3.6 290 20:19 29.11.2019
3319 Clouds 5 1016 75 10000 3.6 310 19:56 29.11.2019
3320 Clouds 5 1016 75 10000 3.6 310 19:38 29.11.2019
3321 Clouds 5 1016 75 10000 4.1 310 19:19 29.11.2019
3322 Clouds 5 1015 70 10000 4.6 300 18:55 29.11.2019
3323 Clouds 5 1015 70 10000 4.6 300 18:37 29.11.2019
3324 Clouds 6 1015 70 10000 4.1 300 18:19 29.11.2019
3325 Clouds 6 1015 70 10000 4.1 310 17:43 29.11.2019
3326 Clouds 6 1014 70 10000 4.6 310 17:23 29.11.2019
3327 Clouds 6 1014 70 10000 5.7 310 16:56 29.11.2019
3328 Clouds 7 1014 70 10000 5.7 310 16:37 29.11.2019
3329 Clouds 7 1013 70 10000 5.7 290 16:18 29.11.2019
3330 Clouds 7 1013 61 10000 7.2 300 15:40 29.11.2019
3331 Clouds 8 1012 61 10000 6.7 310 15:22 29.11.2019
3332 Clouds 8 1012 61 10000 6.7 310 14:56 29.11.2019
3333 Clouds 8 1012 61 10000 7.2 300 14:37 29.11.2019
3334 Clouds 8 1012 61 10000 6.7 310 14:19 29.11.2019
3335 Clouds 8 1011 65 10000 6.7 310 13:41 29.11.2019
3336 Clouds 8 1011 65 10000 5.7 300 13:21 29.11.2019
3337 Clouds 7 1011 65 10000 6.2 310 12:57 29.11.2019
3338 Clouds 7 1011 65 10000 6.2 310 12:39 29.11.2019
3339 Clouds 7 1011 65 10000 6.2 310 12:39 29.11.2019
3340 Clouds 7 1011 70 10000 3.1 310 12:20 29.11.2019
3341 Clouds 7 1010 81 10000 2.6 320 11:54 29.11.2019
3342 Clouds 7 1010 81 10000 2.6 320 11:36 29.11.2019
3343 Clouds 7 1010 81 10000 4.1 310 11:18 29.11.2019
3344 Clouds 6 1009 81 10000 3.1 320 10:55 29.11.2019
3345 Clouds 5 1009 81 10000 3.1 320 10:37 29.11.2019
3346 Clouds 5 1009 81 10000 2.1 330 10:18 29.11.2019
3347 Clouds 5 1008 86 10000 2.1 320 09:55 29.11.2019
3348 Clouds 5 1008 86 10000 2.1 320 09:37 29.11.2019
3349 Clouds 4 1008 86 10000 2.1 330 09:18 29.11.2019
3350 Clouds 4 1007 93 10000 1.5 300 08:40 29.11.2019
3351 Clouds 5 1006 86 10000 2.1 310 08:22 29.11.2019
3352 Clouds 5 1006 93 10000 2.6 310 07:58 29.11.2019
3353 Clouds 5 1006 93 10000 2.6 310 07:39 29.11.2019
3354 Clouds 5 1005 87 10000 4.1 310 07:21 29.11.2019
3355 Rain 6 1005 93 10000 3.1 290 06:43 29.11.2019
3356 Rain 6 1004 93 10000 2.6 310 05:48 29.11.2019
3357 Rain 6 1003 93 10000 2.6 340 05:25 29.11.2019
3358 Rain 7 1003 87 10000 3.1 330 04:35 29.11.2019
3359 Rain 7 1002 100 10000 5.1 320 03:22 29.11.2019
3360 Rain 8 1001 93 10000 4.6 310 02:32 29.11.2019
3361 Rain 8 1000 93 10000 3.1 310 01:57 29.11.2019
3362 Rain 8 1000 93 10000 3.1 310 01:57 29.11.2019
3363 Rain 8 1000 93 10000 3.1 310 01:27 29.11.2019
3364 Rain 8 999 93 10000 5.7 280 00:50 29.11.2019
3365 Rain 8 999 93 10000 5.7 260 00:22 29.11.2019
3366 Rain 8 999 93 10000 5.7 260 23:57 28.11.2019
3367 Rain 9 999 93 10000 5.1 260 23:39 28.11.2019
3368 Rain 9 998 93 10000 5.1 260 23:20 28.11.2019
3369 Rain 9 998 93 10000 5.1 260 22:54 28.11.2019
3370 Rain 9 998 93 10000 5.1 260 22:36 28.11.2019
3371 Rain 9 998 93 7000 6.2 270 22:18 28.11.2019
3372 Drizzle 9 997 93 10000 5.7 270 21:42 28.11.2019
3373 Drizzle 9 997 93 10000 6.2 270 21:21 28.11.2019
3374 Drizzle 9 997 93 10000 6.2 270 20:58 28.11.2019
3375 Drizzle 9 997 93 10000 5.7 270 20:40 28.11.2019
3376 Drizzle 9 997 93 10000 5.7 260 20:21 28.11.2019
3377 Drizzle 9 997 93 10000 5.7 260 20:21 28.11.2019
3378 Drizzle 9 996 93 10000 6.7 260 19:57 28.11.2019
3379 Drizzle 9 996 93 10000 6.7 260 19:38 28.11.2019
3380 Rain 9 996 93 10000 6.7 260 19:19 28.11.2019
3381 Rain 9 996 93 10000 6.7 260 19:19 28.11.2019
3382 Rain 9 996 93 10000 7.7 260 18:57 28.11.2019
3383 Rain 9 996 93 10000 7.7 260 18:39 28.11.2019
3384 Rain 9 996 93 10000 7.7 260 18:39 28.11.2019
3385 Rain 9 995 81 10000 8.7 260 18:18 28.11.2019
3386 Rain 9 995 81 10000 8.2 250 17:58 28.11.2019
3387 Rain 9 995 81 10000 8.2 250 17:40 28.11.2019
3388 Rain 9 994 81 10000 7.7 250 17:20 28.11.2019
3389 Rain 10 994 81 10000 6.2 240 16:40 28.11.2019
3390 Rain 10 994 93 10000 6.7 240 16:19 28.11.2019
3391 -273 0 0 0 0 0 15:58 28.11.2019
3392 Rain 10 994 87 10000 6.2 250 15:39 28.11.2019
3393 Rain 10 993 93 10000 7.2 250 15:20 28.11.2019
3394 Rain 10 993 93 10000 7.2 250 15:20 28.11.2019
3395 Rain 10 993 93 10000 7.2 250 14:58 28.11.2019
3396 Rain 10 993 81 10000 9.3 250 14:39 28.11.2019
3397 Rain 10 993 76 10000 8.2 250 14:20 28.11.2019
3398 Rain 10 993 76 10000 7.2 230 13:55 28.11.2019
3399 Rain 10 993 76 10000 7.2 230 13:37 28.11.2019
3400 Rain 10 993 76 10000 8.2 230 13:19 28.11.2019
3401 Rain 10 993 71 10000 7.7 240 12:41 28.11.2019
3402 Rain 10 993 71 10000 8.2 240 12:22 28.11.2019
3403 Clouds 10 993 71 10000 7.7 230 11:56 28.11.2019
3404 Clouds 10 993 71 10000 7.7 230 11:38 28.11.2019
3405 Rain 10 993 71 10000 7.7 220 11:19 28.11.2019
3406 Clouds 10 993 71 10000 6.2 220 10:42 28.11.2019
3407 Clouds 10 993 71 10000 6.2 220 10:42 28.11.2019
3408 Clouds 10 992 76 10000 5.7 220 10:22 28.11.2019
3409 Rain 10 992 81 10000 5.7 240 09:59 28.11.2019
3410 Rain 10 992 81 10000 5.7 240 09:40 28.11.2019
3411 Rain 10 992 76 10000 4.6 220 09:20 28.11.2019
3412 Rain 10 992 76 10000 4.6 220 09:20 28.11.2019
3413 Rain 10 992 76 10000 4.6 220 09:20 28.11.2019
3414 Rain 10 992 76 10000 6.2 220 08:54 28.11.2019
3415 Rain 10 992 76 10000 6.2 220 08:36 28.11.2019
3416 Rain 10 991 71 10000 6.2 220 08:18 28.11.2019
3417 Clouds 10 991 71 10000 5.7 220 07:41 28.11.2019
3418 Clouds 10 991 71 10000 6.2 210 07:23 28.11.2019
3419 Rain 10 991 71 10000 5.7 210 06:43 28.11.2019
3420 Clouds 10 991 76 10000 5.1 210 06:22 28.11.2019
3421 Rain 10 991 76 10000 6.2 210 05:44 28.11.2019
3422 Rain 10 991 71 10000 5.7 210 04:58 28.11.2019
3423 Clouds 10 991 76 10000 7.7 210 02:37 28.11.2019
3424 Clouds 11 990 76 10000 6.2 190 01:35 28.11.2019
3425 Clouds 11 991 76 10000 6.7 200 00:43 28.11.2019
3426 Rain 11 990 76 10000 6.2 200 00:20 28.11.2019
3427 Clouds 11 990 76 10000 6.7 200 23:54 27.11.2019
3428 Clouds 11 990 76 10000 6.7 200 23:36 27.11.2019
3429 Clouds 11 990 81 10000 6.2 190 23:18 27.11.2019
3430 Clouds 11 990 81 10000 6.7 190 22:38 27.11.2019
3431 Clouds 11 990 81 10000 6.2 190 22:20 27.11.2019
3432 Clouds 11 990 81 10000 6.7 180 21:56 27.11.2019
3433 Clouds 11 990 81 10000 6.7 180 21:37 27.11.2019
3434 Clouds 11 990 81 10000 6.7 180 21:37 27.11.2019
3435 Rain 11 990 81 10000 6.2 170 21:19 27.11.2019
3436 Clouds 11 990 81 10000 6.2 180 20:58 27.11.2019
3437 Clouds 11 990 81 10000 6.2 180 20:39 27.11.2019
3438 Rain 11 990 81 10000 6.2 180 20:21 27.11.2019
3439 Clouds 10 990 81 10000 6.2 170 19:57 27.11.2019
3440 Clouds 10 990 81 10000 6.2 170 19:39 27.11.2019
3441 Rain 10 990 76 10000 6.2 170 19:19 27.11.2019
3442 Rain 10 990 76 10000 6.2 170 19:19 27.11.2019
3443 Clouds 10 990 76 10000 5.7 170 18:58 27.11.2019
3444 Clouds 11 990 76 10000 5.7 170 18:37 27.11.2019
3445 Clouds 10 990 71 10000 6.2 180 18:19 27.11.2019
3446 -273 0 0 0 0 0 17:57 27.11.2019
3447 Rain 10 990 76 10000 5.1 190 17:56 27.11.2019
3448 Rain 10 990 76 10000 5.1 190 17:37 27.11.2019
3449 Rain 10 990 76 10000 6.2 190 17:19 27.11.2019
3450 Rain 11 990 71 10000 5.1 180 16:56 27.11.2019
3451 Rain 11 990 71 10000 5.1 180 16:37 27.11.2019
3452 Clouds 11 990 66 10000 5.1 180 16:18 27.11.2019
3453 Clouds 11 990 66 10000 5.1 180 16:18 27.11.2019
3454 Clouds 11 990 66 10000 5.1 180 15:56 27.11.2019
3455 Clouds 11 991 66 10000 4.6 190 15:55 27.11.2019
3456 Clouds 11 991 66 10000 4.6 190 15:37 27.11.2019
3457 Clouds 11 991 66 10000 5.7 190 15:19 27.11.2019
3458 Clouds 12 991 66 10000 7.2 190 14:55 27.11.2019
3459 Clouds 12 991 66 10000 7.2 190 14:37 27.11.2019
3460 Clouds 12 991 62 10000 6.2 200 14:19 27.11.2019
3461 Clouds 12 991 62 10000 7.7 190 13:55 27.11.2019
3462 Clouds 12 991 62 10000 7.7 190 13:36 27.11.2019
3463 Clouds 12 992 71 10000 5.7 190 13:18 27.11.2019
3464 Clouds 12 992 71 10000 6.2 190 12:41 27.11.2019
3465 Clouds 12 992 71 10000 6.2 180 12:21 27.11.2019
3466 Rain 11 993 81 10000 4.1 150 11:56 27.11.2019
3467 Rain 11 993 81 10000 4.1 150 11:36 27.11.2019
3468 Rain 11 993 81 10000 5.1 130 11:18 27.11.2019
3469 Rain 11 993 81 10000 5.1 130 11:18 27.11.2019
3470 Rain 11 993 81 10000 4.1 140 10:43 27.11.2019
3471 Clouds 11 993 81 10000 6.7 160 10:24 27.11.2019
3472 Clouds 11 993 76 10000 6.7 160 09:57 27.11.2019
3473 Clouds 11 993 76 10000 6.7 160 09:39 27.11.2019
3474 Clouds 10 993 81 10000 4.6 150 09:18 27.11.2019
3475 Clouds 11 992 81 10000 6.2 160 08:42 27.11.2019
3476 Clouds 10 992 81 10000 6.7 150 08:23 27.11.2019
3477 Clouds 10 992 81 10000 8.2 150 07:48 27.11.2019
3478 Clouds 10 992 81 10000 8.2 150 07:29 27.11.2019
3479 Rain 10 991 81 10000 8.2 150 07:29 27.11.2019
3480 Rain 10 992 81 10000 7.2 130 06:55 27.11.2019
3481 Rain 10 992 81 10000 7.2 130 06:36 27.11.2019
3482 Rain 9 992 81 10000 6.2 130 05:53 27.11.2019
3483 Rain 9 993 81 10000 5.1 130 05:26 27.11.2019
3484 Rain 9 994 87 10000 4.1 120 04:49 27.11.2019
3485 Rain 9 994 87 10000 4.1 120 04:31 27.11.2019
3486 Rain 10 994 87 10000 3.6 120 03:45 27.11.2019
3487 Rain 10 995 87 10000 4.6 130 03:20 27.11.2019
3488 Rain 10 996 81 10000 4.6 130 02:34 27.11.2019
3489 Clouds 10 998 87 10000 3.6 140 01:22 27.11.2019
3490 Clouds 10 999 81 10000 6.2 150 00:40 27.11.2019
3491 Clouds 10 999 87 10000 3.1 140 00:22 27.11.2019
3492 Clouds 10 999 87 10000 3.6 130 23:42 26.11.2019
3493 Clouds 10 999 87 10000 3.1 120 23:24 26.11.2019
3494 Clouds 10 1000 81 10000 3.6 130 22:55 26.11.2019
3495 Clouds 10 1000 81 10000 3.6 130 22:36 26.11.2019
3496 Clouds 10 999 81 10000 3.1 150 22:18 26.11.2019
3497 Clouds 10 1001 87 10000 4.1 130 21:39 26.11.2019
3498 Clouds 10 1001 87 10000 2.6 130 21:21 26.11.2019
3499 Clouds 10 1002 87 10000 3.1 140 20:57 26.11.2019
3500 Clouds 10 1002 87 10000 3.1 140 20:39 26.11.2019
3501 Clouds 10 1002 87 10000 2.6 140 20:19 26.11.2019
3502 Drizzle 10 1002 87 10000 3.6 130 19:56 26.11.2019
3503 Drizzle 10 1002 87 10000 3.6 130 19:38 26.11.2019
3504 Drizzle 10 1002 87 10000 3.1 130 19:20 26.11.2019
3505 Clouds 10 1002 87 10000 3.6 140 18:58 26.11.2019
3506 Clouds 10 1002 87 10000 3.6 140 18:39 26.11.2019
3507 Clouds 11 1002 81 10000 3.6 140 18:21 26.11.2019
3508 Clouds 11 1002 81 10000 4.1 140 17:59 26.11.2019
3509 Clouds 11 1002 81 10000 4.1 140 17:41 26.11.2019
3510 Clouds 11 1003 81 10000 4.1 130 17:22 26.11.2019
3511 Clouds 11 1003 81 10000 4.1 140 16:57 26.11.2019
3512 Clouds 11 1003 81 10000 4.1 140 16:38 26.11.2019
3513 Clouds 11 1003 81 10000 4.6 140 16:19 26.11.2019
3514 Clouds 11 1003 81 10000 4.6 140 15:59 26.11.2019
3515 Clouds 11 1003 81 10000 5.1 130 15:38 26.11.2019
3516 Clouds 11 1003 81 10000 4.6 130 15:20 26.11.2019
3517 Clouds 11 1004 81 10000 5.1 140 14:59 26.11.2019
3518 Clouds 11 1004 81 10000 5.1 140 14:41 26.11.2019
3519 Clouds 11 1004 81 10000 5.1 140 14:22 26.11.2019
3520 Clouds 11 1004 81 10000 4.1 130 13:43 26.11.2019
3521 Clouds 11 1004 81 10000 3.6 130 13:23 26.11.2019
3522 Clouds 11 1005 81 10000 3.6 130 12:54 26.11.2019
3523 Clouds 11 1005 81 10000 3.6 130 12:36 26.11.2019
3524 Clouds 11 1005 81 10000 4.1 150 12:18 26.11.2019
3525 Clouds 10 1005 87 10000 3.6 130 11:54 26.11.2019
3526 Clouds 10 1005 81 10000 4.1 130 11:36 26.11.2019
3527 Clouds 9 1005 81 10000 4.1 130 11:18 26.11.2019
3528 Clouds 9 1005 87 10000 4.1 130 10:54 26.11.2019
3529 Clouds 9 1005 87 10000 4.1 130 10:36 26.11.2019
3530 Clouds 9 1005 87 10000 4.6 130 10:18 26.11.2019
3531 Clouds 8 1005 87 10000 4.1 120 09:42 26.11.2019
3532 Clouds 8 1006 93 10000 3.6 120 09:23 26.11.2019
3533 Clouds 8 1006 93 10000 3.6 130 08:47 26.11.2019
3534 Clouds 8 1006 87 10000 3.6 120 08:28 26.11.2019
3535 Clouds 8 1006 87 10000 4.1 130 07:58 26.11.2019
3536 Clouds 8 1006 87 10000 4.1 130 07:40 26.11.2019
3537 Clouds 8 1006 87 10000 3.6 120 07:21 26.11.2019
3538 Clouds 7 1006 87 10000 4.1 130 06:50 26.11.2019
3539 Clouds 7 1006 87 10000 4.1 130 05:59 26.11.2019
3540 Clouds 7 1006 93 10000 3.6 120 05:32 26.11.2019
3541 Rain 7 1007 87 10000 2.6 100 03:22 26.11.2019
3542 Clouds 6 1008 93 10000 2.6 110 01:42 26.11.2019
3543 Clouds 6 1008 93 10000 3.6 130 01:23 26.11.2019
3544 Clouds 6 1008 87 10000 2.1 110 00:47 26.11.2019
3545 Clouds 6 1008 93 10000 2.1 110 00:20 26.11.2019
3546 Clouds 6 1009 93 10000 2.6 130 23:39 25.11.2019
3547 Clouds 6 1009 93 10000 2.6 130 23:19 25.11.2019
3548 Clouds 6 1009 93 10000 2.6 130 23:19 25.11.2019
3549 Clouds 6 1009 93 10000 3.1 120 22:55 25.11.2019
3550 Clouds 6 1009 93 10000 3.1 120 22:37 25.11.2019
3551 Clouds 6 1009 93 10000 3.1 140 22:18 25.11.2019
3552 Clouds 6 1009 87 10000 3.1 130 21:55 25.11.2019
3553 Clouds 6 1009 87 10000 3.1 130 21:36 25.11.2019
3554 Clouds 6 1009 87 10000 4.1 140 21:18 25.11.2019
3555 Clouds 6 1009 87 10000 4.1 140 21:18 25.11.2019
3556 Clouds 6 1009 87 10000 4.1 140 21:18 25.11.2019
3557 Clouds 6 1009 87 10000 4.1 130 20:54 25.11.2019
3558 Clouds 6 1009 87 10000 4.1 130 20:54 25.11.2019
3559 Clouds 6 1009 87 10000 4.1 130 20:36 25.11.2019
3560 Clouds 6 1009 87 10000 3.1 130 20:18 25.11.2019
3561 Clouds 6 1009 87 10000 3.1 130 20:18 25.11.2019
3562 Clouds 6 1009 87 10000 3.6 130 19:54 25.11.2019
3563 Clouds 6 1009 87 10000 3.6 130 19:54 25.11.2019
3564 Clouds 7 1009 87 10000 3.6 130 19:36 25.11.2019
3565 Clouds 7 1009 81 10000 3.6 130 19:18 25.11.2019
3566 Clouds 7 1009 87 10000 3.6 130 18:56 25.11.2019
3567 Clouds 7 1009 87 10000 3.6 130 18:37 25.11.2019
3568 Clouds 7 1009 81 10000 3.6 130 18:18 25.11.2019
3569 Clouds 8 1009 87 10000 2.6 130 17:56 25.11.2019
3570 Clouds 8 1009 87 10000 2.6 130 17:37 25.11.2019
3571 Clouds 8 1009 87 10000 2.6 120 17:18 25.11.2019
3572 Clouds 9 1009 81 10000 2.1 120 16:55 25.11.2019
3573 Clouds 9 1009 81 10000 2.1 120 16:37 25.11.2019
3574 Clouds 9 1009 81 10000 2.6 130 16:18 25.11.2019
3575 Clouds 9 1009 81 10000 2.1 140 15:41 25.11.2019
3576 Clouds 10 1009 81 10000 1.5 130 15:21 25.11.2019
3577 Clouds 9 1009 81 10000 1 0 14:57 25.11.2019
3578 Clouds 9 1009 81 10000 1 0 14:39 25.11.2019
3579 Clouds 9 1009 87 10000 1.5 110 14:20 25.11.2019
3580 Clouds 9 1009 87 10000 2.1 150 13:41 25.11.2019
3581 Clouds 9 1009 87 10000 1.5 130 13:21 25.11.2019
3582 Clouds 9 1009 81 10000 1.5 110 12:59 25.11.2019
3583 Clouds 9 1009 81 10000 1.5 110 12:40 25.11.2019
3584 Clouds 8 1010 87 10000 1 0 12:21 25.11.2019
3585 Clouds 8 1010 87 10000 1 0 11:59 25.11.2019
3586 Clouds 8 1010 87 10000 1 0 11:39 25.11.2019
3587 Clouds 7 1010 87 10000 2.1 120 11:20 25.11.2019
3588 Clouds 7 1010 93 10000 1.5 110 10:46 25.11.2019
3589 Clouds 7 1010 87 10000 1 0 10:28 25.11.2019
3590 Clouds 6 1010 93 10000 0.5 0 09:59 25.11.2019
3591 Clouds 6 1010 93 10000 0.5 0 09:40 25.11.2019
3592 Clouds 6 1010 87 10000 0.5 0 09:22 25.11.2019
3593 Clouds 6 1010 87 10000 0.5 0 08:41 25.11.2019
3594 Clouds 6 1010 93 10000 1.5 160 08:22 25.11.2019
3595 Clouds 6 1009 93 10000 0.5 110 07:45 25.11.2019
3596 Clouds 6 1009 93 10000 1.5 130 07:25 25.11.2019
3597 Clouds 6 1009 93 10000 1.5 130 07:25 25.11.2019
3598 Clouds 6 1009 87 10000 1 0 06:51 25.11.2019
3599 Clouds 5 1009 93 10000 1.5 100 06:23 25.11.2019
3600 Clouds 5 1009 93 10000 1 0 05:50 25.11.2019
3601 Clouds 5 1009 93 10000 1 0 05:30 25.11.2019
3602 Clouds 5 1009 100 10000 1.5 60 04:35 25.11.2019
3603 Clouds 4 1010 100 10000 1.5 70 02:36 25.11.2019
3604 Clouds 4 1009 100 10000 0.5 0 01:43 25.11.2019
3605 Clouds 4 1009 93 10000 0.5 0 01:24 25.11.2019
3606 Clouds 4 1009 93 10000 2.1 90 00:42 25.11.2019
3607 Clouds 4 1009 100 10000 0.5 0 00:20 25.11.2019
3608 Clouds 4 1009 100 10000 1 0 23:44 24.11.2019
3609 Clouds 4 1009 100 10000 1 80 23:20 24.11.2019
3610 Clouds 5 1009 93 10000 0.5 0 22:58 24.11.2019
3611 Clouds 5 1009 93 10000 0.5 0 22:39 24.11.2019
3612 Clouds 5 1009 100 10000 0.5 0 22:19 24.11.2019
3613 Clouds 5 1009 100 10000 1 0 21:57 24.11.2019
3614 Clouds 5 1009 100 10000 1 0 21:39 24.11.2019
3615 Clouds 5 1009 100 10000 1.5 0 21:20 24.11.2019
3616 Clouds 6 1009 93 10000 0.5 0 20:58 24.11.2019
3617 Clouds 6 1009 93 10000 0.5 0 20:38 24.11.2019
3618 Clouds 6 1009 93 10000 1 0 20:18 24.11.2019
3619 Clouds 6 1009 93 10000 1 0 19:56 24.11.2019
3620 Clouds 6 1009 93 10000 1 0 19:38 24.11.2019
3621 Clouds 6 1009 93 10000 1 0 19:20 24.11.2019
3622 Clouds 6 1009 93 10000 2.1 150 18:57 24.11.2019
3623 Clouds 6 1009 93 10000 2.1 150 18:37 24.11.2019
3624 Clouds 6 1008 87 10000 0.5 0 18:19 24.11.2019
3625 Clouds 6 1008 87 10000 0.5 0 18:19 24.11.2019
3626 Clouds 7 1008 87 10000 1 0 17:56 24.11.2019
3627 Clouds 7 1008 81 10000 1.5 100 17:37 24.11.2019
3628 Clouds 8 1008 81 10000 1.5 100 17:19 24.11.2019
3629 Clouds 9 1008 76 10000 1.5 150 16:57 24.11.2019
3630 Clouds 9 1008 76 10000 1.5 150 16:38 24.11.2019
3631 Clouds 10 1008 71 10000 0.5 0 16:19 24.11.2019
3632 Clouds 10 1008 66 10000 1 0 15:44 24.11.2019
3633 Clouds 11 1007 66 10000 0.5 0 15:26 24.11.2019
3634 Clouds 11 1007 62 10000 0.5 0 14:58 24.11.2019
3635 Clouds 10 1007 62 10000 0.5 0 14:38 24.11.2019
3636 Clouds 11 1007 66 10000 0.5 0 14:18 24.11.2019
3637 Clouds 10 1007 71 10000 1 260 13:54 24.11.2019
3638 Clouds 10 1007 71 10000 1 260 13:54 24.11.2019
3639 Clouds 10 1007 71 10000 1 260 13:36 24.11.2019
3640 Clouds 10 1007 71 10000 1 0 13:18 24.11.2019
3641 Clouds 10 1007 71 10000 1 0 12:42 24.11.2019
3642 Clouds 10 1007 71 10000 2.1 170 12:19 24.11.2019
3643 Clouds 10 1007 76 10000 2.1 150 11:58 24.11.2019
3644 Clouds 9 1007 76 10000 2.1 150 11:37 24.11.2019
3645 Clouds 8 1007 81 10000 1.5 140 11:19 24.11.2019
3646 Clouds 7 1007 81 10000 1.5 140 10:47 24.11.2019
3647 Clouds 6 1006 87 10000 1 0 10:29 24.11.2019
3648 Clouds 6 1007 81 10000 1.5 140 10:29 24.11.2019
3649 Clouds 5 1006 87 10000 1 0 09:59 24.11.2019
3650 Clouds 4 1006 93 10000 1 0 09:38 24.11.2019
3651 Clouds 4 1006 93 10000 0.5 0 09:19 24.11.2019
3652 Clouds 4 1005 100 10000 1 100 08:57 24.11.2019
3653 Clouds 4 1005 100 10000 1 100 08:38 24.11.2019
3654 Clouds 4 1005 93 10000 1 110 08:19 24.11.2019
3655 Clouds 4 1005 93 10000 0.5 0 07:47 24.11.2019
3656 Clouds 4 1004 81 10000 1 0 07:20 24.11.2019
3657 Clouds 4 1004 87 10000 1 0 06:40 24.11.2019
3658 Clouds 4 1003 81 10000 1.5 90 05:24 24.11.2019
3659 Clouds 4 1003 86 10000 1 0 04:40 24.11.2019
3660 Clouds 4 1002 81 10000 2.1 100 02:36 24.11.2019
3661 Clouds 4 1002 81 10000 2.1 90 01:56 24.11.2019
3662 Clouds 4 1002 81 10000 2.1 90 01:34 24.11.2019
3663 Clouds 4 1002 93 10000 1.5 140 00:52 24.11.2019
3664 Clouds 4 1001 93 10000 1.5 140 00:25 24.11.2019
3665 Clouds 4 1001 86 10000 1.5 140 23:57 23.11.2019
3666 Clouds 5 1001 86 10000 1.5 140 23:39 23.11.2019
3667 Clouds 4 1001 93 10000 1 0 23:20 23.11.2019
3668 Clouds 5 1001 93 10000 0.5 60 22:57 23.11.2019
3669 Clouds 4 1001 93 10000 0.5 60 22:37 23.11.2019
3670 Clouds 5 1000 86 10000 0.5 0 22:19 23.11.2019
3671 Clouds 5 1000 93 10000 3.1 150 21:56 23.11.2019
3672 Clouds 5 1000 93 10000 3.1 150 21:37 23.11.2019
3673 Clouds 5 1000 86 10000 1.5 90 21:19 23.11.2019
3674 Clouds 6 1000 81 10000 1.5 120 20:38 23.11.2019
3675 Clouds 6 999 75 10000 1 100 20:20 23.11.2019
3676 Clouds 7 999 75 10000 1.5 170 19:58 23.11.2019
3677 Clouds 7 999 75 10000 1.5 170 19:39 23.11.2019
3678 Clouds 7 999 70 10000 2.1 80 19:19 23.11.2019
3679 Clouds 7 999 70 10000 2.1 80 19:19 23.11.2019
3680 Clouds 7 998 66 10000 1.5 90 18:58 23.11.2019
3681 Clouds 7 998 66 10000 1.5 90 18:39 23.11.2019
3682 Clouds 8 998 66 10000 2.6 60 18:19 23.11.2019
3683 Clouds 8 998 66 10000 2.1 90 17:45 23.11.2019
3684 Clouds 8 998 61 10000 1 0 17:23 23.11.2019
3685 Clouds 8 998 61 10000 1 0 17:23 23.11.2019
3686 Clouds 8 997 70 10000 2.6 170 16:57 23.11.2019
3687 Clouds 9 997 76 10000 4.6 60 16:39 23.11.2019
3688 Clouds 9 997 76 10000 4.6 60 16:39 23.11.2019
3689 Clouds 9 997 76 10000 5.1 60 16:21 23.11.2019
3690 Clouds 9 997 76 10000 1.5 0 15:59 23.11.2019
3691 Clouds 9 997 76 10000 1.5 0 15:39 23.11.2019
3692 Clouds 10 997 66 10000 4.6 50 15:19 23.11.2019
3693 Clouds 9 997 66 10000 4.6 50 14:57 23.11.2019
3694 Clouds 10 997 71 10000 3.1 90 14:39 23.11.2019
3695 Clouds 10 997 54 10000 3.6 90 14:21 23.11.2019
3696 Clouds 10 997 58 10000 4.1 110 13:54 23.11.2019
3697 Clouds 10 997 58 10000 4.1 110 13:36 23.11.2019
3698 Clouds 10 997 54 10000 4.6 100 13:18 23.11.2019
3699 Clouds 9 998 62 10000 4.1 90 12:42 23.11.2019
3700 Clouds 9 998 61 10000 3.1 100 12:24 23.11.2019
3701 Clouds 8 999 66 10000 3.1 110 11:45 23.11.2019
3702 Clouds 8 998 70 10000 3.6 100 11:23 23.11.2019
3703 Clouds 7 999 70 10000 2.6 110 10:56 23.11.2019
3704 Clouds 7 999 70 10000 2.6 110 10:37 23.11.2019
3705 Clouds 6 998 75 10000 2.6 100 10:18 23.11.2019
3706 Clouds 6 999 75 10000 2.6 110 09:40 23.11.2019
3707 Clouds 5 999 81 10000 2.6 100 09:18 23.11.2019
3708 Clouds 5 998 81 10000 3.1 90 08:41 23.11.2019
3709 Clouds 5 998 81 10000 3.1 90 08:41 23.11.2019
3710 Clouds 5 999 86 10000 2.6 110 08:19 23.11.2019
3711 Clouds 4 999 80 10000 2.1 120 07:42 23.11.2019
3712 Clouds 4 999 80 10000 2.6 100 06:58 23.11.2019
3713 Clouds 4 999 80 10000 2.6 100 06:38 23.11.2019
3714 Clouds 4 999 86 10000 2.1 100 06:19 23.11.2019
3715 Clouds 4 1000 86 10000 3.1 130 05:41 23.11.2019
3716 Clouds 4 1000 86 10000 3.1 130 05:22 23.11.2019
3717 Clouds 4 1000 80 10000 3.6 110 04:34 23.11.2019
3718 Clouds 4 1000 80 10000 3.1 120 03:32 23.11.2019
3719 Clouds 4 1001 80 10000 3.1 130 02:39 23.11.2019
3720 Clouds 4 1001 80 10000 3.1 130 02:39 23.11.2019
3721 Clouds 4 1002 80 10000 2.1 120 01:41 23.11.2019
3722 Clouds 4 1002 86 10000 4.1 120 00:49 23.11.2019
3723 Clouds 4 1002 86 10000 2.6 140 00:22 23.11.2019
3724 Clouds 4 1002 86 10000 3.1 120 23:59 22.11.2019
3725 Clouds 4 1002 86 10000 3.1 120 23:38 22.11.2019
3726 Clouds 4 1003 86 10000 3.1 120 23:20 22.11.2019
3727 Clouds 4 1003 86 10000 2.6 130 22:57 22.11.2019
3728 Clouds 4 1003 86 10000 2.6 130 22:57 22.11.2019
3729 Clouds 4 1003 86 10000 2.6 130 22:38 22.11.2019
3730 Clouds 4 1003 86 10000 2.1 100 22:19 22.11.2019
3731 Clouds 4 1004 86 10000 2.6 110 21:57 22.11.2019
3732 Clouds 4 1004 86 10000 2.6 110 21:38 22.11.2019
3733 Clouds 4 1004 86 10000 3.1 90 21:19 22.11.2019
3734 Clouds 5 1004 86 10000 3.6 110 20:42 22.11.2019
3735 Clouds 5 1004 86 10000 2.6 110 20:22 22.11.2019
3736 Clouds 5 1005 86 10000 3.1 100 19:55 22.11.2019
3737 Clouds 5 1005 86 10000 3.1 100 19:37 22.11.2019
3738 Clouds 5 1005 86 10000 3.6 120 19:18 22.11.2019
3739 Clouds 5 1005 86 10000 3.1 120 18:39 22.11.2019
3740 Clouds 5 1005 86 10000 2.6 120 18:21 22.11.2019
3741 Clouds 5 1005 86 10000 3.6 110 17:57 22.11.2019
3742 Clouds 6 1005 86 10000 3.6 110 17:39 22.11.2019
3743 Clouds 6 1005 81 10000 3.6 110 17:20 22.11.2019
3744 Clouds 6 1005 81 10000 3.1 130 16:42 22.11.2019
3745 Clouds 7 1006 81 10000 6.2 130 16:23 22.11.2019
3746 Clouds 7 1006 81 10000 5.7 130 15:44 22.11.2019
3747 Clouds 7 1006 81 10000 5.1 130 15:24 22.11.2019
3748 Clouds 8 1006 81 10000 5.7 120 14:56 22.11.2019
3749 Clouds 8 1006 81 10000 5.7 120 14:38 22.11.2019
3750 Clouds 8 1006 81 10000 5.1 120 14:19 22.11.2019
3751 Clouds 8 1006 81 10000 5.1 120 13:58 22.11.2019
3752 Clouds 8 1006 81 10000 5.1 120 13:37 22.11.2019
3753 Clouds 8 1006 75 10000 5.7 120 13:18 22.11.2019
3754 Clouds 8 1006 75 10000 5.7 120 12:57 22.11.2019
3755 Clouds 8 1006 75 10000 5.1 130 12:39 22.11.2019
3756 Clouds 8 1007 81 10000 5.1 130 12:18 22.11.2019
3757 Clouds 8 1007 81 10000 5.1 130 11:55 22.11.2019
3758 Clouds 8 1007 81 10000 5.1 130 11:36 22.11.2019
3759 Clouds 7 1006 87 10000 2.6 130 11:18 22.11.2019
3760 Clouds 7 1007 87 10000 5.7 130 10:40 22.11.2019
3761 Clouds 7 1007 87 10000 4.6 120 10:22 22.11.2019
3762 Clouds 6 1007 87 10000 4.1 130 09:58 22.11.2019
3763 Clouds 6 1007 87 10000 4.1 130 09:39 22.11.2019
3764 Clouds 6 1007 87 10000 3.6 120 09:21 22.11.2019
3765 Clouds 6 1007 87 10000 3.6 120 09:21 22.11.2019
3766 Rain 6 1007 87 10000 3.6 120 08:48 22.11.2019
3767 Rain 6 1007 87 10000 3.6 120 08:28 22.11.2019
3768 Rain 6 1007 81 10000 4.1 130 07:58 22.11.2019
3769 Rain 6 1007 81 10000 4.1 130 07:40 22.11.2019
3770 Rain 6 1006 81 10000 4.1 120 07:19 22.11.2019
3771 Rain 6 1007 81 10000 3.6 130 06:41 22.11.2019
3772 Rain 6 1007 81 10000 4.1 130 06:18 22.11.2019
3773 Clouds 5 1007 81 10000 5.1 130 04:55 22.11.2019
3774 Clouds 4 1006 86 10000 5.1 130 02:59 22.11.2019
3775 Clouds 4 1006 86 10000 5.1 130 02:39 22.11.2019
3776 Clouds 4 1006 86 10000 3.6 120 02:19 22.11.2019
3777 Clouds 4 1007 86 10000 3.1 120 01:42 22.11.2019
3778 Clouds 4 1007 86 10000 2.6 120 01:18 22.11.2019
3779 Clouds 4 1007 86 10000 2.6 110 00:40 22.11.2019
3780 Clouds 4 1007 93 10000 2.1 90 00:19 22.11.2019
3781 Clouds 4 1007 93 10000 2.6 110 23:43 21.11.2019
3782 Clouds 4 1007 86 10000 2.6 110 23:24 21.11.2019
3783 Clouds 4 1007 86 10000 2.6 110 22:56 21.11.2019
3784 Clouds 4 1007 93 10000 2.6 110 22:38 21.11.2019
3785 Clouds 4 1007 86 10000 2.6 100 22:19 21.11.2019
3786 Clouds 5 1007 86 10000 3.6 110 21:55 21.11.2019
3787 Clouds 5 1007 86 10000 3.6 110 21:36 21.11.2019
3788 Clouds 5 1007 86 10000 3.6 120 21:18 21.11.2019
3789 Clouds 5 1007 86 10000 3.6 120 20:57 21.11.2019
3790 Clouds 5 1007 86 10000 3.6 120 20:37 21.11.2019
3791 Rain 5 1007 86 10000 3.6 120 20:18 21.11.2019
3792 Rain 5 1007 86 10000 3.6 130 19:56 21.11.2019
3793 Rain 5 1007 86 10000 3.6 130 19:37 21.11.2019
3794 Rain 5 1007 86 10000 3.1 120 19:19 21.11.2019
3795 Clouds 5 1007 86 10000 3.6 130 18:54 21.11.2019
3796 Rain 5 1007 86 10000 3.1 110 18:36 21.11.2019
3797 Rain 5 1007 86 10000 3.1 110 18:36 21.11.2019
3798 Rain 5 1007 86 10000 3.1 110 18:18 21.11.2019
3799 Clouds 5 1007 80 10000 3.1 120 17:40 21.11.2019
3800 Clouds 5 1007 80 10000 3.1 120 17:21 21.11.2019
3801 Clouds 5 1007 80 10000 3.1 120 16:58 21.11.2019
3802 Clouds 5 1007 81 10000 2.6 120 16:40 21.11.2019
3803 Clouds 5 1007 81 10000 3.6 130 16:20 21.11.2019
3804 Clouds 5 1007 81 10000 3.6 140 15:56 21.11.2019
3805 Clouds 6 1007 81 10000 3.6 140 15:37 21.11.2019
3806 Clouds 6 1007 81 10000 4.6 130 15:19 21.11.2019
3807 Clouds 6 1007 75 10000 4.1 130 14:39 21.11.2019
3808 Clouds 5 1007 75 10000 3.6 130 14:21 21.11.2019
3809 Clouds 5 1008 75 10000 4.1 130 13:59 21.11.2019
3810 Clouds 5 1008 75 10000 4.1 130 13:38 21.11.2019
3811 Clouds 5 1008 75 10000 4.6 140 13:19 21.11.2019
3812 Clouds 5 1008 75 10000 4.6 140 13:19 21.11.2019
3813 Clouds 4 1008 86 10000 4.1 140 12:54 21.11.2019
3814 Clouds 4 1008 86 10000 4.1 140 12:36 21.11.2019
3815 Clouds 4 1009 80 10000 4.1 130 12:18 21.11.2019
3816 Clouds 3 1009 86 10000 3.1 120 11:40 21.11.2019
3817 Clouds 2 1009 82 10000 2.6 120 11:21 21.11.2019
3818 Clouds 1 1009 82 10000 2.1 130 10:57 21.11.2019
3819 Clouds 1 1009 82 10000 2.1 130 10:57 21.11.2019
3820 Clouds 1 1009 82 10000 2.1 130 10:39 21.11.2019
3821 Clouds 1 1010 82 10000 1.5 120 10:20 21.11.2019
3822 Clouds 0 1010 82 9000 1.5 120 09:43 21.11.2019
3823 Clouds 0 1010 100 8000 1.5 110 09:24 21.11.2019
3824 Mist -1 1009 82 4000 2.1 120 08:59 21.11.2019
3825 Mist -1 1009 82 4000 2.1 120 08:40 21.11.2019
3826 Mist -1 1009 82 4000 2.1 120 08:40 21.11.2019
3827 Clouds -1 1010 92 9000 2.6 130 08:19 21.11.2019
3828 Clouds -1 1011 92 10000 3.1 130 07:40 21.11.2019
3829 Clouds -1 1011 92 10000 2.1 140 07:18 21.11.2019
3830 Clouds -1 1011 100 10000 1.5 120 06:57 21.11.2019
3831 Clouds -1 1011 92 10000 1.5 100 06:33 21.11.2019
3832 Clouds -1 1011 92 10000 1.5 110 05:36 21.11.2019
3833 Clouds -1 1011 100 10000 2.1 140 03:32 21.11.2019
3834 Clouds -1 1012 100 10000 1.5 110 02:41 21.11.2019
3835 Clear -1 1013 100 10000 1.5 110 01:55 21.11.2019
3836 Clear -1 1013 100 10000 1.5 110 01:55 21.11.2019
3837 Clear -1 1013 100 10000 1.5 110 01:37 21.11.2019
3838 Clear 0 1013 92 10000 2.1 150 00:55 21.11.2019
3839 Clear 0 1013 92 10000 2.1 150 00:55 21.11.2019
3840 Clear 0 1013 86 10000 2.1 90 00:22 21.11.2019
3841 Clear 0 1013 86 10000 2.1 90 23:59 20.11.2019
3842 Clear 0 1013 86 10000 3.6 80 23:40 20.11.2019
3843 Clear 0 1014 86 10000 3.1 80 23:21 20.11.2019
3844 Clear 0 1014 80 10000 2.6 90 22:55 20.11.2019
3845 Clear 1 1014 80 10000 2.6 90 22:37 20.11.2019
3846 Clear 1 1014 80 10000 2.1 80 22:18 20.11.2019
3847 Clear 1 1014 80 10000 2.6 80 21:57 20.11.2019
3848 Clear 1 1014 80 10000 2.6 80 21:37 20.11.2019
3849 Clouds 2 1014 80 10000 2.6 80 21:19 20.11.2019
3850 Clouds 2 1015 80 10000 2.1 80 20:55 20.11.2019
3851 Clouds 2 1015 80 10000 2.1 80 20:55 20.11.2019
3852 Clouds 2 1015 80 10000 2.1 80 20:37 20.11.2019
3853 Clouds 2 1015 80 10000 2.1 80 20:37 20.11.2019
3854 Clouds 2 1015 75 10000 2.1 80 20:19 20.11.2019
3855 Clouds 2 1015 75 10000 2.1 80 19:55 20.11.2019
3856 Clouds 2 1015 75 10000 2.1 90 19:36 20.11.2019
3857 Clouds 2 1015 75 10000 2.1 100 19:18 20.11.2019
3858 Clouds 3 1015 75 10000 2.1 100 18:57 20.11.2019
3859 Clouds 3 1015 75 10000 2.1 80 18:38 20.11.2019
3860 Clouds 3 1015 75 10000 1.5 90 18:20 20.11.2019
3861 Clouds 3 1015 75 10000 1.5 90 17:55 20.11.2019
3862 Clouds 3 1015 75 10000 1.5 90 17:37 20.11.2019
3863 Clouds 4 1015 80 10000 2.6 90 17:19 20.11.2019
3864 Clouds 4 1015 73 10000 2.1 80 16:43 20.11.2019
3865 Clouds 5 1016 75 10000 1.5 110 16:20 20.11.2019
3866 Clouds 5 1016 75 10000 1.5 110 15:58 20.11.2019
3867 Clouds 5 1016 75 10000 2.6 120 15:40 20.11.2019
3868 Clouds 5 1016 73 10000 3.1 100 15:20 20.11.2019
3869 Clouds 5 1016 70 10000 4.1 120 14:58 20.11.2019
3870 Clouds 5 1016 70 10000 4.1 120 14:39 20.11.2019
3871 Clouds 5 1017 80 10000 3.1 110 14:21 20.11.2019
3872 Clouds 5 1017 80 10000 2.1 120 13:57 20.11.2019
3873 Clouds 5 1017 80 10000 2.1 120 13:38 20.11.2019
3874 Clouds 5 1017 81 10000 2.1 120 13:19 20.11.2019
3875 Clouds 5 1017 80 10000 1.5 70 12:43 20.11.2019
3876 Clouds 5 1017 80 10000 1.5 70 12:43 20.11.2019
3877 Clouds 5 1017 80 10000 2.1 120 12:25 20.11.2019
3878 Clouds 4 1018 93 7000 2.1 100 11:59 20.11.2019
3879 Clouds 4 1018 93 7000 2.1 100 11:40 20.11.2019
3880 Clouds 4 1018 86 6000 2.6 80 11:21 20.11.2019
3881 Mist 3 1018 93 5000 2.6 70 10:55 20.11.2019
3882 Mist 3 1018 93 5000 2.6 70 10:37 20.11.2019
3883 Mist 3 1018 93 5000 2.6 70 10:37 20.11.2019
3884 Mist 2 1019 93 5000 1.5 80 10:19 20.11.2019
3885 Mist 2 1019 93 5000 2.1 70 09:43 20.11.2019
3886 Mist 1 1019 100 5000 2.6 70 09:22 20.11.2019
3887 Mist 1 1019 80 4000 2.1 80 08:58 20.11.2019
3888 Mist 1 1019 80 4000 2.1 80 08:39 20.11.2019
3889 Fog 1 1019 90 2500 1.5 100 08:20 20.11.2019
3890 Fog 1 1019 100 2000 0.5 0 07:47 20.11.2019
3891 Mist 1 1019 90 4000 1.5 160 07:26 20.11.2019
3892 Mist 1 1019 100 5000 1 0 06:49 20.11.2019
3893 Clouds 1 1019 100 10000 2.1 60 06:22 20.11.2019
3894 Clouds 1 1019 93 10000 1.5 150 05:42 20.11.2019
3895 Clouds 1 1019 100 10000 0.5 0 03:45 20.11.2019
3896 Clouds 1 1019 88 9000 0.5 0 02:22 20.11.2019
3897 Clouds 1 1020 100 6000 0.5 0 01:33 20.11.2019
3898 Mist 1 1020 100 4000 1 60 00:42 20.11.2019
3899 Clouds 2 1019 86 10000 1 0 23:59 19.11.2019
3900 Clouds 2 1019 86 10000 1 0 23:36 19.11.2019
3901 Clouds 2 1019 93 10000 1 0 23:18 19.11.2019
3902 Clouds 3 1019 100 10000 1 0 22:42 19.11.2019
3903 Clouds 3 1019 100 10000 1.5 80 22:19 19.11.2019
3904 Clouds 3 1019 100 10000 1.5 0 21:58 19.11.2019
3905 Clouds 3 1019 100 10000 1.5 0 21:38 19.11.2019
3906 Clouds 3 1019 93 10000 1 0 21:20 19.11.2019
3907 Clouds 3 1019 100 10000 1.5 70 20:58 19.11.2019
3908 Clouds 3 1019 100 10000 1.5 70 20:39 19.11.2019
3909 Clouds 3 1019 100 10000 1 0 20:21 19.11.2019
3910 Clouds 3 1019 100 10000 1 0 19:59 19.11.2019
3911 Clouds 3 1019 93 10000 1 0 19:41 19.11.2019
3912 Clouds 4 1019 100 10000 1.5 60 19:20 19.11.2019
3913 Clouds 4 1019 100 10000 1.5 60 18:57 19.11.2019
3914 Clouds 4 1018 100 10000 1.5 90 18:39 19.11.2019
3915 Rain 4 1018 93 10000 1 0 18:18 19.11.2019
3916 Rain 4 1018 93 10000 0.5 0 17:56 19.11.2019
3917 Rain 4 1018 93 10000 0.5 0 17:37 19.11.2019
3918 Clouds 5 1018 86 10000 2.6 270 17:19 19.11.2019
3919 Rain 5 1018 93 10000 1.5 80 16:57 19.11.2019
3920 Rain 5 1018 93 10000 1.5 80 16:38 19.11.2019
3921 Rain 6 1018 93 10000 1 0 16:19 19.11.2019
3922 Rain 6 1017 100 10000 1.5 110 15:45 19.11.2019
3923 Rain 6 1017 100 10000 1.5 110 15:26 19.11.2019
3924 Rain 6 1017 93 10000 2.1 110 14:57 19.11.2019
3925 Rain 6 1017 100 10000 1.5 130 14:39 19.11.2019
3926 Rain 6 1017 100 10000 2.1 50 14:20 19.11.2019
3927 Rain 6 1017 93 8000 2.1 170 13:42 19.11.2019
3928 Rain 5 1017 93 8000 2.1 180 13:21 19.11.2019
3929 Rain 5 1017 86 9000 2.6 270 12:56 19.11.2019
3930 Rain 5 1017 86 9000 2.6 270 12:38 19.11.2019
3931 Rain 5 1017 93 6000 4.1 260 12:19 19.11.2019
3932 Rain 5 1017 93 10000 3.1 180 11:55 19.11.2019
3933 Rain 5 1017 93 10000 3.1 180 11:36 19.11.2019
3934 Rain 4 1017 93 10000 3.1 190 11:18 19.11.2019
3935 Clouds 4 1017 93 10000 2.1 160 10:44 19.11.2019
3936 Clouds 4 1016 93 10000 2.6 170 10:20 19.11.2019
3937 Clouds 4 1016 93 10000 2.6 150 09:43 19.11.2019
3938 Clouds 4 1016 93 10000 3.1 170 09:21 19.11.2019
3939 Clouds 3 1015 93 10000 2.1 180 08:58 19.11.2019
3940 Clouds 3 1015 93 10000 2.1 180 08:39 19.11.2019
3941 Clouds 3 1015 93 10000 1 0 08:21 19.11.2019
3942 Clouds 3 1015 93 10000 0.5 0 07:55 19.11.2019
3943 Clouds 3 1015 93 10000 0.5 0 07:36 19.11.2019
3944 Clouds 3 1015 93 10000 2.1 240 07:18 19.11.2019
3945 Clouds 3 1015 93 10000 1.5 230 06:42 19.11.2019
3946 Clouds 3 1014 93 10000 1.5 230 06:18 19.11.2019
3947 Clouds 3 1014 93 10000 1.5 230 06:18 19.11.2019
3948 Clouds 4 1014 93 10000 3.6 250 05:19 19.11.2019
3949 Clouds 4 1013 87 10000 4.6 260 03:40 19.11.2019
3950 Clouds 4 1013 93 10000 3.6 250 03:19 19.11.2019
3951 Clouds 5 1012 93 10000 4.1 260 02:47 19.11.2019
3952 Clouds 5 1012 93 10000 5.1 270 01:49 19.11.2019
3953 Rain 5 1011 93 10000 4.1 260 00:49 19.11.2019
3954 Rain 5 1010 100 10000 3.6 230 00:20 19.11.2019
3955 Rain 5 1010 100 10000 3.6 230 00:20 19.11.2019
3956 Rain 5 1010 93 10000 5.1 220 23:40 18.11.2019
3957 Rain 5 1010 93 10000 5.1 210 23:20 18.11.2019
3958 Rain 5 1009 100 10000 5.1 220 22:47 18.11.2019
3959 Rain 5 1009 93 10000 5.7 220 22:24 18.11.2019
3960 Rain 5 1009 93 10000 5.7 220 21:59 18.11.2019
3961 Rain 5 1009 100 10000 2.1 210 21:40 18.11.2019
3962 Rain 5 1008 93 10000 5.1 190 21:22 18.11.2019
3963 Rain 5 1008 93 10000 4.1 180 20:59 18.11.2019
3964 Rain 5 1008 93 10000 4.1 180 20:41 18.11.2019
3965 Rain 4 1008 93 10000 3.6 190 20:19 18.11.2019
3966 Rain 5 1008 93 10000 4.6 200 19:58 18.11.2019
3967 Rain 4 1008 93 10000 4.6 200 19:38 18.11.2019
3968 Rain 5 1008 93 10000 4.1 170 19:20 18.11.2019
3969 Rain 5 1008 93 10000 3.6 180 18:56 18.11.2019
3970 Rain 5 1008 93 10000 3.6 180 18:38 18.11.2019
3971 Rain 5 1008 93 10000 4.6 190 18:19 18.11.2019
3972 Rain 5 1008 93 10000 4.1 190 17:59 18.11.2019
3973 Rain 5 1008 93 10000 4.1 190 17:37 18.11.2019
3974 Drizzle 5 1007 100 2500 3.6 250 17:19 18.11.2019
3975 Rain 5 1007 100 10000 2.6 200 16:43 18.11.2019
3976 Rain 5 1007 100 10000 2.6 200 16:24 18.11.2019
3977 Drizzle 5 1007 93 7000 2.6 210 15:59 18.11.2019
3978 Drizzle 5 1007 93 7000 2.6 210 15:40 18.11.2019
3979 Drizzle 5 1007 93 7000 2.1 200 15:22 18.11.2019
3980 Drizzle 5 1007 93 7000 2.1 200 14:58 18.11.2019
3981 Drizzle 5 1007 93 7000 1.5 210 14:40 18.11.2019
3982 Drizzle 5 1007 93 7000 2.6 210 14:22 18.11.2019
3983 Drizzle 5 1007 93 5000 2.1 190 13:44 18.11.2019
3984 Drizzle 5 1007 93 5000 2.1 190 13:26 18.11.2019
3985 Drizzle 5 1007 93 3200 2.1 190 12:57 18.11.2019
3986 Drizzle 5 1007 93 3200 2.1 190 12:37 18.11.2019
3987 Drizzle 5 1007 93 2800 2.1 230 12:18 18.11.2019
3988 Drizzle 5 1007 93 2800 2.1 230 11:42 18.11.2019
3989 Drizzle 5 1007 93 2700 1.5 240 11:24 18.11.2019
3990 Drizzle 4 1007 100 2200 1.5 210 10:45 18.11.2019
3991 Drizzle 4 1006 100 2200 1.5 260 10:26 18.11.2019
3992 Drizzle 4 1006 100 2200 1.5 260 09:59 18.11.2019
3993 Drizzle 4 1006 100 2000 1.5 300 09:39 18.11.2019
3994 Drizzle 4 1006 100 2000 2.1 320 09:21 18.11.2019
3995 Drizzle 4 1006 100 2200 2.1 310 08:58 18.11.2019
3996 Drizzle 4 1006 100 2200 2.1 310 08:40 18.11.2019
3997 Drizzle 4 1006 100 2200 1 0 08:19 18.11.2019
3998 Drizzle 4 1006 100 3000 2.1 320 07:47 18.11.2019
3999 Drizzle 4 1006 100 3000 1.5 310 07:27 18.11.2019
4000 Drizzle 4 1005 93 3200 2.1 330 06:49 18.11.2019
4001 Drizzle 4 1005 93 3200 2.1 330 06:29 18.11.2019
4002 Drizzle 4 1005 93 6000 3.1 330 05:46 18.11.2019
4003 Drizzle 4 1005 100 9000 3.6 320 04:35 18.11.2019
4004 Drizzle 3 1005 100 5000 3.6 320 01:49 18.11.2019
4005 Drizzle 4 1005 100 5000 3.6 320 01:31 18.11.2019
4006 Drizzle 4 1005 100 4500 3.1 320 00:22 18.11.2019
4007 Rain 4 1005 100 6000 2.6 320 23:43 17.11.2019
4008 Rain 4 1005 100 4000 3.1 340 23:24 17.11.2019
4009 Rain 4 1005 93 3500 3.6 350 22:58 17.11.2019
4010 Rain 4 1005 93 3500 3.6 350 22:40 17.11.2019
4011 Rain 4 1005 93 4500 4.1 340 22:22 17.11.2019
4012 Rain 4 1006 93 4500 4.6 340 21:58 17.11.2019
4013 Rain 4 1006 93 4500 4.6 340 21:40 17.11.2019
4014 Rain 4 1006 93 3500 4.6 330 21:19 17.11.2019
4015 Rain 4 1006 93 4000 3.6 330 20:56 17.11.2019
4016 Rain 4 1006 93 4000 3.6 330 20:38 17.11.2019
4017 Rain 4 1006 93 4000 3.6 330 20:38 17.11.2019
4018 Rain 4 1006 93 4000 4.1 320 20:19 17.11.2019
4019 Rain 4 1006 93 4000 4.1 320 20:19 17.11.2019
4020 Rain 4 1006 93 4000 4.1 320 19:56 17.11.2019
4021 Rain 4 1006 93 5000 4.6 330 19:37 17.11.2019
4022 Rain 4 1008 93 2500 4.1 340 19:19 17.11.2019
4023 Rain 4 1007 93 8000 3.6 310 18:55 17.11.2019
4024 Rain 4 1007 93 8000 3.6 310 18:37 17.11.2019
4025 Rain 4 1007 93 9000 4.1 330 18:18 17.11.2019
4026 Rain 4 1007 93 9000 3.6 320 17:57 17.11.2019
4027 Rain 4 1007 93 9000 3.6 320 17:57 17.11.2019
4028 Rain 4 1007 93 9000 3.6 320 17:39 17.11.2019
4029 Rain 4 1007 93 9000 1.5 340 17:20 17.11.2019
4030 Rain 4 1007 93 10000 1 0 16:57 17.11.2019
4031 Rain 4 1007 93 10000 1 0 16:39 17.11.2019
4032 Clouds 4 1008 93 10000 1 0 16:21 17.11.2019
4033 Clouds 5 1008 93 10000 1.5 350 15:55 17.11.2019
4034 Clouds 5 1008 93 8000 2.1 320 15:36 17.11.2019
4035 Clouds 5 1008 93 10000 1.5 350 15:36 17.11.2019
4036 Clouds 5 1008 93 8000 2.1 320 15:18 17.11.2019
4037 Clouds 5 1009 93 7000 1.5 330 14:55 17.11.2019
4038 Clouds 4 1009 93 7000 1.5 330 14:37 17.11.2019
4039 Clouds 4 1009 93 7000 2.1 280 14:18 17.11.2019
4040 Clouds 4 1009 93 8000 2.6 330 13:55 17.11.2019
4041 Clouds 4 1009 93 8000 2.6 330 13:37 17.11.2019
4042 Clouds 4 1010 93 10000 2.1 320 13:18 17.11.2019
4043 Clouds 4 1010 93 9000 2.6 320 12:41 17.11.2019
4044 Clouds 3 1011 93 6000 1.5 290 12:22 17.11.2019
4045 Fog 3 1011 93 800 0.5 0 11:56 17.11.2019
4046 Fog 2 1011 93 800 0.5 0 11:38 17.11.2019
4047 Fog 2 1011 93 600 0.5 0 11:19 17.11.2019
4048 Fog 1 1012 100 350 0.5 0 10:44 17.11.2019
4049 Fog 1 1012 71 500 1.5 150 10:23 17.11.2019
4050 Clouds 1 1012 71 9000 1 0 09:57 17.11.2019
4051 Clouds 1 1012 71 9000 1 0 09:39 17.11.2019
4052 Clouds 1 1012 71 9000 1 0 09:20 17.11.2019
4053 Clouds 0 1012 92 7000 0.5 160 08:40 17.11.2019
4054 Clouds 0 1012 100 6000 1 0 08:20 17.11.2019
4055 Clouds 0 1012 83 9000 1 0 07:48 17.11.2019
4056 Clouds 0 1012 83 9000 1.5 110 07:24 17.11.2019
4057 Clouds 0 1012 100 6000 1.5 150 06:57 17.11.2019
4058 Clouds 0 1012 100 6000 1.5 150 06:33 17.11.2019
4059 Clouds 0 1012 100 6000 1.5 140 05:54 17.11.2019
4060 Clear 0 1012 85 6000 1 0 04:24 17.11.2019
4061 Clear 0 1012 93 6000 1.5 90 03:49 17.11.2019
4062 Clear 1 1012 93 6000 1.5 90 03:29 17.11.2019
4063 Clear 1 1012 93 10000 1.5 100 02:28 17.11.2019
4064 Clear 2 1012 86 10000 3.6 120 01:41 17.11.2019
4065 Clear 2 1013 86 10000 3.1 110 00:54 17.11.2019
4066 Clear 2 1012 86 10000 2.1 100 00:22 17.11.2019
4067 Clear 2 1012 86 10000 3.6 120 23:48 16.11.2019
4068 Clear 2 1011 86 10000 3.6 110 23:20 16.11.2019
4069 Clear 2 1011 86 10000 3.6 110 22:59 16.11.2019
4070 Clear 2 1012 86 10000 3.6 120 22:41 16.11.2019
4071 Clear 2 1012 86 10000 2.1 100 22:19 16.11.2019
4072 Clear 2 1012 80 10000 2.6 110 21:56 16.11.2019
4073 Clear 3 1012 80 10000 2.6 110 21:38 16.11.2019
4074 Clear 3 1012 80 10000 2.1 110 21:19 16.11.2019
4075 Clear 3 1012 80 10000 1.5 110 20:55 16.11.2019
4076 Clear 3 1012 80 10000 1.5 110 20:37 16.11.2019
4077 Clouds 3 1011 75 10000 4.1 130 20:18 16.11.2019
4078 Clouds 4 1011 75 10000 3.1 130 19:40 16.11.2019
4079 Clouds 4 1011 80 10000 4.6 140 19:22 16.11.2019
4080 Clouds 4 1011 80 10000 2.6 120 18:48 16.11.2019
4081 Clouds 4 1011 80 10000 2.6 120 18:30 16.11.2019
4082 Clouds 5 1010 80 10000 2.1 120 17:58 16.11.2019
4083 Clouds 5 1010 80 10000 2.1 120 17:39 16.11.2019
4084 Clear 6 1010 75 10000 2.6 140 17:21 16.11.2019
4085 Clouds 7 1009 70 10000 2.6 130 16:59 16.11.2019
4086 Clouds 7 1009 70 10000 2.6 130 16:59 16.11.2019
4087 Clouds 7 1009 70 10000 2.6 130 16:41 16.11.2019
4088 Clouds 7 1009 65 10000 2.6 140 16:22 16.11.2019
4089 Clear 8 1009 65 10000 3.6 140 15:54 16.11.2019
4090 Clear 8 1009 65 10000 3.6 140 15:36 16.11.2019
4091 Clear 8 1009 65 10000 2.1 140 15:18 16.11.2019
4092 Clouds 8 1009 65 10000 2.6 180 14:40 16.11.2019
4093 Clouds 8 1009 65 10000 3.1 170 14:21 16.11.2019
4094 Clouds 8 1009 65 10000 3.6 160 13:56 16.11.2019
4095 Clouds 7 1009 65 10000 3.6 160 13:38 16.11.2019
4096 Clouds 7 1009 70 10000 3.6 150 13:19 16.11.2019
4097 Clouds 7 1009 75 10000 3.1 160 12:58 16.11.2019
4098 Clouds 7 1009 75 10000 3.1 160 12:40 16.11.2019
4099 Clouds 7 1009 80 10000 2.6 170 12:20 16.11.2019
4100 Clouds 6 1008 65 10000 1.5 160 11:45 16.11.2019
4101 Clouds 5 1009 75 10000 3.1 160 11:26 16.11.2019
4102 Clouds 5 1008 80 10000 2.1 150 10:57 16.11.2019
4103 Clouds 5 1008 80 10000 2.1 150 10:39 16.11.2019
4104 Clouds 4 1008 80 10000 3.1 140 10:21 16.11.2019
4105 Clouds 3 1008 86 10000 2.6 140 09:44 16.11.2019
4106 Clouds 2 1008 93 10000 1.5 70 09:21 16.11.2019
4107 Clouds 2 1007 71 10000 0.5 0 08:59 16.11.2019
4108 Clouds 2 1007 71 10000 0.5 0 08:39 16.11.2019
4109 Clouds 1 1007 100 10000 1 0 08:19 16.11.2019
4110 Clouds 1 1007 80 10000 1.5 140 07:43 16.11.2019
4111 Clouds 1 1006 80 10000 1 0 07:21 16.11.2019
4112 Clouds 1 1006 100 10000 1.5 70 06:54 16.11.2019
4113 Clouds 2 1006 100 10000 1.5 70 06:33 16.11.2019
4114 Clouds 2 1005 93 10000 0.5 0 05:40 16.11.2019
4115 Clouds 3 1005 93 10000 1.5 60 03:50 16.11.2019
4116 Clouds 3 1005 93 10000 0.5 0 03:25 16.11.2019
4117 Clouds 3 1005 93 10000 0.5 0 03:25 16.11.2019
4118 Clouds 3 1005 93 10000 0.5 120 01:55 16.11.2019
4119 Clouds 4 1005 86 10000 1.5 140 01:27 16.11.2019
4120 Clouds 4 1005 86 10000 2.1 140 00:46 16.11.2019
4121 Clouds 4 1005 86 10000 2.1 130 00:27 16.11.2019
4122 Clouds 4 1005 86 10000 2.6 150 23:43 15.11.2019
4123 Clouds 4 1005 80 10000 2.1 120 23:21 15.11.2019
4124 Clouds 4 1005 80 10000 2.1 120 22:58 15.11.2019
4125 Clouds 4 1005 80 10000 2.1 130 22:39 15.11.2019
4126 Clouds 4 1004 86 10000 1.5 100 22:19 15.11.2019
4127 Clouds 4 1004 80 10000 2.1 100 21:55 15.11.2019
4128 Clouds 4 1004 80 10000 2.1 100 21:36 15.11.2019
4129 Clouds 4 1004 75 10000 2.1 100 21:18 15.11.2019
4130 Clouds 4 1003 80 10000 2.1 100 20:55 15.11.2019
4131 Clouds 4 1003 80 10000 2.1 100 20:37 15.11.2019
4132 Clouds 5 1003 75 10000 2.1 150 20:19 15.11.2019
4133 Clouds 5 1003 80 10000 3.1 140 19:56 15.11.2019
4134 Clouds 5 1003 80 10000 3.1 140 19:37 15.11.2019
4135 Clouds 5 1003 80 10000 3.1 140 19:19 15.11.2019
4136 Clouds 5 1003 75 10000 2.6 110 18:42 15.11.2019
4137 Clouds 5 1002 80 10000 2.1 110 18:24 15.11.2019
4138 Clouds 6 1002 75 10000 3.1 170 17:58 15.11.2019
4139 Clouds 6 1002 75 10000 3.1 170 17:39 15.11.2019
4140 Clouds 6 1002 75 10000 3.1 160 17:21 15.11.2019
4141 Clouds 6 1001 70 10000 3.6 160 16:55 15.11.2019
4142 Clouds 6 1001 70 10000 3.6 160 16:37 15.11.2019
4143 Clouds 6 1001 70 10000 4.6 160 16:18 15.11.2019
4144 Clouds 6 1001 70 10000 3.1 140 15:38 15.11.2019
4145 Clouds 6 1000 70 10000 3.6 140 15:19 15.11.2019
4146 Clouds 6 1000 70 10000 4.6 130 14:56 15.11.2019
4147 Clouds 6 1000 70 10000 4.6 130 14:38 15.11.2019
4148 Clouds 6 1000 70 10000 4.1 140 14:19 15.11.2019
4149 Clouds 6 1000 70 10000 4.1 140 14:19 15.11.2019
4150 Clouds 6 1000 75 10000 2.1 140 13:57 15.11.2019
4151 Clouds 6 1000 75 10000 2.1 140 13:39 15.11.2019
4152 Clouds 6 1000 75 10000 1.5 100 13:20 15.11.2019
4153 Clouds 5 1000 75 10000 1.5 120 12:57 15.11.2019
4154 Clouds 5 1000 75 10000 1.5 120 12:39 15.11.2019
4155 Clouds 5 999 75 10000 1.5 130 12:19 15.11.2019
4156 Clouds 5 999 80 10000 1 0 11:56 15.11.2019
4157 Clouds 5 999 80 10000 1 0 11:37 15.11.2019
4158 Clouds 4 999 80 10000 0.5 0 11:19 15.11.2019
4159 Clouds 4 999 80 10000 0.5 0 10:41 15.11.2019
4160 Clouds 3 998 86 10000 0.5 0 10:22 15.11.2019
4161 Clouds 3 998 69 10000 2.1 40 09:58 15.11.2019
4162 Clouds 3 998 69 10000 2.1 40 09:40 15.11.2019
4163 Clouds 2 998 69 10000 1.5 30 09:19 15.11.2019
4164 Clouds 2 998 68 10000 1.5 10 08:44 15.11.2019
4165 Clouds 2 998 75 10000 0.5 0 08:23 15.11.2019
4166 Clouds 2 997 75 10000 1.5 30 07:49 15.11.2019
4167 Clouds 2 998 75 10000 0.5 0 07:28 15.11.2019
4168 Clouds 2 998 75 10000 1 0 06:50 15.11.2019
4169 Clouds 2 998 75 10000 1 0 06:31 15.11.2019
4170 Clouds 2 998 75 10000 2.1 60 05:42 15.11.2019
4171 Clouds 2 999 72 10000 1.5 40 05:23 15.11.2019
4172 Clouds 2 1000 72 10000 2.1 80 03:53 15.11.2019
4173 Clouds 2 1000 72 10000 2.1 130 03:23 15.11.2019
4174 Clouds 2 1001 70 10000 1 40 02:20 15.11.2019
4175 Clouds 2 1001 70 10000 1 0 01:33 15.11.2019
4176 Clouds 2 1002 70 10000 0.5 0 00:54 15.11.2019
4177 Clouds 2 1002 70 10000 0.5 0 00:33 15.11.2019
4178 Clouds 3 1002 70 10000 0.5 0 23:57 14.11.2019
4179 Clouds 3 1002 70 10000 0.5 0 23:38 14.11.2019
4180 Clouds 3 1002 72 10000 0.5 0 23:18 14.11.2019
4181 Clouds 3 1002 72 10000 0.5 0 22:40 14.11.2019
4182 Clouds 4 1002 72 10000 1.5 40 22:21 14.11.2019
4183 Clouds 4 1002 86 10000 1 0 21:57 14.11.2019
4184 Clouds 4 1002 86 10000 1 0 21:38 14.11.2019
4185 Clouds 4 1003 80 10000 1 0 21:20 14.11.2019
4186 Clouds 5 1003 75 10000 1.5 80 20:42 14.11.2019
4187 Clouds 5 1003 70 10000 2.1 130 20:24 14.11.2019
4188 Clouds 5 1003 70 10000 2.1 130 19:59 14.11.2019
4189 Clouds 5 1003 70 10000 1.5 70 19:41 14.11.2019
4190 Clouds 5 1003 70 10000 2.1 100 19:19 14.11.2019
4191 Clouds 6 1002 70 10000 2.1 70 18:59 14.11.2019
4192 Clouds 6 1002 70 10000 2.1 70 18:41 14.11.2019
4193 Clouds 6 1002 65 10000 2.1 90 18:21 14.11.2019
4194 Clouds 6 1002 65 10000 2.1 90 17:57 14.11.2019
4195 Clouds 7 1002 65 10000 2.1 90 17:37 14.11.2019
4196 Clouds 7 1002 58 10000 3.1 110 17:19 14.11.2019
4197 Clouds 7 1002 61 10000 3.6 110 16:57 14.11.2019
4198 Clouds 7 1002 61 10000 3.6 110 16:37 14.11.2019
4199 Clouds 8 1002 61 10000 3.1 120 16:19 14.11.2019
4200 Clouds 8 1001 57 10000 3.6 130 15:57 14.11.2019
4201 Clouds 8 1001 57 10000 3.6 130 15:38 14.11.2019
4202 Clouds 8 1001 58 10000 5.7 160 15:19 14.11.2019
4203 Clouds 8 1002 61 10000 4.1 140 14:45 14.11.2019
4204 Clouds 8 1002 61 10000 3.6 130 14:23 14.11.2019
4205 Clouds 8 1002 65 10000 4.1 130 13:57 14.11.2019
4206 Clouds 8 1002 65 10000 4.1 130 13:39 14.11.2019
4207 Clouds 8 1002 65 10000 6.7 140 13:20 14.11.2019
4208 Clouds 8 1002 70 10000 5.7 130 12:56 14.11.2019
4209 Clouds 8 1002 70 10000 5.7 130 12:37 14.11.2019
4210 Clouds 7 1002 70 10000 5.7 130 12:19 14.11.2019
4211 Clouds 7 1002 70 10000 5.7 130 11:54 14.11.2019
4212 Clouds 7 1002 70 10000 5.7 130 11:36 14.11.2019
4213 Clouds 6 1002 70 10000 5.7 120 11:18 14.11.2019
4214 Clouds 6 1002 75 10000 4.6 130 10:41 14.11.2019
4215 Clouds 6 1002 75 10000 4.6 130 10:41 14.11.2019
4216 Clouds 6 1002 75 10000 4.1 110 10:21 14.11.2019
4217 Clouds 6 1002 75 10000 4.6 120 09:59 14.11.2019
4218 Clouds 5 1002 75 10000 4.6 120 09:41 14.11.2019
4219 Clouds 5 1001 80 10000 4.6 110 09:22 14.11.2019
4220 Clouds 5 1002 75 10000 5.1 120 08:48 14.11.2019
4221 Clouds 5 1002 80 10000 3.6 110 08:26 14.11.2019
4222 Clouds 5 1002 80 10000 3.6 110 07:59 14.11.2019
4223 Clouds 5 1001 75 10000 4.6 120 07:38 14.11.2019
4224 Clouds 5 1001 80 10000 4.1 130 07:20 14.11.2019
4225 Clouds 4 1001 80 10000 5.1 130 06:45 14.11.2019
4226 Clouds 4 1001 80 10000 3.6 120 06:19 14.11.2019
4227 Clouds 4 1000 86 10000 4.1 120 05:20 14.11.2019
4228 Clouds 5 1001 86 10000 4.6 120 04:35 14.11.2019
4229 Clouds 5 1001 86 10000 4.6 140 02:50 14.11.2019
4230 Clouds 5 1001 86 10000 4.6 140 02:29 14.11.2019
4231 Clouds 5 1001 81 10000 4.1 140 01:40 14.11.2019
4232 Clouds 5 1002 81 10000 3.6 130 00:55 14.11.2019
4233 Clouds 5 1002 81 10000 3.6 130 00:36 14.11.2019
4234 Clouds 5 1002 86 10000 3.1 130 00:18 14.11.2019
4235 Clouds 5 1002 86 10000 2.1 130 23:38 13.11.2019
4236 Clouds 5 1002 86 10000 2.1 130 23:38 13.11.2019
4237 Clouds 6 1002 81 10000 3.6 120 23:19 13.11.2019
4238 Clouds 6 1002 81 10000 3.1 130 22:55 13.11.2019
4239 Clouds 5 1002 81 10000 3.1 130 22:37 13.11.2019
4240 Clouds 5 1002 81 10000 3.1 130 22:37 13.11.2019
4241 Clouds 5 1002 86 10000 3.1 130 22:18 13.11.2019
4242 Clouds 5 1002 86 10000 2.6 130 21:54 13.11.2019
4243 Clouds 5 1002 86 10000 2.6 130 21:36 13.11.2019
4244 Clouds 5 1003 86 10000 2.6 140 21:18 13.11.2019
4245 Clouds 5 1003 86 10000 3.6 150 20:54 13.11.2019
4246 Clouds 5 1003 86 10000 3.6 150 20:36 13.11.2019
4247 Clouds 6 1003 81 10000 4.1 180 20:18 13.11.2019
4248 Clouds 6 1003 81 10000 4.6 180 19:41 13.11.2019
4249 Clouds 6 1003 81 10000 4.1 170 19:19 13.11.2019
4250 Clouds 6 1003 81 10000 4.6 170 18:56 13.11.2019
4251 Clouds 6 1003 81 10000 4.6 170 18:37 13.11.2019
4252 Clouds 6 1002 81 10000 4.1 160 18:19 13.11.2019
4253 Clouds 6 1002 75 10000 3.1 180 17:57 13.11.2019
4254 Clouds 6 1002 75 10000 3.1 180 17:38 13.11.2019
4255 Clouds 6 1002 75 10000 3.1 200 17:19 13.11.2019
4256 Clouds 6 1002 75 10000 3.1 200 16:57 13.11.2019
4257 Clouds 7 1002 81 10000 2.6 220 16:39 13.11.2019
4258 Clouds 7 1002 81 10000 4.6 220 16:21 13.11.2019
4259 Clouds 7 1002 75 10000 4.6 220 15:57 13.11.2019
4260 Clouds 7 1002 75 10000 4.6 220 15:38 13.11.2019
4261 Clouds 7 1002 75 10000 6.2 220 15:19 13.11.2019
4262 Rain 7 1002 81 10000 5.1 230 14:42 13.11.2019
4263 Rain 7 1002 81 10000 5.1 220 14:21 13.11.2019
4264 Clouds 7 1002 81 10000 4.1 220 13:57 13.11.2019
4265 Clouds 7 1002 81 10000 4.1 220 13:36 13.11.2019
4266 Clouds 7 1002 81 10000 4.1 220 13:18 13.11.2019
4267 Clouds 7 1002 81 10000 3.6 220 12:43 13.11.2019
4268 Clouds 7 1002 81 10000 5.1 220 12:25 13.11.2019
4269 Clouds 7 1002 81 10000 5.1 220 12:25 13.11.2019
4270 Clouds 7 1002 81 10000 5.1 220 11:59 13.11.2019
4271 Clouds 6 1002 75 10000 3.6 220 11:39 13.11.2019
4272 Clouds 6 1002 81 10000 3.6 190 11:19 13.11.2019
4273 Clouds 6 1002 81 10000 3.6 190 11:19 13.11.2019
4274 Clouds 6 1002 81 10000 3.6 190 11:19 13.11.2019
4275 Clouds 6 1002 81 10000 3.6 190 10:58 13.11.2019
4276 Clouds 6 1002 81 10000 4.1 180 10:39 13.11.2019
4277 Clouds 5 1001 80 10000 5.1 170 10:19 13.11.2019
4278 Clouds 5 1001 80 10000 4.6 180 09:45 13.11.2019
4279 Clouds 5 1001 80 10000 4.6 170 09:24 13.11.2019
4280 Clouds 5 1001 80 10000 4.6 170 08:59 13.11.2019
4281 Clouds 4 1001 86 10000 4.6 170 08:37 13.11.2019
4282 Clouds 4 1001 80 10000 4.6 170 08:19 13.11.2019
4283 Clouds 4 1001 86 10000 4.1 160 07:42 13.11.2019
4284 Clouds 4 1001 86 10000 4.1 160 07:42 13.11.2019
4285 Clouds 4 1001 86 10000 4.1 140 07:20 13.11.2019
4286 Clouds 4 1000 86 10000 4.6 140 06:46 13.11.2019
4287 Clouds 3 1000 83 10000 4.1 140 06:19 13.11.2019
4288 Clouds 3 1000 83 10000 4.1 140 06:19 13.11.2019
4289 Clouds 3 1000 83 10000 4.1 140 06:19 13.11.2019
4290 Clouds 3 1000 83 10000 3.6 130 05:53 13.11.2019
4291 Clouds 3 1000 83 10000 3.6 130 05:34 13.11.2019
4292 Clouds 3 1000 80 10000 4.1 140 04:44 13.11.2019
4293 Clear 3 1001 93 10000 3.6 130 02:19 13.11.2019
4294 Clear 3 1001 80 10000 4.6 130 01:45 13.11.2019
4295 Clear 3 1001 80 10000 3.6 110 00:52 13.11.2019
4296 Clear 3 1001 80 10000 3.6 110 00:34 13.11.2019
4297 Clear 2 1001 80 10000 4.1 170 23:42 12.11.2019
4298 Clear 2 1001 79 10000 3.1 150 23:22 12.11.2019
4299 Clear 3 1002 79 10000 4.1 150 22:58 12.11.2019
4300 Clear 3 1002 79 10000 4.1 150 22:40 12.11.2019
4301 Clear 3 1002 79 10000 4.1 150 22:18 12.11.2019
4302 Clear 3 1002 93 10000 3.6 150 21:44 12.11.2019
4303 Clear 3 1001 86 10000 3.6 180 21:25 12.11.2019
4304 Clear 3 1002 79 10000 4.1 150 20:58 12.11.2019
4305 Clear 3 1002 79 10000 4.1 150 20:38 12.11.2019
4306 Rain 3 1002 93 10000 3.6 200 20:19 12.11.2019
4307 Rain 3 1002 93 10000 4.6 170 19:58 12.11.2019
4308 Rain 3 1002 93 10000 4.6 170 19:40 12.11.2019
4309 Rain 3 1003 93 10000 4.1 160 19:20 12.11.2019
4310 Rain 4 1002 86 10000 3.6 170 18:59 12.11.2019
4311 Rain 4 1002 86 10000 3.6 170 18:41 12.11.2019
4312 Clouds 4 1002 86 10000 2.6 120 18:23 12.11.2019
4313 Clouds 4 1002 93 10000 3.6 170 17:58 12.11.2019
4314 Clouds 4 1002 93 10000 3.6 170 17:40 12.11.2019
4315 Clouds 5 1002 93 10000 2.1 170 17:21 12.11.2019
4316 Clouds 5 1002 86 10000 4.1 190 16:59 12.11.2019
4317 Clouds 5 1002 86 10000 4.1 190 16:40 12.11.2019
4318 Rain 6 1002 86 10000 3.6 190 16:22 12.11.2019
4319 Rain 6 1002 86 10000 4.6 210 15:42 12.11.2019
4320 Rain 6 1002 86 10000 7.7 270 15:23 12.11.2019
4321 Rain 6 1001 75 10000 5.7 230 14:58 12.11.2019
4322 Rain 7 1001 75 10000 5.7 230 14:39 12.11.2019
4323 Clouds 6 1001 75 10000 6.2 220 14:19 12.11.2019
4324 Clouds 6 1001 75 10000 6.2 220 13:58 12.11.2019
4325 Rain 6 1001 75 10000 5.1 210 13:39 12.11.2019
4326 Rain 6 1001 75 10000 6.2 190 13:19 12.11.2019
4327 Rain 6 1001 75 10000 6.7 200 12:58 12.11.2019
4328 Rain 6 1001 75 10000 6.7 200 12:39 12.11.2019
4329 Rain 6 1001 75 10000 4.6 180 12:18 12.11.2019
4330 Rain 6 1002 81 10000 5.7 170 11:43 12.11.2019
4331 Clouds 6 1002 75 10000 6.7 170 11:23 12.11.2019
4332 Clouds 6 1002 75 10000 6.7 160 10:58 12.11.2019
4333 Clouds 6 1002 75 10000 6.7 160 10:39 12.11.2019
4334 Clouds 5 1002 75 10000 5.7 170 10:21 12.11.2019
4335 Clouds 5 1003 81 10000 5.1 160 09:59 12.11.2019
4336 Clouds 5 1003 81 10000 5.1 160 09:38 12.11.2019
4337 Clouds 5 1003 81 10000 4.6 170 09:18 12.11.2019
4338 Clouds 5 1003 80 10000 4.6 170 08:48 12.11.2019
4339 Clouds 5 1003 80 10000 5.1 160 08:28 12.11.2019
4340 Clouds 5 1003 86 10000 4.1 150 07:42 12.11.2019
4341 Clouds 5 1003 86 10000 4.1 150 07:24 12.11.2019
4342 Clouds 5 1003 86 10000 4.1 140 06:51 12.11.2019
4343 Clouds 5 1003 80 10000 4.1 140 06:26 12.11.2019
4344 Clouds 4 1003 80 10000 3.6 160 05:52 12.11.2019
4345 Clouds 4 1004 86 10000 4.6 170 04:56 12.11.2019
4346 Clear 4 1004 86 10000 5.1 170 04:20 12.11.2019
4347 Clouds 4 1004 86 10000 5.1 170 02:39 12.11.2019
4348 Clouds 4 1004 86 10000 5.1 170 01:27 12.11.2019
4349 Clouds 5 1004 93 10000 4.1 150 00:56 12.11.2019
4350 Clouds 4 1004 93 10000 4.1 150 00:37 12.11.2019
4351 Clouds 5 1004 93 10000 3.6 150 23:56 11.11.2019
4352 Clouds 5 1004 93 10000 4.1 160 23:38 11.11.2019
4353 Rain 5 1004 93 10000 4.6 170 23:18 11.11.2019
4354 Rain 5 1004 93 10000 4.6 170 22:39 11.11.2019
4355 Clouds 5 1004 93 10000 5.1 160 22:20 11.11.2019
4356 Clouds 5 1004 93 10000 5.1 160 21:58 11.11.2019
4357 Clouds 5 1003 93 10000 5.1 170 21:39 11.11.2019
4358 Clouds 5 1003 93 10000 5.1 180 21:21 11.11.2019
4359 Clouds 5 1003 93 10000 5.1 180 20:59 11.11.2019
4360 Rain 5 1003 93 10000 5.1 170 20:40 11.11.2019
4361 Rain 5 1003 93 10000 5.7 160 20:19 11.11.2019
4362 Rain 5 1003 93 10000 5.1 160 19:56 11.11.2019
4363 Rain 5 1003 93 10000 5.1 160 19:37 11.11.2019
4364 Rain 6 1003 86 10000 5.1 160 19:18 11.11.2019
4365 Rain 6 1003 86 10000 6.7 150 18:41 11.11.2019
4366 Rain 6 1003 86 10000 6.2 150 18:21 11.11.2019
4367 Rain 6 1003 86 10000 6.2 150 17:59 11.11.2019
4368 Rain 6 1003 80 10000 6.7 140 17:40 11.11.2019
4369 Clouds 6 1003 75 10000 6.2 140 17:22 11.11.2019
4370 Clouds 6 1003 75 10000 6.7 150 16:39 11.11.2019
4371 Clouds 6 1003 75 10000 7.2 140 16:20 11.11.2019
4372 Clouds 7 1004 75 10000 6.2 150 15:55 11.11.2019
4373 Clouds 7 1004 75 10000 6.2 150 15:37 11.11.2019
4374 Clouds 7 1004 75 10000 6.2 140 15:19 11.11.2019
4375 Clouds 6 1005 75 10000 5.7 140 14:42 11.11.2019
4376 Clouds 7 1005 70 10000 6.7 160 14:24 11.11.2019
4377 Clouds 6 1006 70 10000 6.2 170 13:57 11.11.2019
4378 Clouds 7 1006 70 10000 6.2 170 13:37 11.11.2019
4379 Clouds 6 1006 75 10000 6.7 170 13:19 11.11.2019
4380 Clouds 6 1007 75 10000 6.7 170 12:56 11.11.2019
4381 Clouds 6 1007 75 10000 6.7 170 12:38 11.11.2019
4382 Clouds 6 1007 75 10000 6.7 170 12:20 11.11.2019
4383 Clouds 6 1007 81 10000 6.2 140 11:42 11.11.2019
4384 Clouds 5 1008 80 10000 6.2 130 11:22 11.11.2019
4385 Clouds 5 1007 86 10000 3.1 120 10:57 11.11.2019
4386 Clouds 5 1007 86 10000 3.1 120 10:38 11.11.2019
4387 Clouds 4 1009 86 10000 5.7 140 10:18 11.11.2019
4388 Clouds 4 1009 86 10000 5.7 140 09:54 11.11.2019
4389 Clouds 4 1009 86 10000 6.7 130 09:36 11.11.2019
4390 Clouds 4 1010 86 10000 5.1 130 09:18 11.11.2019
4391 Clouds 3 1010 86 10000 6.2 140 08:37 11.11.2019
4392 Clouds 3 1010 86 10000 5.7 140 08:19 11.11.2019
4393 Clouds 3 1010 86 10000 5.7 140 07:54 11.11.2019
4394 Clouds 3 1010 93 10000 6.2 140 07:36 11.11.2019
4395 Clouds 3 1011 93 10000 5.1 140 07:18 11.11.2019
4396 Clouds 3 1012 93 10000 3.6 140 06:41 11.11.2019
4397 Clouds 3 1012 93 10000 4.1 130 06:20 11.11.2019
4398 Clouds 3 1012 93 10000 3.6 130 05:49 11.11.2019
4399 Clouds 2 1013 93 10000 3.6 130 03:56 11.11.2019
4400 Clouds 2 1014 93 10000 4.1 150 03:20 11.11.2019
4401 Clouds 2 1015 93 10000 4.1 130 02:19 11.11.2019
4402 Clouds 2 1015 93 10000 3.1 130 01:52 11.11.2019
4403 Clouds 2 1015 93 10000 3.1 130 01:31 11.11.2019
4404 Clouds 2 1015 93 10000 2.6 110 00:42 11.11.2019
4405 Clouds 2 1015 86 10000 3.1 120 23:58 10.11.2019
4406 Clouds 2 1015 93 10000 3.6 130 23:39 10.11.2019
4407 Clouds 2 1015 93 10000 3.1 120 23:19 10.11.2019
4408 Clouds 2 1015 93 10000 3.1 120 22:57 10.11.2019
4409 Clouds 2 1015 93 10000 3.1 130 22:38 10.11.2019
4410 Clouds 2 1015 93 10000 4.1 130 22:20 10.11.2019
4411 Clouds 2 1015 93 10000 3.1 130 21:57 10.11.2019
4412 Clouds 2 1015 93 10000 3.1 130 21:39 10.11.2019
4413 Clouds 2 1015 93 10000 3.1 140 21:21 10.11.2019
4414 Clouds 2 1016 93 10000 2.6 140 20:56 10.11.2019
4415 Clouds 2 1016 93 10000 2.6 140 20:37 10.11.2019
4416 Clouds 3 1015 93 9000 2.6 130 20:19 10.11.2019
4417 Clouds 2 1015 93 8000 4.1 140 19:54 10.11.2019
4418 Clouds 2 1015 93 8000 4.1 140 19:36 10.11.2019
4419 Clouds 2 1015 93 9000 2.1 140 19:18 10.11.2019
4420 Clouds 2 1015 93 9000 2.1 140 19:18 10.11.2019
4421 Fog 3 1015 100 150 3.1 150 18:54 10.11.2019
4422 Clouds 3 1015 93 10000 4.6 140 18:36 10.11.2019
4423 Clear 3 1015 93 10000 3.6 140 18:18 10.11.2019
4424 Clear 4 1015 93 10000 3.1 140 17:54 10.11.2019
4425 Clear 5 1015 93 10000 3.1 140 17:36 10.11.2019
4426 Clear 5 1014 86 10000 3.1 150 17:18 10.11.2019
4427 Clear 5 1014 86 10000 3.1 150 17:18 10.11.2019
4428 Clear 6 1014 81 10000 3.6 150 16:43 10.11.2019
4429 Clear 7 1014 75 10000 3.1 160 16:24 10.11.2019
4430 Clear 7 1014 75 10000 3.1 160 15:56 10.11.2019
4431 Clear 7 1013 75 10000 2.6 160 15:56 10.11.2019
4432 Clear 7 1013 75 10000 2.6 160 15:37 10.11.2019
4433 Clear 7 1013 70 10000 2.6 160 15:18 10.11.2019
4434 Clear 7 1013 75 10000 2.1 160 14:56 10.11.2019
4435 Clear 7 1013 75 10000 2.1 160 14:38 10.11.2019
4436 Clear 7 1013 75 10000 3.1 160 14:20 10.11.2019
4437 Clear 7 1013 75 10000 3.6 160 13:55 10.11.2019
4438 Clear 7 1013 75 10000 3.6 160 13:36 10.11.2019
4439 Clear 6 1013 81 10000 3.1 170 13:18 10.11.2019
4440 Clear 7 1013 75 10000 2.6 170 12:41 10.11.2019
4441 Clear 7 1013 81 10000 2.1 160 12:19 10.11.2019
4442 Clouds 6 1013 80 10000 2.1 150 11:56 10.11.2019
4443 Clouds 6 1013 80 10000 2.1 150 11:37 10.11.2019
4444 Clouds 4 1013 86 10000 3.1 150 11:19 10.11.2019
4445 Clouds 3 1012 86 10000 2.1 140 10:42 10.11.2019
4446 Clear 2 1012 93 10000 2.1 140 10:22 10.11.2019
4447 Clear 2 1012 93 10000 2.1 140 10:22 10.11.2019
4448 Clear 2 1012 93 10000 2.1 140 09:58 10.11.2019
4449 Clear 2 1012 76 10000 2.1 150 09:39 10.11.2019
4450 Clear 1 1012 76 9000 2.1 150 09:19 10.11.2019
4451 Clouds 1 1011 100 8000 1 0 08:39 10.11.2019
4452 Clouds 0 1011 100 7000 2.1 130 08:20 10.11.2019
4453 Clouds 0 1011 100 10000 2.6 150 07:53 10.11.2019
4454 Clouds 0 1011 100 10000 2.6 150 07:34 10.11.2019
4455 Clouds 0 1010 87 10000 1 0 06:59 10.11.2019
4456 Clouds 0 1010 92 10000 1.5 100 06:22 10.11.2019
4457 Clear 0 1009 86 10000 2.6 80 03:55 10.11.2019
4458 Clear 1 1009 86 10000 2.1 100 02:33 10.11.2019
4459 Clouds 1 1008 93 10000 1 0 01:41 10.11.2019
4460 Clear 1 1008 93 10000 1.5 80 01:18 10.11.2019
4461 Clear 2 1008 93 10000 1 0 00:37 10.11.2019
4462 Clear 2 1008 93 10000 2.1 110 23:42 09.11.2019
4463 Clear 2 1008 86 10000 2.1 130 23:20 09.11.2019
4464 Clear 3 1008 86 10000 2.1 130 22:55 09.11.2019
4465 Clear 3 1008 86 10000 2.1 130 22:37 09.11.2019
4466 Clear 3 1008 86 10000 2.6 140 22:18 09.11.2019
4467 Clear 3 1008 86 10000 2.6 140 21:55 09.11.2019
4468 Clear 3 1008 86 10000 2.6 140 21:37 09.11.2019
4469 Clear 3 1008 86 10000 3.1 140 21:19 09.11.2019
4470 Clear 3 1008 86 10000 3.1 140 21:19 09.11.2019
4471 Clear 3 1008 86 10000 3.6 140 20:41 09.11.2019
4472 Clear 3 1008 86 10000 3.6 140 20:41 09.11.2019
4473 Rain 4 1008 86 10000 3.1 140 20:22 09.11.2019
4474 Rain 4 1008 93 10000 3.6 160 19:57 09.11.2019
4475 Rain 4 1008 93 10000 3.6 160 19:38 09.11.2019
4476 Clouds 4 1008 86 10000 4.1 160 19:19 09.11.2019
4477 Rain 4 1008 86 10000 3.6 160 18:40 09.11.2019
4478 Rain 4 1008 80 10000 3.6 160 18:19 09.11.2019
4479 Clouds 5 1008 80 10000 3.6 180 17:58 09.11.2019
4480 Clouds 5 1008 80 10000 3.6 180 17:40 09.11.2019
4481 Clouds 6 1008 81 10000 3.1 140 17:22 09.11.2019
4482 Clouds 7 1008 81 10000 1.5 120 16:43 09.11.2019
4483 Clouds 7 1008 66 10000 1.5 160 16:22 09.11.2019
4484 Clouds 7 1008 75 10000 1 0 15:59 09.11.2019
4485 Clouds 8 1008 75 10000 1 0 15:41 09.11.2019
4486 Rain 7 1008 87 10000 2.6 240 15:23 09.11.2019
4487 Rain 8 1008 87 10000 2.1 230 14:44 09.11.2019
4488 Rain 8 1008 87 10000 2.1 200 14:22 09.11.2019
4489 Rain 8 1008 87 10000 2.1 200 14:22 09.11.2019
4490 Rain 8 1008 87 10000 2.1 200 13:58 09.11.2019
4491 Rain 7 1008 75 10000 3.6 200 13:39 09.11.2019
4492 Clouds 7 1008 81 10000 0.5 0 13:19 09.11.2019
4493 Clouds 7 1008 87 10000 1 0 12:56 09.11.2019
4494 Clouds 7 1008 81 10000 0.5 0 12:56 09.11.2019
4495 Clouds 7 1008 81 10000 0.5 0 12:56 09.11.2019
4496 Clouds 7 1008 87 10000 1 0 12:38 09.11.2019
4497 Clouds 7 1009 87 10000 1.5 250 12:20 09.11.2019
4498 Clouds 7 1009 87 10000 1.5 220 11:48 09.11.2019
4499 Clouds 6 1009 81 10000 1 0 11:21 09.11.2019
4500 Clouds 6 1009 81 10000 1 0 10:57 09.11.2019
4501 Clouds 6 1009 87 10000 2.1 170 10:38 09.11.2019
4502 Clouds 5 1009 93 10000 2.6 160 10:18 09.11.2019
4503 Clouds 5 1009 86 10000 2.6 150 09:44 09.11.2019
4504 Clouds 4 1009 93 10000 2.6 160 09:21 09.11.2019
4505 Rain 4 1009 93 10000 1.5 140 08:56 09.11.2019
4506 Rain 4 1009 93 10000 1.5 140 08:37 09.11.2019
4507 Rain 4 1009 93 10000 2.6 150 08:18 09.11.2019
4508 Rain 4 1008 93 10000 3.6 150 07:42 09.11.2019
4509 Rain 4 1008 100 10000 3.6 140 07:22 09.11.2019
4510 Clouds 4 1009 93 10000 3.6 150 06:47 09.11.2019
4511 Clouds 4 1009 93 10000 4.1 160 06:28 09.11.2019
4512 Clouds 3 1009 93 10000 2.1 150 05:42 09.11.2019
4513 Clouds 3 1009 93 10000 1 0 04:48 09.11.2019
4514 Clouds 3 1009 100 10000 1 0 02:57 09.11.2019
4515 Clouds 3 1009 100 10000 1 0 02:39 09.11.2019
4516 Fog 3 1008 100 10000 0.5 130 01:43 09.11.2019
4517 Clouds 3 1008 100 10000 0.5 0 00:49 09.11.2019
4518 Clouds 3 1008 100 10000 0.5 0 00:29 09.11.2019
4519 Fog 3 1008 93 10000 0.5 0 23:57 08.11.2019
4520 Fog 3 1008 93 10000 0.5 0 23:38 08.11.2019
4521 Fog 3 1008 100 10000 0.5 0 23:19 08.11.2019
4522 Fog 3 1008 100 10000 1 0 22:42 08.11.2019
4523 Fog 3 1008 100 10000 0.67 231 22:21 08.11.2019
4524 Clouds 4 1008 93 10000 1 270 21:56 08.11.2019
4525 Clouds 4 1008 100 10000 0.5 0 21:38 08.11.2019
4526 Clouds 4 1008 93 10000 0.5 0 21:18 08.11.2019
4527 Clouds 5 1007 100 10000 1 60 20:41 08.11.2019
4528 Clouds 5 1007 100 10000 0.5 0 20:22 08.11.2019
4529 Clouds 5 1007 93 10000 0.5 0 19:58 08.11.2019
4530 Clouds 5 1007 93 10000 0.5 0 19:38 08.11.2019
4531 Clouds 5 1007 93 10000 1.5 70 19:18 08.11.2019
4532 Clouds 5 1007 93 10000 1.5 70 19:18 08.11.2019
4533 Clouds 6 1007 93 10000 0.5 30 18:56 08.11.2019
4534 Clouds 6 1007 93 10000 0.5 30 18:56 08.11.2019
4535 Clouds 6 1007 93 10000 0.5 30 18:38 08.11.2019
4536 Clouds 6 1007 93 10000 0.5 30 18:38 08.11.2019
4537 Clouds 6 1006 93 10000 1 70 18:19 08.11.2019
4538 Clouds 7 1006 87 10000 1 50 17:56 08.11.2019
4539 Clouds 7 1006 87 10000 1 50 17:37 08.11.2019
4540 Clouds 7 1006 87 10000 1 50 17:37 08.11.2019
4541 Clouds 7 1006 81 10000 1 0 17:19 08.11.2019
4542 Clouds 8 1006 76 10000 1 150 16:58 08.11.2019
4543 Clouds 8 1006 76 10000 1 150 16:39 08.11.2019
4544 Clouds 9 1006 76 10000 0.5 0 16:20 08.11.2019
4545 Clouds 9 1006 76 10000 0.5 0 15:59 08.11.2019
4546 Clouds 9 1006 71 10000 1.5 70 15:40 08.11.2019
4547 Clouds 9 1006 66 10000 0.5 0 15:22 08.11.2019
4548 Clouds 10 1006 66 10000 0.5 0 14:56 08.11.2019
4549 Clouds 9 1005 66 10000 0.5 0 14:37 08.11.2019
4550 Clouds 9 1006 71 10000 0.5 0 14:18 08.11.2019
4551 Clouds 10 1006 71 10000 0.5 0 13:57 08.11.2019
4552 Clouds 9 1005 66 10000 0.5 0 13:38 08.11.2019
4553 Clouds 9 1005 66 10000 2.1 120 13:19 08.11.2019
4554 Clouds 9 1006 71 10000 1 0 12:44 08.11.2019
4555 Clouds 8 1006 75 10000 1 0 12:26 08.11.2019
4556 Clouds 8 1006 81 10000 2.1 160 11:57 08.11.2019
4557 Clouds 8 1006 81 10000 2.1 160 11:39 08.11.2019
4558 Clouds 7 1006 81 10000 1 0 11:20 08.11.2019
4559 Clouds 7 1006 81 10000 1 0 11:20 08.11.2019
4560 Clouds 6 1006 87 10000 2.1 130 10:57 08.11.2019
4561 Clouds 6 1006 87 10000 2.1 130 10:39 08.11.2019
4562 Clouds 5 1006 86 10000 2.1 110 10:21 08.11.2019
4563 Clouds 4 1006 86 10000 2.6 120 09:55 08.11.2019
4564 Clouds 4 1006 86 10000 2.6 120 09:36 08.11.2019
4565 Clouds 3 1006 93 10000 2.6 110 09:18 08.11.2019
4566 Clouds 3 1006 93 10000 2.6 110 08:41 08.11.2019
4567 Clouds 3 1005 93 10000 2.6 100 08:19 08.11.2019
4568 Clouds 3 1005 93 10000 1.5 80 07:41 08.11.2019
4569 Clouds 3 1005 93 10000 1.5 80 07:23 08.11.2019
4570 Clouds 4 1005 86 10000 2.1 100 06:56 08.11.2019
4571 Clouds 3 1005 86 10000 2.1 100 06:36 08.11.2019
4572 Clouds 3 1005 86 10000 2.1 90 06:18 08.11.2019
4573 Clouds 4 1004 86 10000 1.5 60 05:25 08.11.2019
4574 Clouds 4 1004 93 10000 3.1 130 04:19 08.11.2019
4575 Clouds 4 1004 93 10000 2.6 140 03:42 08.11.2019
4576 Clouds 4 1004 93 10000 4.1 140 02:55 08.11.2019
4577 Clear 4 1004 93 10000 4.6 130 01:53 08.11.2019
4578 Clear 5 1004 93 10000 4.6 130 01:33 08.11.2019
4579 Clear 5 1004 86 10000 2.6 130 00:40 08.11.2019
4580 Clear 5 1004 86 10000 3.6 140 00:20 08.11.2019
4581 Clear 5 1004 86 10000 2.6 140 23:46 07.11.2019
4582 Clear 5 1004 86 10000 1.5 100 23:27 07.11.2019
4583 Clear 5 1004 86 10000 2.6 140 22:57 07.11.2019
4584 Clear 5 1004 86 10000 2.6 140 22:39 07.11.2019
4585 Clear 6 1003 86 10000 4.1 160 22:20 07.11.2019
4586 Clouds 6 1003 93 10000 4.6 160 21:39 07.11.2019
4587 Clouds 6 1003 93 10000 3.6 170 21:21 07.11.2019
4588 Clouds 6 1002 93 10000 3.1 160 20:59 07.11.2019
4589 Clouds 6 1002 93 10000 3.1 160 20:40 07.11.2019
4590 Clouds 6 1002 93 10000 3.1 160 20:40 07.11.2019
4591 Clouds 6 1002 87 10000 3.6 160 20:22 07.11.2019
4592 Clouds 6 1002 93 10000 2.6 150 19:58 07.11.2019
4593 Clouds 7 1002 93 10000 2.6 150 19:39 07.11.2019
4594 Clouds 7 1001 87 10000 2.6 160 19:21 07.11.2019
4595 Clouds 7 1000 87 10000 4.1 190 18:57 07.11.2019
4596 Clouds 7 1001 81 10000 2.6 190 18:39 07.11.2019
4597 Clouds 7 1000 87 10000 3.6 220 18:19 07.11.2019
4598 Clouds 8 999 75 10000 8.2 240 17:57 07.11.2019
4599 Clouds 8 999 87 10000 3.6 170 17:38 07.11.2019
4600 Clouds 8 999 87 10000 3.6 170 17:20 07.11.2019
4601 Clouds 9 998 81 10000 5.1 180 16:55 07.11.2019
4602 Clouds 9 997 76 10000 6.2 170 16:37 07.11.2019
4603 Clouds 9 997 76 10000 6.2 170 16:19 07.11.2019
4604 Clouds 9 997 76 10000 8.2 170 15:42 07.11.2019
4605 Clouds 9 997 76 10000 8.2 170 15:21 07.11.2019
4606 Clouds 10 997 76 10000 7.7 160 14:59 07.11.2019
4607 Clouds 9 997 76 10000 8.7 160 14:39 07.11.2019
4608 Rain 9 996 87 10000 7.2 160 14:21 07.11.2019
4609 Rain 9 996 87 10000 7.2 160 13:55 07.11.2019
4610 Clouds 9 995 76 10000 3.1 150 13:37 07.11.2019
4611 Rain 9 996 87 10000 6.2 150 13:19 07.11.2019
4612 Rain 9 997 81 10000 6.2 140 12:57 07.11.2019
4613 Rain 9 997 81 10000 5.7 130 12:38 07.11.2019
4614 Rain 9 997 81 10000 5.7 130 12:19 07.11.2019
4615 Rain 9 996 87 10000 3.6 120 11:42 07.11.2019
4616 Rain 9 996 87 10000 3.6 120 11:42 07.11.2019
4617 Clouds 9 997 81 10000 5.1 130 11:23 07.11.2019
4618 Clouds 9 997 87 10000 5.7 130 10:55 07.11.2019
4619 Clouds 9 998 87 10000 6.2 140 10:37 07.11.2019
4620 Clouds 9 998 87 10000 4.6 130 10:18 07.11.2019
4621 Clouds 9 997 93 10000 2.1 120 09:42 07.11.2019
4622 Clouds 8 998 87 10000 4.1 130 09:21 07.11.2019
4623 Clouds 8 997 93 10000 2.6 120 08:48 07.11.2019
4624 Clouds 8 997 93 10000 2.6 120 08:44 07.11.2019
4625 -273 0 0 0 0 0 08:44 07.11.2019
4626 Clouds 8 999 93 10000 5.1 120 08:23 07.11.2019
4627 Clouds 8 999 93 10000 5.1 120 08:23 07.11.2019
4628 Clouds 8 999 93 10000 4.6 130 07:57 07.11.2019
4629 Clouds 8 999 93 10000 4.1 130 07:39 07.11.2019
4630 Clouds 8 999 93 10000 4.1 130 07:20 07.11.2019
4631 Clouds 8 999 93 10000 4.1 130 06:46 07.11.2019
4632 Clouds 8 998 87 10000 2.6 120 06:46 07.11.2019
4633 Clouds 7 999 87 10000 3.1 130 06:25 07.11.2019
4634 Clouds 7 999 93 10000 4.1 130 05:50 07.11.2019
4635 Clouds 7 1000 93 10000 3.6 120 05:32 07.11.2019
4636 Clouds 7 1000 93 10000 2.6 120 04:52 07.11.2019
4637 -273 0 0 0 0 0 04:31 07.11.2019
4638 Clouds 7 1000 100 10000 2.6 110 04:30 07.11.2019
4639 Clouds 7 1000 100 10000 2.6 110 04:30 07.11.2019
4640 Clouds 7 1002 100 10000 2.6 130 01:32 07.11.2019
4641 Clouds 7 1002 93 10000 1 0 00:46 07.11.2019
4642 Clouds 7 1002 100 10000 2.1 130 00:18 07.11.2019
4643 Clouds 7 1002 93 10000 0.5 0 23:45 06.11.2019
4644 Rain 7 1003 100 10000 1.5 170 23:21 06.11.2019
4645 Rain 7 1003 93 10000 2.1 140 22:55 06.11.2019
4646 Clouds 7 1003 93 10000 0.5 0 22:37 06.11.2019
4647 Rain 7 1003 93 10000 2.1 150 22:18 06.11.2019
4648 Clouds 8 1003 100 10000 1 120 21:42 06.11.2019
4649 Clouds 7 1003 100 10000 1 120 21:20 06.11.2019
4650 Rain 8 1003 93 10000 0.5 0 20:58 06.11.2019
4651 Rain 8 1003 93 10000 1 0 20:40 06.11.2019
4652 Rain 7 1003 93 10000 1 170 20:21 06.11.2019
4653 Rain 8 1003 93 10000 0.87 23 19:58 06.11.2019
4654 Clouds 8 1003 93 10000 1 210 19:39 06.11.2019
4655 Rain 8 1003 93 10000 0.5 0 19:21 06.11.2019
4656 Rain 8 1003 93 10000 0.5 0 18:58 06.11.2019
4657 Clouds 8 1003 93 10000 1 310 18:39 06.11.2019
4658 Rain 8 1003 93 10000 0.5 0 18:19 06.11.2019
4659 Drizzle 8 1003 93 10000 2.1 340 17:57 06.11.2019
4660 Drizzle 8 1003 93 10000 2.1 340 17:39 06.11.2019
4661 Drizzle 8 1003 100 10000 4.1 320 17:21 06.11.2019
4662 Drizzle 9 1002 93 10000 1 0 16:55 06.11.2019
4663 Drizzle 9 1002 93 10000 1 0 16:37 06.11.2019
4664 Drizzle 9 1003 93 8000 2.6 330 16:18 06.11.2019
4665 Clouds 9 1003 93 10000 2.1 310 15:55 06.11.2019
4666 Drizzle 9 1003 93 10000 2.6 300 15:37 06.11.2019
4667 Drizzle 9 1003 93 10000 2.6 280 15:18 06.11.2019
4668 Drizzle 9 1002 87 10000 2.6 290 14:56 06.11.2019
4669 Drizzle 9 1002 87 10000 2.6 290 14:56 06.11.2019
4670 Drizzle 9 1002 87 10000 2.6 290 14:37 06.11.2019
4671 Rain 9 1003 87 8000 3.1 280 14:19 06.11.2019
4672 Clouds 9 1002 93 10000 3.1 250 13:41 06.11.2019
4673 Clouds 9 1002 93 10000 3.1 250 13:41 06.11.2019
4674 Rain 9 1002 93 10000 3.1 280 13:22 06.11.2019
4675 Rain 9 1002 93 10000 3.1 280 12:58 06.11.2019
4676 Clouds 9 1002 93 8000 3.6 270 12:40 06.11.2019
4677 Drizzle 9 1002 93 6000 3.6 270 12:21 06.11.2019
4678 Drizzle 9 1002 93 6000 3.6 270 11:58 06.11.2019
4679 Drizzle 9 1002 93 6000 3.6 270 11:38 06.11.2019
4680 Drizzle 9 1002 93 7000 3.1 240 11:19 06.11.2019
4681 Drizzle 9 1002 93 7000 3.1 240 10:57 06.11.2019
4682 Drizzle 9 1002 100 7000 2.6 220 10:39 06.11.2019
4683 Drizzle 8 1002 93 5000 4.1 270 10:21 06.11.2019
4684 Drizzle 8 1002 93 5000 2.1 210 09:57 06.11.2019
4685 Drizzle 8 1002 93 5000 2.1 210 09:38 06.11.2019
4686 Drizzle 8 1002 93 3000 2.6 280 09:19 06.11.2019
4687 Rain 8 1001 93 10000 3.1 180 08:55 06.11.2019
4688 Rain 8 1001 93 10000 3.1 180 08:36 06.11.2019
4689 Rain 8 1001 93 10000 2.6 180 08:18 06.11.2019
4690 Rain 8 1001 93 10000 2.6 180 07:43 06.11.2019
4691 Rain 8 1001 93 10000 2.6 180 07:24 06.11.2019
4692 Rain 8 1001 93 10000 2.6 190 06:48 06.11.2019
4693 Rain 8 1001 93 10000 2.1 230 06:28 06.11.2019
4694 Clouds 8 1000 93 10000 2.1 230 05:37 06.11.2019
4695 Clouds 8 1000 93 10000 0.5 0 03:22 06.11.2019
4696 Clouds 8 1000 93 10000 0.5 0 01:41 06.11.2019
4697 Clouds 8 1000 93 10000 1 0 00:46 06.11.2019
4698 Clouds 8 999 100 10000 1 0 23:59 05.11.2019
4699 Clouds 8 999 100 10000 1 0 23:40 05.11.2019
4700 Clouds 8 999 93 10000 1 0 23:22 05.11.2019
4701 Clouds 8 999 93 10000 1 0 22:58 05.11.2019
4702 Clouds 8 999 93 10000 0.5 0 22:40 05.11.2019
4703 Rain 8 999 93 10000 1.5 140 22:18 05.11.2019
4704 Rain 8 999 93 10000 1 0 21:55 05.11.2019
4705 Rain 8 999 93 10000 1 0 21:37 05.11.2019
4706 Clouds 9 999 100 10000 0.5 150 21:18 05.11.2019
4707 Clouds 8 999 100 10000 1 0 20:55 05.11.2019
4708 Clouds 9 999 100 10000 1 0 20:36 05.11.2019
4709 Clouds 9 999 100 10000 1 120 20:18 05.11.2019
4710 Clouds 9 999 100 10000 1.5 150 19:42 05.11.2019
4711 Clouds 9 998 100 10000 1.5 140 19:22 05.11.2019
4712 Clouds 9 998 100 10000 1.5 140 18:58 05.11.2019
4713 Clouds 9 998 93 10000 1 0 18:40 05.11.2019
4714 Clouds 9 998 93 10000 1 0 18:21 05.11.2019
4715 Clouds 9 998 93 10000 1 0 17:59 05.11.2019
4716 Rain 9 998 93 10000 2.1 130 17:39 05.11.2019
4717 Rain 9 998 93 10000 2.6 210 17:20 05.11.2019
4718 Rain 10 997 87 10000 1 0 16:57 05.11.2019
4719 Rain 10 997 87 10000 1 0 16:57 05.11.2019
4720 Rain 10 997 87 10000 1 0 16:39 05.11.2019
4721 Clouds 10 997 87 10000 0.5 0 16:20 05.11.2019
4722 Rain 11 997 87 10000 1 0 15:39 05.11.2019
4723 Rain 11 997 81 10000 2.1 310 15:20 05.11.2019
4724 Rain 11 997 81 10000 2.1 310 15:20 05.11.2019
4725 Rain 11 997 81 10000 2.1 310 14:59 05.11.2019
4726 Rain 11 997 71 10000 1 0 14:41 05.11.2019
4727 Clouds 11 997 71 10000 2.1 210 14:22 05.11.2019
4728 Clouds 11 997 71 10000 2.6 220 13:58 05.11.2019
4729 Clouds 11 997 71 10000 2.6 220 13:40 05.11.2019
4730 Clouds 11 997 71 10000 3.6 220 13:22 05.11.2019
4731 Clouds 11 997 71 10000 4.6 230 12:41 05.11.2019
4732 Clouds 11 997 76 10000 3.1 210 12:22 05.11.2019
4733 Clouds 10 997 81 10000 1.5 170 11:58 05.11.2019
4734 Clouds 10 997 81 10000 1.5 170 11:39 05.11.2019
4735 Clouds 10 997 81 10000 2.6 180 11:20 05.11.2019
4736 Rain 10 996 81 0 3.1 160 10:56 05.11.2019
4737 Rain 10 996 81 0 3.1 160 10:38 05.11.2019
4738 Rain 10 996 81 0 3.1 170 10:19 05.11.2019
4739 Clouds 9 996 87 10000 3.6 150 09:55 05.11.2019
4740 Clouds 9 996 87 10000 3.6 150 09:36 05.11.2019
4741 Clouds 9 996 100 10000 3.1 150 09:18 05.11.2019
4742 Rain 8 996 93 10000 3.1 150 08:38 05.11.2019
4743 Rain 8 995 93 10000 1.5 130 08:19 05.11.2019
4744 Rain 8 995 100 10000 1.5 140 07:57 05.11.2019
4745 Rain 8 995 100 10000 1.5 140 07:38 05.11.2019
4746 Rain 8 995 100 10000 2.6 140 07:19 05.11.2019
4747 Rain 8 995 100 10000 2.1 150 06:49 05.11.2019
4748 Rain 8 994 100 10000 3.1 180 05:51 05.11.2019
4749 Rain 8 994 100 10000 3.1 170 05:22 05.11.2019
4750 Rain 9 994 93 10000 3.6 170 04:25 05.11.2019
4751 Rain 9 994 93 10000 3.6 170 04:25 05.11.2019
4752 Rain 9 994 87 10000 4.1 180 03:49 05.11.2019
4753 Rain 9 993 87 10000 4.1 170 02:46 05.11.2019
4754 Rain 9 993 87 10000 4.1 160 02:18 05.11.2019
4755 Rain 9 993 93 10000 3.1 140 01:25 05.11.2019
4756 Rain 9 993 93 10000 2.6 170 00:37 05.11.2019
4757 Rain 9 992 93 10000 4.1 150 23:56 04.11.2019
4758 Rain 9 992 93 10000 4.1 150 23:37 04.11.2019
4759 Rain 9 992 87 10000 3.6 140 23:18 04.11.2019
4760 Rain 9 992 87 10000 3.6 140 23:18 04.11.2019
4761 Rain 9 991 87 10000 3.6 150 22:42 04.11.2019
4762 Clouds 9 991 87 10000 3.6 160 22:23 04.11.2019
4763 Clouds 9 991 87 10000 3.6 160 21:56 04.11.2019
4764 Rain 9 991 87 10000 4.6 160 21:38 04.11.2019
4765 Clouds 9 991 93 10000 4.6 150 21:19 04.11.2019
4766 Clouds 9 991 87 10000 4.1 140 20:59 04.11.2019
4767 Clouds 9 991 87 10000 4.1 140 20:40 04.11.2019
4768 Clouds 9 991 93 10000 4.1 150 20:21 04.11.2019
4769 Clouds 10 991 93 10000 4.1 150 19:59 04.11.2019
4770 Rain 10 991 87 10000 3.1 130 19:41 04.11.2019
4771 Clouds 10 990 87 10000 3.1 140 19:22 04.11.2019
4772 Rain 10 990 87 10000 3.1 150 18:58 04.11.2019
4773 Rain 10 990 87 10000 3.1 150 18:39 04.11.2019
4774 Rain 10 990 93 10000 2.1 140 18:19 04.11.2019
4775 Rain 10 990 87 10000 2.6 150 17:55 04.11.2019
4776 Rain 10 990 87 10000 2.6 150 17:36 04.11.2019
4777 Rain 11 990 87 10000 2.1 160 17:18 04.11.2019
4778 Clouds 11 990 81 10000 1.5 210 16:41 04.11.2019
4779 Clouds 12 990 81 10000 1.5 210 16:23 04.11.2019
4780 Clouds 12 989 82 10000 3.1 240 15:58 04.11.2019
4781 Clouds 12 989 87 10000 3.6 230 15:39 04.11.2019
4782 Rain 11 989 93 4900 4.6 180 15:21 04.11.2019
4783 Drizzle 11 988 87 8000 6.2 240 14:57 04.11.2019
4784 Rain 11 989 93 4900 3.6 150 14:39 04.11.2019
4785 Rain 11 988 87 10000 3.1 120 14:20 04.11.2019
4786 Drizzle 11 988 87 2600 2.1 140 13:57 04.11.2019
4787 Rain 11 988 87 10000 2.6 120 13:39 04.11.2019
4788 Rain 11 989 93 10000 3.1 130 13:20 04.11.2019
4789 Clouds 11 988 87 10000 2.6 130 12:55 04.11.2019
4790 Clouds 11 988 87 10000 2.6 130 12:55 04.11.2019
4791 Rain 11 989 87 10000 4.1 160 12:36 04.11.2019
4792 Rain 11 988 81 10000 3.1 140 12:18 04.11.2019
4793 Rain 11 989 81 10000 4.1 160 11:42 04.11.2019
4794 Clouds 11 989 76 10000 4.6 170 11:23 04.11.2019
4795 Clouds 11 989 76 10000 4.1 160 10:56 04.11.2019
4796 Clouds 11 989 76 10000 4.1 160 10:38 04.11.2019
4797 Clouds 11 989 76 10000 4.1 170 10:18 04.11.2019
4798 Clouds 10 989 81 10000 4.6 160 09:44 04.11.2019
4799 Clouds 10 989 81 10000 3.6 0 09:26 04.11.2019
4800 Clouds 10 989 87 10000 4.1 180 08:56 04.11.2019
4801 Clouds 9 989 87 10000 4.1 180 08:37 04.11.2019
4802 Clouds 9 989 87 10000 3.6 170 08:18 04.11.2019
4803 Clouds 9 989 93 10000 4.1 160 07:42 04.11.2019
4804 Clouds 9 989 93 10000 3.1 160 07:20 04.11.2019
4805 Drizzle 10 989 93 10000 3.6 160 06:49 04.11.2019
4806 Drizzle 10 989 93 10000 3.6 160 06:49 04.11.2019
4807 Drizzle 10 989 93 10000 3.6 160 06:49 04.11.2019
4808 Drizzle 10 989 93 10000 4.1 170 06:18 04.11.2019
4809 Rain 10 989 87 10000 3.6 160 05:38 04.11.2019
4810 Drizzle 10 989 93 10000 3.6 180 04:43 04.11.2019
4811 Clouds 10 989 87 10000 4.1 180 04:21 04.11.2019
4812 Clouds 10 989 87 10000 4.1 180 04:21 04.11.2019
4813 Clouds 10 989 81 10000 3.1 190 01:46 04.11.2019
4814 Clouds 10 988 81 10000 3.1 220 01:20 04.11.2019
4815 Clouds 10 988 81 10000 3.6 250 00:40 04.11.2019
4816 Clouds 10 988 81 10000 5.1 250 00:20 04.11.2019
4817 Clouds 11 987 93 10000 3.1 210 23:41 03.11.2019
4818 Clouds 11 987 93 10000 3.6 200 23:21 03.11.2019
4819 Clouds 11 987 93 10000 3.6 200 23:21 03.11.2019
4820 Clouds 11 987 93 10000 3.6 200 22:58 03.11.2019
4821 Clouds 11 987 93 10000 3.6 200 22:40 03.11.2019
4822 Clouds 11 986 93 10000 3.6 190 22:20 03.11.2019
4823 Clouds 11 986 93 10000 3.6 190 22:20 03.11.2019
4824 Rain 11 986 93 10000 4.1 170 21:57 03.11.2019
4825 Rain 12 986 93 10000 4.1 170 21:38 03.11.2019
4826 Rain 12 986 93 10000 3.6 170 21:20 03.11.2019
4827 Rain 12 985 93 10000 3.6 160 20:55 03.11.2019
4828 Rain 12 985 93 10000 3.6 160 20:36 03.11.2019
4829 Rain 12 985 93 10000 4.6 140 20:18 03.11.2019
4830 Rain 12 985 93 10000 4.6 140 19:55 03.11.2019
4831 Rain 12 985 93 10000 4.6 140 19:37 03.11.2019
4832 Rain 12 985 82 10000 3.6 130 19:18 03.11.2019
4833 Rain 12 985 82 10000 3.1 130 18:38 03.11.2019
4834 Rain 12 985 82 10000 3.1 130 18:38 03.11.2019
4835 Rain 13 985 76 10000 3.1 130 18:18 03.11.2019
4836 Clouds 13 985 76 10000 4.1 140 17:58 03.11.2019
4837 Clouds 13 985 76 10000 4.1 140 17:39 03.11.2019
4838 Clouds 13 984 76 10000 4.6 140 17:18 03.11.2019
4839 Clouds 13 984 76 10000 3.1 130 16:55 03.11.2019
4840 Clouds 13 984 76 10000 3.1 130 16:55 03.11.2019
4841 Clouds 13 984 76 10000 3.1 130 16:37 03.11.2019
4842 Clouds 13 984 76 10000 5.7 150 16:18 03.11.2019
4843 Clouds 14 984 72 10000 4.6 140 15:54 03.11.2019
4844 Clouds 14 984 72 10000 4.6 140 15:36 03.11.2019
4845 Clouds 14 984 72 10000 3.6 140 15:18 03.11.2019
4846 Clouds 14 984 72 10000 3.1 130 14:40 03.11.2019
4847 Clouds 14 984 72 10000 5.7 140 14:18 03.11.2019
4848 Clouds 14 985 76 10000 4.1 140 13:55 03.11.2019
4849 Clouds 14 985 76 10000 4.1 140 13:36 03.11.2019
4850 Clouds 14 985 76 10000 4.1 140 13:36 03.11.2019
4851 Clouds 14 985 76 10000 5.1 140 13:18 03.11.2019
4852 Clouds 13 985 76 10000 4.1 140 12:38 03.11.2019
4853 Clouds 13 985 76 10000 4.6 130 12:19 03.11.2019
4854 Clouds 13 986 82 10000 5.1 140 11:56 03.11.2019
4855 Clouds 13 986 82 10000 5.1 140 11:38 03.11.2019
4856 Clouds 12 986 82 10000 4.1 130 11:19 03.11.2019
4857 Clouds 12 986 81 10000 5.1 130 10:42 03.11.2019
4858 Clouds 11 986 87 10000 5.1 150 10:22 03.11.2019
4859 Clouds 11 986 87 10000 5.1 150 10:22 03.11.2019
4860 Clouds 11 986 87 10000 5.1 150 10:22 03.11.2019
4861 Clouds 11 986 87 10000 5.1 150 10:22 03.11.2019
4862 Clouds 11 986 87 10000 5.1 140 09:58 03.11.2019
4863 Clouds 11 986 87 10000 5.1 140 09:40 03.11.2019
4864 Clouds 10 986 87 10000 3.6 130 09:22 03.11.2019
4865 Clouds 10 986 87 10000 3.6 140 08:48 03.11.2019
4866 Clouds 10 986 81 10000 5.1 160 08:25 03.11.2019
4867 Clouds 10 986 81 10000 4.1 170 07:55 03.11.2019
4868 Clouds 10 986 81 10000 4.1 170 07:37 03.11.2019
4869 Clouds 10 986 93 10000 2.6 150 07:18 03.11.2019
4870 Rain 10 986 93 10000 5.1 150 06:38 03.11.2019
4871 Drizzle 10 986 93 10000 4.1 130 05:41 03.11.2019
4872 Drizzle 10 987 81 10000 1.5 250 05:18 03.11.2019
4873 Clouds 10 987 76 10000 5.1 130 04:47 03.11.2019
4874 Rain 10 987 76 10000 5.1 130 03:40 03.11.2019
4875 Clouds 11 988 76 10000 3.6 130 02:46 03.11.2019
4876 Clouds 11 988 76 10000 4.6 160 02:21 03.11.2019
4877 Clouds 11 988 76 10000 4.6 160 02:21 03.11.2019
4878 Clouds 11 989 66 10000 3.1 180 01:44 03.11.2019
4879 Clouds 11 989 76 10000 4.6 170 01:22 03.11.2019
4880 Clouds 11 989 76 10000 4.6 170 00:57 03.11.2019
4881 Clouds 11 989 76 10000 4.6 160 00:37 03.11.2019
4882 Clouds 11 989 71 10000 5.7 170 00:18 03.11.2019
4883 Clouds 11 990 66 10000 6.2 190 23:39 02.11.2019
4884 Clouds 11 990 71 10000 4.6 180 23:20 02.11.2019
4885 Clouds 11 990 71 10000 4.6 180 22:57 02.11.2019
4886 Clouds 11 990 71 10000 4.6 180 22:38 02.11.2019
4887 Clouds 12 990 66 10000 3.6 180 22:20 02.11.2019
4888 Clouds 12 990 66 10000 3.6 180 21:57 02.11.2019
4889 Clouds 12 990 66 10000 4.1 190 21:38 02.11.2019
4890 Clouds 12 990 66 10000 4.6 190 21:19 02.11.2019
4891 Clouds 12 990 66 10000 4.6 190 21:19 02.11.2019
4892 Clouds 12 990 66 10000 4.6 190 21:00 02.11.2019
4893 Rain 12 991 62 10000 5.1 200 20:41 02.11.2019
4894 Rain 12 991 62 10000 6.2 190 20:21 02.11.2019
4895 Rain 12 991 62 10000 4.6 180 19:59 02.11.2019
4896 Rain 12 991 62 10000 4.6 180 19:38 02.11.2019
4897 Rain 12 991 66 10000 4.6 190 19:19 02.11.2019
4898 Rain 12 991 62 10000 4.6 190 18:54 02.11.2019
4899 Rain 12 991 62 10000 4.6 190 18:36 02.11.2019
4900 Clouds 13 991 67 10000 6.2 190 18:18 02.11.2019
4901 Clouds 13 991 62 10000 6.2 180 17:55 02.11.2019
4902 Clouds 13 991 62 10000 6.2 180 17:36 02.11.2019
4903 Clouds 13 991 62 10000 6.2 190 17:18 02.11.2019
4904 Clouds 14 991 67 10000 5.7 200 16:40 02.11.2019
4905 Clouds 14 992 62 10000 5.1 200 16:20 02.11.2019
4906 Clouds 14 992 62 10000 6.7 240 15:44 02.11.2019
4907 Clouds 14 992 62 10000 8.7 220 15:22 02.11.2019
4908 Clouds 14 992 62 10000 8.7 220 14:59 02.11.2019
4909 Clouds 14 992 67 10000 4.1 210 14:41 02.11.2019
4910 Clouds 14 992 72 10000 3.1 220 14:22 02.11.2019
4911 Clouds 14 992 67 10000 5.7 230 13:55 02.11.2019
4912 Clouds 14 992 67 10000 5.7 230 13:37 02.11.2019
4913 Clouds 15 992 67 10000 6.2 220 13:18 02.11.2019
4914 Clouds 15 992 77 10000 5.7 200 12:40 02.11.2019
4915 Clouds 15 992 87 10000 3.6 220 12:22 02.11.2019
4916 Clouds 15 992 93 10000 2.6 230 11:57 02.11.2019
4917 Clouds 15 992 93 10000 2.6 230 11:38 02.11.2019
4918 Drizzle 14 992 93 9000 3.1 210 11:19 02.11.2019
4919 Drizzle 14 992 100 10000 3.6 210 10:44 02.11.2019
4920 Drizzle 14 992 93 4500 4.6 210 10:25 02.11.2019
4921 Drizzle 14 992 93 4500 4.6 210 09:56 02.11.2019
4922 Drizzle 14 992 93 5000 3.6 190 09:38 02.11.2019
4923 Drizzle 14 992 93 7000 3.6 180 09:18 02.11.2019
4924 Rain 14 992 93 10000 5.1 170 08:42 02.11.2019
4925 Rain 13 992 93 10000 5.1 170 08:20 02.11.2019
4926 Clouds 13 991 93 10000 5.7 170 07:47 02.11.2019
4927 Clouds 14 991 93 10000 5.1 160 07:27 02.11.2019
4928 Rain 13 992 93 10000 5.7 160 06:54 02.11.2019
4929 Rain 13 992 93 10000 6.2 160 06:26 02.11.2019
4930 Rain 13 992 93 10000 4.6 150 05:56 02.11.2019
4931 Clouds 13 993 93 10000 4.1 140 04:53 02.11.2019
4932 Clouds 13 993 87 10000 3.6 140 04:20 02.11.2019
4933 Clouds 13 993 87 10000 4.1 140 03:46 02.11.2019
4934 Clouds 13 994 93 10000 4.1 140 02:40 02.11.2019
4935 Rain 12 995 93 10000 4.1 130 01:43 02.11.2019
4936 Rain 12 996 100 10000 3.6 140 01:21 02.11.2019
4937 Rain 12 996 93 10000 3.6 130 00:48 02.11.2019
4938 Rain 12 997 93 10000 3.6 120 00:26 02.11.2019
4939 Rain 11 997 93 10000 3.6 120 23:46 01.11.2019
4940 Clouds 11 997 93 10000 3.1 120 23:22 01.11.2019
4941 Clouds 11 997 93 10000 3.1 120 22:58 01.11.2019
4942 Clouds 11 998 93 10000 3.1 120 22:39 01.11.2019
4943 Clouds 11 998 100 10000 3.6 130 22:20 01.11.2019
4944 Clouds 11 999 93 10000 4.6 130 21:41 01.11.2019
4945 Clouds 11 999 93 10000 3.6 130 21:23 01.11.2019
4946 Clouds 10 999 93 10000 4.1 130 20:57 01.11.2019
4947 Clouds 10 999 93 10000 4.1 130 20:39 01.11.2019
4948 Drizzle 10 1000 93 10000 3.6 120 20:19 01.11.2019
4949 Drizzle 10 1000 93 10000 4.1 130 19:56 01.11.2019
4950 Drizzle 10 1000 93 10000 4.1 130 19:38 01.11.2019
4951 Drizzle 10 1001 100 10000 4.1 130 19:19 01.11.2019
4952 Drizzle 10 1001 93 10000 5.1 130 18:39 01.11.2019
4953 Clouds 10 1002 93 10000 5.1 130 18:21 01.11.2019
4954 Clouds 9 1002 93 10000 5.1 130 17:56 01.11.2019
4955 Clouds 9 1002 93 10000 5.1 130 17:37 01.11.2019
4956 Rain 9 1003 93 9000 5.1 130 17:19 01.11.2019
4957 Rain 9 1003 93 10000 4.1 120 16:38 01.11.2019
4958 Rain 9 1004 93 10000 3.6 120 16:20 01.11.2019
4959 Rain 9 1005 93 9000 3.6 120 15:55 01.11.2019
4960 Rain 9 1005 93 9000 3.6 120 15:37 01.11.2019
4961 Rain 9 1005 93 8000 4.1 120 15:19 01.11.2019
4962 Rain 8 1006 100 8000 3.6 130 14:43 01.11.2019
4963 Rain 8 1007 93 6000 4.6 130 14:24 01.11.2019
4964 Rain 8 1007 93 6000 4.6 130 13:57 01.11.2019
4965 Drizzle 8 1007 93 8000 5.1 130 13:39 01.11.2019
4966 Drizzle 8 1008 87 8000 5.7 130 13:21 01.11.2019
4967 Rain 8 1008 87 10000 6.2 140 12:44 01.11.2019
4968 Drizzle 7 1007 87 4000 3.1 120 12:26 01.11.2019
4969 Clouds 7 1009 87 10000 4.6 130 11:59 01.11.2019
4970 Clouds 7 1009 87 10000 4.6 130 11:41 01.11.2019
4971 Clouds 7 1010 87 10000 4.1 110 11:22 01.11.2019
4972 Clouds 6 1010 87 8000 4.6 110 10:42 01.11.2019
4973 -273 0 0 0 0 0 10:24 01.11.2019
4974 Clouds 6 1011 93 7000 4.6 120 09:58 01.11.2019
4975 Drizzle 5 1010 93 3800 3.1 110 09:40 01.11.2019
4976 Rain 5 1012 86 7000 5.1 120 09:20 01.11.2019
4977 Rain 5 1012 93 6000 4.6 120 08:46 01.11.2019
4978 Drizzle 5 1013 93 4000 4.1 120 08:23 01.11.2019
4979 Drizzle 5 1013 93 6000 4.1 120 07:58 01.11.2019
4980 Drizzle 5 1013 93 6000 4.1 120 07:40 01.11.2019
4981 Rain 5 1013 86 10000 5.7 120 07:21 01.11.2019
4982 Rain 5 1014 80 10000 4.6 120 06:53 01.11.2019
4983 Clouds 5 1014 75 10000 4.1 130 06:22 01.11.2019
4984 Clouds 5 1014 75 10000 4.6 120 05:44 01.11.2019
4985 Clouds 4 1015 68 10000 4.1 120 04:55 01.11.2019
4986 Clouds 4 1016 74 10000 3.1 110 03:32 01.11.2019
4987 Clouds 3 1018 80 10000 1 0 01:46 01.11.2019
4988 Clouds 3 1018 80 10000 1 0 00:58 01.11.2019
4989 Clouds 3 1019 74 10000 2.1 120 00:20 01.11.2019
4990 Clouds 3 1019 69 10000 2.6 120 23:44 31.10.2019
4991 Clear 3 1019 74 10000 2.6 90 23:24 31.10.2019
4992 Clear 3 1020 74 10000 2.1 100 22:58 31.10.2019
4993 Clear 3 1020 74 10000 2.1 100 22:40 31.10.2019
4994 Clear 4 1020 74 10000 1.5 110 22:22 31.10.2019
4995 Clear 4 1020 74 10000 1.5 110 21:56 31.10.2019
4996 Clear 4 1020 74 10000 2.1 120 21:37 31.10.2019
4997 Clear 4 1020 74 10000 1.5 110 21:18 31.10.2019
4998 Clear 4 1020 69 10000 1.5 110 20:40 31.10.2019
4999 Clear 4 1020 57 10000 1.5 90 20:22 31.10.2019
5000 Clear 4 1020 57 10000 1.5 90 20:22 31.10.2019
5001 Clear 4 1021 57 10000 2.6 90 19:56 31.10.2019
5002 Clear 4 1021 57 10000 2.6 90 19:38 31.10.2019
5003 Clear 5 1021 57 10000 3.1 90 19:18 31.10.2019
5004 Clear 5 1021 60 10000 2.6 90 18:43 31.10.2019
5005 Clear 5 1021 57 10000 2.6 90 18:25 31.10.2019
5006 Clear 6 1021 57 10000 2.6 90 17:58 31.10.2019
5007 Clear 6 1021 57 10000 2.1 100 17:40 31.10.2019
5008 Clear 7 1021 47 10000 1.5 110 17:20 31.10.2019
5009 Clear 8 1020 47 10000 2.1 120 16:55 31.10.2019
5010 Clear 8 1020 47 10000 2.1 120 16:37 31.10.2019
5011 Clear 9 1021 47 10000 2.6 140 16:18 31.10.2019
5012 Clear 10 1021 43 10000 2.6 120 15:40 31.10.2019
5013 Clear 10 1021 43 10000 2.6 120 15:40 31.10.2019
5014 Clear 10 1021 43 10000 4.1 120 15:21 31.10.2019
5015 Clear 10 1021 47 10000 3.6 120 14:58 31.10.2019
5016 Clear 10 1021 47 10000 3.6 120 14:40 31.10.2019
5017 Clear 10 1021 47 10000 3.6 140 14:22 31.10.2019
5018 Clear 10 1021 47 10000 3.6 140 13:59 31.10.2019
5019 Clear 9 1021 47 10000 4.6 130 13:39 31.10.2019
5020 Clear 9 1022 47 10000 5.1 140 13:19 31.10.2019
5021 Clear 9 1022 47 10000 5.1 140 12:57 31.10.2019
5022 Clear 9 1022 57 10000 4.1 100 12:38 31.10.2019
5023 Clear 8 1023 47 10000 4.1 130 12:18 31.10.2019
5024 Clear 8 1023 47 10000 4.6 120 11:45 31.10.2019
5025 Clear 7 1023 61 10000 3.6 110 11:21 31.10.2019
5026 Clear 6 1023 61 10000 3.1 110 10:58 31.10.2019
5027 Clear 5 1023 61 10000 3.1 110 10:39 31.10.2019
5028 Clear 5 1023 61 10000 2.6 110 10:20 31.10.2019
5029 Clear 3 1023 61 10000 3.1 100 09:54 31.10.2019
5030 Clear 2 1023 61 10000 3.1 100 09:36 31.10.2019
5031 Clear 2 1023 61 10000 3.6 90 09:18 31.10.2019
5032 Clear 1 1024 61 10000 1.5 140 08:43 31.10.2019
5033 Clear 0 1023 100 10000 2.1 130 08:24 31.10.2019
5034 Clear 0 1023 100 10000 1 0 07:48 31.10.2019
5035 Clear 0 1023 100 10000 1 0 07:26 31.10.2019
5036 Clear 0 1023 75 10000 1.5 130 06:53 31.10.2019
5037 Clear 0 1023 75 10000 1.5 130 06:32 31.10.2019
5038 Clear 0 1024 75 10000 1.5 160 05:27 31.10.2019
5039 Clear 0 1025 92 10000 2.1 140 02:50 31.10.2019
5040 Clear 1 1025 73 10000 1.5 100 02:30 31.10.2019
5041 Clear 1 1025 92 10000 1.5 190 01:24 31.10.2019
5042 Clear 1 1025 92 10000 1.5 140 00:27 31.10.2019
5043 Clear 1 1025 74 10000 1.5 130 23:53 30.10.2019
5044 Clear 2 1025 74 10000 1.5 130 23:27 30.10.2019
5045 Clear 2 1026 74 10000 1 0 22:43 30.10.2019
5046 Clear 2 1026 80 10000 1.5 150 22:20 30.10.2019
5047 Clear 2 1025 80 10000 3.1 90 21:55 30.10.2019
5048 Clear 3 1025 80 10000 3.1 90 21:37 30.10.2019
5049 Clear 3 1025 80 10000 3.1 90 21:37 30.10.2019
5050 Clear 3 1025 86 10000 3.1 90 21:18 30.10.2019
5051 Clear 3 1025 86 10000 3.1 90 20:58 30.10.2019
5052 Clear 3 1025 86 10000 1.5 90 20:39 30.10.2019
5053 Clouds 3 1025 80 10000 3.1 80 20:21 30.10.2019
5054 Clouds 3 1026 80 10000 1.5 90 19:57 30.10.2019
5055 Clouds 3 1026 80 10000 1.5 90 19:57 30.10.2019
5056 Clouds 3 1026 80 10000 1.5 90 19:38 30.10.2019
5057 Clouds 4 1026 86 10000 2.1 80 19:19 30.10.2019
5058 Clouds 4 1026 86 10000 1.5 80 18:39 30.10.2019
5059 Clouds 4 1026 86 10000 1.5 80 18:39 30.10.2019
5060 Clouds 5 1026 80 10000 2.1 80 18:20 30.10.2019
5061 Clouds 5 1026 75 10000 2.1 80 17:59 30.10.2019
5062 Clouds 6 1026 75 10000 2.1 80 17:41 30.10.2019
5063 Clouds 6 1026 65 10000 2.1 90 17:19 30.10.2019
5064 Clouds 6 1026 65 10000 2.1 90 17:19 30.10.2019
5065 Clouds 7 1026 65 10000 1.5 110 16:55 30.10.2019
5066 Clouds 7 1026 65 10000 1.5 110 16:37 30.10.2019
5067 Clouds 8 1026 61 10000 1.5 120 16:19 30.10.2019
5068 Clouds 8 1025 70 10000 3.1 100 15:56 30.10.2019
5069 Clouds 8 1026 61 10000 2.6 90 15:38 30.10.2019
5070 Clouds 8 1026 61 10000 3.1 110 15:19 30.10.2019
5071 Clouds 8 1026 57 10000 4.1 110 14:56 30.10.2019
5072 Clouds 8 1026 57 10000 4.1 110 14:38 30.10.2019
5073 Clouds 8 1026 61 10000 3.1 90 14:18 30.10.2019
5074 Clouds 8 1026 65 10000 3.6 100 13:42 30.10.2019
5075 Clouds 8 1027 65 10000 2.1 120 13:21 30.10.2019
5076 Clouds 8 1027 65 10000 2.1 120 12:59 30.10.2019
5077 Clouds 8 1027 65 10000 2.6 100 12:41 30.10.2019
5078 Clouds 7 1027 70 10000 2.1 110 12:23 30.10.2019
5079 Clouds 7 1028 70 10000 3.6 100 11:43 30.10.2019
5080 Clouds 6 1028 70 0 3.1 120 11:25 30.10.2019
5081 Clouds 5 1028 70 0 3.1 120 10:59 30.10.2019
5082 Clouds 5 1028 70 10000 2.6 100 10:41 30.10.2019
5083 Clouds 4 1028 75 10000 3.1 90 10:22 30.10.2019
5084 Clouds 4 1028 80 10000 3.1 80 09:41 30.10.2019
5085 Clouds 3 1028 93 10000 1.5 60 09:22 30.10.2019
5086 Clouds 3 1028 93 10000 1.5 60 09:22 30.10.2019
5087 Clouds 2 1028 67 10000 1 0 08:57 30.10.2019
5088 Clouds 2 1028 67 10000 1 0 08:38 30.10.2019
5089 Clear 1 1027 100 10000 1 0 08:19 30.10.2019
5090 Clear 1 1027 75 10000 1.5 100 07:43 30.10.2019
5091 Clear 1 1027 100 10000 1 70 06:59 30.10.2019
5092 Clear 1 1027 75 10000 1.5 180 06:41 30.10.2019
5093 Clear 1 1027 75 10000 1.5 120 05:58 30.10.2019
5094 Clear 1 1027 75 10000 1.5 120 05:40 30.10.2019
5095 Clear 1 1027 75 10000 0.5 0 04:42 30.10.2019
5096 Clear 1 1027 93 10000 1.5 110 03:43 30.10.2019
5097 Clear 2 1027 86 10000 2.6 90 02:50 30.10.2019
5098 Clouds 3 1027 80 10000 3.1 80 01:55 30.10.2019
5099 Clouds 3 1027 86 10000 2.6 80 00:55 30.10.2019
5100 Clouds 3 1027 86 10000 3.1 80 00:28 30.10.2019
5101 Clouds 4 1027 86 10000 3.1 80 23:42 29.10.2019
5102 Clouds 4 1027 86 10000 4.1 70 23:22 29.10.2019
5103 Clouds 4 1027 80 10000 4.1 70 22:48 29.10.2019
5104 Clouds 4 1027 86 10000 3.6 70 22:20 29.10.2019
5105 Clouds 5 1027 86 10000 3.1 80 21:59 29.10.2019
5106 Clouds 5 1027 86 10000 3.1 80 21:41 29.10.2019
5107 Clouds 5 1027 86 10000 3.1 80 21:20 29.10.2019
5108 Clouds 6 1026 81 10000 3.1 70 20:56 29.10.2019
5109 Clouds 6 1026 81 10000 3.1 70 20:38 29.10.2019
5110 Clouds 6 1026 81 10000 3.1 70 20:38 29.10.2019
5111 Clouds 6 1026 81 10000 3.1 70 20:20 29.10.2019
5112 Clouds 6 1026 81 10000 3.1 70 19:56 29.10.2019
5113 Clouds 6 1026 75 10000 3.6 60 19:38 29.10.2019
5114 Clouds 7 1026 75 10000 2.6 70 19:19 29.10.2019
5115 Clouds 7 1026 87 10000 2.6 50 18:55 29.10.2019
5116 Clouds 7 1026 87 10000 2.6 50 18:37 29.10.2019
5117 Clouds 7 1025 81 10000 2.1 50 18:19 29.10.2019
5118 Clouds 8 1025 81 10000 2.1 60 17:54 29.10.2019
5119 Clouds 8 1025 81 10000 2.1 60 17:36 29.10.2019
5120 Clouds 9 1025 87 10000 1.5 50 17:18 29.10.2019
5121 Clouds 10 1025 76 10000 1 50 16:39 29.10.2019
5122 Clouds 10 1024 71 10000 1.5 40 16:21 29.10.2019
5123 Clouds 10 1024 71 10000 1.5 40 15:57 29.10.2019
5124 Clouds 10 1024 62 10000 1.5 70 15:39 29.10.2019
5125 Clouds 10 1024 66 10000 2.1 50 15:20 29.10.2019
5126 Clouds 11 1024 66 10000 2.1 50 14:55 29.10.2019
5127 Clouds 11 1024 62 10000 1.5 70 14:37 29.10.2019
5128 Clouds 11 1024 62 10000 2.1 0 14:19 29.10.2019
5129 Clouds 11 1024 62 10000 3.1 90 13:40 29.10.2019
5130 Clouds 11 1024 66 10000 4.1 80 13:22 29.10.2019
5131 Clouds 11 1024 66 10000 4.1 80 13:22 29.10.2019
5132 Clouds 10 1024 66 10000 3.1 50 12:55 29.10.2019
5133 Clouds 10 1024 66 10000 3.1 50 12:37 29.10.2019
5134 Clouds 10 1024 76 10000 1 0 12:19 29.10.2019
5135 Clouds 9 1025 81 8000 1.5 40 11:42 29.10.2019
5136 Clouds 9 1025 81 8000 1.5 40 11:42 29.10.2019
5137 Mist 9 1025 93 4000 1 10 11:22 29.10.2019
5138 Clouds 8 1025 81 10000 1 0 10:58 29.10.2019
5139 Clouds 7 1024 93 10000 1 0 10:39 29.10.2019
5140 Clouds 7 1024 93 10000 0.5 0 10:20 29.10.2019
5141 Clouds 7 1024 93 10000 0.5 0 09:59 29.10.2019
5142 Fog 6 1024 100 10000 0.5 0 09:41 29.10.2019
5143 Fog 6 1024 93 10000 0.5 0 09:22 29.10.2019
5144 Fog 5 1024 100 7000 0.5 0 08:54 29.10.2019
5145 Fog 5 1024 100 7000 0.5 0 08:36 29.10.2019
5146 Fog 5 1023 93 7000 0.5 150 08:18 29.10.2019
5147 Fog 5 1023 100 6000 1 70 07:44 29.10.2019
5148 Fog 5 1022 100 7000 1.86 33 07:19 29.10.2019
5149 Clouds 5 1022 100 10000 0.5 0 06:46 29.10.2019
5150 Clouds 5 1022 100 10000 0.5 0 06:26 29.10.2019
5151 Mist 5 1022 93 1400 1.5 40 05:52 29.10.2019
5152 Mist 5 1022 93 1400 1.5 40 05:34 29.10.2019
5153 Mist 5 1022 93 1400 1 70 04:33 29.10.2019
5154 Fog 5 1022 100 800 1 50 02:34 29.10.2019
5155 Fog 5 1022 93 600 2.1 50 01:54 29.10.2019
5156 Fog 5 1022 100 600 1 0 01:23 29.10.2019
5157 Fog 5 1022 100 600 1.5 90 00:51 29.10.2019
5158 Mist 5 1022 100 1800 1.5 80 23:58 28.10.2019
5159 Mist 5 1022 100 1800 1.5 80 23:37 28.10.2019
5160 Fog 5 1022 100 700 1 0 23:19 28.10.2019
5161 Fog 5 1023 100 800 1.5 70 22:39 28.10.2019
5162 Fog 5 1023 100 800 1.5 70 22:20 28.10.2019
5163 Fog 6 1023 100 400 1.5 80 21:57 28.10.2019
5164 Fog 6 1023 100 400 1.5 80 21:39 28.10.2019
5165 Fog 6 1023 100 300 1 0 21:21 28.10.2019
5166 Fog 6 1023 100 300 1 0 20:57 28.10.2019
5167 Fog 6 1023 100 400 0.5 0 20:39 28.10.2019
5168 Fog 6 1023 93 600 1.5 50 20:20 28.10.2019
5169 Mist 6 1023 93 4500 1.5 60 19:54 28.10.2019
5170 Mist 6 1023 93 4500 1.5 60 19:54 28.10.2019
5171 Mist 6 1023 93 4500 1.5 60 19:36 28.10.2019
5172 Mist 6 1023 100 4500 1.5 90 19:18 28.10.2019
5173 Clouds 7 1023 93 6000 1.5 100 18:56 28.10.2019
5174 Clouds 7 1023 93 6000 1.5 100 18:38 28.10.2019
5175 Clouds 7 1023 93 8000 2.1 90 18:20 28.10.2019
5176 Clouds 7 1023 87 10000 1.5 120 17:55 28.10.2019
5177 Clouds 8 1023 87 10000 1.5 120 17:36 28.10.2019
5178 Clear 9 1022 93 10000 1.5 120 17:18 28.10.2019
5179 Clouds 9 1023 87 10000 2.1 100 16:54 28.10.2019
5180 Clouds 9 1023 87 10000 2.1 100 16:36 28.10.2019
5181 Clouds 9 1023 87 10000 2.1 100 16:36 28.10.2019
5182 Clouds 10 1023 81 10000 1.5 90 16:18 28.10.2019
5183 Clouds 10 1023 81 10000 1.5 60 15:55 28.10.2019
5184 Clouds 10 1023 81 10000 1.5 60 15:37 28.10.2019
5185 Clouds 10 1023 87 10000 1.5 140 15:18 28.10.2019
5186 Clouds 10 1023 87 6000 1.5 70 14:54 28.10.2019
5187 Clouds 10 1023 87 6000 1.5 70 14:36 28.10.2019
5188 Clouds 10 1024 93 6000 1.5 130 14:18 28.10.2019
5189 Clouds 10 1024 93 6000 1 0 13:41 28.10.2019
5190 Clouds 9 1024 93 6000 2.1 50 13:19 28.10.2019
5191 Clouds 10 1024 93 6000 2.1 50 12:59 28.10.2019
5192 Mist 10 1024 100 4500 2.1 100 12:40 28.10.2019
5193 Clouds 10 1024 76 10000 1.5 220 12:19 28.10.2019
5194 Mist 10 1025 100 1500 2.6 150 11:38 28.10.2019
5195 Mist 8 1025 100 1000 2.6 150 11:20 28.10.2019
5196 Fog 7 1025 93 600 2.1 100 10:56 28.10.2019
5197 Fog 7 1025 93 600 2.1 100 10:38 28.10.2019
5198 Fog 6 1025 100 400 2.1 120 10:19 28.10.2019
5199 Fog 6 1025 100 300 2.1 120 09:54 28.10.2019
5200 Fog 5 1025 100 300 2.1 120 09:36 28.10.2019
5201 Fog 5 1024 100 400 2.1 120 09:18 28.10.2019
5202 Fog 4 1024 100 500 2.1 130 08:55 28.10.2019
5203 Fog 4 1024 100 500 2.1 130 08:37 28.10.2019
5204 Fog 2 1024 82 600 1 0 08:18 28.10.2019
5205 Fog 3 1024 100 8000 1 0 07:42 28.10.2019
5206 Fog 3 1024 100 10000 2.1 70 07:21 28.10.2019
5207 Clouds 3 1023 93 10000 0.75 160 06:56 28.10.2019
5208 Clear 3 1023 100 10000 3.6 160 06:34 28.10.2019
5209 Clear 3 1024 80 10000 1.5 70 04:49 28.10.2019
5210 Clear 4 1024 100 10000 1 70 03:44 28.10.2019
5211 Clear 4 1024 100 10000 0.5 0 02:45 28.10.2019
5212 Clouds 4 1024 93 10000 2.1 60 01:36 28.10.2019
5213 Clouds 5 1024 93 10000 0.5 0 00:46 28.10.2019
5214 Clouds 5 1024 93 10000 0.5 0 00:24 28.10.2019
5215 Clouds 5 1024 100 10000 0.5 0 23:44 27.10.2019
5216 Clouds 5 1024 100 10000 0.5 0 23:44 27.10.2019
5217 Clouds 5 1024 93 10000 1 0 23:21 27.10.2019
5218 Clouds 5 1024 100 10000 0.5 0 22:56 27.10.2019
5219 Clouds 5 1024 100 10000 0.5 0 22:37 27.10.2019
5220 Clouds 5 1023 93 10000 0.5 0 22:19 27.10.2019
5221 Clouds 5 1023 93 10000 0.5 0 21:55 27.10.2019
5222 Clouds 6 1023 93 10000 0.5 0 21:37 27.10.2019
5223 Clouds 6 1023 93 10000 1 60 21:18 27.10.2019
5224 Clouds 6 1023 93 10000 0.5 0 20:41 27.10.2019
5225 Clouds 6 1023 93 10000 0.5 0 20:23 27.10.2019
5226 Clouds 7 1023 93 10000 0.5 0 19:58 27.10.2019
5227 Clouds 7 1023 93 10000 0.5 0 19:39 27.10.2019
5228 Clouds 7 1022 93 10000 0.5 0 19:20 27.10.2019
5229 Clouds 7 1022 93 10000 0.5 0 19:20 27.10.2019
5230 Clouds 7 1022 93 10000 0.5 0 18:57 27.10.2019
5231 Clouds 8 1022 87 10000 2.33 297 18:39 27.10.2019
5232 Clouds 8 1022 81 10000 1 0 18:21 27.10.2019
5233 Clouds 9 1022 76 10000 1.5 310 17:55 27.10.2019
5234 Clouds 9 1022 76 10000 1.5 310 17:37 27.10.2019
5235 Clouds 10 1022 71 10000 2.6 320 17:19 27.10.2019
5236 Clouds 10 1022 71 10000 3.6 320 16:55 27.10.2019
5237 Clouds 10 1022 71 10000 3.6 320 16:37 27.10.2019
5238 Clouds 10 1021 76 10000 3.1 310 16:19 27.10.2019
5239 Clouds 10 1021 76 10000 2.6 320 15:55 27.10.2019
5240 Clouds 10 1021 76 10000 2.6 320 15:37 27.10.2019
5241 Clouds 10 1021 81 10000 3.6 310 15:18 27.10.2019
5242 Clouds 10 1021 76 10000 3.6 270 14:41 27.10.2019
5243 Clouds 10 1021 81 10000 3.1 270 14:20 27.10.2019
5244 Clouds 10 1021 81 10000 3.1 280 13:56 27.10.2019
5245 Clouds 10 1021 81 10000 3.1 280 13:38 27.10.2019
5246 Clouds 10 1021 76 10000 2.6 260 13:19 27.10.2019
5247 Clouds 10 1021 81 10000 2.6 260 12:45 27.10.2019
5248 Rain 10 1021 81 10000 2.6 260 12:24 27.10.2019
5249 Rain 10 1021 87 10000 3.1 260 11:57 27.10.2019
5250 Rain 10 1021 87 10000 3.1 260 11:38 27.10.2019
5251 Rain 10 1021 87 10000 3.1 260 11:20 27.10.2019
5252 Rain 10 1021 87 10000 2.6 250 10:44 27.10.2019
5253 Rain 10 1021 87 10000 2.6 250 10:24 27.10.2019
5254 Rain 10 1021 87 10000 2.6 250 09:56 27.10.2019
5255 Rain 9 1020 93 10000 1.5 310 09:37 27.10.2019
5256 Rain 10 1020 93 10000 1.5 340 09:18 27.10.2019
5257 Rain 9 1020 93 10000 1.5 340 09:18 27.10.2019
5258 Rain 9 1020 93 6000 2.6 340 08:42 27.10.2019
5259 Rain 9 1019 93 6000 6.7 340 08:22 27.10.2019
5260 Rain 9 1019 93 6000 6.7 340 07:59 27.10.2019
5261 Rain 10 1018 100 10000 6.2 310 07:41 27.10.2019
5262 Rain 10 1017 93 10000 6.2 320 07:20 27.10.2019
5263 Rain 10 1016 93 10000 7.2 320 06:47 27.10.2019
5264 Rain 11 1015 87 10000 9.8 320 06:26 27.10.2019
5265 Rain 12 1015 87 10000 4.6 230 05:39 27.10.2019
5266 Rain 14 1014 77 10000 6.2 250 04:54 27.10.2019
5267 Clouds 16 1014 63 10000 4.1 200 02:55 27.10.2019
5268 Clouds 16 1014 63 10000 4.1 200 02:55 27.10.2019
5269 Clouds 16 1014 72 10000 4.6 150 01:49 27.10.2019
5270 Clouds 16 1014 67 10000 5.7 150 01:21 27.10.2019
5271 Clouds 16 1014 67 10000 5.7 140 00:46 27.10.2019
5272 Clouds 16 1014 67 10000 5.7 140 00:24 27.10.2019
5273 Clouds 16 1014 77 10000 5.1 140 23:56 26.10.2019
5274 Clouds 16 1014 77 10000 5.1 140 23:56 26.10.2019
5275 Clouds 16 1014 77 10000 5.1 150 23:37 26.10.2019
5276 Clouds 16 1014 76 10000 4.6 150 23:19 26.10.2019
5277 Clouds 16 1014 72 10000 3.1 150 22:55 26.10.2019
5278 Clouds 16 1014 72 10000 3.1 150 22:36 26.10.2019
5279 Clouds 16 1014 72 10000 3.6 150 22:18 26.10.2019
5280 Clouds 16 1014 72 10000 3.6 150 22:18 26.10.2019
5281 Clouds 16 1014 72 10000 6.2 150 21:43 26.10.2019
5282 Clouds 16 1014 76 10000 4.6 150 21:21 26.10.2019
5283 Clouds 16 1014 67 10000 3.6 130 20:55 26.10.2019
5284 Clouds 16 1014 67 10000 3.6 130 20:36 26.10.2019
5285 Clouds 16 1014 67 10000 3.6 130 20:36 26.10.2019
5286 Clouds 16 1014 63 10000 4.1 130 20:18 26.10.2019
5287 Clouds 16 1014 63 10000 4.6 140 19:42 26.10.2019
5288 Clouds 16 1014 67 10000 4.1 160 19:20 26.10.2019
5289 Clouds 17 1014 67 10000 4.6 160 18:57 26.10.2019
5290 Clouds 17 1014 67 10000 4.6 160 18:38 26.10.2019
5291 Clouds 18 1014 67 10000 4.1 160 18:19 26.10.2019
5292 Clouds 18 1014 63 10000 4.6 170 17:56 26.10.2019
5293 Clouds 18 1014 63 10000 4.6 170 17:37 26.10.2019
5294 Clouds 19 1014 63 10000 4.6 160 17:19 26.10.2019
5295 Clouds 19 1014 59 10000 5.1 160 16:43 26.10.2019
5296 Clouds 19 1014 56 10000 5.7 160 16:25 26.10.2019
5297 Clouds 19 1014 56 10000 5.7 160 16:25 26.10.2019
5298 Clouds 20 1014 56 10000 5.7 160 15:59 26.10.2019
5299 Clouds 20 1014 56 10000 5.1 170 15:37 26.10.2019
5300 Clouds 20 1015 56 10000 5.1 170 15:18 26.10.2019
5301 Clouds 20 1015 60 10000 4.6 180 14:38 26.10.2019
5302 Clouds 20 1016 48 0 5.46 189 14:19 26.10.2019
5303 Clouds 20 1016 48 0 5.46 189 13:55 26.10.2019
5304 Clouds 20 1016 48 0 5.46 189 13:36 26.10.2019
5305 Clouds 20 1016 48 0 5.46 189 13:18 26.10.2019
5306 Clouds 16 1025 69 0 2.24 68 12:42 26.10.2019
5307 Clouds 15 1017 82 10000 4.1 130 12:19 26.10.2019
5308 Clouds 16 1017 82 10000 4.1 130 11:47 26.10.2019
5309 Clouds 15 1017 82 10000 4.1 130 11:25 26.10.2019
5310 Clouds 15 1017 82 10000 4.1 140 10:47 26.10.2019
5311 Clouds 14 1017 82 10000 4.1 140 10:27 26.10.2019
5312 Clouds 13 1017 82 10000 3.6 140 09:50 26.10.2019
5313 Clouds 14 1017 82 10000 4.6 150 09:30 26.10.2019
5314 Clouds 14 1017 82 10000 4.6 170 08:57 26.10.2019
5315 Clouds 14 1017 82 10000 4.6 170 08:39 26.10.2019
5316 Clouds 13 1018 82 10000 4.6 150 08:21 26.10.2019
5317 Clouds 14 1018 82 10000 4.1 140 07:43 26.10.2019
5318 Clouds 14 1018 82 10000 4.1 140 07:23 26.10.2019
5319 Clouds 14 1018 82 10000 4.1 140 06:41 26.10.2019
5320 Clouds 14 1018 82 10000 4.6 140 06:18 26.10.2019
5321 Clouds 14 1018 82 10000 4.1 150 05:19 26.10.2019
5322 Clouds 15 1018 76 10000 4.1 130 04:23 26.10.2019
5323 Clouds 14 1019 76 10000 4.1 140 02:45 26.10.2019
5324 Clouds 14 1019 82 10000 5.7 160 01:51 26.10.2019
5325 Clouds 14 1019 82 10000 4.6 150 01:20 26.10.2019
5326 Clouds 13 1019 81 10000 4.1 160 00:23 26.10.2019
5327 Clouds 13 1020 76 10000 4.1 140 23:43 25.10.2019
5328 Clouds 14 1020 76 10000 3.6 150 23:20 25.10.2019
5329 Clouds 14 1020 81 10000 3.6 150 22:40 25.10.2019
5330 Clouds 14 1020 87 10000 3.1 150 22:22 25.10.2019
5331 Clouds 14 1020 87 10000 3.1 150 21:58 25.10.2019
5332 Clouds 14 1020 87 10000 3.1 150 21:58 25.10.2019
5333 Clouds 14 1019 81 10000 3.1 130 21:40 25.10.2019
5334 Clouds 14 1019 76 10000 3.6 140 21:19 25.10.2019
5335 Clouds 14 1020 81 10000 4.1 150 20:56 25.10.2019
5336 Clouds 14 1020 81 10000 4.1 150 20:38 25.10.2019
5337 Clouds 14 1020 76 10000 5.1 150 20:18 25.10.2019
5338 Clouds 14 1020 76 10000 3.1 170 19:43 25.10.2019
5339 Clouds 14 1020 71 10000 3.6 160 19:25 25.10.2019
5340 Clouds 15 1020 67 10000 3.6 180 18:45 25.10.2019
5341 Clouds 15 1020 62 10000 3.6 190 18:23 25.10.2019
5342 Clouds 16 1020 59 10000 4.1 200 17:42 25.10.2019
5343 Clouds 16 1020 55 10000 4.1 190 17:22 25.10.2019
5344 Clouds 16 1020 55 10000 6.2 210 16:58 25.10.2019
5345 Clouds 16 1020 55 10000 6.2 210 16:40 25.10.2019
5346 Clouds 17 1020 55 10000 5.1 200 16:19 25.10.2019
5347 Clouds 17 1020 55 10000 4.1 210 15:41 25.10.2019
5348 Clouds 17 1020 59 10000 5.7 210 15:23 25.10.2019
5349 Clouds 16 1021 59 10000 5.1 210 14:59 25.10.2019
5350 Clouds 16 1021 59 10000 5.1 210 14:40 25.10.2019
5351 Clouds 16 1021 55 10000 5.7 220 14:22 25.10.2019
5352 Clouds 16 1021 59 10000 5.7 220 13:44 25.10.2019
5353 Clouds 16 1021 59 10000 5.7 220 13:25 25.10.2019
5354 Clouds 15 1021 63 10000 5.1 220 12:58 25.10.2019
5355 Clouds 16 1021 63 10000 5.1 220 12:40 25.10.2019
5356 Clouds 16 1021 63 10000 5.1 220 12:40 25.10.2019
5357 Clouds 15 1021 62 10000 5.1 230 12:20 25.10.2019
5358 Clouds 14 1021 72 10000 4.1 220 11:56 25.10.2019
5359 Clouds 14 1021 72 10000 4.1 220 11:37 25.10.2019
5360 Clouds 14 1020 72 10000 3.1 210 11:18 25.10.2019
5361 Clouds 13 1020 76 10000 3.6 200 10:40 25.10.2019
5362 Clouds 13 1020 87 10000 2.6 180 10:21 25.10.2019
5363 Clouds 13 1020 87 10000 2.6 180 09:57 25.10.2019
5364 Clouds 12 1019 87 10000 2.6 170 09:38 25.10.2019
5365 Clouds 12 1019 82 10000 2.1 210 09:19 25.10.2019
5366 Clouds 12 1019 82 10000 3.1 240 08:48 25.10.2019
5367 Clouds 12 1019 82 10000 3.1 240 08:29 25.10.2019
5368 Clouds 12 1017 82 10000 4.6 240 07:55 25.10.2019
5369 Clouds 12 1017 82 10000 4.6 240 07:34 25.10.2019
5370 Clouds 13 1017 76 10000 2.1 210 06:42 25.10.2019
5371 Clouds 13 1016 76 10000 2.1 190 05:54 25.10.2019
5372 Clouds 14 1016 76 10000 2.6 190 05:33 25.10.2019
5373 Clouds 14 1016 76 10000 3.6 200 04:52 25.10.2019
5374 Clouds 14 1015 76 10000 3.6 180 03:37 25.10.2019
5375 Clouds 14 1014 76 10000 4.6 170 01:54 25.10.2019
5376 Clouds 14 1013 76 10000 4.1 150 00:59 25.10.2019
5377 Clouds 14 1013 76 10000 5.1 150 00:21 25.10.2019
5378 Clouds 14 1013 72 10000 4.6 140 23:41 24.10.2019
5379 Clouds 14 1013 76 10000 4.1 150 23:22 24.10.2019
5380 Clouds 14 1013 76 10000 2.6 160 22:56 24.10.2019
5381 Clouds 14 1013 76 10000 2.6 160 22:37 24.10.2019
5382 Clouds 15 1012 76 10000 3.6 160 22:18 24.10.2019
5383 Clouds 15 1012 76 10000 4.6 160 21:56 24.10.2019
5384 Clouds 15 1012 76 10000 4.6 160 21:56 24.10.2019
5385 Clouds 15 1012 76 10000 4.6 160 21:38 24.10.2019
5386 Clouds 15 1012 76 10000 4.1 180 21:19 24.10.2019
5387 Clouds 15 1012 76 10000 4.1 180 21:19 24.10.2019
5388 Clouds 16 1011 77 10000 4.6 170 20:57 24.10.2019
5389 Clouds 16 1011 77 10000 4.6 170 20:38 24.10.2019
5390 Clouds 16 1011 72 10000 3.6 160 20:20 24.10.2019
5391 Clouds 16 1010 72 10000 3.6 160 19:54 24.10.2019
5392 Clouds 17 1010 72 10000 3.6 160 19:36 24.10.2019
5393 Clouds 17 1010 72 10000 4.1 170 19:18 24.10.2019
5394 Clouds 17 1010 72 10000 4.1 170 19:18 24.10.2019
5395 Clouds 17 1009 63 10000 4.6 190 18:40 24.10.2019
5396 Clouds 18 1009 63 10000 4.6 210 18:22 24.10.2019
5397 Clouds 18 1009 55 10000 3.6 210 17:59 24.10.2019
5398 Clouds 19 1009 55 10000 3.6 210 17:40 24.10.2019
5399 Clouds 19 1008 56 10000 3.6 180 17:20 24.10.2019
5400 Clouds 19 1008 68 10000 4.1 170 16:56 24.10.2019
5401 Clouds 19 1008 68 10000 4.1 170 16:37 24.10.2019
5402 Clouds 20 1008 64 10000 5.7 150 16:19 24.10.2019
5403 Clouds 20 1008 68 10000 5.1 140 15:56 24.10.2019
5404 Clouds 20 1008 68 10000 5.1 140 15:56 24.10.2019
5405 Clouds 19 1008 68 10000 5.1 140 15:38 24.10.2019
5406 Clouds 20 1008 63 10000 5.1 160 15:19 24.10.2019
5407 Clouds 20 1009 60 10000 4.6 170 14:55 24.10.2019
5408 Clouds 20 1009 60 10000 4.6 170 14:37 24.10.2019
5409 Clouds 19 1009 60 10000 4.6 170 14:18 24.10.2019
5410 Clouds 19 1009 72 10000 4.1 160 13:40 24.10.2019
5411 Clouds 18 1009 72 10000 3.6 150 13:19 24.10.2019
5412 Clouds 17 1009 72 10000 3.6 150 12:57 24.10.2019
5413 Clouds 17 1009 72 10000 4.1 140 12:39 24.10.2019
5414 Clouds 16 1009 77 10000 2.6 130 12:19 24.10.2019
5415 Clouds 15 1009 82 10000 3.6 140 11:56 24.10.2019
5416 Clouds 15 1009 82 10000 3.6 140 11:56 24.10.2019
5417 Clouds 15 1009 82 10000 3.6 140 11:38 24.10.2019
5418 Clouds 14 1009 87 10000 4.1 150 11:19 24.10.2019
5419 Clouds 14 1008 82 10000 2.6 100 10:57 24.10.2019
5420 Clouds 14 1008 82 10000 2.6 100 10:38 24.10.2019
5421 Clouds 13 1008 87 10000 2.6 130 10:20 24.10.2019
5422 Clouds 12 1008 87 10000 3.1 80 09:38 24.10.2019
5423 Clouds 12 1008 87 10000 3.1 80 09:38 24.10.2019
5424 Clouds 12 1009 93 10000 3.1 120 09:18 24.10.2019
5425 Clouds 12 1009 93 10000 3.1 120 08:54 24.10.2019
5426 Clouds 12 1009 87 10000 3.6 140 08:36 24.10.2019
5427 Clouds 12 1008 93 10000 4.1 130 08:18 24.10.2019
5428 Clouds 12 1008 93 10000 4.1 140 07:42 24.10.2019
5429 Clouds 12 1008 93 10000 4.1 140 07:21 24.10.2019
5430 Clouds 11 1008 93 10000 4.1 130 06:40 24.10.2019
5431 Clouds 12 1008 93 10000 4.1 140 06:20 24.10.2019
5432 Clouds 11 1008 93 10000 4.1 140 05:48 24.10.2019
5433 Clouds 12 1008 93 10000 4.1 140 05:28 24.10.2019
5434 Clouds 12 1009 93 10000 2.1 90 03:37 24.10.2019
5435 Clouds 12 1009 93 10000 1.5 140 02:55 24.10.2019
5436 Clouds 12 1009 87 10000 1.5 140 02:25 24.10.2019
5437 Clouds 12 1009 93 10000 2.1 100 01:51 24.10.2019
5438 Clouds 12 1009 93 10000 2.1 100 01:27 24.10.2019
5439 Clouds 12 1009 87 10000 3.1 110 00:41 24.10.2019
5440 Clouds 12 1010 82 10000 3.6 120 00:23 24.10.2019
5441 Clouds 12 1010 82 10000 4.6 130 23:43 23.10.2019
5442 Clouds 13 1010 82 10000 3.6 120 23:23 23.10.2019
5443 Clouds 13 1010 82 10000 4.6 130 22:57 23.10.2019
5444 Clouds 13 1010 82 10000 4.6 130 22:38 23.10.2019
5445 Clouds 13 1010 82 10000 4.6 140 22:19 23.10.2019
5446 Clouds 13 1011 82 10000 3.6 130 21:57 23.10.2019
5447 Clouds 13 1011 82 10000 3.6 130 21:38 23.10.2019
5448 Clouds 13 1011 87 10000 3.6 120 21:20 23.10.2019
5449 Clouds 13 1011 87 10000 3.1 120 20:58 23.10.2019
5450 Clouds 13 1011 87 10000 3.1 120 20:39 23.10.2019
5451 Clouds 13 1011 87 10000 3.1 120 20:39 23.10.2019
5452 Clouds 13 1011 87 10000 2.6 120 20:20 23.10.2019
5453 Clouds 13 1012 87 10000 2.6 120 19:58 23.10.2019
5454 Clouds 13 1012 87 10000 2.6 120 19:39 23.10.2019
5455 Clouds 14 1012 82 10000 3.6 120 19:18 23.10.2019
5456 Clouds 14 1012 82 10000 4.6 130 18:55 23.10.2019
5457 Clouds 14 1012 82 10000 4.6 130 18:36 23.10.2019
5458 Clouds 15 1012 82 10000 4.1 130 18:18 23.10.2019
5459 Clouds 15 1012 82 10000 4.1 130 17:44 23.10.2019
5460 Clouds 15 1013 82 10000 6.2 150 17:20 23.10.2019
5461 Clouds 15 1013 82 10000 6.2 150 17:20 23.10.2019
5462 Clouds 16 1013 82 10000 6.2 150 16:58 23.10.2019
5463 Clouds 16 1013 77 10000 6.7 160 16:39 23.10.2019
5464 Clouds 16 1013 77 10000 6.2 160 16:20 23.10.2019
5465 Clouds 16 1013 72 10000 6.2 160 15:42 23.10.2019
5466 Clouds 16 1013 72 10000 6.2 160 15:42 23.10.2019
5467 Clouds 16 1014 77 10000 5.1 150 15:23 23.10.2019
5468 Clouds 16 1014 77 10000 5.1 150 14:58 23.10.2019
5469 Clouds 16 1014 77 10000 6.7 150 14:39 23.10.2019
5470 Clouds 16 1015 77 10000 5.7 160 14:20 23.10.2019
5471 Clouds 16 1015 77 10000 5.7 160 13:59 23.10.2019
5472 Clouds 16 1015 77 10000 6.2 160 13:41 23.10.2019
5473 Clouds 15 1015 77 10000 5.1 150 13:23 23.10.2019
5474 Clouds 15 1016 72 10000 3.6 170 12:56 23.10.2019
5475 Clouds 15 1016 72 10000 3.6 170 12:37 23.10.2019
5476 Clouds 14 1016 72 10000 2.6 160 12:18 23.10.2019
5477 Clouds 14 1016 72 10000 2.6 150 11:57 23.10.2019
5478 Clouds 14 1016 72 10000 2.6 150 11:38 23.10.2019
5479 Clouds 13 1017 81 10000 1 0 11:20 23.10.2019
5480 Clouds 12 1017 82 10000 1.5 0 10:46 23.10.2019
5481 Clouds 12 1017 87 10000 1 0 10:26 23.10.2019
5482 Clouds 12 1017 87 10000 1 0 10:26 23.10.2019
5483 Clouds 11 1018 93 10000 0.5 0 09:58 23.10.2019
5484 Clouds 11 1018 93 10000 0.5 0 09:39 23.10.2019
5485 Clouds 10 1018 100 10000 2.6 160 09:20 23.10.2019
5486 Clouds 10 1018 100 10000 1.5 130 08:43 23.10.2019
5487 Clouds 10 1018 100 10000 0.5 0 08:25 23.10.2019
5488 Clouds 10 1018 100 10000 1 80 07:47 23.10.2019
5489 Clouds 10 1018 100 10000 1 80 07:27 23.10.2019
5490 Clouds 10 1019 93 10000 0.5 80 06:48 23.10.2019
5491 Clouds 10 1019 93 10000 1.5 50 06:23 23.10.2019
5492 Clouds 10 1019 93 10000 1.5 50 05:59 23.10.2019
5493 Clouds 10 1020 100 10000 1.5 140 05:18 23.10.2019
5494 Clouds 10 1021 100 10000 1 0 03:46 23.10.2019
5495 Clouds 10 1021 100 10000 0.5 0 02:42 23.10.2019
5496 Clouds 10 1022 93 10000 1.5 40 01:40 23.10.2019
5497 Clouds 10 1023 93 10000 0.5 0 00:59 23.10.2019
5498 Clouds 11 1022 93 10000 0.5 0 00:33 23.10.2019
5499 Clouds 11 1023 93 10000 1 40 23:55 22.10.2019
5500 Clouds 11 1023 87 10000 1 0 23:37 22.10.2019
5501 Clouds 11 1023 87 10000 0.5 140 23:18 22.10.2019
5502 Clouds 11 1023 87 10000 1.5 70 22:40 22.10.2019
5503 Clouds 11 1023 87 10000 2.1 120 22:22 22.10.2019
5504 Clouds 10 1023 87 10000 1 0 21:57 22.10.2019
5505 Clouds 10 1023 87 10000 1 0 21:38 22.10.2019
5506 Clouds 10 1024 87 10000 1 0 21:19 22.10.2019
5507 Clouds 10 1024 87 10000 2.1 70 20:58 22.10.2019
5508 Clouds 10 1024 87 10000 2.1 70 20:40 22.10.2019
5509 Clouds 10 1024 87 10000 2.6 70 20:22 22.10.2019
5510 Clouds 10 1024 87 10000 2.6 70 20:22 22.10.2019
5511 Clouds 11 1024 87 10000 2.6 70 19:59 22.10.2019
5512 Clouds 11 1024 93 10000 1.5 50 19:40 22.10.2019
5513 Clouds 11 1024 87 10000 1 50 19:22 22.10.2019
5514 Clouds 12 1023 82 10000 1.5 10 18:56 22.10.2019
5515 Clouds 13 1023 82 10000 1.5 10 18:38 22.10.2019
5516 Clouds 13 1024 82 10000 2.1 360 18:20 22.10.2019
5517 Clouds 14 1024 76 10000 2.1 340 17:55 22.10.2019
5518 Clouds 14 1024 76 10000 2.1 340 17:36 22.10.2019
5519 Clouds 14 1024 71 10000 1 340 17:18 22.10.2019
5520 Clouds 14 1024 72 10000 2.1 320 16:55 22.10.2019
5521 Clouds 14 1024 72 10000 2.1 320 16:36 22.10.2019
5522 Clouds 14 1024 72 10000 1.5 320 16:18 22.10.2019
5523 Clouds 15 1024 72 10000 1 0 15:42 22.10.2019
5524 Clouds 14 1024 72 10000 1 0 15:20 22.10.2019
5525 Clouds 14 1025 76 10000 1.5 0 14:50 22.10.2019
5526 Clouds 14 1024 76 10000 1 0 14:22 22.10.2019
5527 Clouds 14 1025 76 10000 1 0 13:59 22.10.2019
5528 Clouds 13 1025 76 10000 1 0 13:41 22.10.2019
5529 Clouds 13 1025 76 10000 2.1 150 13:19 22.10.2019
5530 Clouds 13 1025 76 10000 2.1 150 12:55 22.10.2019
5531 Clouds 13 1026 81 10000 2.6 130 12:37 22.10.2019
5532 Clouds 12 1025 87 10000 1.5 150 12:19 22.10.2019
5533 Clouds 12 1025 81 10000 3.1 140 11:41 22.10.2019
5534 Clouds 12 1025 87 10000 2.6 150 11:22 22.10.2019
5535 Clouds 11 1025 87 10000 2.6 150 10:59 22.10.2019
5536 Clouds 11 1025 87 10000 2.6 140 10:38 22.10.2019
5537 Clouds 11 1025 87 10000 2.6 150 10:19 22.10.2019
5538 Clouds 11 1025 87 10000 2.6 150 10:19 22.10.2019
5539 Clouds 11 1024 93 10000 3.1 140 09:58 22.10.2019
5540 Clouds 11 1024 93 10000 3.1 140 09:40 22.10.2019
5541 Clouds 11 1024 87 10000 2.1 170 09:21 22.10.2019
5542 Clouds 10 1024 87 10000 2.1 170 08:55 22.10.2019
5543 Clouds 10 1024 93 10000 2.1 200 08:37 22.10.2019
5544 Clouds 10 1023 93 10000 2.1 150 08:18 22.10.2019
5545 Clouds 11 1023 93 10000 3.6 150 07:44 22.10.2019
5546 Clouds 10 1022 87 10000 2.1 140 07:24 22.10.2019
5547 Clouds 11 1023 93 10000 3.1 140 06:44 22.10.2019
5548 Clouds 10 1023 87 10000 3.1 140 06:25 22.10.2019
5549 Clouds 10 1023 87 10000 4.1 150 05:40 22.10.2019
5550 Clouds 10 1023 93 10000 3.1 150 04:22 22.10.2019
5551 Clouds 11 1023 93 10000 3.1 0 02:31 22.10.2019
5552 Clouds 11 1022 87 10000 3.6 140 01:39 22.10.2019
5553 Clouds 12 1022 81 10000 3.1 140 01:19 22.10.2019
5554 Clouds 12 1022 81 10000 3.6 140 00:42 22.10.2019
5555 Clouds 12 1022 81 10000 3.6 140 00:24 22.10.2019
5556 Clouds 12 1022 87 10000 2.1 160 23:59 21.10.2019
5557 Clouds 12 1022 87 10000 2.1 160 23:38 21.10.2019
5558 Clouds 12 1022 76 10000 3.1 140 23:19 21.10.2019
5559 Clouds 12 1022 76 10000 3.1 140 22:58 21.10.2019
5560 Clouds 12 1022 76 10000 3.1 140 22:39 21.10.2019
5561 Clouds 12 1022 76 10000 3.6 170 22:20 21.10.2019
5562 Clouds 12 1022 76 10000 3.6 170 21:58 21.10.2019
5563 Clouds 12 1021 76 10000 3.6 170 21:38 21.10.2019
5564 Clouds 12 1021 76 10000 3.1 150 21:20 21.10.2019
5565 Clouds 13 1021 76 10000 3.1 150 20:58 21.10.2019
5566 Clouds 13 1021 81 10000 3.6 160 20:39 21.10.2019
5567 Clouds 13 1021 76 10000 3.6 180 20:20 21.10.2019
5568 Clouds 13 1021 76 10000 3.1 170 19:57 21.10.2019
5569 Clouds 13 1021 76 10000 3.1 170 19:38 21.10.2019
5570 Clouds 13 1020 76 10000 3.1 180 19:20 21.10.2019
5571 Clouds 13 1020 71 10000 3.6 210 18:55 21.10.2019
5572 Clouds 13 1020 71 10000 3.6 210 18:36 21.10.2019
5573 Clouds 14 1020 67 10000 4.1 210 18:18 21.10.2019
5574 Clouds 14 1019 67 10000 6.2 220 17:55 21.10.2019
5575 Clouds 14 1019 67 10000 6.2 220 17:37 21.10.2019
5576 Clouds 14 1019 67 10000 4.1 250 17:18 21.10.2019
5577 Clouds 15 1019 67 10000 4.1 250 16:54 21.10.2019
5578 Clouds 15 1019 63 10000 5.1 240 16:36 21.10.2019
5579 Clouds 15 1018 67 10000 5.7 240 16:18 21.10.2019
5580 Clouds 15 1018 63 10000 7.2 230 15:42 21.10.2019
5581 Clouds 15 1018 63 10000 6.2 220 15:22 21.10.2019
5582 Clouds 15 1018 63 10000 5.7 220 14:56 21.10.2019
5583 Clouds 16 1018 63 10000 5.7 220 14:37 21.10.2019
5584 Clouds 16 1017 63 10000 6.2 230 14:18 21.10.2019
5585 Clouds 15 1017 67 10000 3.6 220 13:55 21.10.2019
5586 Clouds 16 1017 67 10000 3.6 220 13:37 21.10.2019
5587 Clouds 16 1017 67 10000 3.1 190 13:18 21.10.2019
5588 Clouds 16 1017 72 10000 3.6 180 12:41 21.10.2019
5589 Clouds 16 1016 77 10000 5.1 160 12:21 21.10.2019
5590 Clouds 16 1016 82 10000 3.6 140 11:55 21.10.2019
5591 Clouds 16 1016 82 10000 3.6 140 11:37 21.10.2019
5592 Clouds 15 1015 77 10000 4.6 140 11:18 21.10.2019
5593 Clouds 15 1015 82 10000 3.6 120 10:55 21.10.2019
5594 Clouds 15 1015 82 10000 3.6 120 10:55 21.10.2019
5595 Clouds 15 1015 82 10000 3.6 120 10:37 21.10.2019
5596 Clouds 14 1015 87 10000 4.1 130 10:18 21.10.2019
5597 Clouds 14 1014 87 10000 3.6 140 09:44 21.10.2019
5598 Clouds 13 1014 87 10000 3.6 140 09:25 21.10.2019
5599 Clouds 13 1013 93 10000 3.1 130 08:43 21.10.2019
5600 Clouds 13 1013 93 10000 4.1 140 08:24 21.10.2019
5601 Drizzle 13 1013 93 10000 4.1 140 07:59 21.10.2019
5602 Drizzle 13 1012 93 10000 3.1 130 07:38 21.10.2019
5603 Drizzle 12 1012 93 10000 2.6 110 07:19 21.10.2019
5604 Mist 12 1012 100 10000 1 0 06:53 21.10.2019
5605 Mist 12 1012 100 10000 1 0 06:35 21.10.2019
5606 Mist 12 1012 93 10000 2.1 130 05:55 21.10.2019
5607 Mist 12 1012 100 10000 2.1 150 05:55 21.10.2019
5608 Mist 12 1011 93 10000 1 0 04:45 21.10.2019
5609 Mist 12 1010 100 10000 0.5 0 03:26 21.10.2019
5610 Mist 12 1010 100 10000 2.1 100 02:23 21.10.2019
5611 Mist 12 1010 100 10000 2.1 100 02:23 21.10.2019
5612 Mist 12 1010 100 10000 0.5 0 01:57 21.10.2019
5613 Mist 12 1010 100 10000 0.5 0 01:23 21.10.2019
5614 Rain 12 1010 100 9000 2.1 120 00:47 21.10.2019
5615 Rain 12 1010 100 9000 2.1 120 00:25 21.10.2019
5616 Rain 12 1010 93 9000 2.6 170 23:42 20.10.2019
5617 Rain 12 1009 93 9000 1 0 23:22 20.10.2019
5618 Rain 12 1009 93 9000 1 0 23:22 20.10.2019
5619 Rain 12 1009 100 10000 1 0 22:57 20.10.2019
5620 Rain 12 1009 100 10000 1 0 22:39 20.10.2019
5621 Rain 12 1009 100 10000 2.6 240 22:19 20.10.2019
5622 Rain 12 1009 100 10000 2.6 240 21:58 20.10.2019
5623 Rain 12 1008 93 10000 1 0 21:39 20.10.2019
5624 Rain 12 1008 100 10000 1 0 21:21 20.10.2019
5625 Rain 12 1008 93 10000 2.6 170 20:42 20.10.2019
5626 Rain 12 1008 100 5000 2.6 150 20:20 20.10.2019
5627 Rain 12 1008 100 5000 2.1 250 19:57 20.10.2019
5628 Rain 12 1008 100 5000 2.1 250 19:57 20.10.2019
5629 Rain 12 1008 100 5000 2.1 250 19:39 20.10.2019
5630 Rain 12 1007 100 5000 1 0 19:20 20.10.2019
5631 Rain 12 1007 100 10000 1.5 150 18:56 20.10.2019
5632 Rain 12 1007 100 10000 1.5 150 18:56 20.10.2019
5633 Rain 12 1007 100 10000 1.5 150 18:38 20.10.2019
5634 Rain 12 1007 93 8000 1.5 120 18:20 20.10.2019
5635 Rain 12 1007 100 8000 0.5 0 17:56 20.10.2019
5636 Rain 12 1007 100 8000 0.5 0 17:37 20.10.2019
5637 Rain 12 1007 93 8000 1.5 300 17:18 20.10.2019
5638 Rain 12 1007 93 10000 1.5 290 16:42 20.10.2019
5639 Rain 12 1007 93 10000 1.5 290 16:42 20.10.2019
5640 Rain 12 1007 93 10000 2.1 350 16:23 20.10.2019
5641 Rain 12 1007 93 10000 2.1 350 15:58 20.10.2019
5642 Rain 12 1006 93 10000 1 0 15:38 20.10.2019
5643 Rain 12 1007 93 10000 1.5 60 15:20 20.10.2019
5644 Rain 12 1007 93 10000 1.5 60 14:58 20.10.2019
5645 Rain 12 1007 100 10000 1 0 14:38 20.10.2019
5646 Rain 12 1007 93 10000 1 0 14:19 20.10.2019
5647 Rain 12 1007 93 10000 1 0 13:55 20.10.2019
5648 Rain 12 1007 93 10000 1 0 13:37 20.10.2019
5649 Rain 12 1007 93 10000 1.5 50 13:18 20.10.2019
5650 Rain 12 1007 93 10000 1.5 50 13:18 20.10.2019
5651 Rain 12 1007 93 10000 1.5 50 12:56 20.10.2019
5652 Rain 12 1007 93 10000 1.5 50 12:38 20.10.2019
5653 Rain 12 1008 100 10000 1.5 40 12:20 20.10.2019
5654 Rain 12 1008 100 10000 1.5 50 11:55 20.10.2019
5655 Rain 12 1008 100 10000 1.5 50 11:37 20.10.2019
5656 Rain 12 1008 93 10000 1 0 11:19 20.10.2019
5657 Rain 12 1008 93 10000 1.5 80 10:41 20.10.2019
5658 Rain 12 1008 93 10000 2.1 70 10:22 20.10.2019
5659 Rain 12 1008 93 10000 2.1 60 09:58 20.10.2019
5660 Rain 11 1008 93 10000 2.1 60 09:40 20.10.2019
5661 Rain 11 1008 100 10000 2.1 70 09:21 20.10.2019
5662 Rain 11 1008 100 10000 1 0 08:49 20.10.2019
5663 Rain 11 1008 100 10000 0.5 0 08:24 20.10.2019
5664 Rain 11 1008 100 10000 0.5 0 08:24 20.10.2019
5665 Drizzle 11 1008 100 10000 1.5 100 07:50 20.10.2019
5666 Drizzle 11 1008 100 10000 1.5 100 07:31 20.10.2019
5667 Drizzle 11 1008 100 10000 1 0 06:59 20.10.2019
5668 Rain 11 1008 100 10000 1 0 06:21 20.10.2019
5669 Rain 11 1007 100 10000 2.6 130 04:28 20.10.2019
5670 Rain 11 1008 93 10000 2.6 140 03:47 20.10.2019
5671 Rain 11 1008 93 10000 2.1 140 03:20 20.10.2019
5672 Rain 11 1007 93 10000 2.6 120 02:43 20.10.2019
5673 Rain 11 1007 93 10000 2.6 140 01:58 20.10.2019
5674 Rain 11 1008 93 10000 2.6 140 01:24 20.10.2019
5675 Rain 11 1008 93 10000 2.6 160 00:58 20.10.2019
5676 Rain 11 1008 93 10000 2.1 140 00:39 20.10.2019
5677 Rain 11 1007 93 10000 2.6 140 00:20 20.10.2019
5678 Rain 11 1007 93 10000 2.6 140 23:42 19.10.2019
5679 Rain 12 1007 93 10000 2.1 130 23:23 19.10.2019
5680 Rain 12 1007 93 10000 2.1 130 22:57 19.10.2019
5681 Rain 12 1007 100 10000 2.6 150 22:38 19.10.2019
5682 Rain 12 1007 93 10000 1.5 130 22:20 19.10.2019
5683 Rain 12 1007 93 10000 1.5 0 21:46 19.10.2019
5684 Clear 12 1006 100 10000 2.1 150 21:24 19.10.2019
5685 Clear 12 1006 100 10000 2.1 150 20:57 19.10.2019
5686 Clear 12 1006 93 10000 3.6 150 20:38 19.10.2019
5687 Clear 12 1006 87 10000 2.6 140 20:20 19.10.2019
5688 Clouds 12 1006 93 10000 3.1 150 19:41 19.10.2019
5689 Rain 12 1006 87 0 3.6 150 19:23 19.10.2019
5690 Rain 12 1006 93 10000 2.6 160 18:43 19.10.2019
5691 Rain 13 1006 87 10000 3.6 190 18:25 19.10.2019
5692 Rain 13 1006 87 10000 3.6 190 17:59 19.10.2019
5693 Rain 13 1006 93 10000 3.6 170 17:37 19.10.2019
5694 Rain 13 1006 93 4500 5.1 200 17:19 19.10.2019
5695 Rain 13 1005 93 10000 2.6 140 16:54 19.10.2019
5696 Rain 13 1005 93 10000 2.6 140 16:36 19.10.2019
5697 Rain 13 1005 87 10000 3.1 180 16:18 19.10.2019
5698 Rain 14 1005 87 10000 4.1 170 15:40 19.10.2019
5699 Rain 14 1005 87 10000 4.1 170 15:40 19.10.2019
5700 Rain 14 1005 87 10000 5.1 170 15:22 19.10.2019
5701 Rain 14 1005 93 10000 4.1 180 14:38 19.10.2019
5702 Rain 14 1005 77 10000 6.2 170 14:20 19.10.2019
5703 Rain 14 1005 77 10000 6.2 170 13:57 19.10.2019
5704 Rain 14 1006 77 10000 6.2 160 13:39 19.10.2019
5705 Rain 14 1006 77 10000 5.1 150 13:19 19.10.2019
5706 Clouds 14 1006 82 10000 6.2 160 12:56 19.10.2019
5707 Clouds 14 1006 82 10000 6.2 160 12:37 19.10.2019
5708 Clouds 13 1006 76 10000 7.7 160 12:18 19.10.2019
5709 Rain 13 1006 76 10000 7.2 170 11:41 19.10.2019
5710 Rain 13 1006 82 10000 5.7 160 11:23 19.10.2019
5711 Rain 12 1006 82 10000 4.6 140 10:56 19.10.2019
5712 Rain 12 1006 87 10000 3.6 150 10:38 19.10.2019
5713 Rain 12 1006 87 10000 3.6 150 10:19 19.10.2019
5714 Rain 12 1005 76 10000 3.6 160 09:42 19.10.2019
5715 Rain 11 1006 81 10000 5.1 140 09:24 19.10.2019
5716 Rain 11 1006 81 10000 4.6 140 08:59 19.10.2019
5717 Rain 11 1006 81 10000 4.6 140 08:59 19.10.2019
5718 Rain 11 1006 81 10000 4.6 140 08:59 19.10.2019
5719 Clear 11 1006 76 10000 4.6 140 08:40 19.10.2019
5720 Clouds 11 1005 81 10000 3.1 160 08:40 19.10.2019
5721 Clear 11 1006 76 10000 4.6 140 08:21 19.10.2019
5722 Rain 11 1007 76 10000 4.6 140 07:44 19.10.2019
5723 Rain 11 1007 76 10000 4.6 140 07:25 19.10.2019
5724 Rain 11 1007 76 10000 4.6 140 07:25 19.10.2019
5725 Clouds 11 1006 76 10000 2.1 140 06:47 19.10.2019
5726 Clear 11 1007 76 10000 4.6 130 06:26 19.10.2019
5727 Clear 11 1007 76 10000 4.6 130 06:26 19.10.2019
5728 Clear 11 1008 81 10000 5.1 140 05:33 19.10.2019
5729 Clear 11 1008 81 10000 5.1 140 04:23 19.10.2019
5730 Clear 10 1008 76 10000 4.1 130 02:47 19.10.2019
5731 Clear 10 1009 81 10000 4.1 140 01:53 19.10.2019
5732 Clear 10 1009 81 10000 4.1 140 01:33 19.10.2019
5733 Clear 11 1009 76 10000 4.6 140 00:49 19.10.2019
5734 Clear 11 1009 76 10000 3.6 140 00:27 19.10.2019
5735 Clear 11 1009 76 10000 3.6 140 23:56 18.10.2019
5736 Clear 11 1009 76 10000 3.6 140 23:36 18.10.2019
5737 Clear 11 1010 81 10000 4.1 150 23:18 18.10.2019
5738 Clear 11 1010 76 10000 4.1 140 22:43 18.10.2019
5739 Clear 11 1010 81 10000 3.6 160 22:20 18.10.2019
5740 Clear 11 1010 81 10000 3.6 160 22:20 18.10.2019
5741 Clear 11 1010 81 10000 3.6 160 22:20 18.10.2019
5742 Clear 11 1010 81 10000 3.6 160 21:59 18.10.2019
5743 Clear 11 1010 76 10000 4.1 160 21:39 18.10.2019
5744 Clear 11 1010 71 10000 3.1 160 21:20 18.10.2019
5745 Clear 11 1010 71 10000 3.1 160 20:59 18.10.2019
5746 Clear 11 1010 71 10000 4.1 190 20:41 18.10.2019
5747 Clear 11 1010 71 10000 4.1 190 20:22 18.10.2019
5748 Clouds 12 1010 71 10000 3.6 190 19:58 18.10.2019
5749 Clouds 12 1010 71 10000 3.6 190 19:40 18.10.2019
5750 Clouds 12 1009 76 10000 3.1 180 19:21 18.10.2019
5751 Clouds 12 1009 66 10000 3.1 210 18:58 18.10.2019
5752 Clouds 13 1009 66 10000 3.1 210 18:39 18.10.2019
5753 Clouds 13 1009 62 10000 5.7 230 18:21 18.10.2019
5754 Clouds 14 1009 58 10000 5.7 250 17:40 18.10.2019
5755 Clouds 14 1008 58 10000 7.7 240 17:21 18.10.2019
5756 Clouds 14 1008 58 10000 7.7 240 16:59 18.10.2019
5757 Clouds 14 1008 62 10000 7.2 230 16:38 18.10.2019
5758 Clouds 14 1007 62 10000 8.2 240 16:20 18.10.2019
5759 Clouds 14 1008 58 10000 7.2 240 15:55 18.10.2019
5760 Rain 14 1008 67 10000 6.7 240 15:37 18.10.2019
5761 Rain 14 1007 62 10000 6.2 230 15:18 18.10.2019
5762 Rain 14 1007 62 10000 6.2 230 14:56 18.10.2019
5763 Rain 13 1007 71 10000 4.1 200 14:38 18.10.2019
5764 Rain 13 1007 81 10000 4.1 190 14:18 18.10.2019
5765 Rain 12 1007 81 10000 4.6 190 13:55 18.10.2019
5766 Rain 12 1007 81 10000 4.6 190 13:36 18.10.2019
5767 Rain 12 1008 93 10000 7.7 240 13:18 18.10.2019
5768 Rain 13 1006 81 9000 7.2 240 12:40 18.10.2019
5769 Rain 15 1006 87 4000 11.3 230 12:22 18.10.2019
5770 Clouds 15 1006 72 10000 7.2 170 11:59 18.10.2019
5771 Clouds 15 1006 72 10000 7.2 170 11:41 18.10.2019
5772 Clouds 16 1007 77 10000 5.7 150 11:20 18.10.2019
5773 Clouds 16 1007 82 10000 5.7 150 10:57 18.10.2019
5774 Clouds 15 1007 82 10000 5.7 150 10:39 18.10.2019
5775 Clouds 15 1007 82 10000 5.1 160 10:19 18.10.2019
5776 Clouds 15 1007 82 10000 5.1 160 09:57 18.10.2019
5777 Rain 14 1007 87 10000 6.2 160 09:39 18.10.2019
5778 Clouds 14 1007 82 10000 4.6 160 09:19 18.10.2019
5779 Clouds 14 1007 82 10000 5.7 160 08:44 18.10.2019
5780 Clouds 14 1007 82 10000 5.7 160 08:25 18.10.2019
5781 Clear 14 1008 82 10000 5.1 160 07:53 18.10.2019
5782 Clear 14 1008 82 10000 5.1 160 07:35 18.10.2019
5783 Clouds 13 1008 87 10000 5.7 170 06:55 18.10.2019
5784 Clouds 13 1008 87 10000 5.7 170 06:55 18.10.2019
5785 Clouds 13 1008 87 10000 5.7 170 06:35 18.10.2019
5786 Rain 13 1008 82 10000 4.1 120 05:59 18.10.2019
5787 Rain 13 1008 82 10000 4.1 120 05:41 18.10.2019
5788 Rain 13 1009 82 10000 3.6 110 05:18 18.10.2019
5789 Clear 12 1010 82 10000 3.1 130 03:38 18.10.2019
5790 Clear 12 1010 93 10000 3.6 140 02:54 18.10.2019
5791 Clear 13 1010 93 10000 3.6 150 02:32 18.10.2019
5792 Clear 13 1010 93 10000 3.6 160 01:40 18.10.2019
5793 Clouds 13 1010 93 10000 4.6 160 01:21 18.10.2019
5794 Clouds 13 1010 93 10000 3.6 160 00:43 18.10.2019
5795 Drizzle 14 1010 93 10000 4.1 150 00:20 18.10.2019
5796 Drizzle 14 1011 93 10000 4.1 150 23:40 17.10.2019
5797 Clouds 14 1011 93 10000 3.1 160 23:21 17.10.2019
5798 Clouds 14 1010 87 10000 2.1 170 22:57 17.10.2019
5799 Clouds 14 1010 87 10000 2.1 170 22:39 17.10.2019
5800 Drizzle 14 1011 93 10000 3.6 160 22:19 17.10.2019
5801 Drizzle 14 1011 93 10000 3.6 160 21:58 17.10.2019
5802 Clouds 14 1010 93 10000 4.1 150 21:39 17.10.2019
5803 Rain 14 1010 93 10000 3.1 140 21:20 17.10.2019
5804 Drizzle 14 1010 93 10000 4.1 150 20:58 17.10.2019
5805 Drizzle 14 1010 93 10000 4.1 150 20:39 17.10.2019
5806 Rain 14 1010 93 10000 3.6 140 20:19 17.10.2019
5807 Rain 14 1010 93 10000 3.6 140 19:59 17.10.2019
5808 Rain 14 1010 93 10000 4.6 140 19:39 17.10.2019
5809 Rain 14 1010 93 10000 4.1 140 19:19 17.10.2019
5810 Rain 15 1011 93 10000 4.1 140 18:58 17.10.2019
5811 Rain 15 1011 93 10000 4.1 140 18:38 17.10.2019
5812 Rain 15 1011 93 10000 3.6 150 18:20 17.10.2019
5813 Rain 15 1011 87 10000 4.1 170 17:42 17.10.2019
5814 Rain 15 1011 77 10000 4.6 180 17:23 17.10.2019
5815 Clouds 15 1010 87 10000 3.1 120 16:58 17.10.2019
5816 Clouds 15 1010 77 10000 3.6 180 16:39 17.10.2019
5817 Clouds 15 1011 82 10000 3.6 150 16:18 17.10.2019
5818 Clouds 15 1011 82 10000 3.6 150 15:56 17.10.2019
5819 Clouds 15 1011 87 10000 3.1 120 15:38 17.10.2019
5820 Clouds 15 1011 87 10000 2.1 110 15:20 17.10.2019
5821 Clouds 15 1011 87 10000 1.5 70 14:56 17.10.2019
5822 Clouds 15 1011 87 10000 1.5 70 14:37 17.10.2019
5823 Clouds 15 1011 93 9000 2.1 60 14:19 17.10.2019
5824 Drizzle 15 1011 82 6000 0.5 70 13:39 17.10.2019
5825 Clouds 15 1012 77 10000 3.6 240 13:20 17.10.2019
5826 Clouds 15 1012 67 10000 4.6 210 12:57 17.10.2019
5827 Clouds 15 1012 67 10000 4.6 210 12:37 17.10.2019
5828 Clouds 15 1012 67 10000 4.6 210 12:37 17.10.2019
5829 Clouds 15 1012 63 10000 6.7 220 12:18 17.10.2019
5830 Clouds 15 1012 63 10000 6.7 220 12:18 17.10.2019
5831 Clouds 15 1012 67 10000 6.2 230 11:42 17.10.2019
5832 Clouds 15 1012 67 10000 6.2 230 11:42 17.10.2019
5833 Clouds 15 1011 77 10000 5.1 200 11:22 17.10.2019
5834 Clouds 15 1011 77 10000 5.1 200 10:59 17.10.2019
5835 Clouds 15 1011 77 10000 5.1 190 10:41 17.10.2019
5836 Clouds 15 1011 77 10000 5.1 190 10:41 17.10.2019
5837 Clouds 14 1011 77 10000 3.6 170 10:19 17.10.2019
5838 -273 0 0 0 0 0 09:56 17.10.2019
5839 Clouds 14 1011 82 10000 3.1 180 09:38 17.10.2019
5840 Clouds 14 1011 87 10000 4.1 170 09:19 17.10.2019
5841 Clouds 14 1010 82 10000 3.6 160 08:49 17.10.2019
5842 Clouds 14 1010 87 10000 3.6 170 08:27 17.10.2019
5843 Clouds 14 1009 82 10000 4.6 170 07:59 17.10.2019
5844 Clouds 14 1009 82 10000 4.6 170 07:41 17.10.2019
5845 Clouds 14 1009 87 10000 4.6 170 07:21 17.10.2019
5846 Clouds 14 1009 87 10000 4.6 170 06:55 17.10.2019
5847 Clouds 14 1009 87 10000 4.6 170 06:37 17.10.2019
5848 Clouds 14 1009 93 10000 3.6 160 06:18 17.10.2019
5849 Clouds 14 1009 82 10000 3.6 150 05:41 17.10.2019
5850 Rain 14 1009 87 10000 3.6 150 05:20 17.10.2019
5851 Rain 14 1009 87 10000 3.6 150 04:48 17.10.2019
5852 Clouds 14 1009 87 10000 3.1 140 03:49 17.10.2019
5853 Clouds 14 1009 87 10000 3.1 140 03:49 17.10.2019
5854 Rain 13 1010 87 10000 4.1 130 02:32 17.10.2019
5855 Rain 13 1010 93 10000 4.1 140 00:43 17.10.2019
5856 Rain 14 1010 93 10000 4.1 140 00:21 17.10.2019
5857 Rain 13 1010 93 10000 4.1 140 23:59 16.10.2019
5858 Rain 14 1010 93 10000 4.6 170 23:41 16.10.2019
5859 Rain 14 1010 87 10000 5.1 170 23:19 16.10.2019
5860 Rain 14 1010 87 10000 5.1 170 23:19 16.10.2019
5861 Clouds 14 1010 87 10000 4.1 170 22:55 16.10.2019
5862 Clouds 14 1010 87 10000 4.1 170 22:55 16.10.2019
5863 Clouds 14 1010 87 10000 4.1 170 22:36 16.10.2019
5864 Clouds 14 1010 87 10000 4.1 170 22:36 16.10.2019
5865 Clouds 14 1010 87 10000 4.1 170 22:18 16.10.2019
5866 Clouds 14 1010 87 10000 4.6 170 21:55 16.10.2019
5867 Clouds 14 1010 87 10000 4.6 170 21:37 16.10.2019
5868 Clouds 14 1010 87 10000 4.6 170 21:18 16.10.2019
5869 Clouds 14 1010 87 10000 4.6 170 21:18 16.10.2019
5870 Rain 14 1010 87 10000 4.1 160 20:56 16.10.2019
5871 Rain 14 1010 87 10000 4.1 160 20:38 16.10.2019
5872 Rain 14 1010 93 9000 3.1 130 20:20 16.10.2019
5873 Rain 14 1010 93 9000 3.6 160 19:56 16.10.2019
5874 Rain 14 1010 93 9000 3.6 160 19:38 16.10.2019
5875 Rain 14 1010 87 10000 4.1 160 19:19 16.10.2019
5876 Rain 14 1010 93 10000 3.6 140 18:39 16.10.2019
5877 Rain 14 1010 87 10000 3.6 160 18:19 16.10.2019
5878 Rain 14 1010 87 10000 3.6 170 17:56 16.10.2019
5879 Rain 14 1010 87 10000 3.6 170 17:38 16.10.2019
5880 Rain 14 1010 87 10000 4.1 170 17:20 16.10.2019
5881 Clouds 14 1010 87 10000 4.6 160 16:58 16.10.2019
5882 Clouds 14 1010 87 10000 4.6 160 16:40 16.10.2019
5883 Rain 14 1010 87 10000 5.1 160 16:20 16.10.2019
5884 Rain 14 1010 87 10000 5.1 160 15:56 16.10.2019
5885 -273 0 0 0 0 0 15:55 16.10.2019
5886 Rain 14 1010 87 10000 5.1 160 15:36 16.10.2019
5887 Rain 14 1010 87 10000 4.1 170 15:18 16.10.2019
5888 Rain 14 1010 87 10000 4.1 170 15:18 16.10.2019
5889 Rain 14 1010 87 10000 4.1 170 14:55 16.10.2019
5890 Rain 13 1010 87 10000 4.1 170 14:37 16.10.2019
5891 Rain 13 1010 93 10000 4.6 160 14:18 16.10.2019
5892 Rain 13 1010 93 10000 4.6 160 13:55 16.10.2019
5893 -273 0 0 0 0 0 13:55 16.10.2019
5894 Rain 14 1010 82 10000 5.1 200 13:36 16.10.2019
5895 Clouds 14 1011 72 10000 5.7 170 13:18 16.10.2019
5896 Clouds 14 1011 72 10000 6.2 190 12:40 16.10.2019
5897 Clouds 14 1011 76 10000 6.2 180 12:18 16.10.2019
5898 Clouds 14 1011 76 10000 5.1 180 11:42 16.10.2019
5899 Clouds 13 1011 82 10000 4.1 170 11:18 16.10.2019
5900 Clouds 13 1012 81 10000 4.1 170 10:39 16.10.2019
5901 Clouds 12 1011 81 10000 4.6 170 10:20 16.10.2019
5902 Clouds 12 1011 81 10000 4.6 170 09:56 16.10.2019
5903 Clouds 12 1011 87 10000 3.6 160 09:38 16.10.2019
5904 Clouds 11 1011 87 10000 3.6 170 09:19 16.10.2019
5905 Clouds 11 1011 93 10000 3.1 170 08:43 16.10.2019
5906 Clouds 11 1011 93 10000 3.1 160 08:24 16.10.2019
5907 Clouds 11 1011 93 10000 3.1 160 07:55 16.10.2019
5908 Clouds 11 1011 93 10000 3.6 180 07:37 16.10.2019
5909 Clouds 11 1011 93 10000 2.6 170 07:18 16.10.2019
5910 Clouds 11 1011 87 10000 2.6 180 06:39 16.10.2019
5911 Clouds 11 1011 87 10000 2.6 180 06:39 16.10.2019
5912 Clouds 11 1011 87 10000 3.1 180 05:54 16.10.2019
5913 Rain 12 1010 93 10000 3.1 180 03:27 16.10.2019
5914 Rain 12 1010 93 10000 3.1 170 02:49 16.10.2019
5915 Rain 12 1010 93 10000 1.5 220 01:19 16.10.2019
5916 Rain 12 1010 93 10000 1.5 220 00:52 16.10.2019
5917 Rain 12 1010 93 10000 3.1 230 00:32 16.10.2019
5918 Rain 13 1009 100 10000 4.1 260 23:41 15.10.2019
5919 Rain 13 1009 100 10000 4.1 260 23:41 15.10.2019
5920 Rain 13 1009 100 10000 4.1 260 23:41 15.10.2019
5921 Rain 13 1009 93 6000 7.7 280 23:22 15.10.2019
5922 Rain 13 1009 93 6000 7.7 280 22:57 15.10.2019
5923 Rain 13 1009 100 10000 2.1 210 22:38 15.10.2019
5924 Rain 13 1008 100 10000 1.5 240 22:20 15.10.2019
5925 Rain 13 1008 100 10000 1.5 240 21:57 15.10.2019
5926 Rain 13 1008 93 10000 2.1 240 21:38 15.10.2019
5927 Rain 13 1008 93 8000 2.1 230 21:20 15.10.2019
5928 Rain 13 1008 93 8000 2.1 230 20:58 15.10.2019
5929 Rain 13 1008 93 10000 2.1 310 20:40 15.10.2019
5930 Rain 13 1008 93 10000 2.1 310 20:40 15.10.2019
5931 Rain 13 1008 93 10000 3.6 300 20:21 15.10.2019
5932 Rain 13 1008 93 10000 3.6 300 19:59 15.10.2019
5933 Rain 14 1007 93 10000 2.1 310 19:41 15.10.2019
5934 Rain 14 1007 93 9000 3.6 290 19:20 15.10.2019
5935 -273 0 0 0 0 0 18:55 15.10.2019
5936 Rain 14 1007 93 10000 1.5 360 18:37 15.10.2019
5937 Rain 15 1007 93 6000 3.6 280 18:19 15.10.2019
5938 Rain 15 1007 87 10000 2.1 280 17:42 15.10.2019
5939 Rain 15 1007 87 10000 2.1 280 17:41 15.10.2019
5940 Rain 15 1007 87 10000 2.1 280 17:41 15.10.2019
5941 Rain 15 1006 82 10000 2.1 340 17:21 15.10.2019
5942 Rain 16 1006 77 10000 1.5 340 16:59 15.10.2019
5943 Rain 16 1006 77 10000 1.5 340 16:40 15.10.2019
5944 Rain 16 1006 72 10000 2.1 310 16:21 15.10.2019
5945 Rain 16 1006 72 10000 2.1 310 15:55 15.10.2019
5946 Rain 17 1006 72 10000 2.6 330 15:37 15.10.2019
5947 Rain 17 1007 82 7000 1.5 320 15:19 15.10.2019
5948 -273 0 0 0 0 0 14:54 15.10.2019
5949 Clouds 17 1007 72 10000 1.5 300 14:36 15.10.2019
5950 Clouds 17 1007 72 10000 1.5 260 14:18 15.10.2019
5951 Clouds 17 1007 72 10000 2.1 250 13:43 15.10.2019
5952 Clouds 17 1007 68 10000 1.5 290 13:20 15.10.2019
5953 Clouds 17 1007 72 10000 2.6 310 12:46 15.10.2019
5954 Rain 17 1007 72 10000 2.1 290 12:23 15.10.2019
5955 Rain 17 1007 72 10000 1.5 320 11:59 15.10.2019
5956 Rain 17 1007 72 10000 1.5 320 11:41 15.10.2019
5957 Rain 16 1007 82 10000 1 0 11:20 15.10.2019
5958 Rain 16 1006 77 10000 1 80 10:46 15.10.2019
5959 Rain 16 1006 82 10000 2.1 60 10:24 15.10.2019
5960 Rain 15 1007 87 10000 1.5 260 09:59 15.10.2019
5961 Rain 15 1007 87 10000 1.5 260 09:40 15.10.2019
5962 Rain 15 1006 87 10000 1 0 09:21 15.10.2019
5963 Clear 14 1005 82 10000 2.6 110 08:58 15.10.2019
5964 Clear 14 1005 82 10000 2.6 110 08:58 15.10.2019
5965 Clear 14 1005 82 10000 2.6 110 08:40 15.10.2019
5966 Clear 14 1005 82 10000 2.1 90 08:20 15.10.2019
5967 Clear 14 1005 82 10000 2.1 90 08:19 15.10.2019
5968 Clear 14 1005 87 10000 1.5 50 07:43 15.10.2019
5969 Clear 14 1006 82 10000 1 0 07:23 15.10.2019
5970 Clear 14 1006 77 10000 2.6 110 06:57 15.10.2019
5971 Clear 14 1006 77 10000 2.6 110 06:39 15.10.2019
5972 Clear 15 1006 77 10000 3.1 130 05:56 15.10.2019
5973 Clear 15 1006 77 10000 3.1 130 05:37 15.10.2019
5974 Clear 15 1007 87 10000 2.6 160 04:49 15.10.2019
5975 Clear 16 1007 72 10000 2.1 140 04:19 15.10.2019
5976 Clear 17 1007 72 10000 3.1 140 03:35 15.10.2019
5977 Clear 18 1007 68 10000 3.1 130 01:59 15.10.2019
5978 Clear 18 1007 68 10000 3.1 130 01:40 15.10.2019
5979 Clear 18 1007 63 10000 3.6 120 00:59 15.10.2019
5980 Clear 18 1007 63 10000 3.6 120 00:59 15.10.2019
5981 Clear 19 1007 60 10000 3.1 100 00:26 15.10.2019
5982 Clear 19 1007 60 10000 3.1 100 23:59 14.10.2019
5983 Clear 19 1007 60 10000 3.6 120 23:37 14.10.2019
5984 Rain 19 1007 64 10000 4.1 120 23:19 14.10.2019
5985 Rain 19 1007 64 10000 4.1 120 23:19 14.10.2019
5986 Rain 19 1008 68 10000 3.1 110 22:40 14.10.2019
5987 Clear 19 1008 64 10000 3.1 110 22:21 14.10.2019
5988 Clear 19 1008 64 10000 3.1 110 21:59 14.10.2019
5989 Clear 19 1008 64 10000 4.1 110 21:40 14.10.2019
5990 Clear 19 1008 64 10000 4.1 110 21:40 14.10.2019
5991 Clear 19 1008 64 10000 3.6 120 21:21 14.10.2019
5992 Clear 19 1008 64 10000 3.6 120 20:58 14.10.2019
5993 Clear 19 1008 64 10000 3.1 110 20:38 14.10.2019
5994 Clear 19 1008 64 10000 3.1 120 20:19 14.10.2019
5995 Clear 19 1008 64 10000 3.1 120 19:58 14.10.2019
5996 Clouds 20 1008 60 10000 2.6 120 19:39 14.10.2019
5997 Clouds 20 1008 60 10000 2.6 120 19:39 14.10.2019
5998 Clear 20 1008 60 10000 2.6 110 19:21 14.10.2019
5999 Clear 20 1008 60 10000 2.6 110 18:57 14.10.2019
6000 Clear 21 1008 64 10000 3.6 140 18:38 14.10.2019
6001 Clear 22 1008 60 10000 4.1 140 18:18 14.10.2019
6002 Clear 23 1009 53 10000 4.1 150 17:44 14.10.2019
6003 Clear 23 1009 56 10000 6.2 150 17:25 14.10.2019
6004 Clouds 23 1009 50 10000 4.1 180 16:58 14.10.2019
6005 Clouds 23 1009 50 10000 4.1 180 16:40 14.10.2019
6006 Clear 23 1009 56 10000 6.7 160 16:19 14.10.2019
6007 Clear 23 1009 56 10000 6.2 130 15:41 14.10.2019
6008 Clear 23 1010 60 10000 6.2 130 15:22 14.10.2019
6009 Clear 22 1011 56 10000 6.2 130 14:46 14.10.2019
6010 Clear 22 1011 60 10000 5.1 130 14:26 14.10.2019
6011 Clear 22 1011 60 10000 5.1 130 13:59 14.10.2019
6012 Clear 21 1011 60 10000 5.7 140 13:41 14.10.2019
6013 Clear 21 1012 68 10000 3.6 120 13:21 14.10.2019
6014 Clear 20 1012 64 10000 3.6 120 12:54 14.10.2019
6015 Clear 20 1012 64 10000 3.6 120 12:36 14.10.2019
6016 Clear 19 1013 68 10000 4.6 140 12:18 14.10.2019
6017 Clear 18 1013 68 10000 4.6 140 11:43 14.10.2019
6018 Clear 18 1013 77 10000 3.1 130 11:24 14.10.2019
6019 Clear 17 1013 77 10000 3.1 130 10:55 14.10.2019
6020 Clear 16 1013 77 10000 3.1 130 10:37 14.10.2019
6021 Clear 16 1013 82 10000 2.1 140 10:18 14.10.2019
6022 -273 0 0 0 0 0 09:41 14.10.2019
6023 Clouds 14 1013 93 10000 1 0 09:21 14.10.2019
6024 Clouds 14 1013 93 10000 3.1 130 08:50 14.10.2019
6025 Clouds 14 1013 93 10000 2.1 110 08:23 14.10.2019
6026 Clouds 14 1013 93 10000 2.1 50 07:47 14.10.2019
6027 Clouds 14 1013 87 10000 2.1 150 07:25 14.10.2019
6028 Clouds 14 1014 93 10000 0.5 0 06:59 14.10.2019
6029 Clouds 14 1014 100 10000 1 0 06:28 14.10.2019
6030 Clouds 14 1014 93 10000 0.5 0 05:57 14.10.2019
6031 Rain 14 1014 93 10000 1 0 05:27 14.10.2019
6032 Rain 15 1014 87 10000 1 0 04:34 14.10.2019
6033 Clouds 16 1014 87 10000 3.6 310 03:26 14.10.2019
6034 Clouds 16 1013 88 10000 4.1 320 02:34 14.10.2019
6035 Rain 17 1012 93 10000 3.1 250 01:22 14.10.2019
6036 Clouds 18 1012 77 10000 3.6 240 00:45 14.10.2019
6037 Clouds 18 1011 88 10000 3.6 270 00:19 14.10.2019
6038 Rain 19 1012 64 10000 4.1 210 23:44 13.10.2019
6039 Rain 19 1012 64 10000 3.6 200 23:20 13.10.2019
6040 Rain 19 1011 64 10000 3.6 210 22:58 13.10.2019
6041 Rain 20 1011 64 10000 3.6 210 22:40 13.10.2019
6042 Rain 20 1011 64 10000 6.2 190 22:21 13.10.2019
6043 Clear 20 1010 64 10000 6.2 180 21:58 13.10.2019
6044 Clear 20 1010 64 10000 6.2 180 21:37 13.10.2019
6045 Clear 20 1010 64 10000 6.2 180 21:37 13.10.2019
6046 Rain 21 1010 64 10000 6.2 180 21:18 13.10.2019
6047 Rain 21 1010 64 10000 6.2 180 21:18 13.10.2019
6048 Rain 21 1010 64 10000 6.2 180 20:57 13.10.2019
6049 Clear 21 1010 64 10000 6.7 170 20:57 13.10.2019
6050 Rain 21 1010 64 10000 6.2 180 20:57 13.10.2019
6051 Clear 21 1010 64 10000 6.7 170 20:38 13.10.2019
6052 Clear 21 1010 68 10000 5.7 180 20:20 13.10.2019
6053 Clear 21 1010 64 10000 4.6 180 19:58 13.10.2019
6054 Clear 21 1010 64 10000 4.6 180 19:57 13.10.2019
6055 Clear 21 1010 64 10000 4.6 180 19:39 13.10.2019
6056 Clear 22 1009 64 10000 5.1 180 19:20 13.10.2019
6057 -273 0 0 0 0 0 18:56 13.10.2019
6058 Clear 22 1009 60 10000 5.7 180 18:56 13.10.2019
6059 Clear 22 1009 60 10000 5.7 180 18:36 13.10.2019
6060 Clear 23 1009 56 10000 7.2 190 18:18 13.10.2019
6061 Clear 23 1009 53 10000 7.7 190 17:44 13.10.2019
6062 Clear 24 1009 57 10000 6.7 170 17:26 13.10.2019
6063 -273 0 0 0 0 0 17:25 13.10.2019
6064 Clear 24 1009 57 10000 6.7 170 17:25 13.10.2019
6065 -273 0 0 0 0 0 16:56 13.10.2019
6066 Clear 24 1009 57 10000 7.2 180 16:36 13.10.2019
6067 Clear 24 1009 57 10000 7.7 170 16:18 13.10.2019
6068 Clear 24 1009 57 10000 7.2 170 15:55 13.10.2019
6069 Clear 24 1009 57 10000 7.2 170 15:55 13.10.2019
6070 Clear 24 1009 57 10000 7.2 170 15:36 13.10.2019
6071 Clear 24 1009 57 10000 7.2 160 15:18 13.10.2019
6072 Clear 24 1009 60 10000 6.7 170 14:56 13.10.2019
6073 Clear 24 1009 60 10000 6.7 170 14:37 13.10.2019
6074 Clear 23 1009 64 10000 4.6 150 14:18 13.10.2019
6075 Clear 22 1010 73 10000 4.1 150 13:39 13.10.2019
6076 Clear 22 1010 73 10000 4.1 150 13:39 13.10.2019
6077 Clear 21 1010 72 10000 4.6 140 13:21 13.10.2019
6078 Clear 21 1010 72 10000 4.6 140 12:57 13.10.2019
6079 Clear 20 1010 77 10000 4.1 130 12:39 13.10.2019
6080 Clear 19 1010 82 10000 4.1 130 12:20 13.10.2019
6081 Rain 19 1010 82 10000 2.6 110 11:58 13.10.2019
6082 Rain 18 1010 82 10000 2.6 110 11:39 13.10.2019
6083 Clear 18 1011 88 10000 2.1 110 11:20 13.10.2019
6084 Clouds 18 1011 88 10000 2.1 110 10:56 13.10.2019
6085 Clouds 17 1011 88 10000 2.1 110 10:38 13.10.2019
6086 Rain 17 1011 82 10000 5.1 130 10:19 13.10.2019
6087 -273 0 0 0 0 0 09:39 13.10.2019
6088 Clouds 17 1011 87 10000 2.6 130 09:21 13.10.2019
6089 Rain 16 1011 87 10000 2.6 90 08:43 13.10.2019
6090 Rain 16 1011 87 10000 3.6 120 08:25 13.10.2019
6091 Clear 16 1010 87 10000 3.1 120 07:52 13.10.2019
6092 Clear 16 1010 93 10000 3.1 120 07:33 13.10.2019
6093 Clear 16 1010 93 10000 2.6 120 06:53 13.10.2019
6094 Clear 16 1010 87 10000 2.1 110 06:24 13.10.2019
6095 Clear 16 1010 87 10000 2.1 110 06:24 13.10.2019
6096 Clouds 16 1011 87 10000 3.6 130 05:21 13.10.2019
6097 Clouds 16 1011 87 10000 5.1 140 04:34 13.10.2019
6098 Clouds 16 1011 87 10000 5.1 140 04:34 13.10.2019
6099 Clouds 16 1011 87 10000 5.1 140 03:24 13.10.2019
6100 Clouds 15 1012 87 10000 4.6 160 02:30 13.10.2019
6101 Clouds 16 1012 87 10000 3.6 150 01:37 13.10.2019
6102 Clouds 16 1012 77 10000 3.1 150 00:56 13.10.2019
6103 Clouds 16 1012 77 10000 3.1 150 00:38 13.10.2019
6104 Clouds 16 1012 77 10000 3.6 150 00:19 13.10.2019
6105 Clouds 16 1012 77 10000 2.6 170 23:42 12.10.2019
6106 Clouds 16 1012 82 10000 2.6 150 23:23 12.10.2019
6107 Clouds 16 1012 82 10000 2.6 150 22:59 12.10.2019
6108 Clear 16 1011 77 10000 2.6 140 22:40 12.10.2019
6109 Clear 17 1011 77 10000 2.1 130 22:22 12.10.2019
6110 Clear 17 1011 77 10000 2.1 130 21:58 12.10.2019
6111 Clear 17 1011 77 10000 1.5 130 21:40 12.10.2019
6112 Clear 17 1011 77 10000 2.6 160 21:22 12.10.2019
6113 Clear 17 1011 72 10000 2.6 160 20:56 12.10.2019
6114 Clear 17 1011 72 10000 2.6 160 20:37 12.10.2019
6115 Clear 17 1011 72 10000 3.1 170 20:19 12.10.2019
6116 Clear 17 1011 77 10000 1.5 180 19:36 12.10.2019
6117 Rain 17 1011 72 10000 3.1 150 19:18 12.10.2019
6118 Rain 18 1011 68 10000 2.6 200 18:44 12.10.2019
6119 Rain 18 1011 68 10000 2.6 200 18:26 12.10.2019
6120 Clouds 18 1011 68 10000 4.1 200 18:26 12.10.2019
6121 Rain 18 1011 68 10000 4.1 200 17:56 12.10.2019
6122 Rain 18 1011 68 10000 4.1 200 17:55 12.10.2019
6123 Rain 18 1011 68 10000 4.1 200 17:37 12.10.2019
6124 Clouds 18 1011 72 10000 1.5 190 17:18 12.10.2019
6125 Clouds 19 1012 68 10000 1.5 210 16:41 12.10.2019
6126 Rain 19 1012 72 10000 1 0 16:21 12.10.2019
6127 Rain 19 1012 63 10000 2.6 190 15:58 12.10.2019
6128 Rain 19 1012 63 10000 2.6 190 15:39 12.10.2019
6129 Clouds 19 1012 63 10000 2.6 190 15:21 12.10.2019
6130 Clouds 19 1012 63 10000 3.1 190 14:41 12.10.2019
6131 Clouds 19 1012 63 10000 4.6 210 14:21 12.10.2019
6132 Clouds 19 1012 63 10000 4.6 210 13:53 12.10.2019
6133 Clouds 19 1012 63 10000 4.6 210 13:33 12.10.2019
6134 -273 0 0 0 0 0 12:59 12.10.2019
6135 Clouds 18 1012 63 10000 6.2 210 12:38 12.10.2019
6136 Clouds 17 1012 63 10000 6.2 220 12:20 12.10.2019
6137 Clouds 17 1012 67 10000 6.7 210 11:56 12.10.2019
6138 Clouds 17 1012 67 10000 6.7 210 11:38 12.10.2019
6139 Clouds 17 1012 67 10000 6.7 210 11:38 12.10.2019
6140 Clouds 17 1012 67 10000 5.7 210 11:18 12.10.2019
6141 Clouds 16 1012 72 10000 4.6 190 10:41 12.10.2019
6142 Clouds 16 1011 72 10000 5.1 190 10:23 12.10.2019
6143 Clouds 15 1011 77 10000 4.1 180 09:57 12.10.2019
6144 Clouds 15 1011 77 10000 4.1 180 09:57 12.10.2019
6145 Clouds 15 1011 77 10000 4.1 180 09:38 12.10.2019
6146 Clouds 14 1011 76 10000 4.1 180 09:19 12.10.2019
6147 Clouds 14 1011 87 10000 3.6 160 08:44 12.10.2019
6148 Clouds 14 1010 82 10000 4.1 160 08:25 12.10.2019
6149 Clear 13 1010 87 10000 5.1 160 07:59 12.10.2019
6150 Clear 14 1010 81 10000 4.6 160 07:31 12.10.2019
6151 Clear 13 1010 87 10000 4.6 160 06:37 12.10.2019
6152 Clear 14 1010 87 10000 4.6 160 05:44 12.10.2019
6153 Clear 14 1011 87 10000 4.6 160 04:43 12.10.2019
6154 Clear 14 1011 82 10000 5.1 170 03:56 12.10.2019
6155 Clear 15 1011 77 10000 5.7 180 02:54 12.10.2019
6156 Clear 15 1011 72 10000 5.7 180 01:35 12.10.2019
6157 Clear 16 1012 72 10000 5.7 180 00:58 12.10.2019
6158 Clear 16 1012 77 10000 5.1 180 00:39 12.10.2019
6159 Clouds 16 1012 82 10000 4.6 170 23:57 11.10.2019
6160 Clouds 16 1012 82 10000 4.6 170 23:38 11.10.2019
6161 Clouds 16 1012 82 10000 3.1 170 23:19 11.10.2019
6162 Clouds 16 1012 82 10000 3.6 170 22:39 11.10.2019
6163 Clear 16 1012 77 10000 4.1 170 22:21 11.10.2019
6164 Clear 16 1012 77 10000 4.1 170 21:56 11.10.2019
6165 Clear 16 1012 77 10000 4.1 180 21:38 11.10.2019
6166 Clear 16 1012 77 10000 4.1 180 21:19 11.10.2019
6167 Clouds 16 1012 77 10000 3.6 170 20:43 11.10.2019
6168 Clouds 16 1012 77 10000 3.1 170 20:25 11.10.2019
6169 Clouds 16 1013 77 10000 3.1 190 19:56 11.10.2019
6170 Clouds 16 1013 77 10000 3.1 190 19:38 11.10.2019
6171 Clouds 16 1012 72 10000 3.6 190 19:18 11.10.2019
6172 Clouds 16 1012 72 10000 4.6 200 18:58 11.10.2019
6173 Clouds 16 1012 72 10000 3.6 190 18:58 11.10.2019
6174 Clouds 16 1012 72 10000 4.6 200 18:38 11.10.2019
6175 Clouds 16 1013 67 10000 6.2 210 18:19 11.10.2019
6176 Clouds 16 1013 67 10000 6.2 210 17:58 11.10.2019
6177 Clouds 16 1013 63 10000 6.2 210 17:38 11.10.2019
6178 Clouds 16 1013 67 10000 6.7 210 17:19 11.10.2019
6179 Clouds 17 1013 67 10000 5.1 190 16:56 11.10.2019
6180 Clouds 17 1013 67 10000 5.1 190 16:37 11.10.2019
6181 Clouds 17 1013 67 10000 4.1 190 16:19 11.10.2019
6182 Clouds 16 1014 72 10000 4.6 190 15:41 11.10.2019
6183 Clouds 16 1014 72 10000 4.6 190 15:41 11.10.2019
6184 Clouds 16 1014 67 10000 4.6 200 15:20 11.10.2019
6185 Clouds 16 1014 67 10000 6.2 210 14:58 11.10.2019
6186 Clouds 16 1014 67 10000 6.2 210 14:38 11.10.2019
6187 Clouds 16 1015 67 10000 6.2 220 14:19 11.10.2019
6188 Clouds 16 1015 67 10000 6.2 220 14:19 11.10.2019
6189 Rain 16 1015 72 10000 3.6 210 13:45 11.10.2019
6190 Rain 16 1015 72 10000 5.1 190 13:25 11.10.2019
6191 Rain 15 1015 72 10000 4.6 200 12:57 11.10.2019
6192 Rain 15 1015 72 10000 4.6 200 12:38 11.10.2019
6193 Clouds 15 1015 72 10000 6.2 190 12:20 11.10.2019
6194 Clouds 15 1015 72 10000 6.2 150 11:58 11.10.2019
6195 Clouds 15 1015 72 10000 6.2 150 11:38 11.10.2019
6196 Clouds 15 1015 72 10000 6.2 150 11:38 11.10.2019
6197 Clouds 14 1015 76 10000 6.2 150 11:20 11.10.2019
6198 Rain 14 1015 82 10000 6.2 160 10:55 11.10.2019
6199 Rain 14 1015 82 10000 6.2 160 10:55 11.10.2019
6200 Rain 14 1015 82 10000 6.2 160 10:36 11.10.2019
6201 Clouds 13 1016 76 10000 5.7 160 10:18 11.10.2019
6202 Rain 13 1015 81 10000 5.7 160 09:42 11.10.2019
6203 Rain 13 1015 81 10000 5.7 160 09:21 11.10.2019
6204 Rain 12 1015 81 10000 4.6 150 08:57 11.10.2019
6205 Rain 12 1015 81 10000 4.6 150 08:38 11.10.2019
6206 Rain 12 1015 76 10000 5.1 150 08:20 11.10.2019
6207 Clear 12 1015 81 10000 5.1 140 07:53 11.10.2019
6208 Clear 12 1015 81 10000 5.1 140 07:34 11.10.2019
6209 Clear 12 1016 81 10000 4.6 160 06:50 11.10.2019
6210 Clear 12 1016 81 10000 4.6 160 06:25 11.10.2019
6211 Clouds 12 1016 81 10000 5.7 160 05:47 11.10.2019
6212 Clouds 12 1016 81 10000 5.7 160 05:47 11.10.2019
6213 Clouds 11 1016 81 10000 5.7 160 05:29 11.10.2019
6214 Clouds 11 1016 81 10000 4.6 170 04:58 11.10.2019
6215 Clear 11 1017 81 10000 5.1 180 03:40 11.10.2019
6216 Clouds 12 1017 87 10000 4.1 170 01:26 11.10.2019
6217 Clouds 12 1017 87 10000 3.6 150 00:41 11.10.2019
6218 Clouds 12 1017 87 10000 3.6 160 00:20 11.10.2019
6219 Clouds 11 1017 87 10000 4.6 150 23:41 10.10.2019
6220 Clouds 12 1017 87 10000 4.1 160 23:20 10.10.2019
6221 Clear 11 1017 87 10000 4.6 150 22:56 10.10.2019
6222 Clear 11 1017 87 10000 4.6 150 22:36 10.10.2019
6223 Clear 11 1017 87 10000 4.1 160 22:18 10.10.2019
6224 Clear 11 1017 87 10000 4.1 160 22:18 10.10.2019
6225 Clouds 11 1017 87 10000 3.6 180 21:42 10.10.2019
6226 Clouds 11 1017 87 10000 3.6 180 21:42 10.10.2019
6227 Clouds 11 1017 87 10000 3.6 170 21:22 10.10.2019
6228 Clouds 11 1017 87 10000 3.6 170 20:59 10.10.2019
6229 Clouds 12 1017 81 10000 3.1 180 20:40 10.10.2019
6230 Clouds 12 1016 81 10000 3.6 200 20:20 10.10.2019
6231 Clouds 12 1016 81 10000 3.6 200 20:20 10.10.2019
6232 Clouds 12 1016 81 10000 3.1 190 19:57 10.10.2019
6233 Clouds 12 1016 81 10000 3.1 190 19:39 10.10.2019
6234 Clouds 13 1016 71 10000 3.6 210 19:19 10.10.2019
6235 Clouds 13 1016 67 10000 4.6 230 18:54 10.10.2019
6236 Clouds 14 1016 67 10000 4.6 230 18:36 10.10.2019
6237 Clouds 14 1016 67 10000 4.6 230 18:36 10.10.2019
6238 Clouds 14 1015 67 10000 5.7 230 18:18 10.10.2019
6239 Clouds 15 1015 62 10000 7.2 250 17:41 10.10.2019
6240 Rain 15 1015 58 10000 7.7 250 17:20 10.10.2019
6241 Rain 15 1015 58 10000 7.7 250 16:58 10.10.2019
6242 Clouds 15 1015 54 10000 8.7 270 16:40 10.10.2019
6243 Clouds 15 1015 54 10000 6.7 280 16:21 10.10.2019
6244 Clouds 15 1015 54 10000 8.7 260 15:44 10.10.2019
6245 Clouds 15 1015 54 10000 8.7 270 15:25 10.10.2019
6246 Clouds 15 1015 54 10000 8.7 270 14:59 10.10.2019
6247 Clouds 15 1014 58 10000 7.2 250 14:38 10.10.2019
6248 Clouds 15 1014 58 10000 7.2 250 14:38 10.10.2019
6249 Clouds 15 1014 58 10000 7.2 250 14:38 10.10.2019
6250 Clouds 15 1015 62 10000 9.8 250 14:19 10.10.2019
6251 Clouds 14 1015 62 10000 9.8 250 13:59 10.10.2019
6252 Clouds 14 1014 58 10000 8.7 250 13:41 10.10.2019
6253 Clouds 14 1014 62 10000 8.7 260 13:19 10.10.2019
6254 Clouds 14 1014 66 10000 7.7 260 12:56 10.10.2019
6255 Clouds 14 1014 66 10000 7.7 260 12:56 10.10.2019
6256 Clouds 14 1014 66 10000 7.7 260 12:38 10.10.2019
6257 Clouds 13 1014 67 10000 7.7 250 12:19 10.10.2019
6258 Clouds 13 1014 66 0 8.7 250 11:55 10.10.2019
6259 Clouds 12 1014 66 0 8.7 250 11:37 10.10.2019
6260 Clouds 12 1013 76 10000 8.2 260 11:18 10.10.2019
6261 Clouds 12 1013 76 10000 6.2 240 10:44 10.10.2019
6262 Clouds 11 1013 81 10000 6.7 240 10:25 10.10.2019
6263 Clouds 11 1012 81 10000 5.7 240 09:56 10.10.2019
6264 Clouds 11 1012 81 10000 5.7 240 09:37 10.10.2019
6265 Clouds 10 1011 81 10000 5.7 240 09:19 10.10.2019
6266 Clouds 10 1011 87 10000 4.1 240 08:41 10.10.2019
6267 Clouds 10 1010 87 10000 4.1 240 08:23 10.10.2019
6268 Clouds 10 1010 87 10000 3.6 250 07:59 10.10.2019
6269 Clouds 10 1010 87 10000 3.6 250 07:40 10.10.2019
6270 Clouds 10 1009 87 10000 3.1 240 07:20 10.10.2019
6271 Clouds 10 1009 87 10000 2.6 230 06:45 10.10.2019
6272 Clouds 10 1009 87 10000 2.6 210 06:24 10.10.2019
6273 Rain 10 1009 87 10000 2.6 220 05:25 10.10.2019
6274 Rain 10 1008 87 10000 4.1 210 04:37 10.10.2019
6275 Rain 10 1008 87 10000 3.6 170 03:42 10.10.2019
6276 Clouds 10 1009 81 10000 3.1 190 01:43 10.10.2019
6277 Clouds 10 1009 81 10000 3.1 190 01:43 10.10.2019
6278 Clouds 10 1009 81 10000 3.6 190 01:24 10.10.2019
6279 Clouds 10 1009 81 10000 2.6 180 00:53 10.10.2019
6280 Clouds 10 1009 81 10000 3.6 220 00:22 10.10.2019
6281 Clouds 10 1008 76 10000 4.1 220 23:40 09.10.2019
6282 Clouds 11 1008 76 10000 3.6 220 23:20 09.10.2019
6283 Clouds 11 1008 76 10000 3.6 220 22:56 09.10.2019
6284 Clouds 11 1008 76 10000 3.6 220 22:37 09.10.2019
6285 Clouds 11 1008 76 10000 4.6 220 22:19 09.10.2019
6286 Clouds 11 1008 76 10000 5.7 220 21:40 09.10.2019
6287 Rain 11 1008 76 10000 4.1 220 21:21 09.10.2019
6288 Clouds 11 1008 76 10000 3.6 210 20:56 09.10.2019
6289 Clouds 11 1008 76 10000 3.6 210 20:38 09.10.2019
6290 Clouds 11 1007 76 10000 6.2 240 20:19 09.10.2019
6291 Clouds 11 1007 76 10000 5.7 250 19:58 09.10.2019
6292 Clouds 11 1007 76 10000 5.7 250 19:40 09.10.2019
6293 Clouds 11 1007 76 10000 6.2 250 19:21 09.10.2019
6294 Rain 12 1007 81 10000 4.1 240 18:38 09.10.2019
6295 Rain 12 1006 71 10000 6.7 220 18:20 09.10.2019
6296 Rain 12 1006 71 10000 5.7 230 17:57 09.10.2019
6297 Rain 12 1006 71 10000 5.7 230 17:37 09.10.2019
6298 Rain 12 1006 71 10000 4.6 210 17:19 09.10.2019
6299 Rain 12 1006 71 10000 4.1 210 16:56 09.10.2019
6300 Rain 12 1006 71 10000 4.1 210 16:37 09.10.2019
6301 Rain 13 1006 71 10000 4.6 210 16:18 09.10.2019
6302 Rain 13 1006 76 10000 4.6 200 15:55 09.10.2019
6303 Rain 13 1006 76 10000 4.6 200 15:37 09.10.2019
6304 Rain 13 1007 71 10000 7.7 230 15:18 09.10.2019
6305 Rain 13 1007 76 10000 4.1 210 14:44 09.10.2019
6306 Rain 13 1007 76 10000 4.1 210 14:44 09.10.2019
6307 Rain 14 1007 71 10000 5.1 210 14:19 09.10.2019
6308 Clouds 14 1007 76 10000 4.6 180 13:59 09.10.2019
6309 Clouds 14 1007 76 10000 4.6 180 13:38 09.10.2019
6310 Clouds 14 1007 76 10000 4.1 170 13:18 09.10.2019
6311 Rain 13 1008 82 10000 4.1 180 12:44 09.10.2019
6312 Clouds 13 1008 82 10000 5.1 190 12:23 09.10.2019
6313 Clouds 13 1008 82 10000 3.6 190 11:58 09.10.2019
6314 Clouds 13 1008 82 10000 3.6 190 11:40 09.10.2019
6315 Clouds 13 1009 82 10000 2.6 190 11:20 09.10.2019
6316 Clouds 12 1009 82 10000 2.6 190 10:59 09.10.2019
6317 Clear 12 1009 76 10000 3.1 170 10:40 09.10.2019
6318 Clear 12 1009 81 10000 4.1 190 10:19 09.10.2019
6319 Clear 12 1009 81 10000 4.1 190 10:19 09.10.2019
6320 Clear 12 1009 81 10000 3.1 160 09:43 09.10.2019
6321 Clear 11 1009 87 10000 4.6 190 09:21 09.10.2019
6322 Clouds 11 1009 93 10000 3.6 180 08:58 09.10.2019
6323 Clouds 11 1009 93 10000 3.6 180 08:39 09.10.2019
6324 Clouds 11 1009 93 10000 3.1 170 08:20 09.10.2019
6325 Clouds 11 1009 93 10000 3.1 170 08:20 09.10.2019
6326 Clear 11 1009 87 10000 3.6 190 07:47 09.10.2019
6327 Clear 11 1009 87 10000 3.6 190 07:47 09.10.2019
6328 Clear 11 1009 87 10000 4.1 180 07:25 09.10.2019
6329 Clear 11 1009 87 10000 4.1 180 07:25 09.10.2019
6330 Clouds 11 1010 87 10000 3.6 180 06:58 09.10.2019
6331 Clouds 11 1010 87 10000 3.6 180 06:40 09.10.2019
6332 Clouds 11 1010 93 10000 4.6 170 05:53 09.10.2019
6333 Clouds 11 1010 93 10000 4.6 170 05:18 09.10.2019
6334 Clouds 11 1009 93 10000 3.1 180 03:49 09.10.2019
6335 Clouds 12 1009 87 10000 3.1 200 02:35 09.10.2019
6336 Clouds 12 1009 87 10000 3.6 160 01:39 09.10.2019
6337 Clouds 12 1009 93 10000 2.6 170 01:19 09.10.2019
6338 Clouds 12 1009 93 10000 2.6 170 00:55 09.10.2019
6339 Clear 12 1009 87 10000 2.6 220 00:37 09.10.2019
6340 Clear 12 1009 93 10000 3.6 230 00:19 09.10.2019
6341 Clear 12 1009 93 10000 4.6 240 23:39 08.10.2019
6342 Clear 12 1009 93 10000 4.6 240 23:39 08.10.2019
6343 Clear 12 1008 93 10000 3.6 240 23:18 08.10.2019
6344 Clouds 12 1008 87 10000 4.6 240 22:56 08.10.2019
6345 Clouds 12 1008 87 10000 4.6 240 22:37 08.10.2019
6346 Rain 12 1008 93 10000 2.6 220 22:18 08.10.2019
6347 Clouds 13 1008 93 10000 3.1 210 21:56 08.10.2019
6348 Clouds 12 1008 93 10000 3.1 210 21:38 08.10.2019
6349 Clouds 13 1007 93 10000 3.1 190 21:18 08.10.2019
6350 Clouds 13 1007 100 10000 3.6 180 20:55 08.10.2019
6351 Clouds 13 1007 100 10000 3.6 180 20:55 08.10.2019
6352 Clouds 13 1007 100 10000 3.6 180 20:37 08.10.2019
6353 Clouds 13 1007 100 10000 3.6 180 20:37 08.10.2019
6354 Clouds 13 1007 100 10000 3.6 160 20:19 08.10.2019
6355 Clouds 13 1007 100 10000 2.1 160 19:56 08.10.2019
6356 Clouds 13 1007 100 10000 2.1 160 19:37 08.10.2019
6357 Clouds 13 1007 100 10000 3.1 200 19:18 08.10.2019
6358 Rain 14 1007 93 10000 4.1 190 18:46 08.10.2019
6359 Rain 14 1007 93 10000 3.6 200 18:25 08.10.2019
6360 Drizzle 14 1007 93 10000 1.5 240 17:58 08.10.2019
6361 Drizzle 14 1007 93 10000 1.5 240 17:39 08.10.2019
6362 Drizzle 14 1007 93 10000 2.6 250 17:20 08.10.2019
6363 Drizzle 14 1007 93 6000 3.6 240 16:56 08.10.2019
6364 Drizzle 14 1007 93 6000 3.6 240 16:37 08.10.2019
6365 Drizzle 14 1007 87 7000 4.6 250 16:19 08.10.2019
6366 Drizzle 14 1007 93 10000 3.1 300 15:40 08.10.2019
6367 Drizzle 14 1007 93 5000 2.1 200 15:21 08.10.2019
6368 Rain 14 1008 93 5000 3.1 220 14:57 08.10.2019
6369 Rain 14 1008 93 5000 3.1 220 14:39 08.10.2019
6370 Drizzle 14 1008 93 5000 2.1 190 14:20 08.10.2019
6371 Rain 14 1008 93 5000 2.6 180 13:56 08.10.2019
6372 Rain 14 1008 93 5000 2.6 180 13:38 08.10.2019
6373 Rain 14 1008 100 5000 2.6 190 13:18 08.10.2019
6374 Rain 14 1009 100 3400 2.6 190 12:56 08.10.2019
6375 Rain 14 1009 100 3400 2.6 190 12:37 08.10.2019
6376 Rain 13 1008 93 4000 4.6 250 12:18 08.10.2019
6377 Rain 13 1009 93 3000 2.6 150 11:41 08.10.2019
6378 Rain 13 1009 93 3000 2.6 150 11:41 08.10.2019
6379 Rain 12 1009 100 6000 2.6 150 11:23 08.10.2019
6380 Rain 13 1009 100 6000 2.6 150 10:56 08.10.2019
6381 Rain 12 1009 100 6000 3.1 150 10:37 08.10.2019
6382 Rain 12 1009 93 2900 2.6 160 10:19 08.10.2019
6383 Rain 12 1009 93 6000 2.1 180 09:55 08.10.2019
6384 Drizzle 12 1009 93 10000 2.6 150 09:37 08.10.2019
6385 Rain 12 1009 93 10000 3.6 160 09:19 08.10.2019
6386 Rain 11 1009 100 5000 3.6 170 08:42 08.10.2019
6387 Rain 11 1010 100 10000 3.6 170 08:23 08.10.2019
6388 Rain 11 1010 100 10000 3.6 170 08:23 08.10.2019
6389 Rain 11 1009 93 8000 2.6 210 07:44 08.10.2019
6390 Rain 11 1010 100 10000 4.6 150 07:21 08.10.2019
6391 Rain 12 1010 100 10000 4.1 150 06:53 08.10.2019
6392 Rain 11 1010 100 10000 4.1 150 06:29 08.10.2019
6393 Rain 11 1011 100 8000 3.1 170 05:55 08.10.2019
6394 Rain 11 1011 100 8000 3.1 170 05:36 08.10.2019
6395 Rain 11 1011 93 10000 4.1 150 04:33 08.10.2019
6396 Rain 12 1012 93 10000 4.1 150 03:29 08.10.2019
6397 Rain 12 1014 87 10000 4.1 170 02:39 08.10.2019
6398 Rain 12 1014 81 10000 3.6 160 01:49 08.10.2019
6399 Rain 12 1014 81 10000 3.6 160 01:31 08.10.2019
6400 Clouds 12 1015 87 10000 4.1 170 00:50 08.10.2019
6401 Clouds 11 1015 87 10000 4.1 170 00:21 08.10.2019
6402 Clouds 11 1016 87 10000 3.6 170 23:41 07.10.2019
6403 Clouds 11 1016 87 10000 3.1 160 23:21 07.10.2019
6404 Clouds 11 1016 87 10000 3.6 150 22:58 07.10.2019
6405 Clouds 11 1016 87 10000 3.6 150 22:40 07.10.2019
6406 Clouds 11 1016 87 10000 3.1 150 22:21 07.10.2019
6407 Clouds 12 1016 87 10000 4.1 150 21:58 07.10.2019
6408 Clouds 12 1016 87 10000 4.1 150 21:39 07.10.2019
6409 Clouds 11 1016 87 10000 4.1 140 21:20 07.10.2019
6410 Clouds 11 1016 87 10000 4.1 140 21:20 07.10.2019
6411 Clouds 12 1016 87 10000 4.6 140 20:58 07.10.2019
6412 Clouds 12 1016 87 10000 4.6 140 20:39 07.10.2019
6413 Rain 12 1016 87 10000 4.6 140 20:20 07.10.2019
6414 Drizzle 11 1016 81 10000 4.6 140 19:58 07.10.2019
6415 Drizzle 11 1016 81 10000 4.6 140 19:40 07.10.2019
6416 Clouds 12 1017 81 10000 3.1 140 19:20 07.10.2019
6417 Clouds 12 1017 81 10000 3.1 140 19:20 07.10.2019
6418 Clouds 12 1017 81 10000 3.1 140 18:58 07.10.2019
6419 Drizzle 12 1017 81 10000 3.1 140 18:38 07.10.2019
6420 Drizzle 12 1017 81 10000 3.6 140 18:19 07.10.2019
6421 Clouds 12 1017 81 10000 4.1 130 17:43 07.10.2019
6422 Clouds 12 1017 76 10000 4.1 140 17:23 07.10.2019
6423 Clouds 13 1018 76 10000 3.6 130 16:59 07.10.2019
6424 Clouds 13 1018 76 10000 3.6 130 16:41 07.10.2019
6425 Clouds 13 1018 76 10000 5.1 130 16:22 07.10.2019
6426 Clouds 13 1018 81 10000 4.6 140 15:46 07.10.2019
6427 Clouds 13 1018 76 10000 4.6 140 15:26 07.10.2019
6428 Clouds 13 1018 81 10000 3.6 170 14:58 07.10.2019
6429 Clouds 13 1018 81 10000 3.6 170 14:58 07.10.2019
6430 Clouds 13 1018 81 10000 3.6 170 14:40 07.10.2019
6431 Clouds 13 1018 81 10000 4.1 160 14:22 07.10.2019
6432 Clouds 13 1018 81 10000 4.6 170 13:44 07.10.2019
6433 Clouds 12 1019 76 10000 5.1 170 13:21 07.10.2019
6434 Clouds 12 1019 81 10000 5.1 140 12:57 07.10.2019
6435 Clouds 12 1019 81 10000 5.1 140 12:39 07.10.2019
6436 Clouds 11 1019 87 10000 4.6 150 12:19 07.10.2019
6437 Clouds 11 1019 87 10000 4.6 150 11:58 07.10.2019
6438 Clouds 11 1019 87 10000 4.6 150 11:39 07.10.2019
6439 Clouds 10 1019 87 10000 4.6 150 11:20 07.10.2019
6440 Clouds 10 1018 87 10000 3.6 140 10:42 07.10.2019
6441 Clouds 9 1018 87 10000 3.6 140 10:21 07.10.2019
6442 Clouds 9 1018 87 10000 2.6 140 09:57 07.10.2019
6443 Clouds 9 1018 87 10000 2.6 140 09:38 07.10.2019
6444 Clouds 9 1017 87 10000 2.1 110 09:20 07.10.2019
6445 Clouds 8 1017 93 10000 2.6 100 08:43 07.10.2019
6446 Clouds 8 1017 93 10000 2.6 100 08:20 07.10.2019
6447 Clouds 8 1017 93 10000 3.1 90 07:49 07.10.2019
6448 Clouds 8 1016 87 10000 3.6 110 07:28 07.10.2019
6449 Clouds 8 1016 93 10000 1.5 110 06:58 07.10.2019
6450 Drizzle 8 1016 93 10000 1.5 110 06:39 07.10.2019
6451 Drizzle 8 1015 93 10000 2.6 90 06:20 07.10.2019
6452 Rain 8 1015 93 10000 3.1 110 05:26 07.10.2019
6453 Rain 8 1015 93 10000 2.6 100 04:54 07.10.2019
6454 Drizzle 8 1015 93 10000 3.1 90 03:48 07.10.2019
6455 Rain 8 1014 93 10000 2.1 90 03:30 07.10.2019
6456 Rain 8 1014 93 10000 2.6 90 02:53 07.10.2019
6457 Rain 8 1014 93 10000 2.6 90 02:19 07.10.2019
6458 Drizzle 8 1013 93 10000 3.1 110 01:24 07.10.2019
6459 Clouds 8 1013 93 10000 3.1 100 00:53 07.10.2019
6460 Clouds 8 1012 93 10000 3.1 110 00:27 07.10.2019
6461 Clouds 8 1012 93 10000 3.1 110 23:59 06.10.2019
6462 Rain 9 1012 93 10000 3.1 110 23:40 06.10.2019
6463 Rain 9 1011 93 10000 2.6 100 23:21 06.10.2019
6464 Rain 9 1011 93 10000 3.1 100 22:58 06.10.2019
6465 Rain 9 1011 93 10000 3.1 100 22:39 06.10.2019
6466 Rain 9 1011 93 10000 3.1 100 22:21 06.10.2019
6467 Rain 9 1011 93 10000 3.1 100 21:56 06.10.2019
6468 Rain 9 1011 100 10000 3.1 110 21:37 06.10.2019
6469 Rain 9 1011 100 10000 1 0 21:19 06.10.2019
6470 Rain 9 1011 87 10000 3.6 130 20:57 06.10.2019
6471 Rain 9 1011 87 10000 3.6 130 20:38 06.10.2019
6472 Rain 9 1010 87 10000 4.6 110 20:20 06.10.2019
6473 Rain 9 1010 87 10000 4.6 110 19:57 06.10.2019
6474 Rain 9 1010 87 10000 5.1 120 19:37 06.10.2019
6475 Rain 9 1010 87 10000 4.6 110 19:19 06.10.2019
6476 Rain 9 1010 93 10000 4.1 110 18:56 06.10.2019
6477 Rain 9 1010 93 10000 4.1 110 18:38 06.10.2019
6478 Drizzle 9 1010 93 4500 3.6 110 18:19 06.10.2019
6479 Drizzle 9 1010 93 4500 3.6 110 18:19 06.10.2019
6480 Rain 9 1010 93 6000 4.1 120 17:43 06.10.2019
6481 Rain 9 1010 93 6000 4.1 120 17:43 06.10.2019
6482 Rain 9 1010 93 9000 5.1 120 17:21 06.10.2019
6483 Rain 9 1010 93 9000 5.1 120 16:59 06.10.2019
6484 Rain 9 1010 93 6000 4.6 120 16:41 06.10.2019
6485 Rain 9 1011 93 8000 4.1 120 16:23 06.10.2019
6486 Rain 9 1011 100 6000 4.6 120 15:45 06.10.2019
6487 Rain 9 1011 100 6000 4.6 120 15:45 06.10.2019
6488 Rain 9 1012 93 4000 4.6 110 15:23 06.10.2019
6489 Rain 9 1012 93 4000 4.6 110 14:59 06.10.2019
6490 Rain 9 1012 93 7000 4.1 110 14:41 06.10.2019
6491 Rain 9 1012 93 4500 4.1 110 14:23 06.10.2019
6492 Rain 8 1013 100 4000 3.6 120 13:56 06.10.2019
6493 Rain 8 1013 100 4000 3.6 120 13:56 06.10.2019
6494 Rain 9 1013 100 4000 3.6 120 13:37 06.10.2019
6495 Rain 9 1012 93 5000 4.1 110 13:19 06.10.2019
6496 Rain 8 1013 93 10000 4.6 130 12:56 06.10.2019
6497 Rain 9 1013 93 10000 5.1 130 12:37 06.10.2019
6498 Rain 8 1013 93 10000 4.6 120 12:19 06.10.2019
6499 Rain 8 1014 93 10000 4.6 130 11:55 06.10.2019
6500 Rain 8 1014 93 10000 4.6 130 11:36 06.10.2019
6501 Rain 8 1014 87 10000 3.6 130 11:18 06.10.2019
6502 Rain 8 1014 81 10000 3.6 120 10:42 06.10.2019
6503 Rain 9 1014 76 10000 4.1 120 10:24 06.10.2019
6504 Rain 9 1014 76 10000 4.1 120 09:56 06.10.2019
6505 Rain 9 1014 76 10000 4.6 120 09:38 06.10.2019
6506 Clouds 9 1015 76 10000 3.6 120 09:18 06.10.2019
6507 Rain 9 1015 70 10000 3.6 110 08:40 06.10.2019
6508 Clouds 9 1015 76 10000 3.6 120 08:20 06.10.2019
6509 Clear 9 1015 76 10000 3.6 120 07:44 06.10.2019
6510 Clear 8 1015 81 10000 4.1 110 07:19 06.10.2019
6511 Clear 8 1016 81 10000 4.1 110 06:20 06.10.2019
6512 Clear 8 1017 81 10000 2.6 110 05:33 06.10.2019
6513 Clear 8 1018 81 10000 2.1 120 03:41 06.10.2019
6514 Clear 8 1018 81 10000 3.1 100 02:42 06.10.2019
6515 Clear 8 1018 81 10000 3.1 100 02:21 06.10.2019
6516 Clear 8 1018 81 10000 3.1 90 01:44 06.10.2019
6517 Clear 8 1018 87 10000 2.1 90 01:26 06.10.2019
6518 Clear 8 1019 81 10000 2.1 90 00:52 06.10.2019
6519 Clear 8 1019 81 10000 2.1 100 00:26 06.10.2019
6520 Clear 8 1019 81 10000 1.5 100 23:45 05.10.2019
6521 Clear 9 1019 81 10000 1.5 100 23:22 05.10.2019
6522 Clear 9 1019 87 10000 2.1 80 22:58 05.10.2019
6523 Clear 9 1019 87 10000 2.1 80 22:40 05.10.2019
6524 Clear 9 1019 87 10000 2.1 80 22:40 05.10.2019
6525 Clear 9 1019 81 10000 2.6 90 22:20 05.10.2019
6526 Clear 9 1019 81 10000 2.1 90 21:57 05.10.2019
6527 Clear 9 1019 81 10000 2.1 90 21:39 05.10.2019
6528 Clouds 9 1019 76 10000 1.5 110 21:20 05.10.2019
6529 Clouds 9 1018 76 10000 1.5 110 20:56 05.10.2019
6530 Clouds 10 1018 76 10000 1.5 110 20:37 05.10.2019
6531 Clouds 10 1018 71 10000 2.1 100 20:19 05.10.2019
6532 Clouds 10 1018 71 10000 2.1 100 20:19 05.10.2019
6533 Clouds 11 1018 71 10000 2.6 80 19:38 05.10.2019
6534 Clouds 11 1018 81 10000 1 0 19:20 05.10.2019
6535 Clouds 11 1018 71 10000 1.5 90 18:56 05.10.2019
6536 Clouds 12 1018 71 10000 1.5 90 18:38 05.10.2019
6537 Clouds 12 1017 66 10000 1.5 90 18:20 05.10.2019
6538 Clouds 12 1017 58 10000 2.1 80 17:46 05.10.2019
6539 Clouds 12 1017 66 10000 1.5 110 17:27 05.10.2019
6540 Clouds 12 1017 66 10000 1.5 110 16:59 05.10.2019
6541 Clouds 12 1017 62 10000 2.6 100 16:41 05.10.2019
6542 Clouds 12 1017 62 10000 2.6 120 16:21 05.10.2019
6543 Clouds 12 1017 62 10000 2.1 130 15:57 05.10.2019
6544 Clouds 12 1017 62 10000 2.1 130 15:39 05.10.2019
6545 Clouds 12 1017 66 10000 3.1 60 15:21 05.10.2019
6546 Clouds 12 1016 71 10000 2.1 110 14:56 05.10.2019
6547 Clouds 12 1016 71 10000 2.1 110 14:56 05.10.2019
6548 Clouds 12 1016 71 10000 2.1 110 14:56 05.10.2019
6549 Clouds 12 1016 71 10000 2.1 110 14:38 05.10.2019
6550 Clouds 11 1016 66 10000 3.1 60 14:20 05.10.2019
6551 Clouds 12 1016 66 10000 3.1 70 13:41 05.10.2019
6552 Clouds 11 1016 71 10000 3.1 60 13:22 05.10.2019
6553 Clouds 11 1016 71 10000 2.6 50 12:46 05.10.2019
6554 Clouds 11 1015 76 10000 3.1 20 12:21 05.10.2019
6555 Clouds 10 1015 76 10000 3.1 20 11:59 05.10.2019
6556 Clouds 10 1015 76 10000 2.1 40 11:37 05.10.2019
6557 Clouds 10 1015 81 10000 2.1 360 11:18 05.10.2019
6558 Clouds 10 1014 87 10000 2.1 10 10:45 05.10.2019
6559 Clouds 9 1014 87 10000 2.6 10 10:26 05.10.2019
6560 Clouds 9 1014 87 10000 2.6 10 09:59 05.10.2019
6561 Clouds 9 1013 93 10000 2.6 10 09:39 05.10.2019
6562 Clouds 9 1013 93 10000 2.1 350 09:20 05.10.2019
6563 Clouds 8 1012 93 10000 2.1 330 08:40 05.10.2019
6564 Clouds 8 1012 93 10000 2.6 340 08:20 05.10.2019
6565 Clouds 8 1011 93 10000 2.1 340 07:58 05.10.2019
6566 Clouds 9 1011 93 10000 2.6 330 07:37 05.10.2019
6567 Clouds 9 1011 93 10000 2.6 330 07:19 05.10.2019
6568 Clouds 9 1011 93 10000 2.1 320 06:28 05.10.2019
6569 Clouds 9 1010 100 9000 2.6 340 05:51 05.10.2019
6570 Clouds 9 1009 100 10000 2.6 340 04:33 05.10.2019
6571 Drizzle 10 1008 93 10000 3.6 340 03:29 05.10.2019
6572 Drizzle 10 1007 93 8000 6.2 320 01:52 05.10.2019
6573 Rain 11 1006 93 8000 5.7 280 01:23 05.10.2019
6574 Rain 11 1006 87 10000 6.7 270 00:45 05.10.2019
6575 Rain 11 1006 87 10000 6.7 250 00:26 05.10.2019
6576 Drizzle 12 1006 87 10000 6.2 260 23:45 04.10.2019
6577 Drizzle 12 1006 87 10000 6.2 260 23:26 04.10.2019
6578 Drizzle 12 1006 87 10000 6.2 260 22:59 04.10.2019
6579 Drizzle 12 1006 87 10000 5.7 260 22:41 04.10.2019
6580 Rain 12 1006 87 10000 5.1 260 22:22 04.10.2019
6581 Clouds 12 1005 87 10000 6.2 250 21:58 04.10.2019
6582 Clouds 12 1005 87 10000 6.2 250 21:39 04.10.2019
6583 Clouds 12 1005 87 10000 6.2 240 21:21 04.10.2019
6584 Clouds 12 1005 87 10000 5.7 240 20:57 04.10.2019
6585 Clouds 12 1005 87 10000 5.7 240 20:39 04.10.2019
6586 Clouds 12 1005 87 10000 4.6 250 20:21 04.10.2019
6587 -273 0 0 0 0 0 19:54 04.10.2019
6588 Rain 12 1005 87 10000 4.6 270 19:36 04.10.2019
6589 Rain 12 1004 87 10000 6.7 260 19:18 04.10.2019
6590 Rain 13 1004 87 10000 6.2 250 18:39 04.10.2019
6591 Rain 13 1004 93 10000 5.1 260 18:19 04.10.2019
6592 Rain 13 1004 93 10000 6.2 260 17:58 04.10.2019
6593 Rain 13 1004 93 10000 6.2 260 17:39 04.10.2019
6594 Rain 13 1004 87 10000 5.1 250 17:20 04.10.2019
6595 Rain 13 1004 87 10000 3.6 250 16:55 04.10.2019
6596 Rain 13 1004 87 10000 3.6 250 16:55 04.10.2019
6597 Rain 13 1004 87 10000 3.6 250 16:37 04.10.2019
6598 Rain 13 1004 87 10000 5.1 250 16:18 04.10.2019
6599 Rain 13 1004 87 10000 3.1 200 15:55 04.10.2019
6600 Rain 13 1004 87 10000 3.1 200 15:37 04.10.2019
6601 Rain 13 1004 87 10000 3.1 200 15:37 04.10.2019
6602 Rain 13 1004 87 10000 3.1 200 15:37 04.10.2019
6603 Rain 13 1004 87 10000 3.1 200 15:37 04.10.2019
6604 Rain 13 1004 93 10000 2.6 0 15:18 04.10.2019
6605 Clouds 13 1004 87 10000 4.1 170 14:54 04.10.2019
6606 Clouds 12 1004 87 10000 4.1 170 14:36 04.10.2019
6607 Clouds 12 1004 93 10000 4.1 170 14:18 04.10.2019
6608 Drizzle 11 1004 87 10000 5.7 170 13:42 04.10.2019
6609 Drizzle 11 1004 93 10000 5.1 160 13:19 04.10.2019
6610 Drizzle 10 1004 100 10000 5.1 150 12:46 04.10.2019
6611 Drizzle 9 1005 93 3500 5.1 140 12:28 04.10.2019
6612 Rain 9 1005 93 8000 4.6 140 11:59 04.10.2019
6613 Drizzle 9 1005 93 8000 4.6 140 11:40 04.10.2019
6614 Rain 9 1004 93 4000 3.1 140 11:20 04.10.2019
6615 Rain 9 1006 93 10000 6.2 130 10:40 04.10.2019
6616 Rain 9 1006 93 3500 7.2 140 10:20 04.10.2019
6617 Rain 9 1007 87 10000 6.2 150 09:47 04.10.2019
6618 Rain 9 1008 87 10000 4.1 150 09:28 04.10.2019
6619 Rain 9 1008 87 10000 4.1 150 08:56 04.10.2019
6620 Rain 9 1008 81 10000 4.1 140 08:38 04.10.2019
6621 Rain 9 1008 81 10000 3.1 120 08:20 04.10.2019
6622 Clear 9 1009 81 10000 4.6 140 07:45 04.10.2019
6623 Rain 9 1009 81 10000 3.6 120 07:22 04.10.2019
6624 Clear 9 1010 81 10000 3.1 120 06:47 04.10.2019
6625 Clear 9 1010 81 10000 3.6 110 06:27 04.10.2019
6626 Clear 9 1010 81 10000 3.1 120 05:52 04.10.2019
6627 Clear 9 1011 81 10000 3.6 140 05:19 04.10.2019
6628 Clear 9 1013 87 10000 3.6 130 03:50 04.10.2019
6629 Clear 9 1013 87 10000 2.6 130 02:54 04.10.2019
6630 Clear 9 1013 87 10000 2.6 130 02:54 04.10.2019
6631 Clear 9 1014 87 10000 2.6 130 02:21 04.10.2019
6632 Clear 9 1014 87 10000 3.1 140 01:43 04.10.2019
6633 Clear 9 1014 87 10000 2.1 130 01:24 04.10.2019
6634 Clear 9 1015 93 10000 2.6 140 00:18 04.10.2019
6635 Clear 10 1015 93 10000 2.6 130 23:37 03.10.2019
6636 Clear 10 1016 93 10000 2.1 150 23:18 03.10.2019
6637 Clouds 10 1016 93 10000 1 0 22:57 03.10.2019
6638 Clouds 10 1016 93 10000 1 0 22:39 03.10.2019
6639 Clouds 10 1016 87 10000 2.1 60 22:21 03.10.2019
6640 Clouds 10 1017 87 10000 1.5 20 21:56 03.10.2019
6641 Clouds 10 1017 87 10000 1.5 20 21:37 03.10.2019
6642 Clouds 11 1017 81 10000 1.5 360 21:19 03.10.2019
6643 Clouds 11 1017 81 10000 3.1 340 20:57 03.10.2019
6644 Clouds 11 1017 81 10000 3.1 340 20:37 03.10.2019
6645 Clouds 11 1017 76 10000 3.6 270 20:19 03.10.2019
6646 Clouds 11 1017 76 10000 3.6 280 19:55 03.10.2019
6647 Clouds 11 1017 76 10000 3.6 280 19:36 03.10.2019
6648 Clouds 11 1017 76 10000 3.6 290 19:18 03.10.2019
6649 Clouds 12 1017 76 10000 2.6 300 18:54 03.10.2019
6650 Clouds 12 1017 76 10000 2.6 300 18:36 03.10.2019
6651 Clouds 12 1017 76 10000 4.1 290 18:18 03.10.2019
6652 Rain 12 1017 87 10000 1 0 17:42 03.10.2019
6653 Rain 13 1017 87 10000 1.5 350 17:21 03.10.2019
6654 Rain 13 1017 81 10000 1 0 16:55 03.10.2019
6655 Rain 13 1017 81 10000 2.6 340 16:37 03.10.2019
6656 Rain 13 1017 81 10000 2.6 340 16:19 03.10.2019
6657 Rain 13 1017 76 10000 3.6 300 15:43 03.10.2019
6658 Rain 13 1018 81 10000 2.6 290 15:23 03.10.2019
6659 Rain 13 1018 81 10000 2.6 290 14:57 03.10.2019
6660 Rain 13 1018 87 10000 2.6 290 14:36 03.10.2019
6661 Rain 13 1018 87 10000 2.6 290 14:36 03.10.2019
6662 Rain 13 1018 87 10000 2.6 290 14:36 03.10.2019
6663 Rain 12 1018 93 10000 4.1 300 14:18 03.10.2019
6664 Rain 12 1018 87 10000 3.1 320 13:43 03.10.2019
6665 Rain 13 1018 76 10000 4.6 280 13:22 03.10.2019
6666 Rain 13 1018 76 10000 4.6 280 13:22 03.10.2019
6667 Clouds 12 1018 76 10000 4.6 270 12:58 03.10.2019
6668 Clouds 13 1018 76 10000 4.6 270 12:39 03.10.2019
6669 Clouds 13 1018 76 10000 4.6 270 12:39 03.10.2019
6670 Clouds 12 1019 76 10000 5.1 270 12:20 03.10.2019
6671 Clouds 12 1019 81 10000 4.6 260 11:58 03.10.2019
6672 Clouds 11 1019 81 10000 4.6 260 11:39 03.10.2019
6673 Clouds 11 1019 81 10000 4.1 260 11:21 03.10.2019
6674 Clouds 11 1019 87 10000 4.1 280 10:57 03.10.2019
6675 Clouds 10 1019 87 10000 4.1 280 10:38 03.10.2019
6676 Clouds 10 1019 81 10000 2.6 270 10:18 03.10.2019
6677 Clouds 10 1019 81 10000 3.1 270 09:56 03.10.2019
6678 Clouds 10 1019 81 10000 3.1 270 09:37 03.10.2019
6679 Clouds 9 1018 87 10000 2.1 250 09:19 03.10.2019
6680 Clouds 8 1018 87 10000 2.1 250 08:42 03.10.2019
6681 Clouds 8 1018 93 10000 0.5 0 08:23 03.10.2019
6682 Clouds 8 1018 93 10000 0.5 0 07:42 03.10.2019
6683 Clouds 8 1018 93 10000 1 0 07:20 03.10.2019
6684 Clouds 8 1018 93 10000 0.5 0 06:53 03.10.2019
6685 Clouds 8 1018 93 10000 2.1 280 06:27 03.10.2019
6686 Clouds 8 1018 93 10000 2.1 260 05:49 03.10.2019
6687 Clouds 8 1018 93 10000 1.5 230 05:29 03.10.2019
6688 Clouds 8 1018 87 10000 3.6 270 04:45 03.10.2019
6689 Clouds 8 1018 87 10000 3.1 290 03:55 03.10.2019
6690 Clouds 8 1018 87 10000 4.1 280 03:19 03.10.2019
6691 Clouds 9 1018 87 10000 3.1 290 02:27 03.10.2019
6692 Clouds 9 1018 87 10000 4.6 280 01:41 03.10.2019
6693 Clouds 9 1018 87 10000 5.1 290 00:53 03.10.2019
6694 Clouds 9 1018 87 10000 5.1 280 00:32 03.10.2019
6695 Clouds 9 1018 87 10000 5.1 280 00:32 03.10.2019
6696 Clouds 9 1017 81 10000 5.1 270 23:58 02.10.2019
6697 Clouds 9 1017 81 10000 5.1 270 23:38 02.10.2019
6698 Clouds 8 1017 81 10000 5.1 270 23:19 02.10.2019
6699 Clouds 8 1017 81 10000 4.1 270 22:42 02.10.2019
6700 Clouds 8 1016 81 10000 4.6 270 22:20 02.10.2019
6701 Clear 8 1016 81 10000 4.6 270 21:55 02.10.2019
6702 Clear 8 1016 81 10000 4.6 270 21:37 02.10.2019
6703 Clouds 8 1016 81 10000 4.6 270 21:19 02.10.2019
6704 Clouds 9 1015 87 10000 2.1 290 20:55 02.10.2019
6705 Clouds 9 1015 87 10000 2.1 290 20:37 02.10.2019
6706 Rain 9 1015 81 10000 1.5 310 20:19 02.10.2019
6707 Rain 10 1014 76 10000 2.1 360 19:46 02.10.2019
6708 Clouds 10 1014 76 10000 2.6 330 19:23 02.10.2019
6709 Clouds 10 1014 76 10000 2.6 330 19:23 02.10.2019